<?xml version="1.0" encoding="UTF-8" standalone="no" ?>
<gpx xmlns="http://www.topografix.com/GPX/1/1" xmlns:xsi="http://www.w3.org/2001/XMLSchema-instance" xsi:schemaLocation="http://www.topografix.com/GPX/1/1 http://www.topografix.com/GPX/1/1/gpx.xsd" version="1.1" creator="VisuGPX - https://www.visugpx.com">
  <metadata>
    <name>Trek au Ladakh</name>
    <desc><![CDATA[Trek au Ladakh - Septembre 2015]]></desc>
  </metadata>
  <trk>
    <name><![CDATA[Kaya (3380m) - Skyu (3350m) - Markha (3700m)]]></name>
    <trkseg>
      <trkpt lat="33.98276" lon="77.24899">
        <ele>2702.8</ele>
        <time>2015-09-02T01:55:36Z</time>
      </trkpt>
      <trkpt lat="33.98279" lon="77.24903">
        <ele>2938.8</ele>
        <time>2015-09-02T01:55:37Z</time>
      </trkpt>
      <trkpt lat="33.98282" lon="77.24907">
        <ele>3091.4</ele>
        <time>2015-09-02T01:55:38Z</time>
      </trkpt>
      <trkpt lat="33.98464" lon="77.25167">
        <ele>3203</ele>
        <time>2015-09-02T01:55:41Z</time>
      </trkpt>
      <trkpt lat="33.98505" lon="77.25212">
        <ele>3222</ele>
        <time>2015-09-02T01:55:42Z</time>
      </trkpt>
      <trkpt lat="33.98528" lon="77.25238">
        <ele>3231.6</ele>
        <time>2015-09-02T01:55:43Z</time>
      </trkpt>
      <trkpt lat="33.98554" lon="77.25266">
        <ele>3236.4</ele>
        <time>2015-09-02T01:55:44Z</time>
      </trkpt>
      <trkpt lat="33.98557" lon="77.25274">
        <ele>3238.8</ele>
        <time>2015-09-02T01:55:45Z</time>
      </trkpt>
      <trkpt lat="33.98562" lon="77.25285">
        <ele>3240</ele>
        <time>2015-09-02T01:55:46Z</time>
      </trkpt>
      <trkpt lat="33.98573" lon="77.25305">
        <ele>3240.8</ele>
        <time>2015-09-02T01:55:48Z</time>
      </trkpt>
      <trkpt lat="33.98584" lon="77.25325">
        <ele>3241</ele>
        <time>2015-09-02T01:55:50Z</time>
      </trkpt>
      <trkpt lat="33.98585" lon="77.25333">
        <ele>3241</ele>
        <time>2015-09-02T01:55:51Z</time>
      </trkpt>
      <trkpt lat="33.98584" lon="77.25342">
        <ele>3241.2</ele>
        <time>2015-09-02T01:55:54Z</time>
      </trkpt>
      <trkpt lat="33.98584" lon="77.25349">
        <ele>3241.4</ele>
        <time>2015-09-02T01:55:56Z</time>
      </trkpt>
      <trkpt lat="33.98582" lon="77.25353">
        <ele>3241.4</ele>
        <time>2015-09-02T01:55:58Z</time>
      </trkpt>
      <trkpt lat="33.98581" lon="77.25359">
        <ele>3241.6</ele>
        <time>2015-09-02T01:56:00Z</time>
      </trkpt>
      <trkpt lat="33.98581" lon="77.25371">
        <ele>3242.2</ele>
        <time>2015-09-02T01:56:06Z</time>
      </trkpt>
      <trkpt lat="33.98582" lon="77.25391">
        <ele>3242.6</ele>
        <time>2015-09-02T01:56:18Z</time>
      </trkpt>
      <trkpt lat="33.98576" lon="77.25397">
        <ele>3243.2</ele>
        <time>2015-09-02T01:56:24Z</time>
      </trkpt>
      <trkpt lat="33.98573" lon="77.25399">
        <ele>3243.4</ele>
        <time>2015-09-02T01:56:27Z</time>
      </trkpt>
      <trkpt lat="33.98564" lon="77.25401">
        <ele>3244.2</ele>
        <time>2015-09-02T01:56:34Z</time>
      </trkpt>
      <trkpt lat="33.98553" lon="77.25405">
        <ele>3245</ele>
        <time>2015-09-02T01:56:44Z</time>
      </trkpt>
      <trkpt lat="33.98547" lon="77.25407">
        <ele>3245.2</ele>
        <time>2015-09-02T01:56:48Z</time>
      </trkpt>
      <trkpt lat="33.98536" lon="77.25408">
        <ele>3245.6</ele>
        <time>2015-09-02T01:56:55Z</time>
      </trkpt>
      <trkpt lat="33.98533" lon="77.25411">
        <ele>3246</ele>
        <time>2015-09-02T01:56:59Z</time>
      </trkpt>
      <trkpt lat="33.98531" lon="77.25412">
        <ele>3246.4</ele>
        <time>2015-09-02T01:57:02Z</time>
      </trkpt>
      <trkpt lat="33.98522" lon="77.25414">
        <ele>3247.4</ele>
        <time>2015-09-02T01:57:11Z</time>
      </trkpt>
      <trkpt lat="33.98502" lon="77.25408">
        <ele>3248.4</ele>
        <time>2015-09-02T01:57:24Z</time>
      </trkpt>
      <trkpt lat="33.98501" lon="77.25427">
        <ele>3249.4</ele>
        <time>2015-09-02T01:57:39Z</time>
      </trkpt>
      <trkpt lat="33.9849" lon="77.2544">
        <ele>3250.4</ele>
        <time>2015-09-02T01:57:52Z</time>
      </trkpt>
      <trkpt lat="33.98483" lon="77.25454">
        <ele>3251.4</ele>
        <time>2015-09-02T01:58:04Z</time>
      </trkpt>
      <trkpt lat="33.9847" lon="77.25462">
        <ele>3252.6</ele>
        <time>2015-09-02T01:58:20Z</time>
      </trkpt>
      <trkpt lat="33.98464" lon="77.25471">
        <ele>3253.6</ele>
        <time>2015-09-02T01:58:30Z</time>
      </trkpt>
      <trkpt lat="33.98453" lon="77.25488">
        <ele>3254.6</ele>
        <time>2015-09-02T01:58:44Z</time>
      </trkpt>
      <trkpt lat="33.98434" lon="77.25493">
        <ele>3255.8</ele>
        <time>2015-09-02T01:58:59Z</time>
      </trkpt>
      <trkpt lat="33.98424" lon="77.25502">
        <ele>3256.8</ele>
        <time>2015-09-02T01:59:12Z</time>
      </trkpt>
      <trkpt lat="33.98411" lon="77.25507">
        <ele>3258</ele>
        <time>2015-09-02T01:59:26Z</time>
      </trkpt>
      <trkpt lat="33.98393" lon="77.25507">
        <ele>3259</ele>
        <time>2015-09-02T01:59:44Z</time>
      </trkpt>
      <trkpt lat="33.98386" lon="77.2552">
        <ele>3259.6</ele>
        <time>2015-09-02T01:59:54Z</time>
      </trkpt>
      <trkpt lat="33.98385" lon="77.2553">
        <ele>3260</ele>
        <time>2015-09-02T01:59:59Z</time>
      </trkpt>
      <trkpt lat="33.9838" lon="77.25545">
        <ele>3260.2</ele>
        <time>2015-09-02T02:00:07Z</time>
      </trkpt>
      <trkpt lat="33.98375" lon="77.25551">
        <ele>3261</ele>
        <time>2015-09-02T02:00:14Z</time>
      </trkpt>
      <trkpt lat="33.98374" lon="77.25553">
        <ele>3261</ele>
        <time>2015-09-02T02:00:15Z</time>
      </trkpt>
      <trkpt lat="33.98359" lon="77.25556">
        <ele>3262</ele>
        <time>2015-09-02T02:00:31Z</time>
      </trkpt>
      <trkpt lat="33.98353" lon="77.25561">
        <ele>3262.2</ele>
        <time>2015-09-02T02:00:36Z</time>
      </trkpt>
      <trkpt lat="33.98341" lon="77.25574">
        <ele>3263</ele>
        <time>2015-09-02T02:00:49Z</time>
      </trkpt>
      <trkpt lat="33.98324" lon="77.25581">
        <ele>3264.2</ele>
        <time>2015-09-02T02:01:04Z</time>
      </trkpt>
      <trkpt lat="33.98319" lon="77.25581">
        <ele>3264.4</ele>
        <time>2015-09-02T02:01:07Z</time>
      </trkpt>
      <trkpt lat="33.98311" lon="77.25584">
        <ele>3265</ele>
        <time>2015-09-02T02:01:17Z</time>
      </trkpt>
      <trkpt lat="33.98307" lon="77.25589">
        <ele>3265.2</ele>
        <time>2015-09-02T02:01:21Z</time>
      </trkpt>
      <trkpt lat="33.983" lon="77.25606">
        <ele>3266</ele>
        <time>2015-09-02T02:01:34Z</time>
      </trkpt>
      <trkpt lat="33.98297" lon="77.25613">
        <ele>3266.2</ele>
        <time>2015-09-02T02:01:38Z</time>
      </trkpt>
      <trkpt lat="33.98291" lon="77.25624">
        <ele>3267.2</ele>
        <time>2015-09-02T02:01:47Z</time>
      </trkpt>
      <trkpt lat="33.98288" lon="77.25633">
        <ele>3267.8</ele>
        <time>2015-09-02T02:01:53Z</time>
      </trkpt>
      <trkpt lat="33.98282" lon="77.25641">
        <ele>3268.2</ele>
        <time>2015-09-02T02:02:00Z</time>
      </trkpt>
      <trkpt lat="33.98272" lon="77.25654">
        <ele>3269.2</ele>
        <time>2015-09-02T02:02:13Z</time>
      </trkpt>
      <trkpt lat="33.98261" lon="77.25666">
        <ele>3270.4</ele>
        <time>2015-09-02T02:02:25Z</time>
      </trkpt>
      <trkpt lat="33.98254" lon="77.25682">
        <ele>3271.4</ele>
        <time>2015-09-02T02:02:35Z</time>
      </trkpt>
      <trkpt lat="33.98242" lon="77.25688">
        <ele>3272.4</ele>
        <time>2015-09-02T02:02:47Z</time>
      </trkpt>
      <trkpt lat="33.9824" lon="77.2569">
        <ele>3272.4</ele>
        <time>2015-09-02T02:02:49Z</time>
      </trkpt>
      <trkpt lat="33.98231" lon="77.25696">
        <ele>3273</ele>
        <time>2015-09-02T02:02:58Z</time>
      </trkpt>
      <trkpt lat="33.98226" lon="77.25704">
        <ele>3273.4</ele>
        <time>2015-09-02T02:03:05Z</time>
      </trkpt>
      <trkpt lat="33.98219" lon="77.25712">
        <ele>3274.6</ele>
        <time>2015-09-02T02:03:16Z</time>
      </trkpt>
      <trkpt lat="33.98212" lon="77.25716">
        <ele>3275</ele>
        <time>2015-09-02T02:03:23Z</time>
      </trkpt>
      <trkpt lat="33.982" lon="77.25722">
        <ele>3275.6</ele>
        <time>2015-09-02T02:03:32Z</time>
      </trkpt>
      <trkpt lat="33.98196" lon="77.25731">
        <ele>3276</ele>
        <time>2015-09-02T02:03:39Z</time>
      </trkpt>
      <trkpt lat="33.98193" lon="77.25736">
        <ele>3276.6</ele>
        <time>2015-09-02T02:03:46Z</time>
      </trkpt>
      <trkpt lat="33.98183" lon="77.25744">
        <ele>3277.6</ele>
        <time>2015-09-02T02:03:57Z</time>
      </trkpt>
      <trkpt lat="33.98175" lon="77.25766">
        <ele>3278.4</ele>
        <time>2015-09-02T02:04:10Z</time>
      </trkpt>
      <trkpt lat="33.98172" lon="77.25772">
        <ele>3278.6</ele>
        <time>2015-09-02T02:04:14Z</time>
      </trkpt>
      <trkpt lat="33.98166" lon="77.25789">
        <ele>3279.2</ele>
        <time>2015-09-02T02:04:26Z</time>
      </trkpt>
      <trkpt lat="33.98156" lon="77.25794">
        <ele>3279.6</ele>
        <time>2015-09-02T02:04:34Z</time>
      </trkpt>
      <trkpt lat="33.98156" lon="77.25795">
        <ele>3279.6</ele>
        <time>2015-09-02T02:04:35Z</time>
      </trkpt>
      <trkpt lat="33.98152" lon="77.25801">
        <ele>3280.4</ele>
        <time>2015-09-02T02:04:41Z</time>
      </trkpt>
      <trkpt lat="33.98151" lon="77.25803">
        <ele>3280.6</ele>
        <time>2015-09-02T02:04:43Z</time>
      </trkpt>
      <trkpt lat="33.9815" lon="77.25805">
        <ele>3280.6</ele>
        <time>2015-09-02T02:04:45Z</time>
      </trkpt>
      <trkpt lat="33.98136" lon="77.25819">
        <ele>3281.4</ele>
        <time>2015-09-02T02:04:59Z</time>
      </trkpt>
      <trkpt lat="33.98131" lon="77.25822">
        <ele>3281.8</ele>
        <time>2015-09-02T02:05:02Z</time>
      </trkpt>
      <trkpt lat="33.98119" lon="77.25825">
        <ele>3282.8</ele>
        <time>2015-09-02T02:05:11Z</time>
      </trkpt>
      <trkpt lat="33.98112" lon="77.2583">
        <ele>3283.4</ele>
        <time>2015-09-02T02:05:19Z</time>
      </trkpt>
      <trkpt lat="33.98112" lon="77.2584">
        <ele>3283.8</ele>
        <time>2015-09-02T02:05:25Z</time>
      </trkpt>
      <trkpt lat="33.98114" lon="77.25845">
        <ele>3283.8</ele>
        <time>2015-09-02T02:05:28Z</time>
      </trkpt>
      <trkpt lat="33.9811" lon="77.25868">
        <ele>3284.6</ele>
        <time>2015-09-02T02:05:41Z</time>
      </trkpt>
      <trkpt lat="33.98108" lon="77.25872">
        <ele>3284.8</ele>
        <time>2015-09-02T02:05:44Z</time>
      </trkpt>
      <trkpt lat="33.98095" lon="77.25879">
        <ele>3285.4</ele>
        <time>2015-09-02T02:05:55Z</time>
      </trkpt>
      <trkpt lat="33.98094" lon="77.2589">
        <ele>3285.8</ele>
        <time>2015-09-02T02:06:04Z</time>
      </trkpt>
      <trkpt lat="33.98095" lon="77.25892">
        <ele>3285.8</ele>
        <time>2015-09-02T02:06:05Z</time>
      </trkpt>
      <trkpt lat="33.98084" lon="77.25884">
        <ele>3285.8</ele>
        <time>2015-09-02T02:06:06Z</time>
      </trkpt>
      <trkpt lat="33.98077" lon="77.25878">
        <ele>3286</ele>
        <time>2015-09-02T02:06:08Z</time>
      </trkpt>
      <trkpt lat="33.98075" lon="77.25881">
        <ele>3286.2</ele>
        <time>2015-09-02T02:06:12Z</time>
      </trkpt>
      <trkpt lat="33.98076" lon="77.2589">
        <ele>3286.8</ele>
        <time>2015-09-02T02:06:19Z</time>
      </trkpt>
      <trkpt lat="33.98075" lon="77.25892">
        <ele>3287</ele>
        <time>2015-09-02T02:06:22Z</time>
      </trkpt>
      <trkpt lat="33.98076" lon="77.25894">
        <ele>3286.8</ele>
        <time>2015-09-02T02:06:25Z</time>
      </trkpt>
      <trkpt lat="33.98077" lon="77.25897">
        <ele>3286.8</ele>
        <time>2015-09-02T02:06:27Z</time>
      </trkpt>
      <trkpt lat="33.9808" lon="77.25904">
        <ele>3286.8</ele>
        <time>2015-09-02T02:06:29Z</time>
      </trkpt>
      <trkpt lat="33.98075" lon="77.25908">
        <ele>3286.6</ele>
        <time>2015-09-02T02:06:33Z</time>
      </trkpt>
      <trkpt lat="33.98074" lon="77.25911">
        <ele>3286.6</ele>
        <time>2015-09-02T02:06:35Z</time>
      </trkpt>
      <trkpt lat="33.98003" lon="77.25933">
        <ele>3290</ele>
        <time>2015-09-02T02:07:49Z</time>
      </trkpt>
      <trkpt lat="33.98" lon="77.25931">
        <ele>3290</ele>
        <time>2015-09-02T02:07:50Z</time>
      </trkpt>
      <trkpt lat="33.97998" lon="77.25933">
        <ele>3290.2</ele>
        <time>2015-09-02T02:07:52Z</time>
      </trkpt>
      <trkpt lat="33.97999" lon="77.25936">
        <ele>3290.4</ele>
        <time>2015-09-02T02:07:54Z</time>
      </trkpt>
      <trkpt lat="33.97996" lon="77.25938">
        <ele>3290.4</ele>
        <time>2015-09-02T02:07:57Z</time>
      </trkpt>
      <trkpt lat="33.97994" lon="77.25951">
        <ele>3291</ele>
        <time>2015-09-02T02:08:04Z</time>
      </trkpt>
      <trkpt lat="33.97997" lon="77.25961">
        <ele>3291.4</ele>
        <time>2015-09-02T02:08:08Z</time>
      </trkpt>
      <trkpt lat="33.98" lon="77.2597">
        <ele>3291.8</ele>
        <time>2015-09-02T02:08:11Z</time>
      </trkpt>
      <trkpt lat="33.97998" lon="77.25979">
        <ele>3292.2</ele>
        <time>2015-09-02T02:08:15Z</time>
      </trkpt>
      <trkpt lat="33.97992" lon="77.25986">
        <ele>3293.2</ele>
        <time>2015-09-02T02:08:24Z</time>
      </trkpt>
      <trkpt lat="33.97987" lon="77.2599">
        <ele>3294.2</ele>
        <time>2015-09-02T02:08:31Z</time>
      </trkpt>
      <trkpt lat="33.97985" lon="77.25989">
        <ele>3294.4</ele>
        <time>2015-09-02T02:08:32Z</time>
      </trkpt>
      <trkpt lat="33.97982" lon="77.25987">
        <ele>3294.8</ele>
        <time>2015-09-02T02:08:34Z</time>
      </trkpt>
      <trkpt lat="33.97982" lon="77.25992">
        <ele>3295.4</ele>
        <time>2015-09-02T02:08:37Z</time>
      </trkpt>
      <trkpt lat="33.97981" lon="77.25994">
        <ele>3296.6</ele>
        <time>2015-09-02T02:08:41Z</time>
      </trkpt>
      <trkpt lat="33.97981" lon="77.25998">
        <ele>3297.6</ele>
        <time>2015-09-02T02:08:45Z</time>
      </trkpt>
      <trkpt lat="33.9798" lon="77.26003">
        <ele>3298.6</ele>
        <time>2015-09-02T02:08:48Z</time>
      </trkpt>
      <trkpt lat="33.97978" lon="77.26007">
        <ele>3299</ele>
        <time>2015-09-02T02:08:51Z</time>
      </trkpt>
      <trkpt lat="33.9798" lon="77.26013">
        <ele>3299.2</ele>
        <time>2015-09-02T02:08:53Z</time>
      </trkpt>
      <trkpt lat="33.97983" lon="77.26017">
        <ele>3299.8</ele>
        <time>2015-09-02T02:08:57Z</time>
      </trkpt>
      <trkpt lat="33.97982" lon="77.26017">
        <ele>3300.2</ele>
        <time>2015-09-02T02:08:59Z</time>
      </trkpt>
      <trkpt lat="33.97979" lon="77.26017">
        <ele>3300.2</ele>
        <time>2015-09-02T02:09:01Z</time>
      </trkpt>
      <trkpt lat="33.97978" lon="77.26018">
        <ele>3300.4</ele>
        <time>2015-09-02T02:09:03Z</time>
      </trkpt>
      <trkpt lat="33.97974" lon="77.26017">
        <ele>3300.8</ele>
        <time>2015-09-02T02:09:06Z</time>
      </trkpt>
      <trkpt lat="33.97971" lon="77.26018">
        <ele>3301.2</ele>
        <time>2015-09-02T02:09:08Z</time>
      </trkpt>
      <trkpt lat="33.9797" lon="77.26019">
        <ele>3301.6</ele>
        <time>2015-09-02T02:09:10Z</time>
      </trkpt>
      <trkpt lat="33.97967" lon="77.2602">
        <ele>3302</ele>
        <time>2015-09-02T02:09:13Z</time>
      </trkpt>
      <trkpt lat="33.97968" lon="77.26023">
        <ele>3302.2</ele>
        <time>2015-09-02T02:09:15Z</time>
      </trkpt>
      <trkpt lat="33.97966" lon="77.2603">
        <ele>3303</ele>
        <time>2015-09-02T02:09:20Z</time>
      </trkpt>
      <trkpt lat="33.9796" lon="77.26032">
        <ele>3303.8</ele>
        <time>2015-09-02T02:09:25Z</time>
      </trkpt>
      <trkpt lat="33.97959" lon="77.26032">
        <ele>3304</ele>
        <time>2015-09-02T02:09:27Z</time>
      </trkpt>
      <trkpt lat="33.97957" lon="77.2603">
        <ele>3304.2</ele>
        <time>2015-09-02T02:09:28Z</time>
      </trkpt>
      <trkpt lat="33.97946" lon="77.26023">
        <ele>3304.4</ele>
        <time>2015-09-02T02:09:31Z</time>
      </trkpt>
      <trkpt lat="33.97945" lon="77.26024">
        <ele>3305.2</ele>
        <time>2015-09-02T02:09:36Z</time>
      </trkpt>
      <trkpt lat="33.97944" lon="77.2603">
        <ele>3305.8</ele>
        <time>2015-09-02T02:09:40Z</time>
      </trkpt>
      <trkpt lat="33.97948" lon="77.26035">
        <ele>3306.2</ele>
        <time>2015-09-02T02:09:44Z</time>
      </trkpt>
      <trkpt lat="33.97948" lon="77.26037">
        <ele>3306.2</ele>
        <time>2015-09-02T02:09:45Z</time>
      </trkpt>
      <trkpt lat="33.97949" lon="77.26041">
        <ele>3306.2</ele>
        <time>2015-09-02T02:09:47Z</time>
      </trkpt>
      <trkpt lat="33.97947" lon="77.26049">
        <ele>3306</ele>
        <time>2015-09-02T02:09:53Z</time>
      </trkpt>
      <trkpt lat="33.97949" lon="77.26051">
        <ele>3306.2</ele>
        <time>2015-09-02T02:09:56Z</time>
      </trkpt>
      <trkpt lat="33.97951" lon="77.26053">
        <ele>3306.4</ele>
        <time>2015-09-02T02:09:58Z</time>
      </trkpt>
      <trkpt lat="33.9795" lon="77.26058">
        <ele>3307</ele>
        <time>2015-09-02T02:10:02Z</time>
      </trkpt>
      <trkpt lat="33.9795" lon="77.26061">
        <ele>3307.2</ele>
        <time>2015-09-02T02:10:04Z</time>
      </trkpt>
      <trkpt lat="33.9795" lon="77.26065">
        <ele>3307.6</ele>
        <time>2015-09-02T02:10:09Z</time>
      </trkpt>
      <trkpt lat="33.97951" lon="77.26067">
        <ele>3308</ele>
        <time>2015-09-02T02:10:12Z</time>
      </trkpt>
      <trkpt lat="33.97952" lon="77.26069">
        <ele>3308.4</ele>
        <time>2015-09-02T02:10:14Z</time>
      </trkpt>
      <trkpt lat="33.97953" lon="77.26078">
        <ele>3309.4</ele>
        <time>2015-09-02T02:10:22Z</time>
      </trkpt>
      <trkpt lat="33.97954" lon="77.26081">
        <ele>3309.4</ele>
        <time>2015-09-02T02:10:24Z</time>
      </trkpt>
      <trkpt lat="33.97954" lon="77.26084">
        <ele>3309.6</ele>
        <time>2015-09-02T02:10:26Z</time>
      </trkpt>
      <trkpt lat="33.97953" lon="77.26091">
        <ele>3310.6</ele>
        <time>2015-09-02T02:10:33Z</time>
      </trkpt>
      <trkpt lat="33.97953" lon="77.26096">
        <ele>3311.6</ele>
        <time>2015-09-02T02:10:43Z</time>
      </trkpt>
      <trkpt lat="33.97954" lon="77.26099">
        <ele>3312.8</ele>
        <time>2015-09-02T02:10:48Z</time>
      </trkpt>
      <trkpt lat="33.97952" lon="77.26104">
        <ele>3313.8</ele>
        <time>2015-09-02T02:10:56Z</time>
      </trkpt>
      <trkpt lat="33.97954" lon="77.2611">
        <ele>3314.8</ele>
        <time>2015-09-02T02:11:03Z</time>
      </trkpt>
      <trkpt lat="33.97956" lon="77.26113">
        <ele>3315.2</ele>
        <time>2015-09-02T02:11:06Z</time>
      </trkpt>
      <trkpt lat="33.97955" lon="77.26118">
        <ele>3315.8</ele>
        <time>2015-09-02T02:11:11Z</time>
      </trkpt>
      <trkpt lat="33.97953" lon="77.26122">
        <ele>3316.2</ele>
        <time>2015-09-02T02:11:16Z</time>
      </trkpt>
      <trkpt lat="33.97954" lon="77.26128">
        <ele>3316.8</ele>
        <time>2015-09-02T02:11:20Z</time>
      </trkpt>
      <trkpt lat="33.97954" lon="77.2613">
        <ele>3316.8</ele>
        <time>2015-09-02T02:11:22Z</time>
      </trkpt>
      <trkpt lat="33.97956" lon="77.26132">
        <ele>3316.8</ele>
        <time>2015-09-02T02:11:24Z</time>
      </trkpt>
      <trkpt lat="33.97956" lon="77.26137">
        <ele>3317.2</ele>
        <time>2015-09-02T02:11:28Z</time>
      </trkpt>
      <trkpt lat="33.97955" lon="77.26139">
        <ele>3318</ele>
        <time>2015-09-02T02:11:32Z</time>
      </trkpt>
      <trkpt lat="33.97956" lon="77.26136">
        <ele>3319</ele>
        <time>2015-09-02T02:11:56Z</time>
      </trkpt>
      <trkpt lat="33.97957" lon="77.26136">
        <ele>3319</ele>
        <time>2015-09-02T02:11:57Z</time>
      </trkpt>
      <trkpt lat="33.97955" lon="77.26129">
        <ele>3318.8</ele>
        <time>2015-09-02T02:12:00Z</time>
      </trkpt>
      <trkpt lat="33.97956" lon="77.26128">
        <ele>3318.8</ele>
        <time>2015-09-02T02:12:03Z</time>
      </trkpt>
      <trkpt lat="33.97957" lon="77.26115">
        <ele>3319</ele>
        <time>2015-09-02T02:12:07Z</time>
      </trkpt>
      <trkpt lat="33.97961" lon="77.26118">
        <ele>3319.4</ele>
        <time>2015-09-02T02:12:17Z</time>
      </trkpt>
      <trkpt lat="33.9796" lon="77.26121">
        <ele>3319.4</ele>
        <time>2015-09-02T02:12:19Z</time>
      </trkpt>
      <trkpt lat="33.9796" lon="77.26127">
        <ele>3319.4</ele>
        <time>2015-09-02T02:12:23Z</time>
      </trkpt>
      <trkpt lat="33.97957" lon="77.26131">
        <ele>3319.2</ele>
        <time>2015-09-02T02:12:26Z</time>
      </trkpt>
      <trkpt lat="33.97955" lon="77.2613">
        <ele>3319.4</ele>
        <time>2015-09-02T02:12:28Z</time>
      </trkpt>
      <trkpt lat="33.97954" lon="77.26135">
        <ele>3320</ele>
        <time>2015-09-02T02:12:32Z</time>
      </trkpt>
      <trkpt lat="33.97953" lon="77.26135">
        <ele>3320</ele>
        <time>2015-09-02T02:12:33Z</time>
      </trkpt>
      <trkpt lat="33.97948" lon="77.26141">
        <ele>3320.6</ele>
        <time>2015-09-02T02:12:41Z</time>
      </trkpt>
      <trkpt lat="33.97948" lon="77.26143">
        <ele>3320.4</ele>
        <time>2015-09-02T02:12:43Z</time>
      </trkpt>
      <trkpt lat="33.97948" lon="77.26147">
        <ele>3320.6</ele>
        <time>2015-09-02T02:12:46Z</time>
      </trkpt>
      <trkpt lat="33.97949" lon="77.26151">
        <ele>3321</ele>
        <time>2015-09-02T02:12:49Z</time>
      </trkpt>
      <trkpt lat="33.97949" lon="77.26151">
        <ele>3321.2</ele>
        <time>2015-09-02T02:12:50Z</time>
      </trkpt>
      <trkpt lat="33.97941" lon="77.26155">
        <ele>3320.4</ele>
        <time>2015-09-02T02:13:01Z</time>
      </trkpt>
      <trkpt lat="33.97939" lon="77.26159">
        <ele>3320.4</ele>
        <time>2015-09-02T02:13:07Z</time>
      </trkpt>
      <trkpt lat="33.97932" lon="77.26175">
        <ele>3322</ele>
        <time>2015-09-02T02:13:30Z</time>
      </trkpt>
      <trkpt lat="33.97932" lon="77.26186">
        <ele>3322.2</ele>
        <time>2015-09-02T02:13:43Z</time>
      </trkpt>
      <trkpt lat="33.97932" lon="77.26188">
        <ele>3322.4</ele>
        <time>2015-09-02T02:13:46Z</time>
      </trkpt>
      <trkpt lat="33.97942" lon="77.26198">
        <ele>3322</ele>
        <time>2015-09-02T02:13:59Z</time>
      </trkpt>
      <trkpt lat="33.97948" lon="77.26205">
        <ele>3321.6</ele>
        <time>2015-09-02T02:14:03Z</time>
      </trkpt>
      <trkpt lat="33.97951" lon="77.26209">
        <ele>3321.6</ele>
        <time>2015-09-02T02:14:05Z</time>
      </trkpt>
      <trkpt lat="33.97956" lon="77.26213">
        <ele>3321.6</ele>
        <time>2015-09-02T02:14:10Z</time>
      </trkpt>
      <trkpt lat="33.97966" lon="77.26224">
        <ele>3321.2</ele>
        <time>2015-09-02T02:14:24Z</time>
      </trkpt>
      <trkpt lat="33.97969" lon="77.26231">
        <ele>3321</ele>
        <time>2015-09-02T02:14:32Z</time>
      </trkpt>
      <trkpt lat="33.97978" lon="77.26251">
        <ele>3320.6</ele>
        <time>2015-09-02T02:14:44Z</time>
      </trkpt>
      <trkpt lat="33.97983" lon="77.26262">
        <ele>3320.6</ele>
        <time>2015-09-02T02:14:55Z</time>
      </trkpt>
      <trkpt lat="33.97985" lon="77.26267">
        <ele>3320.2</ele>
        <time>2015-09-02T02:15:02Z</time>
      </trkpt>
      <trkpt lat="33.97988" lon="77.26268">
        <ele>3319.8</ele>
        <time>2015-09-02T02:15:05Z</time>
      </trkpt>
      <trkpt lat="33.9799" lon="77.26268">
        <ele>3319.8</ele>
        <time>2015-09-02T02:15:07Z</time>
      </trkpt>
      <trkpt lat="33.97993" lon="77.26269">
        <ele>3319.8</ele>
        <time>2015-09-02T02:15:11Z</time>
      </trkpt>
      <trkpt lat="33.97994" lon="77.26278">
        <ele>3319.8</ele>
        <time>2015-09-02T02:15:16Z</time>
      </trkpt>
      <trkpt lat="33.97997" lon="77.26289">
        <ele>3320</ele>
        <time>2015-09-02T02:15:22Z</time>
      </trkpt>
      <trkpt lat="33.98002" lon="77.26303">
        <ele>3320.6</ele>
        <time>2015-09-02T02:15:33Z</time>
      </trkpt>
      <trkpt lat="33.98004" lon="77.26304">
        <ele>3320.8</ele>
        <time>2015-09-02T02:15:35Z</time>
      </trkpt>
      <trkpt lat="33.98006" lon="77.26305">
        <ele>3321.2</ele>
        <time>2015-09-02T02:15:39Z</time>
      </trkpt>
      <trkpt lat="33.98011" lon="77.2632">
        <ele>3322</ele>
        <time>2015-09-02T02:15:52Z</time>
      </trkpt>
      <trkpt lat="33.98012" lon="77.26323">
        <ele>3322.2</ele>
        <time>2015-09-02T02:15:56Z</time>
      </trkpt>
      <trkpt lat="33.98015" lon="77.26333">
        <ele>3322.4</ele>
        <time>2015-09-02T02:16:07Z</time>
      </trkpt>
      <trkpt lat="33.98015" lon="77.26334">
        <ele>3322.4</ele>
        <time>2015-09-02T02:16:10Z</time>
      </trkpt>
      <trkpt lat="33.9802" lon="77.26342">
        <ele>3322.6</ele>
        <time>2015-09-02T02:16:20Z</time>
      </trkpt>
      <trkpt lat="33.98021" lon="77.26347">
        <ele>3322.8</ele>
        <time>2015-09-02T02:16:28Z</time>
      </trkpt>
      <trkpt lat="33.98022" lon="77.26349">
        <ele>3322.8</ele>
        <time>2015-09-02T02:16:30Z</time>
      </trkpt>
      <trkpt lat="33.98024" lon="77.26355">
        <ele>3323.4</ele>
        <time>2015-09-02T02:16:35Z</time>
      </trkpt>
      <trkpt lat="33.98033" lon="77.26357">
        <ele>3324</ele>
        <time>2015-09-02T02:16:49Z</time>
      </trkpt>
      <trkpt lat="33.98038" lon="77.2636">
        <ele>3324.2</ele>
        <time>2015-09-02T02:16:54Z</time>
      </trkpt>
      <trkpt lat="33.9804" lon="77.26362">
        <ele>3324.4</ele>
        <time>2015-09-02T02:16:57Z</time>
      </trkpt>
      <trkpt lat="33.98043" lon="77.26372">
        <ele>3324.4</ele>
        <time>2015-09-02T02:17:01Z</time>
      </trkpt>
      <trkpt lat="33.98051" lon="77.26391">
        <ele>3324.8</ele>
        <time>2015-09-02T02:17:14Z</time>
      </trkpt>
      <trkpt lat="33.98055" lon="77.26398">
        <ele>3325.4</ele>
        <time>2015-09-02T02:17:23Z</time>
      </trkpt>
      <trkpt lat="33.98062" lon="77.26406">
        <ele>3326</ele>
        <time>2015-09-02T02:17:32Z</time>
      </trkpt>
      <trkpt lat="33.98068" lon="77.26408">
        <ele>3326.2</ele>
        <time>2015-09-02T02:17:38Z</time>
      </trkpt>
      <trkpt lat="33.98067" lon="77.2641">
        <ele>3326.4</ele>
        <time>2015-09-02T02:17:40Z</time>
      </trkpt>
      <trkpt lat="33.98071" lon="77.26414">
        <ele>3326.4</ele>
        <time>2015-09-02T02:17:45Z</time>
      </trkpt>
      <trkpt lat="33.98071" lon="77.2642">
        <ele>3326.2</ele>
        <time>2015-09-02T02:17:49Z</time>
      </trkpt>
      <trkpt lat="33.98073" lon="77.2642">
        <ele>3326.2</ele>
        <time>2015-09-02T02:17:51Z</time>
      </trkpt>
      <trkpt lat="33.98072" lon="77.2643">
        <ele>3327.4</ele>
        <time>2015-09-02T02:18:14Z</time>
      </trkpt>
      <trkpt lat="33.98074" lon="77.2644">
        <ele>3327.6</ele>
        <time>2015-09-02T02:18:20Z</time>
      </trkpt>
      <trkpt lat="33.98079" lon="77.26448">
        <ele>3327.6</ele>
        <time>2015-09-02T02:18:23Z</time>
      </trkpt>
      <trkpt lat="33.9808" lon="77.2645">
        <ele>3327.6</ele>
        <time>2015-09-02T02:18:25Z</time>
      </trkpt>
      <trkpt lat="33.9808" lon="77.26454">
        <ele>3327.6</ele>
        <time>2015-09-02T02:18:28Z</time>
      </trkpt>
      <trkpt lat="33.98079" lon="77.26459">
        <ele>3327.8</ele>
        <time>2015-09-02T02:18:35Z</time>
      </trkpt>
      <trkpt lat="33.98079" lon="77.26462">
        <ele>3327.8</ele>
        <time>2015-09-02T02:18:37Z</time>
      </trkpt>
      <trkpt lat="33.9808" lon="77.26464">
        <ele>3327.8</ele>
        <time>2015-09-02T02:18:39Z</time>
      </trkpt>
      <trkpt lat="33.98097" lon="77.26477">
        <ele>3328.2</ele>
        <time>2015-09-02T02:18:54Z</time>
      </trkpt>
      <trkpt lat="33.98097" lon="77.26481">
        <ele>3328.2</ele>
        <time>2015-09-02T02:19:00Z</time>
      </trkpt>
      <trkpt lat="33.98099" lon="77.26488">
        <ele>3328.4</ele>
        <time>2015-09-02T02:19:04Z</time>
      </trkpt>
      <trkpt lat="33.98105" lon="77.26509">
        <ele>3329</ele>
        <time>2015-09-02T02:19:18Z</time>
      </trkpt>
      <trkpt lat="33.98107" lon="77.26514">
        <ele>3329.4</ele>
        <time>2015-09-02T02:19:24Z</time>
      </trkpt>
      <trkpt lat="33.98106" lon="77.26524">
        <ele>3329.8</ele>
        <time>2015-09-02T02:19:40Z</time>
      </trkpt>
      <trkpt lat="33.9812" lon="77.26542">
        <ele>3329.8</ele>
        <time>2015-09-02T02:19:49Z</time>
      </trkpt>
      <trkpt lat="33.98114" lon="77.26542">
        <ele>3329.8</ele>
        <time>2015-09-02T02:19:51Z</time>
      </trkpt>
      <trkpt lat="33.9811" lon="77.26542">
        <ele>3329.8</ele>
        <time>2015-09-02T02:19:53Z</time>
      </trkpt>
      <trkpt lat="33.98109" lon="77.26546">
        <ele>3329.8</ele>
        <time>2015-09-02T02:19:56Z</time>
      </trkpt>
      <trkpt lat="33.98114" lon="77.26552">
        <ele>3330.2</ele>
        <time>2015-09-02T02:20:06Z</time>
      </trkpt>
      <trkpt lat="33.98109" lon="77.26551">
        <ele>3330.2</ele>
        <time>2015-09-02T02:20:08Z</time>
      </trkpt>
      <trkpt lat="33.98107" lon="77.26556">
        <ele>3330.4</ele>
        <time>2015-09-02T02:20:16Z</time>
      </trkpt>
      <trkpt lat="33.98112" lon="77.26566">
        <ele>3330.6</ele>
        <time>2015-09-02T02:20:24Z</time>
      </trkpt>
      <trkpt lat="33.98111" lon="77.26587">
        <ele>3331.2</ele>
        <time>2015-09-02T02:20:42Z</time>
      </trkpt>
      <trkpt lat="33.9811" lon="77.26592">
        <ele>3331.4</ele>
        <time>2015-09-02T02:20:46Z</time>
      </trkpt>
      <trkpt lat="33.9811" lon="77.26598">
        <ele>3331.6</ele>
        <time>2015-09-02T02:20:52Z</time>
      </trkpt>
      <trkpt lat="33.98113" lon="77.26607">
        <ele>3331.8</ele>
        <time>2015-09-02T02:20:57Z</time>
      </trkpt>
      <trkpt lat="33.98117" lon="77.26624">
        <ele>3332.4</ele>
        <time>2015-09-02T02:21:11Z</time>
      </trkpt>
      <trkpt lat="33.98118" lon="77.26624">
        <ele>3332.4</ele>
        <time>2015-09-02T02:21:12Z</time>
      </trkpt>
      <trkpt lat="33.98122" lon="77.26628">
        <ele>3333.6</ele>
        <time>2015-09-02T02:21:19Z</time>
      </trkpt>
      <trkpt lat="33.98126" lon="77.26632">
        <ele>3334.6</ele>
        <time>2015-09-02T02:21:24Z</time>
      </trkpt>
      <trkpt lat="33.98125" lon="77.26633">
        <ele>3335</ele>
        <time>2015-09-02T02:21:27Z</time>
      </trkpt>
      <trkpt lat="33.98123" lon="77.26635">
        <ele>3335.2</ele>
        <time>2015-09-02T02:21:29Z</time>
      </trkpt>
      <trkpt lat="33.98122" lon="77.26637">
        <ele>3335.4</ele>
        <time>2015-09-02T02:21:31Z</time>
      </trkpt>
      <trkpt lat="33.9813" lon="77.26658">
        <ele>3335</ele>
        <time>2015-09-02T02:21:44Z</time>
      </trkpt>
      <trkpt lat="33.98129" lon="77.26663">
        <ele>3335</ele>
        <time>2015-09-02T02:21:48Z</time>
      </trkpt>
      <trkpt lat="33.98125" lon="77.26677">
        <ele>3334.8</ele>
        <time>2015-09-02T02:22:00Z</time>
      </trkpt>
      <trkpt lat="33.98126" lon="77.26685">
        <ele>3335.6</ele>
        <time>2015-09-02T02:22:06Z</time>
      </trkpt>
      <trkpt lat="33.98125" lon="77.2669">
        <ele>3336.8</ele>
        <time>2015-09-02T02:22:13Z</time>
      </trkpt>
      <trkpt lat="33.98127" lon="77.26693">
        <ele>3337</ele>
        <time>2015-09-02T02:22:19Z</time>
      </trkpt>
      <trkpt lat="33.98128" lon="77.2671">
        <ele>3336</ele>
        <time>2015-09-02T02:22:33Z</time>
      </trkpt>
      <trkpt lat="33.98129" lon="77.26712">
        <ele>3336.2</ele>
        <time>2015-09-02T02:22:35Z</time>
      </trkpt>
      <trkpt lat="33.98127" lon="77.26714">
        <ele>3336.4</ele>
        <time>2015-09-02T02:22:37Z</time>
      </trkpt>
      <trkpt lat="33.98122" lon="77.26735">
        <ele>3337.6</ele>
        <time>2015-09-02T02:22:54Z</time>
      </trkpt>
      <trkpt lat="33.98117" lon="77.26753">
        <ele>3337.8</ele>
        <time>2015-09-02T02:23:08Z</time>
      </trkpt>
      <trkpt lat="33.98117" lon="77.26755">
        <ele>3338.2</ele>
        <time>2015-09-02T02:23:10Z</time>
      </trkpt>
      <trkpt lat="33.98118" lon="77.26757">
        <ele>3338.2</ele>
        <time>2015-09-02T02:23:13Z</time>
      </trkpt>
      <trkpt lat="33.98117" lon="77.26757">
        <ele>3338.2</ele>
        <time>2015-09-02T02:23:15Z</time>
      </trkpt>
      <trkpt lat="33.98115" lon="77.26756">
        <ele>3338.2</ele>
        <time>2015-09-02T02:23:18Z</time>
      </trkpt>
      <trkpt lat="33.98105" lon="77.26773">
        <ele>3338.6</ele>
        <time>2015-09-02T02:23:33Z</time>
      </trkpt>
      <trkpt lat="33.98104" lon="77.2678">
        <ele>3338.6</ele>
        <time>2015-09-02T02:23:39Z</time>
      </trkpt>
      <trkpt lat="33.98098" lon="77.26797">
        <ele>3339</ele>
        <time>2015-09-02T02:23:52Z</time>
      </trkpt>
      <trkpt lat="33.98094" lon="77.26806">
        <ele>3339.2</ele>
        <time>2015-09-02T02:24:01Z</time>
      </trkpt>
      <trkpt lat="33.98092" lon="77.26808">
        <ele>3339.2</ele>
        <time>2015-09-02T02:24:03Z</time>
      </trkpt>
      <trkpt lat="33.98088" lon="77.2681">
        <ele>3339.2</ele>
        <time>2015-09-02T02:24:07Z</time>
      </trkpt>
      <trkpt lat="33.98085" lon="77.26811">
        <ele>3339.2</ele>
        <time>2015-09-02T02:24:12Z</time>
      </trkpt>
      <trkpt lat="33.98084" lon="77.26813">
        <ele>3339.2</ele>
        <time>2015-09-02T02:24:14Z</time>
      </trkpt>
      <trkpt lat="33.98078" lon="77.26819">
        <ele>3339</ele>
        <time>2015-09-02T02:24:22Z</time>
      </trkpt>
      <trkpt lat="33.98077" lon="77.2682">
        <ele>3339</ele>
        <time>2015-09-02T02:24:24Z</time>
      </trkpt>
      <trkpt lat="33.98077" lon="77.26818">
        <ele>3339</ele>
        <time>2015-09-02T02:24:30Z</time>
      </trkpt>
      <trkpt lat="33.98079" lon="77.26821">
        <ele>3339</ele>
        <time>2015-09-02T02:24:34Z</time>
      </trkpt>
      <trkpt lat="33.9809" lon="77.26824">
        <ele>3339.2</ele>
        <time>2015-09-02T02:24:39Z</time>
      </trkpt>
      <trkpt lat="33.98086" lon="77.26826">
        <ele>3339.4</ele>
        <time>2015-09-02T02:24:43Z</time>
      </trkpt>
      <trkpt lat="33.98093" lon="77.26831">
        <ele>3339.6</ele>
        <time>2015-09-02T02:24:48Z</time>
      </trkpt>
      <trkpt lat="33.98093" lon="77.26831">
        <ele>3339.6</ele>
        <time>2015-09-02T02:24:50Z</time>
      </trkpt>
      <trkpt lat="33.9808" lon="77.26834">
        <ele>3339.4</ele>
        <time>2015-09-02T02:25:00Z</time>
      </trkpt>
      <trkpt lat="33.9808" lon="77.26835">
        <ele>3339.4</ele>
        <time>2015-09-02T02:25:01Z</time>
      </trkpt>
      <trkpt lat="33.98075" lon="77.2683">
        <ele>3339.6</ele>
        <time>2015-09-02T02:25:07Z</time>
      </trkpt>
      <trkpt lat="33.98075" lon="77.26826">
        <ele>3339.8</ele>
        <time>2015-09-02T02:25:40Z</time>
      </trkpt>
      <trkpt lat="33.98079" lon="77.26822">
        <ele>3339.8</ele>
        <time>2015-09-02T02:25:46Z</time>
      </trkpt>
      <trkpt lat="33.98077" lon="77.2682">
        <ele>3340</ele>
        <time>2015-09-02T02:25:48Z</time>
      </trkpt>
      <trkpt lat="33.98075" lon="77.26818">
        <ele>3340</ele>
        <time>2015-09-02T02:25:49Z</time>
      </trkpt>
      <trkpt lat="33.98073" lon="77.26817">
        <ele>3340</ele>
        <time>2015-09-02T02:25:50Z</time>
      </trkpt>
      <trkpt lat="33.9807" lon="77.26816">
        <ele>3340</ele>
        <time>2015-09-02T02:25:52Z</time>
      </trkpt>
      <trkpt lat="33.98072" lon="77.26816">
        <ele>3339.8</ele>
        <time>2015-09-02T02:25:55Z</time>
      </trkpt>
      <trkpt lat="33.98072" lon="77.26823">
        <ele>3340.2</ele>
        <time>2015-09-02T02:26:00Z</time>
      </trkpt>
      <trkpt lat="33.98072" lon="77.26827">
        <ele>3341.2</ele>
        <time>2015-09-02T02:26:04Z</time>
      </trkpt>
      <trkpt lat="33.9807" lon="77.26836">
        <ele>3342.2</ele>
        <time>2015-09-02T02:26:13Z</time>
      </trkpt>
      <trkpt lat="33.9807" lon="77.26838">
        <ele>3342</ele>
        <time>2015-09-02T02:26:15Z</time>
      </trkpt>
      <trkpt lat="33.9807" lon="77.26846">
        <ele>3341.8</ele>
        <time>2015-09-02T02:26:21Z</time>
      </trkpt>
      <trkpt lat="33.98071" lon="77.26858">
        <ele>3341.4</ele>
        <time>2015-09-02T02:26:31Z</time>
      </trkpt>
      <trkpt lat="33.98074" lon="77.26862">
        <ele>3341.2</ele>
        <time>2015-09-02T02:26:36Z</time>
      </trkpt>
      <trkpt lat="33.98084" lon="77.26873">
        <ele>3341.6</ele>
        <time>2015-09-02T02:26:45Z</time>
      </trkpt>
      <trkpt lat="33.98082" lon="77.26887">
        <ele>3342</ele>
        <time>2015-09-02T02:26:56Z</time>
      </trkpt>
      <trkpt lat="33.98079" lon="77.26888">
        <ele>3342.2</ele>
        <time>2015-09-02T02:27:00Z</time>
      </trkpt>
      <trkpt lat="33.98078" lon="77.26895">
        <ele>3342.6</ele>
        <time>2015-09-02T02:27:06Z</time>
      </trkpt>
      <trkpt lat="33.98076" lon="77.26903">
        <ele>3343.2</ele>
        <time>2015-09-02T02:27:11Z</time>
      </trkpt>
      <trkpt lat="33.98074" lon="77.26908">
        <ele>3344</ele>
        <time>2015-09-02T02:27:17Z</time>
      </trkpt>
      <trkpt lat="33.98072" lon="77.26917">
        <ele>3344</ele>
        <time>2015-09-02T02:27:23Z</time>
      </trkpt>
      <trkpt lat="33.98071" lon="77.26928">
        <ele>3343.8</ele>
        <time>2015-09-02T02:27:32Z</time>
      </trkpt>
      <trkpt lat="33.98072" lon="77.26932">
        <ele>3343.6</ele>
        <time>2015-09-02T02:27:35Z</time>
      </trkpt>
      <trkpt lat="33.98069" lon="77.26941">
        <ele>3344.4</ele>
        <time>2015-09-02T02:27:43Z</time>
      </trkpt>
      <trkpt lat="33.98068" lon="77.26945">
        <ele>3344.8</ele>
        <time>2015-09-02T02:27:46Z</time>
      </trkpt>
      <trkpt lat="33.98058" lon="77.2695">
        <ele>3345</ele>
        <time>2015-09-02T02:27:55Z</time>
      </trkpt>
      <trkpt lat="33.98052" lon="77.26956">
        <ele>3345.2</ele>
        <time>2015-09-02T02:28:03Z</time>
      </trkpt>
      <trkpt lat="33.9805" lon="77.26958">
        <ele>3345.4</ele>
        <time>2015-09-02T02:28:05Z</time>
      </trkpt>
      <trkpt lat="33.98049" lon="77.26958">
        <ele>3345.4</ele>
        <time>2015-09-02T02:28:06Z</time>
      </trkpt>
      <trkpt lat="33.98046" lon="77.26963">
        <ele>3345.6</ele>
        <time>2015-09-02T02:28:10Z</time>
      </trkpt>
      <trkpt lat="33.98044" lon="77.26968">
        <ele>3345.2</ele>
        <time>2015-09-02T02:28:15Z</time>
      </trkpt>
      <trkpt lat="33.98043" lon="77.26972">
        <ele>3345.4</ele>
        <time>2015-09-02T02:28:19Z</time>
      </trkpt>
      <trkpt lat="33.98041" lon="77.26976">
        <ele>3345.6</ele>
        <time>2015-09-02T02:28:24Z</time>
      </trkpt>
      <trkpt lat="33.98039" lon="77.26981">
        <ele>3345.6</ele>
        <time>2015-09-02T02:28:28Z</time>
      </trkpt>
      <trkpt lat="33.98038" lon="77.26991">
        <ele>3345.6</ele>
        <time>2015-09-02T02:28:33Z</time>
      </trkpt>
      <trkpt lat="33.98037" lon="77.26998">
        <ele>3346.4</ele>
        <time>2015-09-02T02:28:38Z</time>
      </trkpt>
      <trkpt lat="33.98037" lon="77.26999">
        <ele>3346.6</ele>
        <time>2015-09-02T02:28:39Z</time>
      </trkpt>
      <trkpt lat="33.98034" lon="77.27014">
        <ele>3346.6</ele>
        <time>2015-09-02T02:28:50Z</time>
      </trkpt>
      <trkpt lat="33.98035" lon="77.27023">
        <ele>3346.4</ele>
        <time>2015-09-02T02:28:56Z</time>
      </trkpt>
      <trkpt lat="33.98034" lon="77.27025">
        <ele>3346.2</ele>
        <time>2015-09-02T02:28:58Z</time>
      </trkpt>
      <trkpt lat="33.98034" lon="77.27028">
        <ele>3346.2</ele>
        <time>2015-09-02T02:29:00Z</time>
      </trkpt>
      <trkpt lat="33.98033" lon="77.2703">
        <ele>3346.4</ele>
        <time>2015-09-02T02:29:02Z</time>
      </trkpt>
      <trkpt lat="33.98033" lon="77.27031">
        <ele>3346.6</ele>
        <time>2015-09-02T02:29:03Z</time>
      </trkpt>
      <trkpt lat="33.98033" lon="77.27032">
        <ele>3346.6</ele>
        <time>2015-09-02T02:29:04Z</time>
      </trkpt>
      <trkpt lat="33.98028" lon="77.27041">
        <ele>3346.8</ele>
        <time>2015-09-02T02:29:11Z</time>
      </trkpt>
      <trkpt lat="33.98025" lon="77.27048">
        <ele>3346.4</ele>
        <time>2015-09-02T02:29:15Z</time>
      </trkpt>
      <trkpt lat="33.98023" lon="77.27052">
        <ele>3346.4</ele>
        <time>2015-09-02T02:29:19Z</time>
      </trkpt>
      <trkpt lat="33.98022" lon="77.27056">
        <ele>3346.2</ele>
        <time>2015-09-02T02:29:23Z</time>
      </trkpt>
      <trkpt lat="33.98018" lon="77.27063">
        <ele>3347.2</ele>
        <time>2015-09-02T02:29:30Z</time>
      </trkpt>
      <trkpt lat="33.98016" lon="77.27066">
        <ele>3347.6</ele>
        <time>2015-09-02T02:29:33Z</time>
      </trkpt>
      <trkpt lat="33.98012" lon="77.27088">
        <ele>3347.4</ele>
        <time>2015-09-02T02:29:46Z</time>
      </trkpt>
      <trkpt lat="33.98012" lon="77.27094">
        <ele>3347.6</ele>
        <time>2015-09-02T02:29:49Z</time>
      </trkpt>
      <trkpt lat="33.9801" lon="77.27113">
        <ele>3348</ele>
        <time>2015-09-02T02:30:05Z</time>
      </trkpt>
      <trkpt lat="33.98009" lon="77.27119">
        <ele>3348.4</ele>
        <time>2015-09-02T02:30:11Z</time>
      </trkpt>
      <trkpt lat="33.98007" lon="77.27126">
        <ele>3348.6</ele>
        <time>2015-09-02T02:30:17Z</time>
      </trkpt>
      <trkpt lat="33.98006" lon="77.27128">
        <ele>3348.8</ele>
        <time>2015-09-02T02:30:19Z</time>
      </trkpt>
      <trkpt lat="33.98005" lon="77.27131">
        <ele>3349</ele>
        <time>2015-09-02T02:30:22Z</time>
      </trkpt>
      <trkpt lat="33.98004" lon="77.27135">
        <ele>3349</ele>
        <time>2015-09-02T02:30:25Z</time>
      </trkpt>
      <trkpt lat="33.97997" lon="77.27144">
        <ele>3349.2</ele>
        <time>2015-09-02T02:30:34Z</time>
      </trkpt>
      <trkpt lat="33.97991" lon="77.27155">
        <ele>3349.2</ele>
        <time>2015-09-02T02:30:42Z</time>
      </trkpt>
      <trkpt lat="33.97991" lon="77.27159">
        <ele>3349.2</ele>
        <time>2015-09-02T02:30:44Z</time>
      </trkpt>
      <trkpt lat="33.97988" lon="77.27176">
        <ele>3349.6</ele>
        <time>2015-09-02T02:30:57Z</time>
      </trkpt>
      <trkpt lat="33.97985" lon="77.27181">
        <ele>3349.8</ele>
        <time>2015-09-02T02:31:02Z</time>
      </trkpt>
      <trkpt lat="33.97982" lon="77.27182">
        <ele>3350</ele>
        <time>2015-09-02T02:31:06Z</time>
      </trkpt>
      <trkpt lat="33.97977" lon="77.27182">
        <ele>3350.6</ele>
        <time>2015-09-02T02:31:11Z</time>
      </trkpt>
      <trkpt lat="33.97977" lon="77.27182">
        <ele>3350.6</ele>
        <time>2015-09-02T02:31:12Z</time>
      </trkpt>
      <trkpt lat="33.97975" lon="77.27186">
        <ele>3350.6</ele>
        <time>2015-09-02T02:31:15Z</time>
      </trkpt>
      <trkpt lat="33.97971" lon="77.27188">
        <ele>3350.6</ele>
        <time>2015-09-02T02:31:19Z</time>
      </trkpt>
      <trkpt lat="33.97968" lon="77.2719">
        <ele>3350.6</ele>
        <time>2015-09-02T02:31:22Z</time>
      </trkpt>
      <trkpt lat="33.97966" lon="77.27196">
        <ele>3350.6</ele>
        <time>2015-09-02T02:31:26Z</time>
      </trkpt>
      <trkpt lat="33.97954" lon="77.27201">
        <ele>3348.8</ele>
        <time>2015-09-02T02:31:40Z</time>
      </trkpt>
      <trkpt lat="33.97947" lon="77.27211">
        <ele>3348.6</ele>
        <time>2015-09-02T02:31:51Z</time>
      </trkpt>
      <trkpt lat="33.97946" lon="77.2722">
        <ele>3349.4</ele>
        <time>2015-09-02T02:31:57Z</time>
      </trkpt>
      <trkpt lat="33.97948" lon="77.27227">
        <ele>3349.6</ele>
        <time>2015-09-02T02:32:04Z</time>
      </trkpt>
      <trkpt lat="33.97949" lon="77.2723">
        <ele>3349.8</ele>
        <time>2015-09-02T02:32:07Z</time>
      </trkpt>
      <trkpt lat="33.97948" lon="77.27233">
        <ele>3350</ele>
        <time>2015-09-02T02:32:13Z</time>
      </trkpt>
      <trkpt lat="33.97944" lon="77.27225">
        <ele>3350.8</ele>
        <time>2015-09-02T02:32:21Z</time>
      </trkpt>
      <trkpt lat="33.97941" lon="77.27225">
        <ele>3350.8</ele>
        <time>2015-09-02T02:32:23Z</time>
      </trkpt>
      <trkpt lat="33.9794" lon="77.27228">
        <ele>3350.6</ele>
        <time>2015-09-02T02:32:25Z</time>
      </trkpt>
      <trkpt lat="33.97944" lon="77.27236">
        <ele>3351</ele>
        <time>2015-09-02T02:32:30Z</time>
      </trkpt>
      <trkpt lat="33.97944" lon="77.27237">
        <ele>3351</ele>
        <time>2015-09-02T02:32:31Z</time>
      </trkpt>
      <trkpt lat="33.97946" lon="77.2724">
        <ele>3351.2</ele>
        <time>2015-09-02T02:32:33Z</time>
      </trkpt>
      <trkpt lat="33.97953" lon="77.27245">
        <ele>3351.2</ele>
        <time>2015-09-02T02:32:39Z</time>
      </trkpt>
      <trkpt lat="33.97958" lon="77.27247">
        <ele>3351.4</ele>
        <time>2015-09-02T02:32:44Z</time>
      </trkpt>
      <trkpt lat="33.97964" lon="77.27252">
        <ele>3351.6</ele>
        <time>2015-09-02T02:32:49Z</time>
      </trkpt>
      <trkpt lat="33.9797" lon="77.27272">
        <ele>3352</ele>
        <time>2015-09-02T02:33:00Z</time>
      </trkpt>
      <trkpt lat="33.97967" lon="77.27284">
        <ele>3353</ele>
        <time>2015-09-02T02:33:11Z</time>
      </trkpt>
      <trkpt lat="33.97967" lon="77.27285">
        <ele>3353</ele>
        <time>2015-09-02T02:33:12Z</time>
      </trkpt>
      <trkpt lat="33.97968" lon="77.27298">
        <ele>3353.4</ele>
        <time>2015-09-02T02:33:22Z</time>
      </trkpt>
      <trkpt lat="33.97961" lon="77.27319">
        <ele>3353.8</ele>
        <time>2015-09-02T02:33:38Z</time>
      </trkpt>
      <trkpt lat="33.97958" lon="77.27324">
        <ele>3353.4</ele>
        <time>2015-09-02T02:33:42Z</time>
      </trkpt>
      <trkpt lat="33.97957" lon="77.27326">
        <ele>3353.4</ele>
        <time>2015-09-02T02:33:44Z</time>
      </trkpt>
      <trkpt lat="33.97952" lon="77.27336">
        <ele>3354.2</ele>
        <time>2015-09-02T02:33:53Z</time>
      </trkpt>
      <trkpt lat="33.97946" lon="77.27344">
        <ele>3354.2</ele>
        <time>2015-09-02T02:34:01Z</time>
      </trkpt>
      <trkpt lat="33.97941" lon="77.27346">
        <ele>3354.2</ele>
        <time>2015-09-02T02:34:06Z</time>
      </trkpt>
      <trkpt lat="33.97936" lon="77.27351">
        <ele>3354.4</ele>
        <time>2015-09-02T02:34:10Z</time>
      </trkpt>
      <trkpt lat="33.97934" lon="77.27352">
        <ele>3354.6</ele>
        <time>2015-09-02T02:34:12Z</time>
      </trkpt>
      <trkpt lat="33.97929" lon="77.27354">
        <ele>3355</ele>
        <time>2015-09-02T02:34:18Z</time>
      </trkpt>
      <trkpt lat="33.97925" lon="77.2736">
        <ele>3354.8</ele>
        <time>2015-09-02T02:34:24Z</time>
      </trkpt>
      <trkpt lat="33.97913" lon="77.27379">
        <ele>3354</ele>
        <time>2015-09-02T02:34:39Z</time>
      </trkpt>
      <trkpt lat="33.97904" lon="77.27398">
        <ele>3354</ele>
        <time>2015-09-02T02:34:51Z</time>
      </trkpt>
      <trkpt lat="33.97902" lon="77.27404">
        <ele>3353.8</ele>
        <time>2015-09-02T02:34:56Z</time>
      </trkpt>
      <trkpt lat="33.97895" lon="77.27414">
        <ele>3354.4</ele>
        <time>2015-09-02T02:35:08Z</time>
      </trkpt>
      <trkpt lat="33.97893" lon="77.27416">
        <ele>3354.4</ele>
        <time>2015-09-02T02:35:10Z</time>
      </trkpt>
      <trkpt lat="33.9789" lon="77.27418">
        <ele>3354.6</ele>
        <time>2015-09-02T02:35:13Z</time>
      </trkpt>
      <trkpt lat="33.97885" lon="77.27421">
        <ele>3354.8</ele>
        <time>2015-09-02T02:35:17Z</time>
      </trkpt>
      <trkpt lat="33.97871" lon="77.27435">
        <ele>3355</ele>
        <time>2015-09-02T02:35:34Z</time>
      </trkpt>
      <trkpt lat="33.97868" lon="77.2744">
        <ele>3355.2</ele>
        <time>2015-09-02T02:35:38Z</time>
      </trkpt>
      <trkpt lat="33.97858" lon="77.27457">
        <ele>3355.2</ele>
        <time>2015-09-02T02:35:51Z</time>
      </trkpt>
      <trkpt lat="33.97848" lon="77.27475">
        <ele>3355.2</ele>
        <time>2015-09-02T02:36:07Z</time>
      </trkpt>
      <trkpt lat="33.97836" lon="77.27491">
        <ele>3355.4</ele>
        <time>2015-09-02T02:36:24Z</time>
      </trkpt>
      <trkpt lat="33.97834" lon="77.27494">
        <ele>3355.6</ele>
        <time>2015-09-02T02:36:26Z</time>
      </trkpt>
      <trkpt lat="33.9783" lon="77.27501">
        <ele>3356.2</ele>
        <time>2015-09-02T02:36:35Z</time>
      </trkpt>
      <trkpt lat="33.97829" lon="77.27508">
        <ele>3356.4</ele>
        <time>2015-09-02T02:36:39Z</time>
      </trkpt>
      <trkpt lat="33.97826" lon="77.27517">
        <ele>3357.2</ele>
        <time>2015-09-02T02:36:46Z</time>
      </trkpt>
      <trkpt lat="33.97823" lon="77.27521">
        <ele>3358.2</ele>
        <time>2015-09-02T02:36:54Z</time>
      </trkpt>
      <trkpt lat="33.9782" lon="77.27523">
        <ele>3358.6</ele>
        <time>2015-09-02T02:36:58Z</time>
      </trkpt>
      <trkpt lat="33.97807" lon="77.27538">
        <ele>3357.6</ele>
        <time>2015-09-02T02:37:14Z</time>
      </trkpt>
      <trkpt lat="33.97803" lon="77.27546">
        <ele>3357.2</ele>
        <time>2015-09-02T02:37:20Z</time>
      </trkpt>
      <trkpt lat="33.97787" lon="77.2756">
        <ele>3356.8</ele>
        <time>2015-09-02T02:37:38Z</time>
      </trkpt>
      <trkpt lat="33.97785" lon="77.27566">
        <ele>3356.8</ele>
        <time>2015-09-02T02:37:43Z</time>
      </trkpt>
      <trkpt lat="33.97779" lon="77.27565">
        <ele>3357</ele>
        <time>2015-09-02T02:37:48Z</time>
      </trkpt>
      <trkpt lat="33.97766" lon="77.27567">
        <ele>3357.6</ele>
        <time>2015-09-02T02:37:55Z</time>
      </trkpt>
      <trkpt lat="33.97764" lon="77.27566">
        <ele>3357.8</ele>
        <time>2015-09-02T02:37:58Z</time>
      </trkpt>
      <trkpt lat="33.97761" lon="77.27572">
        <ele>3357.8</ele>
        <time>2015-09-02T02:38:06Z</time>
      </trkpt>
      <trkpt lat="33.97751" lon="77.27587">
        <ele>3357.8</ele>
        <time>2015-09-02T02:38:24Z</time>
      </trkpt>
      <trkpt lat="33.97747" lon="77.27587">
        <ele>3357.8</ele>
        <time>2015-09-02T02:38:29Z</time>
      </trkpt>
      <trkpt lat="33.97746" lon="77.27591">
        <ele>3358</ele>
        <time>2015-09-02T02:38:32Z</time>
      </trkpt>
      <trkpt lat="33.97745" lon="77.27592">
        <ele>3358.2</ele>
        <time>2015-09-02T02:38:34Z</time>
      </trkpt>
      <trkpt lat="33.97743" lon="77.27601">
        <ele>3359</ele>
        <time>2015-09-02T02:38:39Z</time>
      </trkpt>
      <trkpt lat="33.97743" lon="77.27603">
        <ele>3359.2</ele>
        <time>2015-09-02T02:38:41Z</time>
      </trkpt>
      <trkpt lat="33.97742" lon="77.27607">
        <ele>3359.8</ele>
        <time>2015-09-02T02:38:45Z</time>
      </trkpt>
      <trkpt lat="33.97738" lon="77.27612">
        <ele>3360.4</ele>
        <time>2015-09-02T02:38:50Z</time>
      </trkpt>
      <trkpt lat="33.97737" lon="77.27614">
        <ele>3360.6</ele>
        <time>2015-09-02T02:38:52Z</time>
      </trkpt>
      <trkpt lat="33.97738" lon="77.27622">
        <ele>3361.4</ele>
        <time>2015-09-02T02:38:59Z</time>
      </trkpt>
      <trkpt lat="33.97735" lon="77.27628">
        <ele>3362.4</ele>
        <time>2015-09-02T02:39:07Z</time>
      </trkpt>
      <trkpt lat="33.97733" lon="77.2763">
        <ele>3362.6</ele>
        <time>2015-09-02T02:39:09Z</time>
      </trkpt>
      <trkpt lat="33.97731" lon="77.2763">
        <ele>3363</ele>
        <time>2015-09-02T02:39:12Z</time>
      </trkpt>
      <trkpt lat="33.97728" lon="77.2763">
        <ele>3363.4</ele>
        <time>2015-09-02T02:39:15Z</time>
      </trkpt>
      <trkpt lat="33.97728" lon="77.2763">
        <ele>3363.6</ele>
        <time>2015-09-02T02:39:16Z</time>
      </trkpt>
      <trkpt lat="33.97728" lon="77.27641">
        <ele>3364.2</ele>
        <time>2015-09-02T02:39:34Z</time>
      </trkpt>
      <trkpt lat="33.97729" lon="77.27649">
        <ele>3363.8</ele>
        <time>2015-09-02T02:39:43Z</time>
      </trkpt>
      <trkpt lat="33.97727" lon="77.27653">
        <ele>3363.4</ele>
        <time>2015-09-02T02:39:46Z</time>
      </trkpt>
      <trkpt lat="33.97722" lon="77.27658">
        <ele>3362.6</ele>
        <time>2015-09-02T02:39:53Z</time>
      </trkpt>
      <trkpt lat="33.97718" lon="77.27658">
        <ele>3362.4</ele>
        <time>2015-09-02T02:39:56Z</time>
      </trkpt>
      <trkpt lat="33.97715" lon="77.27662">
        <ele>3362</ele>
        <time>2015-09-02T02:40:01Z</time>
      </trkpt>
      <trkpt lat="33.97714" lon="77.27665">
        <ele>3361.8</ele>
        <time>2015-09-02T02:40:04Z</time>
      </trkpt>
      <trkpt lat="33.97707" lon="77.27669">
        <ele>3361.4</ele>
        <time>2015-09-02T02:40:11Z</time>
      </trkpt>
      <trkpt lat="33.97694" lon="77.27686">
        <ele>3361.2</ele>
        <time>2015-09-02T02:40:26Z</time>
      </trkpt>
      <trkpt lat="33.97683" lon="77.277">
        <ele>3360.4</ele>
        <time>2015-09-02T02:40:40Z</time>
      </trkpt>
      <trkpt lat="33.97674" lon="77.27699">
        <ele>3360.6</ele>
        <time>2015-09-02T02:40:48Z</time>
      </trkpt>
      <trkpt lat="33.97671" lon="77.27698">
        <ele>3361</ele>
        <time>2015-09-02T02:40:51Z</time>
      </trkpt>
      <trkpt lat="33.97665" lon="77.27703">
        <ele>3361.2</ele>
        <time>2015-09-02T02:41:02Z</time>
      </trkpt>
      <trkpt lat="33.97664" lon="77.27708">
        <ele>3361.2</ele>
        <time>2015-09-02T02:41:04Z</time>
      </trkpt>
      <trkpt lat="33.97659" lon="77.27726">
        <ele>3360.4</ele>
        <time>2015-09-02T02:41:15Z</time>
      </trkpt>
      <trkpt lat="33.97657" lon="77.2773">
        <ele>3360.4</ele>
        <time>2015-09-02T02:41:18Z</time>
      </trkpt>
      <trkpt lat="33.97652" lon="77.27734">
        <ele>3360.4</ele>
        <time>2015-09-02T02:41:24Z</time>
      </trkpt>
      <trkpt lat="33.97637" lon="77.27744">
        <ele>3360.4</ele>
        <time>2015-09-02T02:41:40Z</time>
      </trkpt>
      <trkpt lat="33.97637" lon="77.27746">
        <ele>3360.4</ele>
        <time>2015-09-02T02:41:42Z</time>
      </trkpt>
      <trkpt lat="33.97634" lon="77.27752">
        <ele>3360.6</ele>
        <time>2015-09-02T02:41:49Z</time>
      </trkpt>
      <trkpt lat="33.9763" lon="77.27764">
        <ele>3361</ele>
        <time>2015-09-02T02:41:59Z</time>
      </trkpt>
      <trkpt lat="33.97629" lon="77.27769">
        <ele>3361.4</ele>
        <time>2015-09-02T02:42:02Z</time>
      </trkpt>
      <trkpt lat="33.97628" lon="77.27771">
        <ele>3361.8</ele>
        <time>2015-09-02T02:42:04Z</time>
      </trkpt>
      <trkpt lat="33.97626" lon="77.27772">
        <ele>3362.2</ele>
        <time>2015-09-02T02:42:07Z</time>
      </trkpt>
      <trkpt lat="33.97624" lon="77.27769">
        <ele>3362.2</ele>
        <time>2015-09-02T02:42:09Z</time>
      </trkpt>
      <trkpt lat="33.97617" lon="77.27768">
        <ele>3362.2</ele>
        <time>2015-09-02T02:42:16Z</time>
      </trkpt>
      <trkpt lat="33.97608" lon="77.27775">
        <ele>3362.2</ele>
        <time>2015-09-02T02:42:26Z</time>
      </trkpt>
      <trkpt lat="33.97606" lon="77.27776">
        <ele>3362.6</ele>
        <time>2015-09-02T02:42:28Z</time>
      </trkpt>
      <trkpt lat="33.97604" lon="77.27776">
        <ele>3362.6</ele>
        <time>2015-09-02T02:42:29Z</time>
      </trkpt>
      <trkpt lat="33.976" lon="77.27779">
        <ele>3362.8</ele>
        <time>2015-09-02T02:42:33Z</time>
      </trkpt>
      <trkpt lat="33.97588" lon="77.2779">
        <ele>3362.2</ele>
        <time>2015-09-02T02:42:47Z</time>
      </trkpt>
      <trkpt lat="33.97586" lon="77.27791">
        <ele>3362</ele>
        <time>2015-09-02T02:42:49Z</time>
      </trkpt>
      <trkpt lat="33.97586" lon="77.27795">
        <ele>3361.8</ele>
        <time>2015-09-02T02:42:53Z</time>
      </trkpt>
      <trkpt lat="33.97578" lon="77.27799">
        <ele>3361.8</ele>
        <time>2015-09-02T02:43:01Z</time>
      </trkpt>
      <trkpt lat="33.97579" lon="77.27803">
        <ele>3361.8</ele>
        <time>2015-09-02T02:43:03Z</time>
      </trkpt>
      <trkpt lat="33.97574" lon="77.27812">
        <ele>3363.6</ele>
        <time>2015-09-02T02:43:18Z</time>
      </trkpt>
      <trkpt lat="33.97571" lon="77.27823">
        <ele>3364.6</ele>
        <time>2015-09-02T02:43:26Z</time>
      </trkpt>
      <trkpt lat="33.97569" lon="77.27829">
        <ele>3364.8</ele>
        <time>2015-09-02T02:43:30Z</time>
      </trkpt>
      <trkpt lat="33.97562" lon="77.27849">
        <ele>3365.2</ele>
        <time>2015-09-02T02:43:48Z</time>
      </trkpt>
      <trkpt lat="33.97551" lon="77.27864">
        <ele>3365.8</ele>
        <time>2015-09-02T02:44:04Z</time>
      </trkpt>
      <trkpt lat="33.9755" lon="77.27866">
        <ele>3365.8</ele>
        <time>2015-09-02T02:44:06Z</time>
      </trkpt>
      <trkpt lat="33.97549" lon="77.27869">
        <ele>3366</ele>
        <time>2015-09-02T02:44:09Z</time>
      </trkpt>
      <trkpt lat="33.97542" lon="77.27881">
        <ele>3366.6</ele>
        <time>2015-09-02T02:44:20Z</time>
      </trkpt>
      <trkpt lat="33.97537" lon="77.27887">
        <ele>3366.8</ele>
        <time>2015-09-02T02:44:29Z</time>
      </trkpt>
      <trkpt lat="33.97535" lon="77.27891">
        <ele>3366.8</ele>
        <time>2015-09-02T02:44:33Z</time>
      </trkpt>
      <trkpt lat="33.97533" lon="77.27894">
        <ele>3367</ele>
        <time>2015-09-02T02:44:39Z</time>
      </trkpt>
      <trkpt lat="33.97522" lon="77.27914">
        <ele>3366.8</ele>
        <time>2015-09-02T02:44:55Z</time>
      </trkpt>
      <trkpt lat="33.97517" lon="77.27925">
        <ele>3366.2</ele>
        <time>2015-09-02T02:45:03Z</time>
      </trkpt>
      <trkpt lat="33.97514" lon="77.27928">
        <ele>3366.2</ele>
        <time>2015-09-02T02:45:07Z</time>
      </trkpt>
      <trkpt lat="33.97514" lon="77.2793">
        <ele>3366.4</ele>
        <time>2015-09-02T02:45:09Z</time>
      </trkpt>
      <trkpt lat="33.97513" lon="77.27934">
        <ele>3366.8</ele>
        <time>2015-09-02T02:45:12Z</time>
      </trkpt>
      <trkpt lat="33.97502" lon="77.27952">
        <ele>3366.6</ele>
        <time>2015-09-02T02:45:30Z</time>
      </trkpt>
      <trkpt lat="33.97496" lon="77.27955">
        <ele>3366.8</ele>
        <time>2015-09-02T02:45:36Z</time>
      </trkpt>
      <trkpt lat="33.97485" lon="77.27973">
        <ele>3367</ele>
        <time>2015-09-02T02:45:50Z</time>
      </trkpt>
      <trkpt lat="33.97483" lon="77.27979">
        <ele>3367.2</ele>
        <time>2015-09-02T02:45:55Z</time>
      </trkpt>
      <trkpt lat="33.97476" lon="77.27992">
        <ele>3366.8</ele>
        <time>2015-09-02T02:46:07Z</time>
      </trkpt>
      <trkpt lat="33.97469" lon="77.28001">
        <ele>3366.6</ele>
        <time>2015-09-02T02:46:18Z</time>
      </trkpt>
      <trkpt lat="33.97461" lon="77.2801">
        <ele>3366.4</ele>
        <time>2015-09-02T02:46:31Z</time>
      </trkpt>
      <trkpt lat="33.97453" lon="77.28023">
        <ele>3366.6</ele>
        <time>2015-09-02T02:46:45Z</time>
      </trkpt>
      <trkpt lat="33.97443" lon="77.28041">
        <ele>3366.2</ele>
        <time>2015-09-02T02:46:59Z</time>
      </trkpt>
      <trkpt lat="33.97439" lon="77.28043">
        <ele>3366.6</ele>
        <time>2015-09-02T02:47:04Z</time>
      </trkpt>
      <trkpt lat="33.97437" lon="77.28042">
        <ele>3366.8</ele>
        <time>2015-09-02T02:47:06Z</time>
      </trkpt>
      <trkpt lat="33.97435" lon="77.28044">
        <ele>3367</ele>
        <time>2015-09-02T02:47:09Z</time>
      </trkpt>
      <trkpt lat="33.97432" lon="77.28051">
        <ele>3367.4</ele>
        <time>2015-09-02T02:47:15Z</time>
      </trkpt>
      <trkpt lat="33.97431" lon="77.28055">
        <ele>3367.8</ele>
        <time>2015-09-02T02:47:18Z</time>
      </trkpt>
      <trkpt lat="33.9743" lon="77.28061">
        <ele>3368.2</ele>
        <time>2015-09-02T02:47:22Z</time>
      </trkpt>
      <trkpt lat="33.97425" lon="77.28074">
        <ele>3368.4</ele>
        <time>2015-09-02T02:47:30Z</time>
      </trkpt>
      <trkpt lat="33.97425" lon="77.28075">
        <ele>3368.4</ele>
        <time>2015-09-02T02:47:32Z</time>
      </trkpt>
      <trkpt lat="33.97421" lon="77.28081">
        <ele>3367.8</ele>
        <time>2015-09-02T02:47:41Z</time>
      </trkpt>
      <trkpt lat="33.97409" lon="77.28089">
        <ele>3366.8</ele>
        <time>2015-09-02T02:47:51Z</time>
      </trkpt>
      <trkpt lat="33.97407" lon="77.28093">
        <ele>3366.2</ele>
        <time>2015-09-02T02:47:55Z</time>
      </trkpt>
      <trkpt lat="33.97402" lon="77.28113">
        <ele>3366</ele>
        <time>2015-09-02T02:48:13Z</time>
      </trkpt>
      <trkpt lat="33.97395" lon="77.28119">
        <ele>3366.4</ele>
        <time>2015-09-02T02:48:25Z</time>
      </trkpt>
      <trkpt lat="33.97392" lon="77.28123">
        <ele>3366.4</ele>
        <time>2015-09-02T02:48:30Z</time>
      </trkpt>
      <trkpt lat="33.97388" lon="77.28129">
        <ele>3366.6</ele>
        <time>2015-09-02T02:48:36Z</time>
      </trkpt>
      <trkpt lat="33.97372" lon="77.28141">
        <ele>3367.2</ele>
        <time>2015-09-02T02:49:00Z</time>
      </trkpt>
      <trkpt lat="33.97355" lon="77.28142">
        <ele>3367.8</ele>
        <time>2015-09-02T02:49:16Z</time>
      </trkpt>
      <trkpt lat="33.97335" lon="77.28153">
        <ele>3367.4</ele>
        <time>2015-09-02T02:49:32Z</time>
      </trkpt>
      <trkpt lat="33.97319" lon="77.28174">
        <ele>3367.6</ele>
        <time>2015-09-02T02:49:51Z</time>
      </trkpt>
      <trkpt lat="33.97317" lon="77.28174">
        <ele>3367.6</ele>
        <time>2015-09-02T02:49:52Z</time>
      </trkpt>
      <trkpt lat="33.97315" lon="77.28173">
        <ele>3368.2</ele>
        <time>2015-09-02T02:49:54Z</time>
      </trkpt>
      <trkpt lat="33.97314" lon="77.28172">
        <ele>3368.8</ele>
        <time>2015-09-02T02:49:57Z</time>
      </trkpt>
      <trkpt lat="33.9731" lon="77.28176">
        <ele>3369.8</ele>
        <time>2015-09-02T02:50:03Z</time>
      </trkpt>
      <trkpt lat="33.97309" lon="77.28176">
        <ele>3370</ele>
        <time>2015-09-02T02:50:04Z</time>
      </trkpt>
      <trkpt lat="33.97304" lon="77.28179">
        <ele>3371</ele>
        <time>2015-09-02T02:50:12Z</time>
      </trkpt>
      <trkpt lat="33.97295" lon="77.2818">
        <ele>3372</ele>
        <time>2015-09-02T02:50:23Z</time>
      </trkpt>
      <trkpt lat="33.97292" lon="77.28182">
        <ele>3373</ele>
        <time>2015-09-02T02:50:31Z</time>
      </trkpt>
      <trkpt lat="33.97288" lon="77.28183">
        <ele>3374</ele>
        <time>2015-09-02T02:50:39Z</time>
      </trkpt>
      <trkpt lat="33.97282" lon="77.28185">
        <ele>3375.2</ele>
        <time>2015-09-02T02:50:46Z</time>
      </trkpt>
      <trkpt lat="33.97282" lon="77.28185">
        <ele>3375.2</ele>
        <time>2015-09-02T02:50:47Z</time>
      </trkpt>
      <trkpt lat="33.97276" lon="77.28186">
        <ele>3376.2</ele>
        <time>2015-09-02T02:50:56Z</time>
      </trkpt>
      <trkpt lat="33.97267" lon="77.2819">
        <ele>3376.4</ele>
        <time>2015-09-02T02:51:05Z</time>
      </trkpt>
      <trkpt lat="33.97265" lon="77.28193">
        <ele>3376.4</ele>
        <time>2015-09-02T02:51:08Z</time>
      </trkpt>
      <trkpt lat="33.97263" lon="77.28194">
        <ele>3376.4</ele>
        <time>2015-09-02T02:51:10Z</time>
      </trkpt>
      <trkpt lat="33.97251" lon="77.28206">
        <ele>3376.8</ele>
        <time>2015-09-02T02:51:22Z</time>
      </trkpt>
      <trkpt lat="33.97236" lon="77.2822">
        <ele>3376.8</ele>
        <time>2015-09-02T02:51:40Z</time>
      </trkpt>
      <trkpt lat="33.97233" lon="77.28225">
        <ele>3377.2</ele>
        <time>2015-09-02T02:51:44Z</time>
      </trkpt>
      <trkpt lat="33.9723" lon="77.28238">
        <ele>3377.2</ele>
        <time>2015-09-02T02:51:55Z</time>
      </trkpt>
      <trkpt lat="33.97229" lon="77.28238">
        <ele>3376.8</ele>
        <time>2015-09-02T02:51:57Z</time>
      </trkpt>
      <trkpt lat="33.97224" lon="77.28241">
        <ele>3377</ele>
        <time>2015-09-02T02:52:03Z</time>
      </trkpt>
      <trkpt lat="33.97222" lon="77.28244">
        <ele>3377.2</ele>
        <time>2015-09-02T02:52:06Z</time>
      </trkpt>
      <trkpt lat="33.97221" lon="77.2825">
        <ele>3377.8</ele>
        <time>2015-09-02T02:52:09Z</time>
      </trkpt>
      <trkpt lat="33.97221" lon="77.28253">
        <ele>3378.4</ele>
        <time>2015-09-02T02:52:15Z</time>
      </trkpt>
      <trkpt lat="33.97207" lon="77.28265">
        <ele>3377.4</ele>
        <time>2015-09-02T02:52:35Z</time>
      </trkpt>
      <trkpt lat="33.97205" lon="77.28269">
        <ele>3377</ele>
        <time>2015-09-02T02:52:37Z</time>
      </trkpt>
      <trkpt lat="33.97209" lon="77.28277">
        <ele>3376.8</ele>
        <time>2015-09-02T02:52:52Z</time>
      </trkpt>
      <trkpt lat="33.97204" lon="77.28281">
        <ele>3377</ele>
        <time>2015-09-02T02:53:02Z</time>
      </trkpt>
      <trkpt lat="33.97197" lon="77.28283">
        <ele>3377</ele>
        <time>2015-09-02T02:53:09Z</time>
      </trkpt>
      <trkpt lat="33.97195" lon="77.28285">
        <ele>3377</ele>
        <time>2015-09-02T02:53:12Z</time>
      </trkpt>
      <trkpt lat="33.97192" lon="77.28295">
        <ele>3376.8</ele>
        <time>2015-09-02T02:53:18Z</time>
      </trkpt>
      <trkpt lat="33.97185" lon="77.28313">
        <ele>3376.8</ele>
        <time>2015-09-02T02:53:33Z</time>
      </trkpt>
      <trkpt lat="33.97185" lon="77.28317">
        <ele>3376.8</ele>
        <time>2015-09-02T02:53:35Z</time>
      </trkpt>
      <trkpt lat="33.97185" lon="77.28323">
        <ele>3376.2</ele>
        <time>2015-09-02T02:53:39Z</time>
      </trkpt>
      <trkpt lat="33.97176" lon="77.28344">
        <ele>3376</ele>
        <time>2015-09-02T02:53:55Z</time>
      </trkpt>
      <trkpt lat="33.97163" lon="77.28358">
        <ele>3375.4</ele>
        <time>2015-09-02T02:54:10Z</time>
      </trkpt>
      <trkpt lat="33.97162" lon="77.28358">
        <ele>3375.4</ele>
        <time>2015-09-02T02:54:11Z</time>
      </trkpt>
      <trkpt lat="33.9716" lon="77.28358">
        <ele>3375</ele>
        <time>2015-09-02T02:54:13Z</time>
      </trkpt>
      <trkpt lat="33.97151" lon="77.28376">
        <ele>3375.4</ele>
        <time>2015-09-02T02:54:32Z</time>
      </trkpt>
      <trkpt lat="33.97139" lon="77.28393">
        <ele>3375</ele>
        <time>2015-09-02T02:54:49Z</time>
      </trkpt>
      <trkpt lat="33.97135" lon="77.28396">
        <ele>3374</ele>
        <time>2015-09-02T02:54:56Z</time>
      </trkpt>
      <trkpt lat="33.97132" lon="77.28398">
        <ele>3373</ele>
        <time>2015-09-02T02:55:03Z</time>
      </trkpt>
      <trkpt lat="33.97127" lon="77.28406">
        <ele>3372.4</ele>
        <time>2015-09-02T02:55:11Z</time>
      </trkpt>
      <trkpt lat="33.97133" lon="77.28419">
        <ele>3372.4</ele>
        <time>2015-09-02T02:55:17Z</time>
      </trkpt>
      <trkpt lat="33.97125" lon="77.28421">
        <ele>3372</ele>
        <time>2015-09-02T02:55:27Z</time>
      </trkpt>
      <trkpt lat="33.9711" lon="77.2843">
        <ele>3371</ele>
        <time>2015-09-02T02:55:43Z</time>
      </trkpt>
      <trkpt lat="33.971" lon="77.28441">
        <ele>3371.2</ele>
        <time>2015-09-02T02:55:59Z</time>
      </trkpt>
      <trkpt lat="33.97089" lon="77.28442">
        <ele>3372</ele>
        <time>2015-09-02T02:56:11Z</time>
      </trkpt>
      <trkpt lat="33.97083" lon="77.28447">
        <ele>3371.8</ele>
        <time>2015-09-02T02:56:18Z</time>
      </trkpt>
      <trkpt lat="33.97081" lon="77.28449">
        <ele>3372</ele>
        <time>2015-09-02T02:56:21Z</time>
      </trkpt>
      <trkpt lat="33.97088" lon="77.28475">
        <ele>3372.6</ele>
        <time>2015-09-02T02:56:47Z</time>
      </trkpt>
      <trkpt lat="33.97087" lon="77.28486">
        <ele>3373</ele>
        <time>2015-09-02T02:56:56Z</time>
      </trkpt>
      <trkpt lat="33.97081" lon="77.28494">
        <ele>3373.4</ele>
        <time>2015-09-02T02:57:09Z</time>
      </trkpt>
      <trkpt lat="33.97079" lon="77.28495">
        <ele>3373.2</ele>
        <time>2015-09-02T02:57:12Z</time>
      </trkpt>
      <trkpt lat="33.97071" lon="77.28494">
        <ele>3373</ele>
        <time>2015-09-02T02:57:18Z</time>
      </trkpt>
      <trkpt lat="33.9707" lon="77.28494">
        <ele>3373</ele>
        <time>2015-09-02T02:57:19Z</time>
      </trkpt>
      <trkpt lat="33.97069" lon="77.28495">
        <ele>3372.8</ele>
        <time>2015-09-02T02:57:21Z</time>
      </trkpt>
      <trkpt lat="33.97056" lon="77.28511">
        <ele>3373.2</ele>
        <time>2015-09-02T02:57:44Z</time>
      </trkpt>
      <trkpt lat="33.97055" lon="77.28516">
        <ele>3373.2</ele>
        <time>2015-09-02T02:57:47Z</time>
      </trkpt>
      <trkpt lat="33.97064" lon="77.28537">
        <ele>3373.6</ele>
        <time>2015-09-02T02:58:02Z</time>
      </trkpt>
      <trkpt lat="33.97063" lon="77.28541">
        <ele>3373.6</ele>
        <time>2015-09-02T02:58:06Z</time>
      </trkpt>
      <trkpt lat="33.97069" lon="77.28549">
        <ele>3373.6</ele>
        <time>2015-09-02T02:58:17Z</time>
      </trkpt>
      <trkpt lat="33.97078" lon="77.28557">
        <ele>3374</ele>
        <time>2015-09-02T02:58:42Z</time>
      </trkpt>
      <trkpt lat="33.97078" lon="77.28558">
        <ele>3375.2</ele>
        <time>2015-09-02T02:58:49Z</time>
      </trkpt>
      <trkpt lat="33.97077" lon="77.28563">
        <ele>3376.4</ele>
        <time>2015-09-02T02:58:56Z</time>
      </trkpt>
      <trkpt lat="33.97075" lon="77.2858">
        <ele>3377.2</ele>
        <time>2015-09-02T02:59:13Z</time>
      </trkpt>
      <trkpt lat="33.97075" lon="77.28584">
        <ele>3377.4</ele>
        <time>2015-09-02T02:59:17Z</time>
      </trkpt>
      <trkpt lat="33.97076" lon="77.28585">
        <ele>3377.4</ele>
        <time>2015-09-02T02:59:18Z</time>
      </trkpt>
      <trkpt lat="33.97079" lon="77.28593">
        <ele>3378.2</ele>
        <time>2015-09-02T02:59:27Z</time>
      </trkpt>
      <trkpt lat="33.97079" lon="77.28595">
        <ele>3378.4</ele>
        <time>2015-09-02T02:59:29Z</time>
      </trkpt>
      <trkpt lat="33.97072" lon="77.28601">
        <ele>3379.6</ele>
        <time>2015-09-02T02:59:40Z</time>
      </trkpt>
      <trkpt lat="33.9707" lon="77.28604">
        <ele>3380.6</ele>
        <time>2015-09-02T02:59:49Z</time>
      </trkpt>
      <trkpt lat="33.97065" lon="77.28609">
        <ele>3379.4</ele>
        <time>2015-09-02T03:00:03Z</time>
      </trkpt>
      <trkpt lat="33.97059" lon="77.28618">
        <ele>3378.4</ele>
        <time>2015-09-02T03:00:10Z</time>
      </trkpt>
      <trkpt lat="33.97058" lon="77.2862">
        <ele>3378.4</ele>
        <time>2015-09-02T03:00:11Z</time>
      </trkpt>
      <trkpt lat="33.97056" lon="77.28622">
        <ele>3378.4</ele>
        <time>2015-09-02T03:00:14Z</time>
      </trkpt>
      <trkpt lat="33.97054" lon="77.28624">
        <ele>3378.6</ele>
        <time>2015-09-02T03:00:16Z</time>
      </trkpt>
      <trkpt lat="33.97048" lon="77.28648">
        <ele>3379</ele>
        <time>2015-09-02T03:00:33Z</time>
      </trkpt>
      <trkpt lat="33.97047" lon="77.28651">
        <ele>3379.6</ele>
        <time>2015-09-02T03:00:38Z</time>
      </trkpt>
      <trkpt lat="33.97042" lon="77.28651">
        <ele>3380.6</ele>
        <time>2015-09-02T03:00:46Z</time>
      </trkpt>
      <trkpt lat="33.97041" lon="77.28655">
        <ele>3381.8</ele>
        <time>2015-09-02T03:00:54Z</time>
      </trkpt>
      <trkpt lat="33.97035" lon="77.28657">
        <ele>3382.8</ele>
        <time>2015-09-02T03:01:03Z</time>
      </trkpt>
      <trkpt lat="33.97028" lon="77.28657">
        <ele>3383.4</ele>
        <time>2015-09-02T03:01:10Z</time>
      </trkpt>
      <trkpt lat="33.97027" lon="77.28659">
        <ele>3383.6</ele>
        <time>2015-09-02T03:01:13Z</time>
      </trkpt>
      <trkpt lat="33.97021" lon="77.28666">
        <ele>3382.6</ele>
        <time>2015-09-02T03:01:22Z</time>
      </trkpt>
      <trkpt lat="33.97019" lon="77.28668">
        <ele>3381.8</ele>
        <time>2015-09-02T03:01:26Z</time>
      </trkpt>
      <trkpt lat="33.97012" lon="77.28669">
        <ele>3380.8</ele>
        <time>2015-09-02T03:01:33Z</time>
      </trkpt>
      <trkpt lat="33.97009" lon="77.28674">
        <ele>3380.6</ele>
        <time>2015-09-02T03:01:39Z</time>
      </trkpt>
      <trkpt lat="33.96998" lon="77.28672">
        <ele>3379.8</ele>
        <time>2015-09-02T03:01:49Z</time>
      </trkpt>
      <trkpt lat="33.96996" lon="77.2868">
        <ele>3379.8</ele>
        <time>2015-09-02T03:01:51Z</time>
      </trkpt>
      <trkpt lat="33.96996" lon="77.28681">
        <ele>3380</ele>
        <time>2015-09-02T03:01:53Z</time>
      </trkpt>
      <trkpt lat="33.96996" lon="77.2868">
        <ele>3380.8</ele>
        <time>2015-09-02T03:02:48Z</time>
      </trkpt>
      <trkpt lat="33.96995" lon="77.28678">
        <ele>3381</ele>
        <time>2015-09-02T03:04:04Z</time>
      </trkpt>
      <trkpt lat="33.96996" lon="77.28675">
        <ele>3381.8</ele>
        <time>2015-09-02T03:04:39Z</time>
      </trkpt>
      <trkpt lat="33.96999" lon="77.28681">
        <ele>3381.4</ele>
        <time>2015-09-02T03:04:46Z</time>
      </trkpt>
      <trkpt lat="33.96994" lon="77.28678">
        <ele>3381.8</ele>
        <time>2015-09-02T03:05:08Z</time>
      </trkpt>
      <trkpt lat="33.96991" lon="77.28674">
        <ele>3382</ele>
        <time>2015-09-02T03:05:12Z</time>
      </trkpt>
      <trkpt lat="33.96979" lon="77.28685">
        <ele>3381.6</ele>
        <time>2015-09-02T03:05:28Z</time>
      </trkpt>
      <trkpt lat="33.96974" lon="77.28689">
        <ele>3381</ele>
        <time>2015-09-02T03:05:33Z</time>
      </trkpt>
      <trkpt lat="33.96969" lon="77.28699">
        <ele>3380.6</ele>
        <time>2015-09-02T03:05:40Z</time>
      </trkpt>
      <trkpt lat="33.96968" lon="77.287">
        <ele>3380.4</ele>
        <time>2015-09-02T03:05:41Z</time>
      </trkpt>
      <trkpt lat="33.96965" lon="77.28701">
        <ele>3380</ele>
        <time>2015-09-02T03:05:44Z</time>
      </trkpt>
      <trkpt lat="33.96961" lon="77.28709">
        <ele>3379.8</ele>
        <time>2015-09-02T03:05:53Z</time>
      </trkpt>
      <trkpt lat="33.96961" lon="77.28721">
        <ele>3381.6</ele>
        <time>2015-09-02T03:06:02Z</time>
      </trkpt>
      <trkpt lat="33.96961" lon="77.28722">
        <ele>3381.6</ele>
        <time>2015-09-02T03:06:03Z</time>
      </trkpt>
      <trkpt lat="33.96959" lon="77.28725">
        <ele>3381.6</ele>
        <time>2015-09-02T03:06:07Z</time>
      </trkpt>
      <trkpt lat="33.96957" lon="77.28727">
        <ele>3381.4</ele>
        <time>2015-09-02T03:06:09Z</time>
      </trkpt>
      <trkpt lat="33.96942" lon="77.28743">
        <ele>3381</ele>
        <time>2015-09-02T03:06:23Z</time>
      </trkpt>
      <trkpt lat="33.96931" lon="77.28747">
        <ele>3381.2</ele>
        <time>2015-09-02T03:06:33Z</time>
      </trkpt>
      <trkpt lat="33.9693" lon="77.2875">
        <ele>3381.4</ele>
        <time>2015-09-02T03:06:35Z</time>
      </trkpt>
      <trkpt lat="33.96929" lon="77.28752">
        <ele>3381.2</ele>
        <time>2015-09-02T03:06:37Z</time>
      </trkpt>
      <trkpt lat="33.96929" lon="77.2876">
        <ele>3381.2</ele>
        <time>2015-09-02T03:06:40Z</time>
      </trkpt>
      <trkpt lat="33.96927" lon="77.28763">
        <ele>3380.8</ele>
        <time>2015-09-02T03:06:43Z</time>
      </trkpt>
      <trkpt lat="33.96908" lon="77.28764">
        <ele>3381.2</ele>
        <time>2015-09-02T03:06:55Z</time>
      </trkpt>
      <trkpt lat="33.96909" lon="77.28774">
        <ele>3381.2</ele>
        <time>2015-09-02T03:06:58Z</time>
      </trkpt>
      <trkpt lat="33.96907" lon="77.28777">
        <ele>3381.2</ele>
        <time>2015-09-02T03:07:01Z</time>
      </trkpt>
      <trkpt lat="33.96902" lon="77.28786">
        <ele>3381.2</ele>
        <time>2015-09-02T03:07:08Z</time>
      </trkpt>
      <trkpt lat="33.96898" lon="77.28795">
        <ele>3380.8</ele>
        <time>2015-09-02T03:07:17Z</time>
      </trkpt>
      <trkpt lat="33.96892" lon="77.28812">
        <ele>3381.6</ele>
        <time>2015-09-02T03:07:32Z</time>
      </trkpt>
      <trkpt lat="33.96879" lon="77.28828">
        <ele>3382.2</ele>
        <time>2015-09-02T03:07:46Z</time>
      </trkpt>
      <trkpt lat="33.96868" lon="77.28841">
        <ele>3382.2</ele>
        <time>2015-09-02T03:07:59Z</time>
      </trkpt>
      <trkpt lat="33.9686" lon="77.28853">
        <ele>3382.2</ele>
        <time>2015-09-02T03:08:11Z</time>
      </trkpt>
      <trkpt lat="33.96857" lon="77.28853">
        <ele>3382</ele>
        <time>2015-09-02T03:08:14Z</time>
      </trkpt>
      <trkpt lat="33.96855" lon="77.28855">
        <ele>3382.2</ele>
        <time>2015-09-02T03:08:16Z</time>
      </trkpt>
      <trkpt lat="33.96848" lon="77.28864">
        <ele>3382.6</ele>
        <time>2015-09-02T03:08:26Z</time>
      </trkpt>
      <trkpt lat="33.96846" lon="77.28867">
        <ele>3382.6</ele>
        <time>2015-09-02T03:08:28Z</time>
      </trkpt>
      <trkpt lat="33.96837" lon="77.28875">
        <ele>3382.6</ele>
        <time>2015-09-02T03:08:41Z</time>
      </trkpt>
      <trkpt lat="33.96835" lon="77.28883">
        <ele>3382.6</ele>
        <time>2015-09-02T03:08:48Z</time>
      </trkpt>
      <trkpt lat="33.96835" lon="77.28887">
        <ele>3382.6</ele>
        <time>2015-09-02T03:08:50Z</time>
      </trkpt>
      <trkpt lat="33.9683" lon="77.28903">
        <ele>3383.4</ele>
        <time>2015-09-02T03:09:03Z</time>
      </trkpt>
      <trkpt lat="33.96822" lon="77.28917">
        <ele>3383.6</ele>
        <time>2015-09-02T03:09:16Z</time>
      </trkpt>
      <trkpt lat="33.96816" lon="77.28937">
        <ele>3384.2</ele>
        <time>2015-09-02T03:09:33Z</time>
      </trkpt>
      <trkpt lat="33.96813" lon="77.28959">
        <ele>3384.2</ele>
        <time>2015-09-02T03:09:49Z</time>
      </trkpt>
      <trkpt lat="33.96813" lon="77.28963">
        <ele>3384</ele>
        <time>2015-09-02T03:09:52Z</time>
      </trkpt>
      <trkpt lat="33.96812" lon="77.28976">
        <ele>3384.2</ele>
        <time>2015-09-02T03:10:01Z</time>
      </trkpt>
      <trkpt lat="33.96815" lon="77.28987">
        <ele>3384.6</ele>
        <time>2015-09-02T03:10:09Z</time>
      </trkpt>
      <trkpt lat="33.96815" lon="77.28988">
        <ele>3384.8</ele>
        <time>2015-09-02T03:10:10Z</time>
      </trkpt>
      <trkpt lat="33.96817" lon="77.28994">
        <ele>3385.8</ele>
        <time>2015-09-02T03:10:15Z</time>
      </trkpt>
      <trkpt lat="33.96819" lon="77.29004">
        <ele>3386.8</ele>
        <time>2015-09-02T03:10:24Z</time>
      </trkpt>
      <trkpt lat="33.96819" lon="77.29007">
        <ele>3387.2</ele>
        <time>2015-09-02T03:10:27Z</time>
      </trkpt>
      <trkpt lat="33.96813" lon="77.29017">
        <ele>3387.4</ele>
        <time>2015-09-02T03:10:36Z</time>
      </trkpt>
      <trkpt lat="33.9681" lon="77.29033">
        <ele>3387.2</ele>
        <time>2015-09-02T03:10:45Z</time>
      </trkpt>
      <trkpt lat="33.96807" lon="77.29044">
        <ele>3387.8</ele>
        <time>2015-09-02T03:10:55Z</time>
      </trkpt>
      <trkpt lat="33.96805" lon="77.29046">
        <ele>3387.8</ele>
        <time>2015-09-02T03:10:57Z</time>
      </trkpt>
      <trkpt lat="33.968" lon="77.29057">
        <ele>3389</ele>
        <time>2015-09-02T03:11:08Z</time>
      </trkpt>
      <trkpt lat="33.96795" lon="77.29063">
        <ele>3390.2</ele>
        <time>2015-09-02T03:11:17Z</time>
      </trkpt>
      <trkpt lat="33.96791" lon="77.29075">
        <ele>3389</ele>
        <time>2015-09-02T03:11:28Z</time>
      </trkpt>
      <trkpt lat="33.96785" lon="77.29089">
        <ele>3388</ele>
        <time>2015-09-02T03:11:38Z</time>
      </trkpt>
      <trkpt lat="33.96778" lon="77.29101">
        <ele>3388</ele>
        <time>2015-09-02T03:11:48Z</time>
      </trkpt>
      <trkpt lat="33.96775" lon="77.29111">
        <ele>3388.2</ele>
        <time>2015-09-02T03:11:56Z</time>
      </trkpt>
      <trkpt lat="33.9677" lon="77.29115">
        <ele>3388.2</ele>
        <time>2015-09-02T03:12:02Z</time>
      </trkpt>
      <trkpt lat="33.96768" lon="77.2912">
        <ele>3388.2</ele>
        <time>2015-09-02T03:12:05Z</time>
      </trkpt>
      <trkpt lat="33.96754" lon="77.29136">
        <ele>3389</ele>
        <time>2015-09-02T03:12:23Z</time>
      </trkpt>
      <trkpt lat="33.96742" lon="77.29145">
        <ele>3388.8</ele>
        <time>2015-09-02T03:12:37Z</time>
      </trkpt>
      <trkpt lat="33.9674" lon="77.29149">
        <ele>3388.2</ele>
        <time>2015-09-02T03:12:42Z</time>
      </trkpt>
      <trkpt lat="33.96738" lon="77.29156">
        <ele>3388.2</ele>
        <time>2015-09-02T03:12:46Z</time>
      </trkpt>
      <trkpt lat="33.96722" lon="77.2917">
        <ele>3389.8</ele>
        <time>2015-09-02T03:13:04Z</time>
      </trkpt>
      <trkpt lat="33.96719" lon="77.29176">
        <ele>3390</ele>
        <time>2015-09-02T03:13:10Z</time>
      </trkpt>
      <trkpt lat="33.96719" lon="77.29177">
        <ele>3390.2</ele>
        <time>2015-09-02T03:13:11Z</time>
      </trkpt>
      <trkpt lat="33.96714" lon="77.29172">
        <ele>3390.4</ele>
        <time>2015-09-02T03:13:20Z</time>
      </trkpt>
      <trkpt lat="33.96713" lon="77.29173">
        <ele>3390.2</ele>
        <time>2015-09-02T03:13:26Z</time>
      </trkpt>
      <trkpt lat="33.96716" lon="77.29175">
        <ele>3390.4</ele>
        <time>2015-09-02T03:14:09Z</time>
      </trkpt>
      <trkpt lat="33.96718" lon="77.29182">
        <ele>3390.4</ele>
        <time>2015-09-02T03:14:31Z</time>
      </trkpt>
      <trkpt lat="33.96714" lon="77.29187">
        <ele>3390.6</ele>
        <time>2015-09-02T03:14:40Z</time>
      </trkpt>
      <trkpt lat="33.96701" lon="77.29195">
        <ele>3390.4</ele>
        <time>2015-09-02T03:14:57Z</time>
      </trkpt>
      <trkpt lat="33.96687" lon="77.29206">
        <ele>3390.4</ele>
        <time>2015-09-02T03:15:13Z</time>
      </trkpt>
      <trkpt lat="33.96683" lon="77.29213">
        <ele>3390.4</ele>
        <time>2015-09-02T03:15:18Z</time>
      </trkpt>
      <trkpt lat="33.96679" lon="77.29219">
        <ele>3391.2</ele>
        <time>2015-09-02T03:15:28Z</time>
      </trkpt>
      <trkpt lat="33.96676" lon="77.29224">
        <ele>3391.6</ele>
        <time>2015-09-02T03:15:33Z</time>
      </trkpt>
      <trkpt lat="33.96671" lon="77.29232">
        <ele>3391.4</ele>
        <time>2015-09-02T03:15:42Z</time>
      </trkpt>
      <trkpt lat="33.96665" lon="77.29238">
        <ele>3392.4</ele>
        <time>2015-09-02T03:15:48Z</time>
      </trkpt>
      <trkpt lat="33.9666" lon="77.29247">
        <ele>3392.4</ele>
        <time>2015-09-02T03:15:56Z</time>
      </trkpt>
      <trkpt lat="33.96659" lon="77.29249">
        <ele>3392.6</ele>
        <time>2015-09-02T03:15:58Z</time>
      </trkpt>
      <trkpt lat="33.96662" lon="77.29262">
        <ele>3393</ele>
        <time>2015-09-02T03:16:05Z</time>
      </trkpt>
      <trkpt lat="33.96663" lon="77.29266">
        <ele>3393.4</ele>
        <time>2015-09-02T03:16:07Z</time>
      </trkpt>
      <trkpt lat="33.96652" lon="77.29266">
        <ele>3394.4</ele>
        <time>2015-09-02T03:16:14Z</time>
      </trkpt>
      <trkpt lat="33.9665" lon="77.29266">
        <ele>3394.8</ele>
        <time>2015-09-02T03:16:17Z</time>
      </trkpt>
      <trkpt lat="33.96649" lon="77.29268">
        <ele>3395.2</ele>
        <time>2015-09-02T03:16:19Z</time>
      </trkpt>
      <trkpt lat="33.96646" lon="77.2927">
        <ele>3395.4</ele>
        <time>2015-09-02T03:16:21Z</time>
      </trkpt>
      <trkpt lat="33.96645" lon="77.29275">
        <ele>3395.8</ele>
        <time>2015-09-02T03:16:23Z</time>
      </trkpt>
      <trkpt lat="33.96643" lon="77.29281">
        <ele>3396.6</ele>
        <time>2015-09-02T03:16:28Z</time>
      </trkpt>
      <trkpt lat="33.96641" lon="77.29289">
        <ele>3397.2</ele>
        <time>2015-09-02T03:16:35Z</time>
      </trkpt>
      <trkpt lat="33.9664" lon="77.29291">
        <ele>3397.4</ele>
        <time>2015-09-02T03:16:37Z</time>
      </trkpt>
      <trkpt lat="33.9664" lon="77.29292">
        <ele>3397.6</ele>
        <time>2015-09-02T03:16:38Z</time>
      </trkpt>
      <trkpt lat="33.96634" lon="77.293">
        <ele>3398.4</ele>
        <time>2015-09-02T03:16:53Z</time>
      </trkpt>
      <trkpt lat="33.96624" lon="77.29313">
        <ele>3396.6</ele>
        <time>2015-09-02T03:17:06Z</time>
      </trkpt>
      <trkpt lat="33.96624" lon="77.29322">
        <ele>3395.6</ele>
        <time>2015-09-02T03:17:15Z</time>
      </trkpt>
      <trkpt lat="33.96618" lon="77.29325">
        <ele>3396</ele>
        <time>2015-09-02T03:17:21Z</time>
      </trkpt>
      <trkpt lat="33.96606" lon="77.2934">
        <ele>3396</ele>
        <time>2015-09-02T03:17:36Z</time>
      </trkpt>
      <trkpt lat="33.96606" lon="77.29342">
        <ele>3396</ele>
        <time>2015-09-02T03:17:37Z</time>
      </trkpt>
      <trkpt lat="33.96602" lon="77.29345">
        <ele>3395.8</ele>
        <time>2015-09-02T03:17:43Z</time>
      </trkpt>
      <trkpt lat="33.96601" lon="77.29346">
        <ele>3395.6</ele>
        <time>2015-09-02T03:17:44Z</time>
      </trkpt>
      <trkpt lat="33.96583" lon="77.29348">
        <ele>3396.2</ele>
        <time>2015-09-02T03:17:53Z</time>
      </trkpt>
      <trkpt lat="33.96578" lon="77.2935">
        <ele>3396.6</ele>
        <time>2015-09-02T03:17:57Z</time>
      </trkpt>
      <trkpt lat="33.9656" lon="77.2936">
        <ele>3397.4</ele>
        <time>2015-09-02T03:18:08Z</time>
      </trkpt>
      <trkpt lat="33.96554" lon="77.2936">
        <ele>3397.8</ele>
        <time>2015-09-02T03:18:11Z</time>
      </trkpt>
      <trkpt lat="33.96535" lon="77.29353">
        <ele>3398.4</ele>
        <time>2015-09-02T03:18:16Z</time>
      </trkpt>
      <trkpt lat="33.96516" lon="77.29351">
        <ele>3398.8</ele>
        <time>2015-09-02T03:18:22Z</time>
      </trkpt>
      <trkpt lat="33.96513" lon="77.2935">
        <ele>3398.8</ele>
        <time>2015-09-02T03:18:23Z</time>
      </trkpt>
      <trkpt lat="33.96546" lon="77.2937">
        <ele>3399.4</ele>
        <time>2015-09-02T03:18:29Z</time>
      </trkpt>
      <trkpt lat="33.96562" lon="77.2938">
        <ele>3399.8</ele>
        <time>2015-09-02T03:18:32Z</time>
      </trkpt>
      <trkpt lat="33.96566" lon="77.29385">
        <ele>3400.2</ele>
        <time>2015-09-02T03:18:37Z</time>
      </trkpt>
      <trkpt lat="33.96546" lon="77.29394">
        <ele>3399.8</ele>
        <time>2015-09-02T03:18:52Z</time>
      </trkpt>
      <trkpt lat="33.96534" lon="77.2939">
        <ele>3399.2</ele>
        <time>2015-09-02T03:19:00Z</time>
      </trkpt>
      <trkpt lat="33.96532" lon="77.2939">
        <ele>3399</ele>
        <time>2015-09-02T03:19:01Z</time>
      </trkpt>
      <trkpt lat="33.9653" lon="77.2939">
        <ele>3398.8</ele>
        <time>2015-09-02T03:19:03Z</time>
      </trkpt>
      <trkpt lat="33.96531" lon="77.29398">
        <ele>3398.6</ele>
        <time>2015-09-02T03:19:12Z</time>
      </trkpt>
      <trkpt lat="33.96533" lon="77.29402">
        <ele>3398.8</ele>
        <time>2015-09-02T03:19:14Z</time>
      </trkpt>
      <trkpt lat="33.96518" lon="77.2941">
        <ele>3399.2</ele>
        <time>2015-09-02T03:19:28Z</time>
      </trkpt>
      <trkpt lat="33.96514" lon="77.2941">
        <ele>3399.8</ele>
        <time>2015-09-02T03:19:31Z</time>
      </trkpt>
      <trkpt lat="33.96513" lon="77.29411">
        <ele>3400</ele>
        <time>2015-09-02T03:19:32Z</time>
      </trkpt>
      <trkpt lat="33.96511" lon="77.29412">
        <ele>3400.6</ele>
        <time>2015-09-02T03:19:35Z</time>
      </trkpt>
      <trkpt lat="33.96509" lon="77.29413">
        <ele>3401</ele>
        <time>2015-09-02T03:19:38Z</time>
      </trkpt>
      <trkpt lat="33.96505" lon="77.2943">
        <ele>3401.6</ele>
        <time>2015-09-02T03:19:45Z</time>
      </trkpt>
      <trkpt lat="33.96496" lon="77.29429">
        <ele>3402</ele>
        <time>2015-09-02T03:20:09Z</time>
      </trkpt>
      <trkpt lat="33.96487" lon="77.29436">
        <ele>3402.4</ele>
        <time>2015-09-02T03:20:22Z</time>
      </trkpt>
      <trkpt lat="33.96479" lon="77.29447">
        <ele>3402.4</ele>
        <time>2015-09-02T03:20:35Z</time>
      </trkpt>
      <trkpt lat="33.96477" lon="77.29458">
        <ele>3402.8</ele>
        <time>2015-09-02T03:20:41Z</time>
      </trkpt>
      <trkpt lat="33.96475" lon="77.29461">
        <ele>3403</ele>
        <time>2015-09-02T03:20:44Z</time>
      </trkpt>
      <trkpt lat="33.9646" lon="77.2947">
        <ele>3403</ele>
        <time>2015-09-02T03:20:58Z</time>
      </trkpt>
      <trkpt lat="33.96441" lon="77.2947">
        <ele>3402.8</ele>
        <time>2015-09-02T03:21:14Z</time>
      </trkpt>
      <trkpt lat="33.96429" lon="77.2948">
        <ele>3403.4</ele>
        <time>2015-09-02T03:21:30Z</time>
      </trkpt>
      <trkpt lat="33.96413" lon="77.29492">
        <ele>3403.8</ele>
        <time>2015-09-02T03:21:46Z</time>
      </trkpt>
      <trkpt lat="33.96407" lon="77.29496">
        <ele>3404.2</ele>
        <time>2015-09-02T03:21:52Z</time>
      </trkpt>
      <trkpt lat="33.96393" lon="77.29511">
        <ele>3404.4</ele>
        <time>2015-09-02T03:22:11Z</time>
      </trkpt>
      <trkpt lat="33.96378" lon="77.29513">
        <ele>3403.4</ele>
        <time>2015-09-02T03:22:24Z</time>
      </trkpt>
      <trkpt lat="33.9638" lon="77.29516">
        <ele>3403.4</ele>
        <time>2015-09-02T03:22:26Z</time>
      </trkpt>
      <trkpt lat="33.96378" lon="77.29518">
        <ele>3403.4</ele>
        <time>2015-09-02T03:22:28Z</time>
      </trkpt>
      <trkpt lat="33.96371" lon="77.29526">
        <ele>3404</ele>
        <time>2015-09-02T03:22:38Z</time>
      </trkpt>
      <trkpt lat="33.96356" lon="77.29536">
        <ele>3404.4</ele>
        <time>2015-09-02T03:22:54Z</time>
      </trkpt>
      <trkpt lat="33.96352" lon="77.29538">
        <ele>3404.8</ele>
        <time>2015-09-02T03:22:58Z</time>
      </trkpt>
      <trkpt lat="33.96336" lon="77.29551">
        <ele>3404.4</ele>
        <time>2015-09-02T03:23:15Z</time>
      </trkpt>
      <trkpt lat="33.96332" lon="77.29559">
        <ele>3404.8</ele>
        <time>2015-09-02T03:23:22Z</time>
      </trkpt>
      <trkpt lat="33.96327" lon="77.29558">
        <ele>3404.6</ele>
        <time>2015-09-02T03:23:29Z</time>
      </trkpt>
      <trkpt lat="33.96326" lon="77.29557">
        <ele>3404.6</ele>
        <time>2015-09-02T03:23:31Z</time>
      </trkpt>
      <trkpt lat="33.96324" lon="77.29555">
        <ele>3404.8</ele>
        <time>2015-09-02T03:23:34Z</time>
      </trkpt>
      <trkpt lat="33.96322" lon="77.29554">
        <ele>3404.8</ele>
        <time>2015-09-02T03:23:36Z</time>
      </trkpt>
      <trkpt lat="33.9632" lon="77.29555">
        <ele>3405</ele>
        <time>2015-09-02T03:23:38Z</time>
      </trkpt>
      <trkpt lat="33.96319" lon="77.29557">
        <ele>3405</ele>
        <time>2015-09-02T03:23:40Z</time>
      </trkpt>
      <trkpt lat="33.96317" lon="77.29557">
        <ele>3405.2</ele>
        <time>2015-09-02T03:23:47Z</time>
      </trkpt>
      <trkpt lat="33.96309" lon="77.29554">
        <ele>3405.2</ele>
        <time>2015-09-02T03:23:59Z</time>
      </trkpt>
      <trkpt lat="33.96301" lon="77.29556">
        <ele>3405</ele>
        <time>2015-09-02T03:24:07Z</time>
      </trkpt>
      <trkpt lat="33.96305" lon="77.2955">
        <ele>3405.6</ele>
        <time>2015-09-02T03:24:17Z</time>
      </trkpt>
      <trkpt lat="33.96303" lon="77.29555">
        <ele>3405.6</ele>
        <time>2015-09-02T03:24:24Z</time>
      </trkpt>
      <trkpt lat="33.96293" lon="77.29555">
        <ele>3405.4</ele>
        <time>2015-09-02T03:24:35Z</time>
      </trkpt>
      <trkpt lat="33.96293" lon="77.29546">
        <ele>3405.8</ele>
        <time>2015-09-02T03:25:00Z</time>
      </trkpt>
      <trkpt lat="33.96297" lon="77.29556">
        <ele>3406.2</ele>
        <time>2015-09-02T03:25:13Z</time>
      </trkpt>
      <trkpt lat="33.96294" lon="77.29556">
        <ele>3406.4</ele>
        <time>2015-09-02T03:25:15Z</time>
      </trkpt>
      <trkpt lat="33.96287" lon="77.29564">
        <ele>3406.4</ele>
        <time>2015-09-02T03:25:23Z</time>
      </trkpt>
      <trkpt lat="33.96285" lon="77.29566">
        <ele>3406.4</ele>
        <time>2015-09-02T03:25:27Z</time>
      </trkpt>
      <trkpt lat="33.96267" lon="77.29562">
        <ele>3406.4</ele>
        <time>2015-09-02T03:25:39Z</time>
      </trkpt>
      <trkpt lat="33.96252" lon="77.29568">
        <ele>3406.8</ele>
        <time>2015-09-02T03:25:54Z</time>
      </trkpt>
      <trkpt lat="33.9625" lon="77.29569">
        <ele>3407.4</ele>
        <time>2015-09-02T03:26:00Z</time>
      </trkpt>
      <trkpt lat="33.96246" lon="77.2957">
        <ele>3407.8</ele>
        <time>2015-09-02T03:26:03Z</time>
      </trkpt>
      <trkpt lat="33.96242" lon="77.29572">
        <ele>3408.4</ele>
        <time>2015-09-02T03:26:06Z</time>
      </trkpt>
      <trkpt lat="33.96231" lon="77.29573">
        <ele>3408.4</ele>
        <time>2015-09-02T03:26:20Z</time>
      </trkpt>
      <trkpt lat="33.96215" lon="77.29574">
        <ele>3408</ele>
        <time>2015-09-02T03:26:36Z</time>
      </trkpt>
      <trkpt lat="33.96209" lon="77.2958">
        <ele>3408.4</ele>
        <time>2015-09-02T03:26:42Z</time>
      </trkpt>
      <trkpt lat="33.96191" lon="77.29575">
        <ele>3409</ele>
        <time>2015-09-02T03:26:57Z</time>
      </trkpt>
      <trkpt lat="33.96188" lon="77.29574">
        <ele>3409</ele>
        <time>2015-09-02T03:27:00Z</time>
      </trkpt>
      <trkpt lat="33.96173" lon="77.29575">
        <ele>3409.4</ele>
        <time>2015-09-02T03:27:12Z</time>
      </trkpt>
      <trkpt lat="33.96173" lon="77.29579">
        <ele>3409.6</ele>
        <time>2015-09-02T03:27:14Z</time>
      </trkpt>
      <trkpt lat="33.96172" lon="77.29591">
        <ele>3409.6</ele>
        <time>2015-09-02T03:27:19Z</time>
      </trkpt>
      <trkpt lat="33.9617" lon="77.29588">
        <ele>3410.4</ele>
        <time>2015-09-02T03:27:52Z</time>
      </trkpt>
      <trkpt lat="33.96168" lon="77.29586">
        <ele>3410</ele>
        <time>2015-09-02T03:28:25Z</time>
      </trkpt>
      <trkpt lat="33.96163" lon="77.29585">
        <ele>3409.8</ele>
        <time>2015-09-02T03:28:30Z</time>
      </trkpt>
      <trkpt lat="33.96162" lon="77.29585">
        <ele>3409.4</ele>
        <time>2015-09-02T03:28:31Z</time>
      </trkpt>
      <trkpt lat="33.96149" lon="77.29588">
        <ele>3409</ele>
        <time>2015-09-02T03:28:43Z</time>
      </trkpt>
      <trkpt lat="33.96149" lon="77.296">
        <ele>3409</ele>
        <time>2015-09-02T03:28:45Z</time>
      </trkpt>
      <trkpt lat="33.96138" lon="77.29611">
        <ele>3409.4</ele>
        <time>2015-09-02T03:29:26Z</time>
      </trkpt>
      <trkpt lat="33.96137" lon="77.29614">
        <ele>3409.8</ele>
        <time>2015-09-02T03:29:38Z</time>
      </trkpt>
      <trkpt lat="33.96134" lon="77.29618">
        <ele>3410</ele>
        <time>2015-09-02T03:29:42Z</time>
      </trkpt>
      <trkpt lat="33.9612" lon="77.29627">
        <ele>3409.8</ele>
        <time>2015-09-02T03:30:01Z</time>
      </trkpt>
      <trkpt lat="33.96115" lon="77.2963">
        <ele>3409.4</ele>
        <time>2015-09-02T03:30:07Z</time>
      </trkpt>
      <trkpt lat="33.96109" lon="77.29642">
        <ele>3410.2</ele>
        <time>2015-09-02T03:30:26Z</time>
      </trkpt>
      <trkpt lat="33.96108" lon="77.29643">
        <ele>3410.2</ele>
        <time>2015-09-02T03:30:28Z</time>
      </trkpt>
      <trkpt lat="33.96106" lon="77.29643">
        <ele>3410.4</ele>
        <time>2015-09-02T03:30:30Z</time>
      </trkpt>
      <trkpt lat="33.96103" lon="77.29646">
        <ele>3410.4</ele>
        <time>2015-09-02T03:30:35Z</time>
      </trkpt>
      <trkpt lat="33.96099" lon="77.29647">
        <ele>3410.6</ele>
        <time>2015-09-02T03:30:40Z</time>
      </trkpt>
      <trkpt lat="33.96095" lon="77.29647">
        <ele>3410.6</ele>
        <time>2015-09-02T03:30:45Z</time>
      </trkpt>
      <trkpt lat="33.96088" lon="77.29652">
        <ele>3411</ele>
        <time>2015-09-02T03:30:58Z</time>
      </trkpt>
      <trkpt lat="33.96085" lon="77.29652">
        <ele>3411.2</ele>
        <time>2015-09-02T03:31:00Z</time>
      </trkpt>
      <trkpt lat="33.96075" lon="77.29656">
        <ele>3411.4</ele>
        <time>2015-09-02T03:31:10Z</time>
      </trkpt>
      <trkpt lat="33.96058" lon="77.29663">
        <ele>3412.4</ele>
        <time>2015-09-02T03:31:33Z</time>
      </trkpt>
      <trkpt lat="33.96054" lon="77.29674">
        <ele>3412.4</ele>
        <time>2015-09-02T03:31:39Z</time>
      </trkpt>
      <trkpt lat="33.96053" lon="77.29674">
        <ele>3412.4</ele>
        <time>2015-09-02T03:31:40Z</time>
      </trkpt>
      <trkpt lat="33.96046" lon="77.29686">
        <ele>3412.4</ele>
        <time>2015-09-02T03:31:51Z</time>
      </trkpt>
      <trkpt lat="33.96028" lon="77.29681">
        <ele>3413</ele>
        <time>2015-09-02T03:32:08Z</time>
      </trkpt>
      <trkpt lat="33.96023" lon="77.29682">
        <ele>3412.8</ele>
        <time>2015-09-02T03:32:13Z</time>
      </trkpt>
      <trkpt lat="33.96023" lon="77.29688">
        <ele>3413</ele>
        <time>2015-09-02T03:32:19Z</time>
      </trkpt>
      <trkpt lat="33.96022" lon="77.29689">
        <ele>3413.2</ele>
        <time>2015-09-02T03:32:21Z</time>
      </trkpt>
      <trkpt lat="33.96021" lon="77.29689">
        <ele>3413.6</ele>
        <time>2015-09-02T03:32:24Z</time>
      </trkpt>
      <trkpt lat="33.96017" lon="77.2969">
        <ele>3414</ele>
        <time>2015-09-02T03:32:29Z</time>
      </trkpt>
      <trkpt lat="33.96015" lon="77.29691">
        <ele>3414.2</ele>
        <time>2015-09-02T03:32:31Z</time>
      </trkpt>
      <trkpt lat="33.96013" lon="77.29692">
        <ele>3414.4</ele>
        <time>2015-09-02T03:32:33Z</time>
      </trkpt>
      <trkpt lat="33.96007" lon="77.29696">
        <ele>3414.4</ele>
        <time>2015-09-02T03:32:38Z</time>
      </trkpt>
      <trkpt lat="33.96004" lon="77.29699">
        <ele>3414.6</ele>
        <time>2015-09-02T03:32:43Z</time>
      </trkpt>
      <trkpt lat="33.95999" lon="77.29698">
        <ele>3415.2</ele>
        <time>2015-09-02T03:32:48Z</time>
      </trkpt>
      <trkpt lat="33.95979" lon="77.29695">
        <ele>3415.6</ele>
        <time>2015-09-02T03:33:08Z</time>
      </trkpt>
      <trkpt lat="33.95951" lon="77.29702">
        <ele>3417.2</ele>
        <time>2015-09-02T03:33:45Z</time>
      </trkpt>
      <trkpt lat="33.95942" lon="77.297">
        <ele>3417.8</ele>
        <time>2015-09-02T03:33:52Z</time>
      </trkpt>
      <trkpt lat="33.95934" lon="77.29703">
        <ele>3418.2</ele>
        <time>2015-09-02T03:34:00Z</time>
      </trkpt>
      <trkpt lat="33.95927" lon="77.2971">
        <ele>3418.2</ele>
        <time>2015-09-02T03:34:07Z</time>
      </trkpt>
      <trkpt lat="33.95917" lon="77.29714">
        <ele>3417.4</ele>
        <time>2015-09-02T03:34:19Z</time>
      </trkpt>
      <trkpt lat="33.95916" lon="77.29712">
        <ele>3417.2</ele>
        <time>2015-09-02T03:34:21Z</time>
      </trkpt>
      <trkpt lat="33.9591" lon="77.29712">
        <ele>3418.4</ele>
        <time>2015-09-02T03:34:32Z</time>
      </trkpt>
      <trkpt lat="33.95907" lon="77.29716">
        <ele>3418.6</ele>
        <time>2015-09-02T03:34:35Z</time>
      </trkpt>
      <trkpt lat="33.95906" lon="77.29717">
        <ele>3418.8</ele>
        <time>2015-09-02T03:34:36Z</time>
      </trkpt>
      <trkpt lat="33.95905" lon="77.2972">
        <ele>3419</ele>
        <time>2015-09-02T03:34:38Z</time>
      </trkpt>
      <trkpt lat="33.95893" lon="77.29734">
        <ele>3419.6</ele>
        <time>2015-09-02T03:34:51Z</time>
      </trkpt>
      <trkpt lat="33.95888" lon="77.29739">
        <ele>3419.6</ele>
        <time>2015-09-02T03:34:58Z</time>
      </trkpt>
      <trkpt lat="33.95881" lon="77.29745">
        <ele>3419.8</ele>
        <time>2015-09-02T03:35:05Z</time>
      </trkpt>
      <trkpt lat="33.9587" lon="77.29763">
        <ele>3420.8</ele>
        <time>2015-09-02T03:35:21Z</time>
      </trkpt>
      <trkpt lat="33.95866" lon="77.29769">
        <ele>3421</ele>
        <time>2015-09-02T03:35:28Z</time>
      </trkpt>
      <trkpt lat="33.95865" lon="77.2977">
        <ele>3421</ele>
        <time>2015-09-02T03:35:29Z</time>
      </trkpt>
      <trkpt lat="33.95856" lon="77.29778">
        <ele>3421.4</ele>
        <time>2015-09-02T03:35:40Z</time>
      </trkpt>
      <trkpt lat="33.95854" lon="77.29785">
        <ele>3421.6</ele>
        <time>2015-09-02T03:35:43Z</time>
      </trkpt>
      <trkpt lat="33.95851" lon="77.29788">
        <ele>3421.6</ele>
        <time>2015-09-02T03:35:48Z</time>
      </trkpt>
      <trkpt lat="33.95849" lon="77.29791">
        <ele>3421.4</ele>
        <time>2015-09-02T03:35:51Z</time>
      </trkpt>
      <trkpt lat="33.95849" lon="77.29792">
        <ele>3421.2</ele>
        <time>2015-09-02T03:35:52Z</time>
      </trkpt>
      <trkpt lat="33.95818" lon="77.29812">
        <ele>3424.4</ele>
        <time>2015-09-02T03:36:44Z</time>
      </trkpt>
      <trkpt lat="33.95815" lon="77.29817">
        <ele>3424.6</ele>
        <time>2015-09-02T03:36:46Z</time>
      </trkpt>
      <trkpt lat="33.95813" lon="77.2982">
        <ele>3424.6</ele>
        <time>2015-09-02T03:36:48Z</time>
      </trkpt>
      <trkpt lat="33.95809" lon="77.29823">
        <ele>3424.6</ele>
        <time>2015-09-02T03:36:51Z</time>
      </trkpt>
      <trkpt lat="33.95806" lon="77.29826">
        <ele>3424.8</ele>
        <time>2015-09-02T03:36:53Z</time>
      </trkpt>
      <trkpt lat="33.95804" lon="77.29828">
        <ele>3425</ele>
        <time>2015-09-02T03:36:55Z</time>
      </trkpt>
      <trkpt lat="33.95802" lon="77.29829">
        <ele>3425</ele>
        <time>2015-09-02T03:36:57Z</time>
      </trkpt>
      <trkpt lat="33.95799" lon="77.29833">
        <ele>3425.2</ele>
        <time>2015-09-02T03:37:00Z</time>
      </trkpt>
      <trkpt lat="33.95793" lon="77.29854">
        <ele>3425.6</ele>
        <time>2015-09-02T03:37:12Z</time>
      </trkpt>
      <trkpt lat="33.95789" lon="77.29859">
        <ele>3426.2</ele>
        <time>2015-09-02T03:37:19Z</time>
      </trkpt>
      <trkpt lat="33.95782" lon="77.29866">
        <ele>3427.4</ele>
        <time>2015-09-02T03:37:29Z</time>
      </trkpt>
      <trkpt lat="33.95778" lon="77.29865">
        <ele>3427.6</ele>
        <time>2015-09-02T03:37:34Z</time>
      </trkpt>
      <trkpt lat="33.95776" lon="77.29862">
        <ele>3428</ele>
        <time>2015-09-02T03:37:36Z</time>
      </trkpt>
      <trkpt lat="33.95773" lon="77.2986">
        <ele>3428.2</ele>
        <time>2015-09-02T03:37:39Z</time>
      </trkpt>
      <trkpt lat="33.95771" lon="77.29866">
        <ele>3428.4</ele>
        <time>2015-09-02T03:37:41Z</time>
      </trkpt>
      <trkpt lat="33.95759" lon="77.29877">
        <ele>3429</ele>
        <time>2015-09-02T03:37:55Z</time>
      </trkpt>
      <trkpt lat="33.95757" lon="77.29878">
        <ele>3429.2</ele>
        <time>2015-09-02T03:37:57Z</time>
      </trkpt>
      <trkpt lat="33.95756" lon="77.29878">
        <ele>3429.4</ele>
        <time>2015-09-02T03:37:58Z</time>
      </trkpt>
      <trkpt lat="33.95746" lon="77.29883">
        <ele>3430.2</ele>
        <time>2015-09-02T03:38:10Z</time>
      </trkpt>
      <trkpt lat="33.95745" lon="77.29883">
        <ele>3430.4</ele>
        <time>2015-09-02T03:38:12Z</time>
      </trkpt>
      <trkpt lat="33.95738" lon="77.29897">
        <ele>3431.4</ele>
        <time>2015-09-02T03:38:26Z</time>
      </trkpt>
      <trkpt lat="33.95738" lon="77.29905">
        <ele>3431.6</ele>
        <time>2015-09-02T03:38:29Z</time>
      </trkpt>
      <trkpt lat="33.95736" lon="77.2992">
        <ele>3432.2</ele>
        <time>2015-09-02T03:38:36Z</time>
      </trkpt>
      <trkpt lat="33.95735" lon="77.29923">
        <ele>3432.6</ele>
        <time>2015-09-02T03:38:38Z</time>
      </trkpt>
      <trkpt lat="33.95735" lon="77.29918">
        <ele>3432.8</ele>
        <time>2015-09-02T03:38:41Z</time>
      </trkpt>
      <trkpt lat="33.95736" lon="77.29909">
        <ele>3432.6</ele>
        <time>2015-09-02T03:38:44Z</time>
      </trkpt>
      <trkpt lat="33.95735" lon="77.29911">
        <ele>3433.6</ele>
        <time>2015-09-02T03:38:58Z</time>
      </trkpt>
      <trkpt lat="33.95739" lon="77.29922">
        <ele>3434.6</ele>
        <time>2015-09-02T03:39:15Z</time>
      </trkpt>
      <trkpt lat="33.95736" lon="77.29929">
        <ele>3434.8</ele>
        <time>2015-09-02T03:39:21Z</time>
      </trkpt>
      <trkpt lat="33.95734" lon="77.29935">
        <ele>3435.2</ele>
        <time>2015-09-02T03:39:26Z</time>
      </trkpt>
      <trkpt lat="33.95736" lon="77.29954">
        <ele>3435.6</ele>
        <time>2015-09-02T03:39:32Z</time>
      </trkpt>
      <trkpt lat="33.95738" lon="77.29958">
        <ele>3435.8</ele>
        <time>2015-09-02T03:39:36Z</time>
      </trkpt>
      <trkpt lat="33.95741" lon="77.29963">
        <ele>3436</ele>
        <time>2015-09-02T03:39:40Z</time>
      </trkpt>
      <trkpt lat="33.95742" lon="77.29974">
        <ele>3436.8</ele>
        <time>2015-09-02T03:39:49Z</time>
      </trkpt>
      <trkpt lat="33.95743" lon="77.29977">
        <ele>3437</ele>
        <time>2015-09-02T03:39:52Z</time>
      </trkpt>
      <trkpt lat="33.95747" lon="77.29983">
        <ele>3437.4</ele>
        <time>2015-09-02T03:40:01Z</time>
      </trkpt>
      <trkpt lat="33.95752" lon="77.29984">
        <ele>3437.6</ele>
        <time>2015-09-02T03:40:04Z</time>
      </trkpt>
      <trkpt lat="33.95753" lon="77.29986">
        <ele>3437.8</ele>
        <time>2015-09-02T03:40:06Z</time>
      </trkpt>
      <trkpt lat="33.95754" lon="77.29988">
        <ele>3437.8</ele>
        <time>2015-09-02T03:40:08Z</time>
      </trkpt>
      <trkpt lat="33.95755" lon="77.3">
        <ele>3438.6</ele>
        <time>2015-09-02T03:40:20Z</time>
      </trkpt>
      <trkpt lat="33.95758" lon="77.30002">
        <ele>3438.6</ele>
        <time>2015-09-02T03:40:25Z</time>
      </trkpt>
      <trkpt lat="33.95762" lon="77.30011">
        <ele>3438.4</ele>
        <time>2015-09-02T03:40:38Z</time>
      </trkpt>
      <trkpt lat="33.9576" lon="77.30013">
        <ele>3438.4</ele>
        <time>2015-09-02T03:40:41Z</time>
      </trkpt>
      <trkpt lat="33.95754" lon="77.30013">
        <ele>3438.4</ele>
        <time>2015-09-02T03:40:47Z</time>
      </trkpt>
      <trkpt lat="33.9575" lon="77.30016">
        <ele>3438.6</ele>
        <time>2015-09-02T03:40:52Z</time>
      </trkpt>
      <trkpt lat="33.95749" lon="77.30019">
        <ele>3438.8</ele>
        <time>2015-09-02T03:40:55Z</time>
      </trkpt>
      <trkpt lat="33.95749" lon="77.3002">
        <ele>3438.8</ele>
        <time>2015-09-02T03:40:56Z</time>
      </trkpt>
      <trkpt lat="33.95743" lon="77.30033">
        <ele>3438.8</ele>
        <time>2015-09-02T03:41:06Z</time>
      </trkpt>
      <trkpt lat="33.95738" lon="77.30042">
        <ele>3438.8</ele>
        <time>2015-09-02T03:41:23Z</time>
      </trkpt>
      <trkpt lat="33.95745" lon="77.30046">
        <ele>3438.8</ele>
        <time>2015-09-02T03:41:36Z</time>
      </trkpt>
      <trkpt lat="33.9574" lon="77.30043">
        <ele>3438.8</ele>
        <time>2015-09-02T03:41:38Z</time>
      </trkpt>
      <trkpt lat="33.95737" lon="77.30043">
        <ele>3438.8</ele>
        <time>2015-09-02T03:41:41Z</time>
      </trkpt>
      <trkpt lat="33.95737" lon="77.30042">
        <ele>3438.8</ele>
        <time>2015-09-02T03:41:43Z</time>
      </trkpt>
      <trkpt lat="33.95738" lon="77.30046">
        <ele>3439.2</ele>
        <time>2015-09-02T03:42:37Z</time>
      </trkpt>
      <trkpt lat="33.95736" lon="77.30044">
        <ele>3439</ele>
        <time>2015-09-02T03:42:42Z</time>
      </trkpt>
      <trkpt lat="33.95734" lon="77.30047">
        <ele>3439</ele>
        <time>2015-09-02T03:42:45Z</time>
      </trkpt>
      <trkpt lat="33.95729" lon="77.30051">
        <ele>3439.2</ele>
        <time>2015-09-02T03:42:48Z</time>
      </trkpt>
      <trkpt lat="33.95726" lon="77.30054">
        <ele>3439.2</ele>
        <time>2015-09-02T03:42:50Z</time>
      </trkpt>
      <trkpt lat="33.95729" lon="77.30056">
        <ele>3439</ele>
        <time>2015-09-02T03:42:53Z</time>
      </trkpt>
      <trkpt lat="33.95733" lon="77.30056">
        <ele>3438.8</ele>
        <time>2015-09-02T03:42:55Z</time>
      </trkpt>
      <trkpt lat="33.95739" lon="77.30064">
        <ele>3438.2</ele>
        <time>2015-09-02T03:43:04Z</time>
      </trkpt>
      <trkpt lat="33.95744" lon="77.3007">
        <ele>3437.8</ele>
        <time>2015-09-02T03:43:10Z</time>
      </trkpt>
      <trkpt lat="33.95746" lon="77.30072">
        <ele>3437.2</ele>
        <time>2015-09-02T03:43:13Z</time>
      </trkpt>
      <trkpt lat="33.95746" lon="77.30077">
        <ele>3436.6</ele>
        <time>2015-09-02T03:43:18Z</time>
      </trkpt>
      <trkpt lat="33.95749" lon="77.30078">
        <ele>3436.4</ele>
        <time>2015-09-02T03:43:21Z</time>
      </trkpt>
      <trkpt lat="33.95749" lon="77.30079">
        <ele>3436.4</ele>
        <time>2015-09-02T03:43:22Z</time>
      </trkpt>
      <trkpt lat="33.9575" lon="77.30081">
        <ele>3436.2</ele>
        <time>2015-09-02T03:43:25Z</time>
      </trkpt>
      <trkpt lat="33.95755" lon="77.30086">
        <ele>3435.6</ele>
        <time>2015-09-02T03:43:30Z</time>
      </trkpt>
      <trkpt lat="33.9576" lon="77.30093">
        <ele>3435</ele>
        <time>2015-09-02T03:43:39Z</time>
      </trkpt>
      <trkpt lat="33.95769" lon="77.30112">
        <ele>3435.2</ele>
        <time>2015-09-02T03:43:58Z</time>
      </trkpt>
      <trkpt lat="33.95769" lon="77.30118">
        <ele>3435.4</ele>
        <time>2015-09-02T03:44:03Z</time>
      </trkpt>
      <trkpt lat="33.95768" lon="77.30141">
        <ele>3436</ele>
        <time>2015-09-02T03:44:19Z</time>
      </trkpt>
      <trkpt lat="33.95769" lon="77.30145">
        <ele>3435.8</ele>
        <time>2015-09-02T03:44:22Z</time>
      </trkpt>
      <trkpt lat="33.95774" lon="77.30156">
        <ele>3436</ele>
        <time>2015-09-02T03:44:32Z</time>
      </trkpt>
      <trkpt lat="33.95773" lon="77.30166">
        <ele>3435.6</ele>
        <time>2015-09-02T03:44:42Z</time>
      </trkpt>
      <trkpt lat="33.95774" lon="77.30174">
        <ele>3435.2</ele>
        <time>2015-09-02T03:44:49Z</time>
      </trkpt>
      <trkpt lat="33.95777" lon="77.30186">
        <ele>3435</ele>
        <time>2015-09-02T03:45:00Z</time>
      </trkpt>
      <trkpt lat="33.95781" lon="77.30209">
        <ele>3435.6</ele>
        <time>2015-09-02T03:45:17Z</time>
      </trkpt>
      <trkpt lat="33.95781" lon="77.30211">
        <ele>3435.6</ele>
        <time>2015-09-02T03:45:18Z</time>
      </trkpt>
      <trkpt lat="33.9578" lon="77.30232">
        <ele>3436</ele>
        <time>2015-09-02T03:45:37Z</time>
      </trkpt>
      <trkpt lat="33.95781" lon="77.30241">
        <ele>3436.4</ele>
        <time>2015-09-02T03:45:44Z</time>
      </trkpt>
      <trkpt lat="33.95779" lon="77.30247">
        <ele>3436.6</ele>
        <time>2015-09-02T03:45:48Z</time>
      </trkpt>
      <trkpt lat="33.95779" lon="77.3025">
        <ele>3437</ele>
        <time>2015-09-02T03:45:50Z</time>
      </trkpt>
      <trkpt lat="33.95779" lon="77.30254">
        <ele>3437.2</ele>
        <time>2015-09-02T03:45:56Z</time>
      </trkpt>
      <trkpt lat="33.95779" lon="77.30261">
        <ele>3437.8</ele>
        <time>2015-09-02T03:46:03Z</time>
      </trkpt>
      <trkpt lat="33.95779" lon="77.30267">
        <ele>3437.6</ele>
        <time>2015-09-02T03:46:09Z</time>
      </trkpt>
      <trkpt lat="33.95783" lon="77.30281">
        <ele>3437.6</ele>
        <time>2015-09-02T03:46:22Z</time>
      </trkpt>
      <trkpt lat="33.95785" lon="77.30287">
        <ele>3437.6</ele>
        <time>2015-09-02T03:46:26Z</time>
      </trkpt>
      <trkpt lat="33.95791" lon="77.30293">
        <ele>3437.8</ele>
        <time>2015-09-02T03:46:34Z</time>
      </trkpt>
      <trkpt lat="33.95792" lon="77.30298">
        <ele>3437.6</ele>
        <time>2015-09-02T03:46:39Z</time>
      </trkpt>
      <trkpt lat="33.95796" lon="77.30316">
        <ele>3437.8</ele>
        <time>2015-09-02T03:46:52Z</time>
      </trkpt>
      <trkpt lat="33.95796" lon="77.30321">
        <ele>3438</ele>
        <time>2015-09-02T03:46:56Z</time>
      </trkpt>
      <trkpt lat="33.95797" lon="77.30324">
        <ele>3438</ele>
        <time>2015-09-02T03:47:00Z</time>
      </trkpt>
      <trkpt lat="33.95798" lon="77.30326">
        <ele>3438</ele>
        <time>2015-09-02T03:47:02Z</time>
      </trkpt>
      <trkpt lat="33.95797" lon="77.30327">
        <ele>3438</ele>
        <time>2015-09-02T03:47:04Z</time>
      </trkpt>
      <trkpt lat="33.958" lon="77.30333">
        <ele>3438.8</ele>
        <time>2015-09-02T03:47:14Z</time>
      </trkpt>
      <trkpt lat="33.95801" lon="77.3034">
        <ele>3439</ele>
        <time>2015-09-02T03:47:19Z</time>
      </trkpt>
      <trkpt lat="33.95807" lon="77.30347">
        <ele>3438.8</ele>
        <time>2015-09-02T03:47:28Z</time>
      </trkpt>
      <trkpt lat="33.95807" lon="77.30365">
        <ele>3439.6</ele>
        <time>2015-09-02T03:47:42Z</time>
      </trkpt>
      <trkpt lat="33.95809" lon="77.30376">
        <ele>3439.6</ele>
        <time>2015-09-02T03:47:49Z</time>
      </trkpt>
      <trkpt lat="33.95806" lon="77.30383">
        <ele>3439.6</ele>
        <time>2015-09-02T03:47:54Z</time>
      </trkpt>
      <trkpt lat="33.95807" lon="77.30384">
        <ele>3439.6</ele>
        <time>2015-09-02T03:47:56Z</time>
      </trkpt>
      <trkpt lat="33.95807" lon="77.30387">
        <ele>3439.4</ele>
        <time>2015-09-02T03:47:59Z</time>
      </trkpt>
      <trkpt lat="33.95809" lon="77.30393">
        <ele>3439.8</ele>
        <time>2015-09-02T03:48:05Z</time>
      </trkpt>
      <trkpt lat="33.95809" lon="77.30395">
        <ele>3439.8</ele>
        <time>2015-09-02T03:48:06Z</time>
      </trkpt>
      <trkpt lat="33.95812" lon="77.30398">
        <ele>3439.8</ele>
        <time>2015-09-02T03:48:11Z</time>
      </trkpt>
      <trkpt lat="33.95814" lon="77.304">
        <ele>3439.8</ele>
        <time>2015-09-02T03:48:14Z</time>
      </trkpt>
      <trkpt lat="33.95811" lon="77.30408">
        <ele>3440.4</ele>
        <time>2015-09-02T03:48:20Z</time>
      </trkpt>
      <trkpt lat="33.95814" lon="77.30417">
        <ele>3439.8</ele>
        <time>2015-09-02T03:48:29Z</time>
      </trkpt>
      <trkpt lat="33.95814" lon="77.30419">
        <ele>3439.6</ele>
        <time>2015-09-02T03:48:31Z</time>
      </trkpt>
      <trkpt lat="33.95811" lon="77.30441">
        <ele>3439.8</ele>
        <time>2015-09-02T03:48:46Z</time>
      </trkpt>
      <trkpt lat="33.95809" lon="77.30444">
        <ele>3440</ele>
        <time>2015-09-02T03:48:49Z</time>
      </trkpt>
      <trkpt lat="33.95813" lon="77.30449">
        <ele>3440.2</ele>
        <time>2015-09-02T03:48:54Z</time>
      </trkpt>
      <trkpt lat="33.95816" lon="77.30451">
        <ele>3440.4</ele>
        <time>2015-09-02T03:48:58Z</time>
      </trkpt>
      <trkpt lat="33.95818" lon="77.30451">
        <ele>3440.4</ele>
        <time>2015-09-02T03:49:00Z</time>
      </trkpt>
      <trkpt lat="33.9582" lon="77.30453">
        <ele>3440.8</ele>
        <time>2015-09-02T03:49:03Z</time>
      </trkpt>
      <trkpt lat="33.95823" lon="77.30465">
        <ele>3441.6</ele>
        <time>2015-09-02T03:49:15Z</time>
      </trkpt>
      <trkpt lat="33.95824" lon="77.30472">
        <ele>3441.8</ele>
        <time>2015-09-02T03:49:25Z</time>
      </trkpt>
      <trkpt lat="33.95823" lon="77.30477">
        <ele>3442.2</ele>
        <time>2015-09-02T03:49:28Z</time>
      </trkpt>
      <trkpt lat="33.95826" lon="77.30479">
        <ele>3442.2</ele>
        <time>2015-09-02T03:49:30Z</time>
      </trkpt>
      <trkpt lat="33.95827" lon="77.30479">
        <ele>3442.2</ele>
        <time>2015-09-02T03:49:32Z</time>
      </trkpt>
      <trkpt lat="33.95828" lon="77.30485">
        <ele>3442</ele>
        <time>2015-09-02T03:49:38Z</time>
      </trkpt>
      <trkpt lat="33.95822" lon="77.30495">
        <ele>3440.8</ele>
        <time>2015-09-02T03:49:52Z</time>
      </trkpt>
      <trkpt lat="33.95821" lon="77.30497">
        <ele>3440.8</ele>
        <time>2015-09-02T03:49:54Z</time>
      </trkpt>
      <trkpt lat="33.95821" lon="77.30511">
        <ele>3441</ele>
        <time>2015-09-02T03:49:59Z</time>
      </trkpt>
      <trkpt lat="33.95819" lon="77.30517">
        <ele>3441</ele>
        <time>2015-09-02T03:50:02Z</time>
      </trkpt>
      <trkpt lat="33.95818" lon="77.3052">
        <ele>3441</ele>
        <time>2015-09-02T03:50:04Z</time>
      </trkpt>
      <trkpt lat="33.95818" lon="77.30529">
        <ele>3441</ele>
        <time>2015-09-02T03:50:11Z</time>
      </trkpt>
      <trkpt lat="33.95819" lon="77.30532">
        <ele>3441.2</ele>
        <time>2015-09-02T03:50:14Z</time>
      </trkpt>
      <trkpt lat="33.95819" lon="77.30537">
        <ele>3441.2</ele>
        <time>2015-09-02T03:50:18Z</time>
      </trkpt>
      <trkpt lat="33.95815" lon="77.3055">
        <ele>3441.8</ele>
        <time>2015-09-02T03:50:37Z</time>
      </trkpt>
      <trkpt lat="33.95811" lon="77.30565">
        <ele>3442.2</ele>
        <time>2015-09-02T03:50:48Z</time>
      </trkpt>
      <trkpt lat="33.95809" lon="77.30574">
        <ele>3443</ele>
        <time>2015-09-02T03:50:57Z</time>
      </trkpt>
      <trkpt lat="33.95807" lon="77.30577">
        <ele>3443</ele>
        <time>2015-09-02T03:51:00Z</time>
      </trkpt>
      <trkpt lat="33.95806" lon="77.30581">
        <ele>3443</ele>
        <time>2015-09-02T03:51:03Z</time>
      </trkpt>
      <trkpt lat="33.95803" lon="77.30589">
        <ele>3443.4</ele>
        <time>2015-09-02T03:51:11Z</time>
      </trkpt>
      <trkpt lat="33.95802" lon="77.30591">
        <ele>3444</ele>
        <time>2015-09-02T03:51:14Z</time>
      </trkpt>
      <trkpt lat="33.95798" lon="77.30612">
        <ele>3444.8</ele>
        <time>2015-09-02T03:51:32Z</time>
      </trkpt>
      <trkpt lat="33.95798" lon="77.30615">
        <ele>3445.2</ele>
        <time>2015-09-02T03:51:35Z</time>
      </trkpt>
      <trkpt lat="33.95795" lon="77.30619">
        <ele>3445.4</ele>
        <time>2015-09-02T03:51:40Z</time>
      </trkpt>
      <trkpt lat="33.95794" lon="77.30621">
        <ele>3445.4</ele>
        <time>2015-09-02T03:51:42Z</time>
      </trkpt>
      <trkpt lat="33.95791" lon="77.30626">
        <ele>3445</ele>
        <time>2015-09-02T03:51:47Z</time>
      </trkpt>
      <trkpt lat="33.95788" lon="77.3063">
        <ele>3444.2</ele>
        <time>2015-09-02T03:51:52Z</time>
      </trkpt>
      <trkpt lat="33.95788" lon="77.30634">
        <ele>3444</ele>
        <time>2015-09-02T03:51:54Z</time>
      </trkpt>
      <trkpt lat="33.95787" lon="77.30636">
        <ele>3444</ele>
        <time>2015-09-02T03:51:55Z</time>
      </trkpt>
      <trkpt lat="33.95779" lon="77.30646">
        <ele>3444.8</ele>
        <time>2015-09-02T03:52:11Z</time>
      </trkpt>
      <trkpt lat="33.95778" lon="77.30649">
        <ele>3445</ele>
        <time>2015-09-02T03:52:14Z</time>
      </trkpt>
      <trkpt lat="33.95775" lon="77.30661">
        <ele>3444.6</ele>
        <time>2015-09-02T03:52:27Z</time>
      </trkpt>
      <trkpt lat="33.95775" lon="77.30663">
        <ele>3444.6</ele>
        <time>2015-09-02T03:52:29Z</time>
      </trkpt>
      <trkpt lat="33.95775" lon="77.30675">
        <ele>3444.4</ele>
        <time>2015-09-02T03:52:35Z</time>
      </trkpt>
      <trkpt lat="33.95775" lon="77.30678">
        <ele>3444.4</ele>
        <time>2015-09-02T03:52:37Z</time>
      </trkpt>
      <trkpt lat="33.95777" lon="77.30681">
        <ele>3444.8</ele>
        <time>2015-09-02T03:52:40Z</time>
      </trkpt>
      <trkpt lat="33.9578" lon="77.30692">
        <ele>3444.8</ele>
        <time>2015-09-02T03:52:45Z</time>
      </trkpt>
      <trkpt lat="33.95784" lon="77.30703">
        <ele>3444.6</ele>
        <time>2015-09-02T03:52:54Z</time>
      </trkpt>
      <trkpt lat="33.95785" lon="77.30712">
        <ele>3445</ele>
        <time>2015-09-02T03:52:59Z</time>
      </trkpt>
      <trkpt lat="33.95786" lon="77.30713">
        <ele>3445</ele>
        <time>2015-09-02T03:53:01Z</time>
      </trkpt>
      <trkpt lat="33.95787" lon="77.30714">
        <ele>3445.2</ele>
        <time>2015-09-02T03:53:02Z</time>
      </trkpt>
      <trkpt lat="33.95786" lon="77.30721">
        <ele>3445.4</ele>
        <time>2015-09-02T03:53:07Z</time>
      </trkpt>
      <trkpt lat="33.95787" lon="77.30727">
        <ele>3445.2</ele>
        <time>2015-09-02T03:53:12Z</time>
      </trkpt>
      <trkpt lat="33.95788" lon="77.30733">
        <ele>3445.4</ele>
        <time>2015-09-02T03:53:18Z</time>
      </trkpt>
      <trkpt lat="33.95791" lon="77.30738">
        <ele>3445.6</ele>
        <time>2015-09-02T03:53:22Z</time>
      </trkpt>
      <trkpt lat="33.95793" lon="77.3074">
        <ele>3445.8</ele>
        <time>2015-09-02T03:53:24Z</time>
      </trkpt>
      <trkpt lat="33.95794" lon="77.30743">
        <ele>3446</ele>
        <time>2015-09-02T03:53:27Z</time>
      </trkpt>
      <trkpt lat="33.95794" lon="77.30743">
        <ele>3446.2</ele>
        <time>2015-09-02T03:53:28Z</time>
      </trkpt>
      <trkpt lat="33.95795" lon="77.30751">
        <ele>3446.4</ele>
        <time>2015-09-02T03:53:32Z</time>
      </trkpt>
      <trkpt lat="33.95795" lon="77.30754">
        <ele>3446.4</ele>
        <time>2015-09-02T03:53:34Z</time>
      </trkpt>
      <trkpt lat="33.95795" lon="77.30758">
        <ele>3446.4</ele>
        <time>2015-09-02T03:53:37Z</time>
      </trkpt>
      <trkpt lat="33.95794" lon="77.30761">
        <ele>3446.6</ele>
        <time>2015-09-02T03:53:40Z</time>
      </trkpt>
      <trkpt lat="33.95796" lon="77.30765">
        <ele>3446.8</ele>
        <time>2015-09-02T03:53:44Z</time>
      </trkpt>
      <trkpt lat="33.95798" lon="77.3077">
        <ele>3446.8</ele>
        <time>2015-09-02T03:53:49Z</time>
      </trkpt>
      <trkpt lat="33.95799" lon="77.30773">
        <ele>3447.2</ele>
        <time>2015-09-02T03:53:53Z</time>
      </trkpt>
      <trkpt lat="33.95799" lon="77.30779">
        <ele>3448.4</ele>
        <time>2015-09-02T03:54:04Z</time>
      </trkpt>
      <trkpt lat="33.95803" lon="77.30783">
        <ele>3449.4</ele>
        <time>2015-09-02T03:54:12Z</time>
      </trkpt>
      <trkpt lat="33.95803" lon="77.30783">
        <ele>3449.4</ele>
        <time>2015-09-02T03:54:13Z</time>
      </trkpt>
      <trkpt lat="33.95806" lon="77.30788">
        <ele>3450.4</ele>
        <time>2015-09-02T03:54:19Z</time>
      </trkpt>
      <trkpt lat="33.95808" lon="77.30792">
        <ele>3450.8</ele>
        <time>2015-09-02T03:54:23Z</time>
      </trkpt>
      <trkpt lat="33.95808" lon="77.30793">
        <ele>3451</ele>
        <time>2015-09-02T03:54:25Z</time>
      </trkpt>
      <trkpt lat="33.95807" lon="77.30801">
        <ele>3449.4</ele>
        <time>2015-09-02T03:54:33Z</time>
      </trkpt>
      <trkpt lat="33.95806" lon="77.30802">
        <ele>3449.4</ele>
        <time>2015-09-02T03:54:34Z</time>
      </trkpt>
      <trkpt lat="33.95803" lon="77.30805">
        <ele>3448.2</ele>
        <time>2015-09-02T03:54:38Z</time>
      </trkpt>
      <trkpt lat="33.95803" lon="77.30808">
        <ele>3447.8</ele>
        <time>2015-09-02T03:54:40Z</time>
      </trkpt>
      <trkpt lat="33.95802" lon="77.30811">
        <ele>3447.2</ele>
        <time>2015-09-02T03:54:43Z</time>
      </trkpt>
      <trkpt lat="33.958" lon="77.30822">
        <ele>3446.6</ele>
        <time>2015-09-02T03:54:49Z</time>
      </trkpt>
      <trkpt lat="33.95797" lon="77.30827">
        <ele>3446.6</ele>
        <time>2015-09-02T03:54:52Z</time>
      </trkpt>
      <trkpt lat="33.95795" lon="77.30841">
        <ele>3447.2</ele>
        <time>2015-09-02T03:55:16Z</time>
      </trkpt>
      <trkpt lat="33.95793" lon="77.30843">
        <ele>3447.2</ele>
        <time>2015-09-02T03:55:18Z</time>
      </trkpt>
      <trkpt lat="33.95787" lon="77.30856">
        <ele>3447</ele>
        <time>2015-09-02T03:55:36Z</time>
      </trkpt>
      <trkpt lat="33.95786" lon="77.30859">
        <ele>3447</ele>
        <time>2015-09-02T03:55:38Z</time>
      </trkpt>
      <trkpt lat="33.95783" lon="77.30865">
        <ele>3448.4</ele>
        <time>2015-09-02T03:55:52Z</time>
      </trkpt>
      <trkpt lat="33.95782" lon="77.30866">
        <ele>3448.8</ele>
        <time>2015-09-02T03:55:54Z</time>
      </trkpt>
      <trkpt lat="33.95779" lon="77.3087">
        <ele>3449.4</ele>
        <time>2015-09-02T03:56:02Z</time>
      </trkpt>
      <trkpt lat="33.95777" lon="77.30879">
        <ele>3450.4</ele>
        <time>2015-09-02T03:56:10Z</time>
      </trkpt>
      <trkpt lat="33.95776" lon="77.3088">
        <ele>3450.6</ele>
        <time>2015-09-02T03:56:11Z</time>
      </trkpt>
      <trkpt lat="33.95773" lon="77.30884">
        <ele>3450.6</ele>
        <time>2015-09-02T03:56:16Z</time>
      </trkpt>
      <trkpt lat="33.95771" lon="77.30888">
        <ele>3449.4</ele>
        <time>2015-09-02T03:56:24Z</time>
      </trkpt>
      <trkpt lat="33.95769" lon="77.30893">
        <ele>3448.6</ele>
        <time>2015-09-02T03:56:27Z</time>
      </trkpt>
      <trkpt lat="33.95768" lon="77.30897">
        <ele>3448.4</ele>
        <time>2015-09-02T03:56:29Z</time>
      </trkpt>
      <trkpt lat="33.95767" lon="77.30901">
        <ele>3448.2</ele>
        <time>2015-09-02T03:56:31Z</time>
      </trkpt>
      <trkpt lat="33.95766" lon="77.30904">
        <ele>3448</ele>
        <time>2015-09-02T03:56:33Z</time>
      </trkpt>
      <trkpt lat="33.95761" lon="77.30914">
        <ele>3448.4</ele>
        <time>2015-09-02T03:56:45Z</time>
      </trkpt>
      <trkpt lat="33.95761" lon="77.30915">
        <ele>3448.4</ele>
        <time>2015-09-02T03:56:47Z</time>
      </trkpt>
      <trkpt lat="33.95762" lon="77.30919">
        <ele>3448.4</ele>
        <time>2015-09-02T03:56:49Z</time>
      </trkpt>
      <trkpt lat="33.95758" lon="77.30928">
        <ele>3448.8</ele>
        <time>2015-09-02T03:57:01Z</time>
      </trkpt>
      <trkpt lat="33.95756" lon="77.30932">
        <ele>3449</ele>
        <time>2015-09-02T03:57:05Z</time>
      </trkpt>
      <trkpt lat="33.95755" lon="77.30934">
        <ele>3449</ele>
        <time>2015-09-02T03:57:07Z</time>
      </trkpt>
      <trkpt lat="33.95753" lon="77.30936">
        <ele>3449</ele>
        <time>2015-09-02T03:57:09Z</time>
      </trkpt>
      <trkpt lat="33.95752" lon="77.3094">
        <ele>3449</ele>
        <time>2015-09-02T03:57:12Z</time>
      </trkpt>
      <trkpt lat="33.95751" lon="77.30945">
        <ele>3449.2</ele>
        <time>2015-09-02T03:57:16Z</time>
      </trkpt>
      <trkpt lat="33.95749" lon="77.3096">
        <ele>3449.2</ele>
        <time>2015-09-02T03:57:27Z</time>
      </trkpt>
      <trkpt lat="33.95745" lon="77.30965">
        <ele>3449.4</ele>
        <time>2015-09-02T03:57:31Z</time>
      </trkpt>
      <trkpt lat="33.95744" lon="77.30966">
        <ele>3449.4</ele>
        <time>2015-09-02T03:57:32Z</time>
      </trkpt>
      <trkpt lat="33.95741" lon="77.30968">
        <ele>3449.4</ele>
        <time>2015-09-02T03:57:35Z</time>
      </trkpt>
      <trkpt lat="33.95738" lon="77.30974">
        <ele>3449.6</ele>
        <time>2015-09-02T03:57:41Z</time>
      </trkpt>
      <trkpt lat="33.95732" lon="77.30984">
        <ele>3449.8</ele>
        <time>2015-09-02T03:57:50Z</time>
      </trkpt>
      <trkpt lat="33.95728" lon="77.3099">
        <ele>3449.6</ele>
        <time>2015-09-02T03:57:55Z</time>
      </trkpt>
      <trkpt lat="33.95729" lon="77.30997">
        <ele>3450</ele>
        <time>2015-09-02T03:58:02Z</time>
      </trkpt>
      <trkpt lat="33.9573" lon="77.30998">
        <ele>3450</ele>
        <time>2015-09-02T03:58:04Z</time>
      </trkpt>
      <trkpt lat="33.95732" lon="77.31002">
        <ele>3450</ele>
        <time>2015-09-02T03:58:09Z</time>
      </trkpt>
      <trkpt lat="33.95737" lon="77.31007">
        <ele>3450.4</ele>
        <time>2015-09-02T03:58:16Z</time>
      </trkpt>
      <trkpt lat="33.95738" lon="77.31006">
        <ele>3450.4</ele>
        <time>2015-09-02T03:58:17Z</time>
      </trkpt>
      <trkpt lat="33.9574" lon="77.31007">
        <ele>3450.4</ele>
        <time>2015-09-02T03:58:19Z</time>
      </trkpt>
      <trkpt lat="33.95742" lon="77.31008">
        <ele>3451.4</ele>
        <time>2015-09-02T03:58:25Z</time>
      </trkpt>
      <trkpt lat="33.95742" lon="77.31006">
        <ele>3452.4</ele>
        <time>2015-09-02T03:58:30Z</time>
      </trkpt>
      <trkpt lat="33.95744" lon="77.31006">
        <ele>3453.4</ele>
        <time>2015-09-02T03:58:35Z</time>
      </trkpt>
      <trkpt lat="33.95746" lon="77.31002">
        <ele>3454.6</ele>
        <time>2015-09-02T03:58:40Z</time>
      </trkpt>
      <trkpt lat="33.95749" lon="77.31001">
        <ele>3455.6</ele>
        <time>2015-09-02T03:58:46Z</time>
      </trkpt>
      <trkpt lat="33.95752" lon="77.31004">
        <ele>3456.6</ele>
        <time>2015-09-02T03:58:52Z</time>
      </trkpt>
      <trkpt lat="33.95757" lon="77.31007">
        <ele>3456.2</ele>
        <time>2015-09-02T03:58:59Z</time>
      </trkpt>
      <trkpt lat="33.95758" lon="77.31011">
        <ele>3455.6</ele>
        <time>2015-09-02T03:59:03Z</time>
      </trkpt>
      <trkpt lat="33.95759" lon="77.31014">
        <ele>3455.2</ele>
        <time>2015-09-02T03:59:07Z</time>
      </trkpt>
      <trkpt lat="33.95763" lon="77.31031">
        <ele>3456.2</ele>
        <time>2015-09-02T03:59:27Z</time>
      </trkpt>
      <trkpt lat="33.95762" lon="77.31037">
        <ele>3456.6</ele>
        <time>2015-09-02T03:59:32Z</time>
      </trkpt>
      <trkpt lat="33.95765" lon="77.31042">
        <ele>3456.6</ele>
        <time>2015-09-02T03:59:37Z</time>
      </trkpt>
      <trkpt lat="33.95771" lon="77.31049">
        <ele>3457.4</ele>
        <time>2015-09-02T03:59:44Z</time>
      </trkpt>
      <trkpt lat="33.95773" lon="77.3105">
        <ele>3457.8</ele>
        <time>2015-09-02T03:59:47Z</time>
      </trkpt>
      <trkpt lat="33.95774" lon="77.31053">
        <ele>3457.8</ele>
        <time>2015-09-02T03:59:50Z</time>
      </trkpt>
      <trkpt lat="33.95774" lon="77.31057">
        <ele>3458.2</ele>
        <time>2015-09-02T04:00:05Z</time>
      </trkpt>
      <trkpt lat="33.95774" lon="77.31058">
        <ele>3458.2</ele>
        <time>2015-09-02T04:00:06Z</time>
      </trkpt>
      <trkpt lat="33.95778" lon="77.31062">
        <ele>3458.8</ele>
        <time>2015-09-02T04:00:16Z</time>
      </trkpt>
      <trkpt lat="33.95778" lon="77.31064">
        <ele>3459.8</ele>
        <time>2015-09-02T04:00:22Z</time>
      </trkpt>
      <trkpt lat="33.95779" lon="77.31066">
        <ele>3461</ele>
        <time>2015-09-02T04:00:29Z</time>
      </trkpt>
      <trkpt lat="33.95784" lon="77.31069">
        <ele>3462</ele>
        <time>2015-09-02T04:00:35Z</time>
      </trkpt>
      <trkpt lat="33.95786" lon="77.3107">
        <ele>3462.2</ele>
        <time>2015-09-02T04:00:38Z</time>
      </trkpt>
      <trkpt lat="33.95794" lon="77.31074">
        <ele>3461.6</ele>
        <time>2015-09-02T04:00:48Z</time>
      </trkpt>
      <trkpt lat="33.95792" lon="77.31073">
        <ele>3460.8</ele>
        <time>2015-09-02T04:00:52Z</time>
      </trkpt>
      <trkpt lat="33.95788" lon="77.31073">
        <ele>3459.8</ele>
        <time>2015-09-02T04:01:01Z</time>
      </trkpt>
      <trkpt lat="33.95786" lon="77.31079">
        <ele>3459.2</ele>
        <time>2015-09-02T04:01:04Z</time>
      </trkpt>
      <trkpt lat="33.95774" lon="77.31084">
        <ele>3458.6</ele>
        <time>2015-09-02T04:01:08Z</time>
      </trkpt>
      <trkpt lat="33.95773" lon="77.31091">
        <ele>3458.2</ele>
        <time>2015-09-02T04:01:12Z</time>
      </trkpt>
      <trkpt lat="33.95775" lon="77.31092">
        <ele>3457.6</ele>
        <time>2015-09-02T04:01:15Z</time>
      </trkpt>
      <trkpt lat="33.95776" lon="77.311">
        <ele>3457</ele>
        <time>2015-09-02T04:01:19Z</time>
      </trkpt>
      <trkpt lat="33.95777" lon="77.31107">
        <ele>3456.4</ele>
        <time>2015-09-02T04:01:22Z</time>
      </trkpt>
      <trkpt lat="33.95783" lon="77.31109">
        <ele>3455.2</ele>
        <time>2015-09-02T04:01:30Z</time>
      </trkpt>
      <trkpt lat="33.95787" lon="77.31109">
        <ele>3454</ele>
        <time>2015-09-02T04:01:34Z</time>
      </trkpt>
      <trkpt lat="33.95796" lon="77.31106">
        <ele>3453.8</ele>
        <time>2015-09-02T04:01:35Z</time>
      </trkpt>
      <trkpt lat="33.95796" lon="77.31108">
        <ele>3453</ele>
        <time>2015-09-02T04:01:44Z</time>
      </trkpt>
      <trkpt lat="33.95803" lon="77.31124">
        <ele>3453.8</ele>
        <time>2015-09-02T04:02:03Z</time>
      </trkpt>
      <trkpt lat="33.95803" lon="77.31133">
        <ele>3454</ele>
        <time>2015-09-02T04:02:11Z</time>
      </trkpt>
      <trkpt lat="33.95798" lon="77.31156">
        <ele>3454.4</ele>
        <time>2015-09-02T04:02:25Z</time>
      </trkpt>
      <trkpt lat="33.95792" lon="77.31177">
        <ele>3455</ele>
        <time>2015-09-02T04:02:40Z</time>
      </trkpt>
      <trkpt lat="33.95792" lon="77.31179">
        <ele>3455</ele>
        <time>2015-09-02T04:02:42Z</time>
      </trkpt>
      <trkpt lat="33.95791" lon="77.31181">
        <ele>3455</ele>
        <time>2015-09-02T04:02:43Z</time>
      </trkpt>
      <trkpt lat="33.95788" lon="77.31187">
        <ele>3455</ele>
        <time>2015-09-02T04:02:51Z</time>
      </trkpt>
      <trkpt lat="33.95789" lon="77.31193">
        <ele>3454.8</ele>
        <time>2015-09-02T04:02:54Z</time>
      </trkpt>
      <trkpt lat="33.95787" lon="77.31199">
        <ele>3454.8</ele>
        <time>2015-09-02T04:02:58Z</time>
      </trkpt>
      <trkpt lat="33.95785" lon="77.31201">
        <ele>3455</ele>
        <time>2015-09-02T04:03:01Z</time>
      </trkpt>
      <trkpt lat="33.95785" lon="77.31207">
        <ele>3455.4</ele>
        <time>2015-09-02T04:03:08Z</time>
      </trkpt>
      <trkpt lat="33.95793" lon="77.31213">
        <ele>3456.2</ele>
        <time>2015-09-02T04:03:33Z</time>
      </trkpt>
      <trkpt lat="33.95788" lon="77.3122">
        <ele>3456</ele>
        <time>2015-09-02T04:03:40Z</time>
      </trkpt>
      <trkpt lat="33.95789" lon="77.31225">
        <ele>3456.2</ele>
        <time>2015-09-02T04:03:45Z</time>
      </trkpt>
      <trkpt lat="33.95791" lon="77.31227">
        <ele>3456.2</ele>
        <time>2015-09-02T04:03:47Z</time>
      </trkpt>
      <trkpt lat="33.95789" lon="77.3123">
        <ele>3456.4</ele>
        <time>2015-09-02T04:03:49Z</time>
      </trkpt>
      <trkpt lat="33.95786" lon="77.31234">
        <ele>3456.4</ele>
        <time>2015-09-02T04:03:51Z</time>
      </trkpt>
      <trkpt lat="33.95786" lon="77.3124">
        <ele>3456.6</ele>
        <time>2015-09-02T04:03:57Z</time>
      </trkpt>
      <trkpt lat="33.9578" lon="77.31249">
        <ele>3456.8</ele>
        <time>2015-09-02T04:04:01Z</time>
      </trkpt>
      <trkpt lat="33.95781" lon="77.31254">
        <ele>3456.8</ele>
        <time>2015-09-02T04:04:05Z</time>
      </trkpt>
      <trkpt lat="33.95783" lon="77.31259">
        <ele>3457</ele>
        <time>2015-09-02T04:04:09Z</time>
      </trkpt>
      <trkpt lat="33.95783" lon="77.31271">
        <ele>3457.2</ele>
        <time>2015-09-02T04:04:18Z</time>
      </trkpt>
      <trkpt lat="33.95784" lon="77.3127">
        <ele>3457.2</ele>
        <time>2015-09-02T04:04:19Z</time>
      </trkpt>
      <trkpt lat="33.95796" lon="77.31277">
        <ele>3457.4</ele>
        <time>2015-09-02T04:04:36Z</time>
      </trkpt>
      <trkpt lat="33.95807" lon="77.31278">
        <ele>3457.6</ele>
        <time>2015-09-02T04:04:43Z</time>
      </trkpt>
      <trkpt lat="33.95811" lon="77.31292">
        <ele>3458</ele>
        <time>2015-09-02T04:04:54Z</time>
      </trkpt>
      <trkpt lat="33.95808" lon="77.31298">
        <ele>3458</ele>
        <time>2015-09-02T04:04:57Z</time>
      </trkpt>
      <trkpt lat="33.95796" lon="77.31316">
        <ele>3458</ele>
        <time>2015-09-02T04:05:06Z</time>
      </trkpt>
      <trkpt lat="33.95793" lon="77.31319">
        <ele>3458.2</ele>
        <time>2015-09-02T04:05:09Z</time>
      </trkpt>
      <trkpt lat="33.95789" lon="77.3132">
        <ele>3458.4</ele>
        <time>2015-09-02T04:05:12Z</time>
      </trkpt>
      <trkpt lat="33.95784" lon="77.31322">
        <ele>3458.6</ele>
        <time>2015-09-02T04:05:16Z</time>
      </trkpt>
      <trkpt lat="33.95779" lon="77.31328">
        <ele>3459.2</ele>
        <time>2015-09-02T04:05:29Z</time>
      </trkpt>
      <trkpt lat="33.95779" lon="77.31332">
        <ele>3459.4</ele>
        <time>2015-09-02T04:05:34Z</time>
      </trkpt>
      <trkpt lat="33.95775" lon="77.31342">
        <ele>3459.6</ele>
        <time>2015-09-02T04:05:39Z</time>
      </trkpt>
      <trkpt lat="33.95774" lon="77.31343">
        <ele>3459.6</ele>
        <time>2015-09-02T04:05:41Z</time>
      </trkpt>
      <trkpt lat="33.95772" lon="77.31346">
        <ele>3459.8</ele>
        <time>2015-09-02T04:05:45Z</time>
      </trkpt>
      <trkpt lat="33.95767" lon="77.31354">
        <ele>3460</ele>
        <time>2015-09-02T04:05:53Z</time>
      </trkpt>
      <trkpt lat="33.95765" lon="77.31359">
        <ele>3460.2</ele>
        <time>2015-09-02T04:05:56Z</time>
      </trkpt>
      <trkpt lat="33.95757" lon="77.3137">
        <ele>3461.2</ele>
        <time>2015-09-02T04:06:10Z</time>
      </trkpt>
      <trkpt lat="33.95757" lon="77.31369">
        <ele>3461.2</ele>
        <time>2015-09-02T04:06:11Z</time>
      </trkpt>
      <trkpt lat="33.95754" lon="77.31376">
        <ele>3461.4</ele>
        <time>2015-09-02T04:06:19Z</time>
      </trkpt>
      <trkpt lat="33.95756" lon="77.31382">
        <ele>3461.4</ele>
        <time>2015-09-02T04:06:21Z</time>
      </trkpt>
      <trkpt lat="33.95759" lon="77.31392">
        <ele>3462.2</ele>
        <time>2015-09-02T04:06:38Z</time>
      </trkpt>
      <trkpt lat="33.95752" lon="77.31401">
        <ele>3462.8</ele>
        <time>2015-09-02T04:06:58Z</time>
      </trkpt>
      <trkpt lat="33.9575" lon="77.31405">
        <ele>3463</ele>
        <time>2015-09-02T04:07:01Z</time>
      </trkpt>
      <trkpt lat="33.9575" lon="77.31415">
        <ele>3463.2</ele>
        <time>2015-09-02T04:07:07Z</time>
      </trkpt>
      <trkpt lat="33.95748" lon="77.31417">
        <ele>3463.4</ele>
        <time>2015-09-02T04:07:10Z</time>
      </trkpt>
      <trkpt lat="33.9575" lon="77.31425">
        <ele>3463</ele>
        <time>2015-09-02T04:07:19Z</time>
      </trkpt>
      <trkpt lat="33.95745" lon="77.31439">
        <ele>3463.8</ele>
        <time>2015-09-02T04:07:32Z</time>
      </trkpt>
      <trkpt lat="33.95742" lon="77.31445">
        <ele>3463.8</ele>
        <time>2015-09-02T04:07:35Z</time>
      </trkpt>
      <trkpt lat="33.95727" lon="77.31457">
        <ele>3463.8</ele>
        <time>2015-09-02T04:07:47Z</time>
      </trkpt>
      <trkpt lat="33.9572" lon="77.31469">
        <ele>3464.4</ele>
        <time>2015-09-02T04:07:55Z</time>
      </trkpt>
      <trkpt lat="33.95721" lon="77.31478">
        <ele>3464.8</ele>
        <time>2015-09-02T04:08:09Z</time>
      </trkpt>
      <trkpt lat="33.9572" lon="77.31479">
        <ele>3464.8</ele>
        <time>2015-09-02T04:08:10Z</time>
      </trkpt>
      <trkpt lat="33.95716" lon="77.31494">
        <ele>3465.4</ele>
        <time>2015-09-02T04:08:25Z</time>
      </trkpt>
      <trkpt lat="33.95714" lon="77.315">
        <ele>3465.6</ele>
        <time>2015-09-02T04:08:30Z</time>
      </trkpt>
      <trkpt lat="33.9571" lon="77.31523">
        <ele>3466</ele>
        <time>2015-09-02T04:08:41Z</time>
      </trkpt>
      <trkpt lat="33.95703" lon="77.31544">
        <ele>3466</ele>
        <time>2015-09-02T04:08:51Z</time>
      </trkpt>
      <trkpt lat="33.95624" lon="77.3159">
        <ele>3469.2</ele>
        <time>2015-09-02T04:10:29Z</time>
      </trkpt>
      <trkpt lat="33.95609" lon="77.31633">
        <ele>3473.4</ele>
        <time>2015-09-02T04:11:24Z</time>
      </trkpt>
      <trkpt lat="33.95601" lon="77.31651">
        <ele>3473.2</ele>
        <time>2015-09-02T04:11:41Z</time>
      </trkpt>
      <trkpt lat="33.95619" lon="77.3169">
        <ele>3472.8</ele>
        <time>2015-09-02T04:12:07Z</time>
      </trkpt>
      <trkpt lat="33.95611" lon="77.31703">
        <ele>3472.8</ele>
        <time>2015-09-02T04:12:16Z</time>
      </trkpt>
      <trkpt lat="33.95593" lon="77.31724">
        <ele>3472.6</ele>
        <time>2015-09-02T04:12:32Z</time>
      </trkpt>
      <trkpt lat="33.95555" lon="77.31778">
        <ele>3474.2</ele>
        <time>2015-09-02T04:13:35Z</time>
      </trkpt>
      <trkpt lat="33.95541" lon="77.31827">
        <ele>3476</ele>
        <time>2015-09-02T04:14:16Z</time>
      </trkpt>
      <trkpt lat="33.9554" lon="77.31839">
        <ele>3476.4</ele>
        <time>2015-09-02T04:14:34Z</time>
      </trkpt>
      <trkpt lat="33.95534" lon="77.31862">
        <ele>3477.4</ele>
        <time>2015-09-02T04:14:50Z</time>
      </trkpt>
      <trkpt lat="33.95531" lon="77.31868">
        <ele>3478</ele>
        <time>2015-09-02T04:14:57Z</time>
      </trkpt>
      <trkpt lat="33.95518" lon="77.31888">
        <ele>3479.4</ele>
        <time>2015-09-02T04:15:27Z</time>
      </trkpt>
      <trkpt lat="33.95497" lon="77.31926">
        <ele>3478.6</ele>
        <time>2015-09-02T04:16:09Z</time>
      </trkpt>
      <trkpt lat="33.95472" lon="77.3195">
        <ele>3480</ele>
        <time>2015-09-02T04:16:36Z</time>
      </trkpt>
      <trkpt lat="33.95451" lon="77.31974">
        <ele>3481.2</ele>
        <time>2015-09-02T04:17:00Z</time>
      </trkpt>
      <trkpt lat="33.95422" lon="77.32007">
        <ele>3481.8</ele>
        <time>2015-09-02T04:17:34Z</time>
      </trkpt>
      <trkpt lat="33.95391" lon="77.32008">
        <ele>3484</ele>
        <time>2015-09-02T04:18:16Z</time>
      </trkpt>
      <trkpt lat="33.95322" lon="77.31999">
        <ele>3487.4</ele>
        <time>2015-09-02T04:21:27Z</time>
      </trkpt>
      <trkpt lat="33.95324" lon="77.32007">
        <ele>3487.6</ele>
        <time>2015-09-02T04:21:38Z</time>
      </trkpt>
      <trkpt lat="33.95327" lon="77.32006">
        <ele>3487.8</ele>
        <time>2015-09-02T04:21:40Z</time>
      </trkpt>
      <trkpt lat="33.95328" lon="77.32006">
        <ele>3487.6</ele>
        <time>2015-09-02T04:21:42Z</time>
      </trkpt>
      <trkpt lat="33.9533" lon="77.32007">
        <ele>3487.4</ele>
        <time>2015-09-02T04:21:44Z</time>
      </trkpt>
      <trkpt lat="33.95278" lon="77.31985">
        <ele>3488.6</ele>
        <time>2015-09-02T04:23:30Z</time>
      </trkpt>
      <trkpt lat="33.95278" lon="77.31986">
        <ele>3488.6</ele>
        <time>2015-09-02T04:23:32Z</time>
      </trkpt>
      <trkpt lat="33.95273" lon="77.31983">
        <ele>3488.8</ele>
        <time>2015-09-02T04:23:36Z</time>
      </trkpt>
      <trkpt lat="33.95261" lon="77.31973">
        <ele>3489.6</ele>
        <time>2015-09-02T04:23:48Z</time>
      </trkpt>
      <trkpt lat="33.95258" lon="77.31974">
        <ele>3489.8</ele>
        <time>2015-09-02T04:23:50Z</time>
      </trkpt>
      <trkpt lat="33.95256" lon="77.31977">
        <ele>3490</ele>
        <time>2015-09-02T04:23:53Z</time>
      </trkpt>
      <trkpt lat="33.95253" lon="77.31978">
        <ele>3490.2</ele>
        <time>2015-09-02T04:23:56Z</time>
      </trkpt>
      <trkpt lat="33.95249" lon="77.31978">
        <ele>3490.2</ele>
        <time>2015-09-02T04:23:59Z</time>
      </trkpt>
      <trkpt lat="33.95247" lon="77.31979">
        <ele>3490.6</ele>
        <time>2015-09-02T04:24:02Z</time>
      </trkpt>
      <trkpt lat="33.95244" lon="77.31981">
        <ele>3490.8</ele>
        <time>2015-09-02T04:24:04Z</time>
      </trkpt>
      <trkpt lat="33.95243" lon="77.31982">
        <ele>3490.8</ele>
        <time>2015-09-02T04:24:06Z</time>
      </trkpt>
      <trkpt lat="33.95239" lon="77.31986">
        <ele>3490.8</ele>
        <time>2015-09-02T04:24:10Z</time>
      </trkpt>
      <trkpt lat="33.95238" lon="77.31986">
        <ele>3491</ele>
        <time>2015-09-02T04:24:11Z</time>
      </trkpt>
      <trkpt lat="33.95232" lon="77.31991">
        <ele>3491.6</ele>
        <time>2015-09-02T04:24:18Z</time>
      </trkpt>
      <trkpt lat="33.9523" lon="77.32004">
        <ele>3491.8</ele>
        <time>2015-09-02T04:24:26Z</time>
      </trkpt>
      <trkpt lat="33.95219" lon="77.32011">
        <ele>3491.8</ele>
        <time>2015-09-02T04:24:38Z</time>
      </trkpt>
      <trkpt lat="33.95215" lon="77.32011">
        <ele>3491.6</ele>
        <time>2015-09-02T04:24:41Z</time>
      </trkpt>
      <trkpt lat="33.95209" lon="77.32015">
        <ele>3491.6</ele>
        <time>2015-09-02T04:24:48Z</time>
      </trkpt>
      <trkpt lat="33.95204" lon="77.32018">
        <ele>3491.8</ele>
        <time>2015-09-02T04:24:53Z</time>
      </trkpt>
      <trkpt lat="33.95202" lon="77.3202">
        <ele>3491.8</ele>
        <time>2015-09-02T04:24:55Z</time>
      </trkpt>
      <trkpt lat="33.95201" lon="77.3202">
        <ele>3492</ele>
        <time>2015-09-02T04:24:56Z</time>
      </trkpt>
      <trkpt lat="33.95188" lon="77.32036">
        <ele>3492.4</ele>
        <time>2015-09-02T04:25:13Z</time>
      </trkpt>
      <trkpt lat="33.95181" lon="77.32041">
        <ele>3492.8</ele>
        <time>2015-09-02T04:25:22Z</time>
      </trkpt>
      <trkpt lat="33.95174" lon="77.32045">
        <ele>3493</ele>
        <time>2015-09-02T04:25:31Z</time>
      </trkpt>
      <trkpt lat="33.95166" lon="77.32051">
        <ele>3494</ele>
        <time>2015-09-02T04:25:44Z</time>
      </trkpt>
      <trkpt lat="33.95164" lon="77.32056">
        <ele>3494.2</ele>
        <time>2015-09-02T04:25:48Z</time>
      </trkpt>
      <trkpt lat="33.95162" lon="77.32058">
        <ele>3494.2</ele>
        <time>2015-09-02T04:25:51Z</time>
      </trkpt>
      <trkpt lat="33.95162" lon="77.3206">
        <ele>3494.2</ele>
        <time>2015-09-02T04:25:53Z</time>
      </trkpt>
      <trkpt lat="33.95148" lon="77.32063">
        <ele>3494.8</ele>
        <time>2015-09-02T04:26:11Z</time>
      </trkpt>
      <trkpt lat="33.95145" lon="77.32065">
        <ele>3494.8</ele>
        <time>2015-09-02T04:26:14Z</time>
      </trkpt>
      <trkpt lat="33.95143" lon="77.32067">
        <ele>3495</ele>
        <time>2015-09-02T04:26:17Z</time>
      </trkpt>
      <trkpt lat="33.95141" lon="77.32068">
        <ele>3495.2</ele>
        <time>2015-09-02T04:26:19Z</time>
      </trkpt>
      <trkpt lat="33.95139" lon="77.3207">
        <ele>3495.2</ele>
        <time>2015-09-02T04:26:21Z</time>
      </trkpt>
      <trkpt lat="33.95125" lon="77.32079">
        <ele>3495.2</ele>
        <time>2015-09-02T04:26:36Z</time>
      </trkpt>
      <trkpt lat="33.95122" lon="77.32077">
        <ele>3495.4</ele>
        <time>2015-09-02T04:26:39Z</time>
      </trkpt>
      <trkpt lat="33.95118" lon="77.32076">
        <ele>3495.4</ele>
        <time>2015-09-02T04:26:43Z</time>
      </trkpt>
      <trkpt lat="33.95103" lon="77.32063">
        <ele>3496.2</ele>
        <time>2015-09-02T04:26:55Z</time>
      </trkpt>
      <trkpt lat="33.95102" lon="77.32068">
        <ele>3496.2</ele>
        <time>2015-09-02T04:26:59Z</time>
      </trkpt>
      <trkpt lat="33.95066" lon="77.32127">
        <ele>3496.6</ele>
        <time>2015-09-02T04:27:59Z</time>
      </trkpt>
      <trkpt lat="33.95056" lon="77.32109">
        <ele>3496.6</ele>
        <time>2015-09-02T04:28:01Z</time>
      </trkpt>
      <trkpt lat="33.95051" lon="77.32102">
        <ele>3496.6</ele>
        <time>2015-09-02T04:28:03Z</time>
      </trkpt>
      <trkpt lat="33.9504" lon="77.32104">
        <ele>3496.8</ele>
        <time>2015-09-02T04:28:12Z</time>
      </trkpt>
      <trkpt lat="33.95037" lon="77.32106">
        <ele>3497</ele>
        <time>2015-09-02T04:28:16Z</time>
      </trkpt>
      <trkpt lat="33.95036" lon="77.32111">
        <ele>3497</ele>
        <time>2015-09-02T04:28:19Z</time>
      </trkpt>
      <trkpt lat="33.95036" lon="77.32118">
        <ele>3497</ele>
        <time>2015-09-02T04:28:23Z</time>
      </trkpt>
      <trkpt lat="33.95037" lon="77.32125">
        <ele>3496.8</ele>
        <time>2015-09-02T04:28:26Z</time>
      </trkpt>
      <trkpt lat="33.94845" lon="77.32264">
        <ele>3501.6</ele>
        <time>2015-09-02T04:32:10Z</time>
      </trkpt>
      <trkpt lat="33.94841" lon="77.32275">
        <ele>3501.6</ele>
        <time>2015-09-02T04:32:15Z</time>
      </trkpt>
      <trkpt lat="33.94837" lon="77.32277">
        <ele>3501.6</ele>
        <time>2015-09-02T04:32:18Z</time>
      </trkpt>
      <trkpt lat="33.94832" lon="77.32281">
        <ele>3501.8</ele>
        <time>2015-09-02T04:32:24Z</time>
      </trkpt>
      <trkpt lat="33.94827" lon="77.32281">
        <ele>3501.6</ele>
        <time>2015-09-02T04:32:27Z</time>
      </trkpt>
      <trkpt lat="33.94824" lon="77.32281">
        <ele>3501.6</ele>
        <time>2015-09-02T04:32:30Z</time>
      </trkpt>
      <trkpt lat="33.9482" lon="77.32285">
        <ele>3502</ele>
        <time>2015-09-02T04:32:35Z</time>
      </trkpt>
      <trkpt lat="33.9482" lon="77.32288">
        <ele>3502</ele>
        <time>2015-09-02T04:32:37Z</time>
      </trkpt>
      <trkpt lat="33.94818" lon="77.3229">
        <ele>3502</ele>
        <time>2015-09-02T04:32:39Z</time>
      </trkpt>
      <trkpt lat="33.94816" lon="77.32291">
        <ele>3502</ele>
        <time>2015-09-02T04:32:41Z</time>
      </trkpt>
      <trkpt lat="33.9481" lon="77.32293">
        <ele>3501.8</ele>
        <time>2015-09-02T04:32:47Z</time>
      </trkpt>
      <trkpt lat="33.94807" lon="77.32294">
        <ele>3502</ele>
        <time>2015-09-02T04:32:50Z</time>
      </trkpt>
      <trkpt lat="33.94805" lon="77.32295">
        <ele>3502.6</ele>
        <time>2015-09-02T04:32:53Z</time>
      </trkpt>
      <trkpt lat="33.94801" lon="77.32298">
        <ele>3503.6</ele>
        <time>2015-09-02T04:32:57Z</time>
      </trkpt>
      <trkpt lat="33.94793" lon="77.32294">
        <ele>3503.8</ele>
        <time>2015-09-02T04:33:05Z</time>
      </trkpt>
      <trkpt lat="33.94781" lon="77.32285">
        <ele>3503.2</ele>
        <time>2015-09-02T04:33:13Z</time>
      </trkpt>
      <trkpt lat="33.94776" lon="77.3229">
        <ele>3503.8</ele>
        <time>2015-09-02T04:33:19Z</time>
      </trkpt>
      <trkpt lat="33.94771" lon="77.32292">
        <ele>3504.4</ele>
        <time>2015-09-02T04:33:25Z</time>
      </trkpt>
      <trkpt lat="33.94768" lon="77.32291">
        <ele>3504.4</ele>
        <time>2015-09-02T04:33:28Z</time>
      </trkpt>
      <trkpt lat="33.94765" lon="77.32291">
        <ele>3504.6</ele>
        <time>2015-09-02T04:33:30Z</time>
      </trkpt>
      <trkpt lat="33.94763" lon="77.32292">
        <ele>3504.8</ele>
        <time>2015-09-02T04:33:32Z</time>
      </trkpt>
      <trkpt lat="33.94762" lon="77.32292">
        <ele>3504.8</ele>
        <time>2015-09-02T04:33:33Z</time>
      </trkpt>
      <trkpt lat="33.94757" lon="77.32291">
        <ele>3505.4</ele>
        <time>2015-09-02T04:33:38Z</time>
      </trkpt>
      <trkpt lat="33.94754" lon="77.32294">
        <ele>3505.8</ele>
        <time>2015-09-02T04:33:42Z</time>
      </trkpt>
      <trkpt lat="33.94744" lon="77.323">
        <ele>3506.2</ele>
        <time>2015-09-02T04:33:47Z</time>
      </trkpt>
      <trkpt lat="33.94734" lon="77.32303">
        <ele>3506.4</ele>
        <time>2015-09-02T04:33:49Z</time>
      </trkpt>
      <trkpt lat="33.94733" lon="77.32303">
        <ele>3506.6</ele>
        <time>2015-09-02T04:33:51Z</time>
      </trkpt>
      <trkpt lat="33.94728" lon="77.32301">
        <ele>3506.8</ele>
        <time>2015-09-02T04:33:55Z</time>
      </trkpt>
      <trkpt lat="33.94727" lon="77.323">
        <ele>3506.8</ele>
        <time>2015-09-02T04:33:56Z</time>
      </trkpt>
      <trkpt lat="33.94724" lon="77.32297">
        <ele>3507.2</ele>
        <time>2015-09-02T04:34:00Z</time>
      </trkpt>
      <trkpt lat="33.94722" lon="77.32293">
        <ele>3507.2</ele>
        <time>2015-09-02T04:34:04Z</time>
      </trkpt>
      <trkpt lat="33.94716" lon="77.32288">
        <ele>3507.4</ele>
        <time>2015-09-02T04:34:11Z</time>
      </trkpt>
      <trkpt lat="33.94714" lon="77.32286">
        <ele>3507.6</ele>
        <time>2015-09-02T04:34:14Z</time>
      </trkpt>
      <trkpt lat="33.94712" lon="77.32286">
        <ele>3507.6</ele>
        <time>2015-09-02T04:34:16Z</time>
      </trkpt>
      <trkpt lat="33.9471" lon="77.32286">
        <ele>3507.6</ele>
        <time>2015-09-02T04:34:18Z</time>
      </trkpt>
      <trkpt lat="33.94705" lon="77.32288">
        <ele>3507.6</ele>
        <time>2015-09-02T04:34:22Z</time>
      </trkpt>
      <trkpt lat="33.94703" lon="77.32288">
        <ele>3507.6</ele>
        <time>2015-09-02T04:34:25Z</time>
      </trkpt>
      <trkpt lat="33.94697" lon="77.32292">
        <ele>3507.8</ele>
        <time>2015-09-02T04:34:29Z</time>
      </trkpt>
      <trkpt lat="33.94692" lon="77.32293">
        <ele>3508.4</ele>
        <time>2015-09-02T04:34:34Z</time>
      </trkpt>
      <trkpt lat="33.9469" lon="77.32294">
        <ele>3508.4</ele>
        <time>2015-09-02T04:34:36Z</time>
      </trkpt>
      <trkpt lat="33.94684" lon="77.32296">
        <ele>3508.8</ele>
        <time>2015-09-02T04:34:43Z</time>
      </trkpt>
      <trkpt lat="33.94679" lon="77.32296">
        <ele>3509.6</ele>
        <time>2015-09-02T04:34:48Z</time>
      </trkpt>
      <trkpt lat="33.94678" lon="77.32295">
        <ele>3509.8</ele>
        <time>2015-09-02T04:34:50Z</time>
      </trkpt>
      <trkpt lat="33.94676" lon="77.32295">
        <ele>3510.2</ele>
        <time>2015-09-02T04:34:52Z</time>
      </trkpt>
      <trkpt lat="33.9467" lon="77.32294">
        <ele>3511</ele>
        <time>2015-09-02T04:35:01Z</time>
      </trkpt>
      <trkpt lat="33.94669" lon="77.32295">
        <ele>3511</ele>
        <time>2015-09-02T04:35:02Z</time>
      </trkpt>
      <trkpt lat="33.94665" lon="77.32293">
        <ele>3511.4</ele>
        <time>2015-09-02T04:35:07Z</time>
      </trkpt>
      <trkpt lat="33.94658" lon="77.32298">
        <ele>3512</ele>
        <time>2015-09-02T04:35:17Z</time>
      </trkpt>
      <trkpt lat="33.94652" lon="77.32301">
        <ele>3512.6</ele>
        <time>2015-09-02T04:35:23Z</time>
      </trkpt>
      <trkpt lat="33.94643" lon="77.32303">
        <ele>3513</ele>
        <time>2015-09-02T04:35:33Z</time>
      </trkpt>
      <trkpt lat="33.9464" lon="77.32306">
        <ele>3513</ele>
        <time>2015-09-02T04:35:37Z</time>
      </trkpt>
      <trkpt lat="33.94639" lon="77.32307">
        <ele>3513</ele>
        <time>2015-09-02T04:35:39Z</time>
      </trkpt>
      <trkpt lat="33.94637" lon="77.32308">
        <ele>3513</ele>
        <time>2015-09-02T04:35:41Z</time>
      </trkpt>
      <trkpt lat="33.94636" lon="77.32309">
        <ele>3513.2</ele>
        <time>2015-09-02T04:35:42Z</time>
      </trkpt>
      <trkpt lat="33.94636" lon="77.32311">
        <ele>3513.2</ele>
        <time>2015-09-02T04:35:45Z</time>
      </trkpt>
      <trkpt lat="33.94635" lon="77.32314">
        <ele>3512.6</ele>
        <time>2015-09-02T04:35:47Z</time>
      </trkpt>
      <trkpt lat="33.94636" lon="77.32317">
        <ele>3512.8</ele>
        <time>2015-09-02T04:35:51Z</time>
      </trkpt>
      <trkpt lat="33.94636" lon="77.32327">
        <ele>3513</ele>
        <time>2015-09-02T04:35:57Z</time>
      </trkpt>
      <trkpt lat="33.94631" lon="77.32335">
        <ele>3512.2</ele>
        <time>2015-09-02T04:36:06Z</time>
      </trkpt>
      <trkpt lat="33.94628" lon="77.32339">
        <ele>3512</ele>
        <time>2015-09-02T04:36:09Z</time>
      </trkpt>
      <trkpt lat="33.94619" lon="77.32354">
        <ele>3511.2</ele>
        <time>2015-09-02T04:36:22Z</time>
      </trkpt>
      <trkpt lat="33.94618" lon="77.32354">
        <ele>3511</ele>
        <time>2015-09-02T04:36:24Z</time>
      </trkpt>
      <trkpt lat="33.94616" lon="77.32355">
        <ele>3510.8</ele>
        <time>2015-09-02T04:36:26Z</time>
      </trkpt>
      <trkpt lat="33.94605" lon="77.32366">
        <ele>3510.2</ele>
        <time>2015-09-02T04:36:39Z</time>
      </trkpt>
      <trkpt lat="33.94605" lon="77.32369">
        <ele>3510</ele>
        <time>2015-09-02T04:36:41Z</time>
      </trkpt>
      <trkpt lat="33.94598" lon="77.3238">
        <ele>3509.8</ele>
        <time>2015-09-02T04:36:51Z</time>
      </trkpt>
      <trkpt lat="33.94596" lon="77.32382">
        <ele>3509.8</ele>
        <time>2015-09-02T04:36:54Z</time>
      </trkpt>
      <trkpt lat="33.94593" lon="77.32395">
        <ele>3510</ele>
        <time>2015-09-02T04:37:06Z</time>
      </trkpt>
      <trkpt lat="33.94596" lon="77.32402">
        <ele>3510.2</ele>
        <time>2015-09-02T04:37:13Z</time>
      </trkpt>
      <trkpt lat="33.94592" lon="77.32403">
        <ele>3510.4</ele>
        <time>2015-09-02T04:37:17Z</time>
      </trkpt>
      <trkpt lat="33.94591" lon="77.3241">
        <ele>3511</ele>
        <time>2015-09-02T04:37:22Z</time>
      </trkpt>
      <trkpt lat="33.94595" lon="77.32418">
        <ele>3511</ele>
        <time>2015-09-02T04:37:27Z</time>
      </trkpt>
      <trkpt lat="33.94593" lon="77.32419">
        <ele>3511</ele>
        <time>2015-09-02T04:37:28Z</time>
      </trkpt>
      <trkpt lat="33.94593" lon="77.3242">
        <ele>3511.2</ele>
        <time>2015-09-02T04:37:31Z</time>
      </trkpt>
      <trkpt lat="33.94592" lon="77.32424">
        <ele>3511.4</ele>
        <time>2015-09-02T04:37:35Z</time>
      </trkpt>
      <trkpt lat="33.9459" lon="77.32426">
        <ele>3511.4</ele>
        <time>2015-09-02T04:37:37Z</time>
      </trkpt>
      <trkpt lat="33.94589" lon="77.32429">
        <ele>3511.4</ele>
        <time>2015-09-02T04:37:40Z</time>
      </trkpt>
      <trkpt lat="33.94587" lon="77.32439">
        <ele>3511.6</ele>
        <time>2015-09-02T04:37:49Z</time>
      </trkpt>
      <trkpt lat="33.94584" lon="77.32439">
        <ele>3511.6</ele>
        <time>2015-09-02T04:37:51Z</time>
      </trkpt>
      <trkpt lat="33.94581" lon="77.32441">
        <ele>3512</ele>
        <time>2015-09-02T04:37:56Z</time>
      </trkpt>
      <trkpt lat="33.94582" lon="77.32452">
        <ele>3512</ele>
        <time>2015-09-02T04:38:02Z</time>
      </trkpt>
      <trkpt lat="33.94578" lon="77.32464">
        <ele>3512.2</ele>
        <time>2015-09-02T04:38:09Z</time>
      </trkpt>
      <trkpt lat="33.94575" lon="77.32469">
        <ele>3512.4</ele>
        <time>2015-09-02T04:38:14Z</time>
      </trkpt>
      <trkpt lat="33.94569" lon="77.32472">
        <ele>3511.6</ele>
        <time>2015-09-02T04:38:20Z</time>
      </trkpt>
      <trkpt lat="33.94576" lon="77.32479">
        <ele>3512.4</ele>
        <time>2015-09-02T04:38:30Z</time>
      </trkpt>
      <trkpt lat="33.94577" lon="77.32484">
        <ele>3512.6</ele>
        <time>2015-09-02T04:38:35Z</time>
      </trkpt>
      <trkpt lat="33.94578" lon="77.3249">
        <ele>3513.2</ele>
        <time>2015-09-02T04:38:40Z</time>
      </trkpt>
      <trkpt lat="33.94578" lon="77.3249">
        <ele>3513.4</ele>
        <time>2015-09-02T04:38:41Z</time>
      </trkpt>
      <trkpt lat="33.94576" lon="77.32494">
        <ele>3514</ele>
        <time>2015-09-02T04:38:45Z</time>
      </trkpt>
      <trkpt lat="33.94577" lon="77.32495">
        <ele>3514.2</ele>
        <time>2015-09-02T04:38:49Z</time>
      </trkpt>
      <trkpt lat="33.94578" lon="77.32498">
        <ele>3514.6</ele>
        <time>2015-09-02T04:38:53Z</time>
      </trkpt>
      <trkpt lat="33.9458" lon="77.32501">
        <ele>3514.8</ele>
        <time>2015-09-02T04:38:55Z</time>
      </trkpt>
      <trkpt lat="33.94579" lon="77.32526">
        <ele>3514.6</ele>
        <time>2015-09-02T04:39:11Z</time>
      </trkpt>
      <trkpt lat="33.94583" lon="77.32565">
        <ele>3513.6</ele>
        <time>2015-09-02T04:39:43Z</time>
      </trkpt>
      <trkpt lat="33.94582" lon="77.32572">
        <ele>3514.4</ele>
        <time>2015-09-02T04:39:51Z</time>
      </trkpt>
      <trkpt lat="33.94578" lon="77.32576">
        <ele>3514.4</ele>
        <time>2015-09-02T04:39:55Z</time>
      </trkpt>
      <trkpt lat="33.94564" lon="77.32578">
        <ele>3514.8</ele>
        <time>2015-09-02T04:40:07Z</time>
      </trkpt>
      <trkpt lat="33.94553" lon="77.32582">
        <ele>3516.4</ele>
        <time>2015-09-02T04:40:18Z</time>
      </trkpt>
      <trkpt lat="33.94156" lon="77.3324">
        <ele>3544.8</ele>
        <time>2015-09-02T04:56:16Z</time>
      </trkpt>
      <trkpt lat="33.94156" lon="77.3325">
        <ele>3544.8</ele>
        <time>2015-09-02T04:56:22Z</time>
      </trkpt>
      <trkpt lat="33.94148" lon="77.33251">
        <ele>3545</ele>
        <time>2015-09-02T04:56:26Z</time>
      </trkpt>
      <trkpt lat="33.9415" lon="77.33254">
        <ele>3545</ele>
        <time>2015-09-02T04:56:28Z</time>
      </trkpt>
      <trkpt lat="33.94143" lon="77.33258">
        <ele>3545.6</ele>
        <time>2015-09-02T04:56:36Z</time>
      </trkpt>
      <trkpt lat="33.94141" lon="77.3326">
        <ele>3546</ele>
        <time>2015-09-02T04:56:40Z</time>
      </trkpt>
      <trkpt lat="33.94135" lon="77.33262">
        <ele>3546.2</ele>
        <time>2015-09-02T04:56:44Z</time>
      </trkpt>
      <trkpt lat="33.94126" lon="77.33261">
        <ele>3546.8</ele>
        <time>2015-09-02T04:56:47Z</time>
      </trkpt>
      <trkpt lat="33.94123" lon="77.33261">
        <ele>3547</ele>
        <time>2015-09-02T04:56:49Z</time>
      </trkpt>
      <trkpt lat="33.9412" lon="77.33262">
        <ele>3547</ele>
        <time>2015-09-02T04:56:51Z</time>
      </trkpt>
      <trkpt lat="33.94117" lon="77.33266">
        <ele>3547.4</ele>
        <time>2015-09-02T04:56:55Z</time>
      </trkpt>
      <trkpt lat="33.94119" lon="77.33269">
        <ele>3547.6</ele>
        <time>2015-09-02T04:56:57Z</time>
      </trkpt>
      <trkpt lat="33.94123" lon="77.33275">
        <ele>3547.6</ele>
        <time>2015-09-02T04:57:00Z</time>
      </trkpt>
      <trkpt lat="33.94121" lon="77.33276">
        <ele>3547.6</ele>
        <time>2015-09-02T04:57:02Z</time>
      </trkpt>
      <trkpt lat="33.94118" lon="77.33277">
        <ele>3547.8</ele>
        <time>2015-09-02T04:57:04Z</time>
      </trkpt>
      <trkpt lat="33.94118" lon="77.3328">
        <ele>3547.8</ele>
        <time>2015-09-02T04:57:06Z</time>
      </trkpt>
      <trkpt lat="33.94117" lon="77.33285">
        <ele>3548</ele>
        <time>2015-09-02T04:57:12Z</time>
      </trkpt>
      <trkpt lat="33.94115" lon="77.33287">
        <ele>3548.4</ele>
        <time>2015-09-02T04:57:15Z</time>
      </trkpt>
      <trkpt lat="33.94112" lon="77.33287">
        <ele>3548.8</ele>
        <time>2015-09-02T04:57:17Z</time>
      </trkpt>
      <trkpt lat="33.94111" lon="77.33288">
        <ele>3549</ele>
        <time>2015-09-02T04:57:18Z</time>
      </trkpt>
      <trkpt lat="33.94111" lon="77.33294">
        <ele>3550</ele>
        <time>2015-09-02T04:57:23Z</time>
      </trkpt>
      <trkpt lat="33.94111" lon="77.33296">
        <ele>3550.2</ele>
        <time>2015-09-02T04:57:24Z</time>
      </trkpt>
      <trkpt lat="33.9411" lon="77.33299">
        <ele>3550.4</ele>
        <time>2015-09-02T04:57:27Z</time>
      </trkpt>
      <trkpt lat="33.94107" lon="77.33302">
        <ele>3550.6</ele>
        <time>2015-09-02T04:57:30Z</time>
      </trkpt>
      <trkpt lat="33.9411" lon="77.33306">
        <ele>3550.6</ele>
        <time>2015-09-02T04:57:32Z</time>
      </trkpt>
      <trkpt lat="33.94114" lon="77.33311">
        <ele>3550.8</ele>
        <time>2015-09-02T04:57:34Z</time>
      </trkpt>
      <trkpt lat="33.94115" lon="77.33315">
        <ele>3551</ele>
        <time>2015-09-02T04:57:37Z</time>
      </trkpt>
      <trkpt lat="33.94115" lon="77.33318">
        <ele>3551.2</ele>
        <time>2015-09-02T04:57:39Z</time>
      </trkpt>
      <trkpt lat="33.94118" lon="77.33323">
        <ele>3551.6</ele>
        <time>2015-09-02T04:57:42Z</time>
      </trkpt>
      <trkpt lat="33.94117" lon="77.33325">
        <ele>3551.8</ele>
        <time>2015-09-02T04:57:45Z</time>
      </trkpt>
      <trkpt lat="33.94111" lon="77.33324">
        <ele>3552</ele>
        <time>2015-09-02T04:57:47Z</time>
      </trkpt>
      <trkpt lat="33.94108" lon="77.33324">
        <ele>3552</ele>
        <time>2015-09-02T04:57:49Z</time>
      </trkpt>
      <trkpt lat="33.94105" lon="77.33325">
        <ele>3552.2</ele>
        <time>2015-09-02T04:57:52Z</time>
      </trkpt>
      <trkpt lat="33.94103" lon="77.33327">
        <ele>3552.2</ele>
        <time>2015-09-02T04:57:55Z</time>
      </trkpt>
      <trkpt lat="33.941" lon="77.33329">
        <ele>3552.6</ele>
        <time>2015-09-02T04:57:58Z</time>
      </trkpt>
      <trkpt lat="33.94101" lon="77.33332">
        <ele>3552.8</ele>
        <time>2015-09-02T04:58:00Z</time>
      </trkpt>
      <trkpt lat="33.94102" lon="77.33338">
        <ele>3553.4</ele>
        <time>2015-09-02T04:58:04Z</time>
      </trkpt>
      <trkpt lat="33.941" lon="77.33338">
        <ele>3553.4</ele>
        <time>2015-09-02T04:58:05Z</time>
      </trkpt>
      <trkpt lat="33.94095" lon="77.33342">
        <ele>3554</ele>
        <time>2015-09-02T04:58:11Z</time>
      </trkpt>
      <trkpt lat="33.94097" lon="77.33347">
        <ele>3554.2</ele>
        <time>2015-09-02T04:58:15Z</time>
      </trkpt>
      <trkpt lat="33.94098" lon="77.3335">
        <ele>3554.4</ele>
        <time>2015-09-02T04:58:18Z</time>
      </trkpt>
      <trkpt lat="33.94096" lon="77.33351">
        <ele>3554.6</ele>
        <time>2015-09-02T04:58:20Z</time>
      </trkpt>
      <trkpt lat="33.94097" lon="77.33354">
        <ele>3554.6</ele>
        <time>2015-09-02T04:58:22Z</time>
      </trkpt>
      <trkpt lat="33.94098" lon="77.3336">
        <ele>3554.6</ele>
        <time>2015-09-02T04:58:25Z</time>
      </trkpt>
      <trkpt lat="33.94096" lon="77.33364">
        <ele>3554.2</ele>
        <time>2015-09-02T04:58:29Z</time>
      </trkpt>
      <trkpt lat="33.94092" lon="77.33365">
        <ele>3554.2</ele>
        <time>2015-09-02T04:58:33Z</time>
      </trkpt>
      <trkpt lat="33.94087" lon="77.33367">
        <ele>3554.4</ele>
        <time>2015-09-02T04:58:37Z</time>
      </trkpt>
      <trkpt lat="33.94088" lon="77.3337">
        <ele>3554.2</ele>
        <time>2015-09-02T04:58:39Z</time>
      </trkpt>
      <trkpt lat="33.94072" lon="77.33382">
        <ele>3556.4</ele>
        <time>2015-09-02T04:59:03Z</time>
      </trkpt>
      <trkpt lat="33.94072" lon="77.33382">
        <ele>3556.4</ele>
        <time>2015-09-02T04:59:04Z</time>
      </trkpt>
      <trkpt lat="33.94069" lon="77.33386">
        <ele>3557.4</ele>
        <time>2015-09-02T04:59:11Z</time>
      </trkpt>
      <trkpt lat="33.94068" lon="77.33386">
        <ele>3557.6</ele>
        <time>2015-09-02T04:59:12Z</time>
      </trkpt>
      <trkpt lat="33.94065" lon="77.33387">
        <ele>3557.8</ele>
        <time>2015-09-02T04:59:14Z</time>
      </trkpt>
      <trkpt lat="33.94063" lon="77.3339">
        <ele>3558.2</ele>
        <time>2015-09-02T04:59:17Z</time>
      </trkpt>
      <trkpt lat="33.94059" lon="77.33392">
        <ele>3558.4</ele>
        <time>2015-09-02T04:59:21Z</time>
      </trkpt>
      <trkpt lat="33.94056" lon="77.33396">
        <ele>3558.6</ele>
        <time>2015-09-02T04:59:26Z</time>
      </trkpt>
      <trkpt lat="33.9405" lon="77.33403">
        <ele>3559.6</ele>
        <time>2015-09-02T04:59:37Z</time>
      </trkpt>
      <trkpt lat="33.94042" lon="77.33412">
        <ele>3560</ele>
        <time>2015-09-02T04:59:51Z</time>
      </trkpt>
      <trkpt lat="33.94037" lon="77.33414">
        <ele>3560</ele>
        <time>2015-09-02T04:59:55Z</time>
      </trkpt>
      <trkpt lat="33.94032" lon="77.33418">
        <ele>3560.2</ele>
        <time>2015-09-02T04:59:59Z</time>
      </trkpt>
      <trkpt lat="33.9403" lon="77.33422">
        <ele>3560.6</ele>
        <time>2015-09-02T05:00:03Z</time>
      </trkpt>
      <trkpt lat="33.9403" lon="77.33422">
        <ele>3560.6</ele>
        <time>2015-09-02T05:00:04Z</time>
      </trkpt>
      <trkpt lat="33.94026" lon="77.33425">
        <ele>3560.8</ele>
        <time>2015-09-02T05:00:08Z</time>
      </trkpt>
      <trkpt lat="33.94015" lon="77.33431">
        <ele>3561.6</ele>
        <time>2015-09-02T05:00:19Z</time>
      </trkpt>
      <trkpt lat="33.94014" lon="77.33433">
        <ele>3561.6</ele>
        <time>2015-09-02T05:00:21Z</time>
      </trkpt>
      <trkpt lat="33.94012" lon="77.33434">
        <ele>3561.6</ele>
        <time>2015-09-02T05:00:23Z</time>
      </trkpt>
      <trkpt lat="33.94009" lon="77.3344">
        <ele>3561.6</ele>
        <time>2015-09-02T05:00:33Z</time>
      </trkpt>
      <trkpt lat="33.94007" lon="77.33442">
        <ele>3561.6</ele>
        <time>2015-09-02T05:00:36Z</time>
      </trkpt>
      <trkpt lat="33.94004" lon="77.33447">
        <ele>3561.8</ele>
        <time>2015-09-02T05:00:41Z</time>
      </trkpt>
      <trkpt lat="33.94004" lon="77.33451">
        <ele>3561.8</ele>
        <time>2015-09-02T05:00:44Z</time>
      </trkpt>
      <trkpt lat="33.93996" lon="77.33459">
        <ele>3561.8</ele>
        <time>2015-09-02T05:00:52Z</time>
      </trkpt>
      <trkpt lat="33.93989" lon="77.33465">
        <ele>3561.8</ele>
        <time>2015-09-02T05:00:59Z</time>
      </trkpt>
      <trkpt lat="33.93987" lon="77.33468">
        <ele>3561.6</ele>
        <time>2015-09-02T05:01:01Z</time>
      </trkpt>
      <trkpt lat="33.93983" lon="77.33473">
        <ele>3561.6</ele>
        <time>2015-09-02T05:01:06Z</time>
      </trkpt>
      <trkpt lat="33.93966" lon="77.3348">
        <ele>3561.2</ele>
        <time>2015-09-02T05:01:18Z</time>
      </trkpt>
      <trkpt lat="33.93961" lon="77.33481">
        <ele>3561</ele>
        <time>2015-09-02T05:01:21Z</time>
      </trkpt>
      <trkpt lat="33.93955" lon="77.33484">
        <ele>3560.6</ele>
        <time>2015-09-02T05:01:25Z</time>
      </trkpt>
      <trkpt lat="33.93953" lon="77.33487">
        <ele>3560.6</ele>
        <time>2015-09-02T05:01:28Z</time>
      </trkpt>
      <trkpt lat="33.93957" lon="77.33491">
        <ele>3560.8</ele>
        <time>2015-09-02T05:01:33Z</time>
      </trkpt>
      <trkpt lat="33.9395" lon="77.3349">
        <ele>3560.8</ele>
        <time>2015-09-02T05:01:37Z</time>
      </trkpt>
      <trkpt lat="33.93947" lon="77.33492">
        <ele>3560.8</ele>
        <time>2015-09-02T05:01:40Z</time>
      </trkpt>
      <trkpt lat="33.93947" lon="77.33494">
        <ele>3560.6</ele>
        <time>2015-09-02T05:01:42Z</time>
      </trkpt>
      <trkpt lat="33.93946" lon="77.33503">
        <ele>3560.8</ele>
        <time>2015-09-02T05:01:48Z</time>
      </trkpt>
      <trkpt lat="33.93944" lon="77.33506">
        <ele>3560.8</ele>
        <time>2015-09-02T05:01:50Z</time>
      </trkpt>
      <trkpt lat="33.93943" lon="77.3351">
        <ele>3560.8</ele>
        <time>2015-09-02T05:01:52Z</time>
      </trkpt>
      <trkpt lat="33.93947" lon="77.33515">
        <ele>3560</ele>
        <time>2015-09-02T05:01:58Z</time>
      </trkpt>
      <trkpt lat="33.93953" lon="77.3352">
        <ele>3559.6</ele>
        <time>2015-09-02T05:02:01Z</time>
      </trkpt>
      <trkpt lat="33.93953" lon="77.33522">
        <ele>3559.4</ele>
        <time>2015-09-02T05:02:02Z</time>
      </trkpt>
      <trkpt lat="33.93953" lon="77.33529">
        <ele>3558.4</ele>
        <time>2015-09-02T05:02:07Z</time>
      </trkpt>
      <trkpt lat="33.93952" lon="77.3353">
        <ele>3558.4</ele>
        <time>2015-09-02T05:02:08Z</time>
      </trkpt>
      <trkpt lat="33.93951" lon="77.33537">
        <ele>3558.2</ele>
        <time>2015-09-02T05:02:12Z</time>
      </trkpt>
      <trkpt lat="33.93948" lon="77.33539">
        <ele>3558.2</ele>
        <time>2015-09-02T05:02:15Z</time>
      </trkpt>
      <trkpt lat="33.93936" lon="77.33542">
        <ele>3558.2</ele>
        <time>2015-09-02T05:02:22Z</time>
      </trkpt>
      <trkpt lat="33.93918" lon="77.33537">
        <ele>3558.6</ele>
        <time>2015-09-02T05:02:36Z</time>
      </trkpt>
      <trkpt lat="33.93922" lon="77.33536">
        <ele>3558.6</ele>
        <time>2015-09-02T05:02:38Z</time>
      </trkpt>
      <trkpt lat="33.93776" lon="77.33503">
        <ele>3555.8</ele>
        <time>2015-09-02T05:04:34Z</time>
      </trkpt>
      <trkpt lat="33.93742" lon="77.33512">
        <ele>3555.6</ele>
        <time>2015-09-02T05:04:48Z</time>
      </trkpt>
      <trkpt lat="33.93727" lon="77.33512">
        <ele>3555.4</ele>
        <time>2015-09-02T05:04:56Z</time>
      </trkpt>
      <trkpt lat="33.93727" lon="77.3352">
        <ele>3555.6</ele>
        <time>2015-09-02T05:05:01Z</time>
      </trkpt>
      <trkpt lat="33.9373" lon="77.3353">
        <ele>3555.8</ele>
        <time>2015-09-02T05:05:08Z</time>
      </trkpt>
      <trkpt lat="33.93724" lon="77.33539">
        <ele>3556.2</ele>
        <time>2015-09-02T05:05:17Z</time>
      </trkpt>
      <trkpt lat="33.93723" lon="77.33541">
        <ele>3556.2</ele>
        <time>2015-09-02T05:05:19Z</time>
      </trkpt>
      <trkpt lat="33.93723" lon="77.33542">
        <ele>3556.4</ele>
        <time>2015-09-02T05:05:21Z</time>
      </trkpt>
      <trkpt lat="33.93722" lon="77.33543">
        <ele>3556.4</ele>
        <time>2015-09-02T05:05:22Z</time>
      </trkpt>
      <trkpt lat="33.93718" lon="77.33554">
        <ele>3555.8</ele>
        <time>2015-09-02T05:05:33Z</time>
      </trkpt>
      <trkpt lat="33.93719" lon="77.33557">
        <ele>3555.4</ele>
        <time>2015-09-02T05:05:35Z</time>
      </trkpt>
      <trkpt lat="33.93721" lon="77.3356">
        <ele>3555.2</ele>
        <time>2015-09-02T05:05:37Z</time>
      </trkpt>
      <trkpt lat="33.93721" lon="77.33561">
        <ele>3555.2</ele>
        <time>2015-09-02T05:05:40Z</time>
      </trkpt>
      <trkpt lat="33.93703" lon="77.33552">
        <ele>3555.8</ele>
        <time>2015-09-02T05:05:53Z</time>
      </trkpt>
      <trkpt lat="33.93709" lon="77.33554">
        <ele>3555.6</ele>
        <time>2015-09-02T05:06:00Z</time>
      </trkpt>
      <trkpt lat="33.93713" lon="77.33556">
        <ele>3555.8</ele>
        <time>2015-09-02T05:06:03Z</time>
      </trkpt>
      <trkpt lat="33.93716" lon="77.33556">
        <ele>3556</ele>
        <time>2015-09-02T05:06:06Z</time>
      </trkpt>
      <trkpt lat="33.93712" lon="77.33555">
        <ele>3555.6</ele>
        <time>2015-09-02T05:06:10Z</time>
      </trkpt>
      <trkpt lat="33.93714" lon="77.33556">
        <ele>3555.4</ele>
        <time>2015-09-02T05:06:12Z</time>
      </trkpt>
      <trkpt lat="33.93715" lon="77.33557">
        <ele>3555.6</ele>
        <time>2015-09-02T05:06:15Z</time>
      </trkpt>
      <trkpt lat="33.93731" lon="77.33568">
        <ele>3555.8</ele>
        <time>2015-09-02T05:06:37Z</time>
      </trkpt>
      <trkpt lat="33.9373" lon="77.33568">
        <ele>3555.8</ele>
        <time>2015-09-02T05:06:41Z</time>
      </trkpt>
      <trkpt lat="33.93726" lon="77.33576">
        <ele>3556.2</ele>
        <time>2015-09-02T05:07:06Z</time>
      </trkpt>
      <trkpt lat="33.93731" lon="77.33578">
        <ele>3556.2</ele>
        <time>2015-09-02T05:07:08Z</time>
      </trkpt>
      <trkpt lat="33.93733" lon="77.33581">
        <ele>3556.2</ele>
        <time>2015-09-02T05:07:12Z</time>
      </trkpt>
      <trkpt lat="33.93735" lon="77.33582">
        <ele>3556</ele>
        <time>2015-09-02T05:07:14Z</time>
      </trkpt>
      <trkpt lat="33.93741" lon="77.33587">
        <ele>3556.4</ele>
        <time>2015-09-02T05:07:34Z</time>
      </trkpt>
      <trkpt lat="33.93741" lon="77.33593">
        <ele>3556.6</ele>
        <time>2015-09-02T05:08:12Z</time>
      </trkpt>
      <trkpt lat="33.93735" lon="77.33595">
        <ele>3556.8</ele>
        <time>2015-09-02T05:08:26Z</time>
      </trkpt>
      <trkpt lat="33.93736" lon="77.33598">
        <ele>3556.8</ele>
        <time>2015-09-02T05:08:30Z</time>
      </trkpt>
      <trkpt lat="33.93736" lon="77.33597">
        <ele>3556.8</ele>
        <time>2015-09-02T05:08:32Z</time>
      </trkpt>
      <trkpt lat="33.93735" lon="77.33598">
        <ele>3556.8</ele>
        <time>2015-09-02T05:08:34Z</time>
      </trkpt>
      <trkpt lat="33.93733" lon="77.33597">
        <ele>3556.8</ele>
        <time>2015-09-02T05:08:36Z</time>
      </trkpt>
      <trkpt lat="33.93746" lon="77.33602">
        <ele>3556.4</ele>
        <time>2015-09-02T05:08:50Z</time>
      </trkpt>
      <trkpt lat="33.93753" lon="77.33606">
        <ele>3556.6</ele>
        <time>2015-09-02T05:08:53Z</time>
      </trkpt>
      <trkpt lat="33.9375" lon="77.33606">
        <ele>3557.2</ele>
        <time>2015-09-02T05:09:03Z</time>
      </trkpt>
      <trkpt lat="33.93747" lon="77.33605">
        <ele>3557.4</ele>
        <time>2015-09-02T05:09:22Z</time>
      </trkpt>
      <trkpt lat="33.93744" lon="77.33602">
        <ele>3557.8</ele>
        <time>2015-09-02T05:09:38Z</time>
      </trkpt>
      <trkpt lat="33.93744" lon="77.33603">
        <ele>3557.8</ele>
        <time>2015-09-02T05:09:39Z</time>
      </trkpt>
      <trkpt lat="33.93747" lon="77.33604">
        <ele>3557.6</ele>
        <time>2015-09-02T05:09:50Z</time>
      </trkpt>
      <trkpt lat="33.93752" lon="77.33608">
        <ele>3557.8</ele>
        <time>2015-09-02T05:09:53Z</time>
      </trkpt>
      <trkpt lat="33.9376" lon="77.33613">
        <ele>3558</ele>
        <time>2015-09-02T05:10:00Z</time>
      </trkpt>
      <trkpt lat="33.93756" lon="77.33611">
        <ele>3557.8</ele>
        <time>2015-09-02T05:10:03Z</time>
      </trkpt>
      <trkpt lat="33.93748" lon="77.33613">
        <ele>3557.4</ele>
        <time>2015-09-02T05:10:12Z</time>
      </trkpt>
      <trkpt lat="33.93758" lon="77.33612">
        <ele>3557.8</ele>
        <time>2015-09-02T05:10:35Z</time>
      </trkpt>
      <trkpt lat="33.93778" lon="77.33617">
        <ele>3558.2</ele>
        <time>2015-09-02T05:10:46Z</time>
      </trkpt>
      <trkpt lat="33.9376" lon="77.33609">
        <ele>3558.2</ele>
        <time>2015-09-02T05:10:51Z</time>
      </trkpt>
      <trkpt lat="33.93747" lon="77.33605">
        <ele>3558.4</ele>
        <time>2015-09-02T05:10:58Z</time>
      </trkpt>
      <trkpt lat="33.9375" lon="77.33608">
        <ele>3559.4</ele>
        <time>2015-09-02T05:11:46Z</time>
      </trkpt>
      <trkpt lat="33.93741" lon="77.33603">
        <ele>3560.2</ele>
        <time>2015-09-02T05:12:30Z</time>
      </trkpt>
      <trkpt lat="33.93739" lon="77.33601">
        <ele>3560.2</ele>
        <time>2015-09-02T05:12:33Z</time>
      </trkpt>
      <trkpt lat="33.93739" lon="77.33599">
        <ele>3560.4</ele>
        <time>2015-09-02T05:12:39Z</time>
      </trkpt>
      <trkpt lat="33.93741" lon="77.33602">
        <ele>3560.6</ele>
        <time>2015-09-02T05:12:47Z</time>
      </trkpt>
      <trkpt lat="33.93727" lon="77.33585">
        <ele>3560.8</ele>
        <time>2015-09-02T05:13:03Z</time>
      </trkpt>
      <trkpt lat="33.93726" lon="77.33583">
        <ele>3560.8</ele>
        <time>2015-09-02T05:13:04Z</time>
      </trkpt>
      <trkpt lat="33.93728" lon="77.33585">
        <ele>3561</ele>
        <time>2015-09-02T05:13:06Z</time>
      </trkpt>
      <trkpt lat="33.93742" lon="77.33602">
        <ele>3561</ele>
        <time>2015-09-02T05:13:16Z</time>
      </trkpt>
      <trkpt lat="33.9374" lon="77.33602">
        <ele>3561</ele>
        <time>2015-09-02T05:13:21Z</time>
      </trkpt>
      <trkpt lat="33.93744" lon="77.33603">
        <ele>3561.6</ele>
        <time>2015-09-02T05:14:01Z</time>
      </trkpt>
      <trkpt lat="33.93744" lon="77.33603">
        <ele>3562.2</ele>
        <time>2015-09-02T05:14:34Z</time>
      </trkpt>
      <trkpt lat="33.93736" lon="77.336">
        <ele>3562.6</ele>
        <time>2015-09-02T05:14:44Z</time>
      </trkpt>
      <trkpt lat="33.93738" lon="77.33602">
        <ele>3562.6</ele>
        <time>2015-09-02T05:14:50Z</time>
      </trkpt>
      <trkpt lat="33.93738" lon="77.33601">
        <ele>3563.2</ele>
        <time>2015-09-02T05:14:54Z</time>
      </trkpt>
      <trkpt lat="33.93739" lon="77.33602">
        <ele>3563.2</ele>
        <time>2015-09-02T05:14:59Z</time>
      </trkpt>
      <trkpt lat="33.93738" lon="77.33602">
        <ele>3563.6</ele>
        <time>2015-09-02T05:15:05Z</time>
      </trkpt>
      <trkpt lat="33.93752" lon="77.33612">
        <ele>3564</ele>
        <time>2015-09-02T05:15:31Z</time>
      </trkpt>
      <trkpt lat="33.93743" lon="77.33589">
        <ele>3564</ele>
        <time>2015-09-02T05:15:36Z</time>
      </trkpt>
      <trkpt lat="33.93727" lon="77.33583">
        <ele>3564.2</ele>
        <time>2015-09-02T05:15:43Z</time>
      </trkpt>
      <trkpt lat="33.93718" lon="77.33572">
        <ele>3563.6</ele>
        <time>2015-09-02T05:15:52Z</time>
      </trkpt>
      <trkpt lat="33.93721" lon="77.33577">
        <ele>3563.4</ele>
        <time>2015-09-02T05:16:06Z</time>
      </trkpt>
      <trkpt lat="33.93707" lon="77.33572">
        <ele>3564</ele>
        <time>2015-09-02T05:16:12Z</time>
      </trkpt>
      <trkpt lat="33.93718" lon="77.3358">
        <ele>3563.8</ele>
        <time>2015-09-02T05:16:30Z</time>
      </trkpt>
      <trkpt lat="33.93727" lon="77.3358">
        <ele>3563.8</ele>
        <time>2015-09-02T05:16:50Z</time>
      </trkpt>
      <trkpt lat="33.93727" lon="77.3358">
        <ele>3563.8</ele>
        <time>2015-09-02T05:16:52Z</time>
      </trkpt>
      <trkpt lat="33.93733" lon="77.33581">
        <ele>3563.2</ele>
        <time>2015-09-02T05:17:02Z</time>
      </trkpt>
      <trkpt lat="33.93727" lon="77.33576">
        <ele>3564</ele>
        <time>2015-09-02T05:17:27Z</time>
      </trkpt>
      <trkpt lat="33.93726" lon="77.33575">
        <ele>3563.8</ele>
        <time>2015-09-02T05:17:30Z</time>
      </trkpt>
      <trkpt lat="33.93726" lon="77.33575">
        <ele>3564</ele>
        <time>2015-09-02T05:18:07Z</time>
      </trkpt>
      <trkpt lat="33.93723" lon="77.33574">
        <ele>3564</ele>
        <time>2015-09-02T05:18:09Z</time>
      </trkpt>
      <trkpt lat="33.93721" lon="77.33576">
        <ele>3564</ele>
        <time>2015-09-02T05:18:13Z</time>
      </trkpt>
      <trkpt lat="33.93724" lon="77.33579">
        <ele>3564</ele>
        <time>2015-09-02T05:18:18Z</time>
      </trkpt>
      <trkpt lat="33.93728" lon="77.33582">
        <ele>3564</ele>
        <time>2015-09-02T05:18:20Z</time>
      </trkpt>
      <trkpt lat="33.93733" lon="77.33584">
        <ele>3563.8</ele>
        <time>2015-09-02T05:18:24Z</time>
      </trkpt>
      <trkpt lat="33.93735" lon="77.33586">
        <ele>3563.8</ele>
        <time>2015-09-02T05:18:40Z</time>
      </trkpt>
      <trkpt lat="33.93732" lon="77.33585">
        <ele>3564.2</ele>
        <time>2015-09-02T05:18:43Z</time>
      </trkpt>
      <trkpt lat="33.9373" lon="77.33583">
        <ele>3564.2</ele>
        <time>2015-09-02T05:18:45Z</time>
      </trkpt>
      <trkpt lat="33.93728" lon="77.33579">
        <ele>3564.2</ele>
        <time>2015-09-02T05:18:48Z</time>
      </trkpt>
      <trkpt lat="33.93733" lon="77.33577">
        <ele>3564.4</ele>
        <time>2015-09-02T05:19:19Z</time>
      </trkpt>
      <trkpt lat="33.93729" lon="77.33577">
        <ele>3564</ele>
        <time>2015-09-02T05:19:33Z</time>
      </trkpt>
      <trkpt lat="33.93725" lon="77.33582">
        <ele>3564.2</ele>
        <time>2015-09-02T05:19:39Z</time>
      </trkpt>
      <trkpt lat="33.9372" lon="77.3358">
        <ele>3564.2</ele>
        <time>2015-09-02T05:20:06Z</time>
      </trkpt>
      <trkpt lat="33.9373" lon="77.33579">
        <ele>3564</ele>
        <time>2015-09-02T05:21:08Z</time>
      </trkpt>
      <trkpt lat="33.93726" lon="77.33576">
        <ele>3564.2</ele>
        <time>2015-09-02T05:21:11Z</time>
      </trkpt>
      <trkpt lat="33.93724" lon="77.33573">
        <ele>3564.4</ele>
        <time>2015-09-02T05:21:13Z</time>
      </trkpt>
      <trkpt lat="33.93724" lon="77.33566">
        <ele>3564.6</ele>
        <time>2015-09-02T05:21:18Z</time>
      </trkpt>
      <trkpt lat="33.93722" lon="77.33562">
        <ele>3565</ele>
        <time>2015-09-02T05:21:21Z</time>
      </trkpt>
      <trkpt lat="33.93722" lon="77.33559">
        <ele>3565.2</ele>
        <time>2015-09-02T05:21:23Z</time>
      </trkpt>
      <trkpt lat="33.93721" lon="77.33557">
        <ele>3565</ele>
        <time>2015-09-02T05:21:28Z</time>
      </trkpt>
      <trkpt lat="33.93729" lon="77.33564">
        <ele>3564.4</ele>
        <time>2015-09-02T05:21:43Z</time>
      </trkpt>
      <trkpt lat="33.93727" lon="77.33565">
        <ele>3564.4</ele>
        <time>2015-09-02T05:21:45Z</time>
      </trkpt>
      <trkpt lat="33.9373" lon="77.33567">
        <ele>3564</ele>
        <time>2015-09-02T05:21:48Z</time>
      </trkpt>
      <trkpt lat="33.93725" lon="77.33564">
        <ele>3564.6</ele>
        <time>2015-09-02T05:22:18Z</time>
      </trkpt>
      <trkpt lat="33.93728" lon="77.33564">
        <ele>3564.6</ele>
        <time>2015-09-02T05:22:20Z</time>
      </trkpt>
      <trkpt lat="33.93742" lon="77.33572">
        <ele>3564.8</ele>
        <time>2015-09-02T05:22:26Z</time>
      </trkpt>
      <trkpt lat="33.93742" lon="77.33572">
        <ele>3565</ele>
        <time>2015-09-02T05:22:28Z</time>
      </trkpt>
      <trkpt lat="33.93751" lon="77.33572">
        <ele>3565.4</ele>
        <time>2015-09-02T05:22:33Z</time>
      </trkpt>
      <trkpt lat="33.93745" lon="77.33572">
        <ele>3565.4</ele>
        <time>2015-09-02T05:22:38Z</time>
      </trkpt>
      <trkpt lat="33.93747" lon="77.33582">
        <ele>3565.2</ele>
        <time>2015-09-02T05:22:46Z</time>
      </trkpt>
      <trkpt lat="33.93743" lon="77.33582">
        <ele>3565</ele>
        <time>2015-09-02T05:22:48Z</time>
      </trkpt>
      <trkpt lat="33.93741" lon="77.33582">
        <ele>3564.8</ele>
        <time>2015-09-02T05:22:50Z</time>
      </trkpt>
      <trkpt lat="33.93732" lon="77.33581">
        <ele>3564.6</ele>
        <time>2015-09-02T05:23:00Z</time>
      </trkpt>
      <trkpt lat="33.93729" lon="77.33579">
        <ele>3564</ele>
        <time>2015-09-02T05:23:55Z</time>
      </trkpt>
      <trkpt lat="33.93734" lon="77.33583">
        <ele>3564</ele>
        <time>2015-09-02T05:24:07Z</time>
      </trkpt>
      <trkpt lat="33.93724" lon="77.33577">
        <ele>3564.2</ele>
        <time>2015-09-02T05:24:48Z</time>
      </trkpt>
      <trkpt lat="33.93725" lon="77.33581">
        <ele>3564.4</ele>
        <time>2015-09-02T05:25:41Z</time>
      </trkpt>
      <trkpt lat="33.93724" lon="77.33579">
        <ele>3564.4</ele>
        <time>2015-09-02T05:25:43Z</time>
      </trkpt>
      <trkpt lat="33.93729" lon="77.33583">
        <ele>3565</ele>
        <time>2015-09-02T05:26:20Z</time>
      </trkpt>
      <trkpt lat="33.9373" lon="77.33584">
        <ele>3565</ele>
        <time>2015-09-02T05:26:21Z</time>
      </trkpt>
      <trkpt lat="33.93732" lon="77.33586">
        <ele>3565</ele>
        <time>2015-09-02T05:26:23Z</time>
      </trkpt>
      <trkpt lat="33.93733" lon="77.33588">
        <ele>3565</ele>
        <time>2015-09-02T05:26:25Z</time>
      </trkpt>
      <trkpt lat="33.93734" lon="77.33589">
        <ele>3564.8</ele>
        <time>2015-09-02T05:26:27Z</time>
      </trkpt>
      <trkpt lat="33.93734" lon="77.33578">
        <ele>3565</ele>
        <time>2015-09-02T05:26:43Z</time>
      </trkpt>
      <trkpt lat="33.93741" lon="77.33581">
        <ele>3565</ele>
        <time>2015-09-02T05:26:46Z</time>
      </trkpt>
      <trkpt lat="33.93739" lon="77.33577">
        <ele>3564.6</ele>
        <time>2015-09-02T05:26:52Z</time>
      </trkpt>
      <trkpt lat="33.93737" lon="77.33577">
        <ele>3564.8</ele>
        <time>2015-09-02T05:26:54Z</time>
      </trkpt>
      <trkpt lat="33.93735" lon="77.33579">
        <ele>3565</ele>
        <time>2015-09-02T05:27:02Z</time>
      </trkpt>
      <trkpt lat="33.93731" lon="77.33579">
        <ele>3565</ele>
        <time>2015-09-02T05:27:19Z</time>
      </trkpt>
      <trkpt lat="33.93724" lon="77.33577">
        <ele>3565.2</ele>
        <time>2015-09-02T05:27:23Z</time>
      </trkpt>
      <trkpt lat="33.93726" lon="77.33575">
        <ele>3565.2</ele>
        <time>2015-09-02T05:27:29Z</time>
      </trkpt>
      <trkpt lat="33.9373" lon="77.33576">
        <ele>3565</ele>
        <time>2015-09-02T05:27:33Z</time>
      </trkpt>
      <trkpt lat="33.9373" lon="77.33577">
        <ele>3565</ele>
        <time>2015-09-02T05:27:35Z</time>
      </trkpt>
      <trkpt lat="33.93733" lon="77.33586">
        <ele>3564.2</ele>
        <time>2015-09-02T05:28:24Z</time>
      </trkpt>
      <trkpt lat="33.93732" lon="77.33581">
        <ele>3564.4</ele>
        <time>2015-09-02T05:28:39Z</time>
      </trkpt>
      <trkpt lat="33.93717" lon="77.33572">
        <ele>3564.8</ele>
        <time>2015-09-02T05:28:53Z</time>
      </trkpt>
      <trkpt lat="33.93692" lon="77.33559">
        <ele>3564.8</ele>
        <time>2015-09-02T05:28:58Z</time>
      </trkpt>
      <trkpt lat="33.93702" lon="77.33563">
        <ele>3564.8</ele>
        <time>2015-09-02T05:28:59Z</time>
      </trkpt>
      <trkpt lat="33.93727" lon="77.33573">
        <ele>3564.8</ele>
        <time>2015-09-02T05:29:01Z</time>
      </trkpt>
      <trkpt lat="33.93732" lon="77.33577">
        <ele>3564.4</ele>
        <time>2015-09-02T05:29:05Z</time>
      </trkpt>
      <trkpt lat="33.93726" lon="77.33583">
        <ele>3564.2</ele>
        <time>2015-09-02T05:29:21Z</time>
      </trkpt>
      <trkpt lat="33.93724" lon="77.33583">
        <ele>3564.6</ele>
        <time>2015-09-02T05:29:24Z</time>
      </trkpt>
      <trkpt lat="33.93724" lon="77.33579">
        <ele>3565.2</ele>
        <time>2015-09-02T05:29:28Z</time>
      </trkpt>
      <trkpt lat="33.9372" lon="77.33581">
        <ele>3564.4</ele>
        <time>2015-09-02T05:29:54Z</time>
      </trkpt>
      <trkpt lat="33.93717" lon="77.33573">
        <ele>3564.2</ele>
        <time>2015-09-02T05:30:03Z</time>
      </trkpt>
      <trkpt lat="33.93719" lon="77.33575">
        <ele>3564.4</ele>
        <time>2015-09-02T05:30:23Z</time>
      </trkpt>
      <trkpt lat="33.93713" lon="77.33571">
        <ele>3564.6</ele>
        <time>2015-09-02T05:30:36Z</time>
      </trkpt>
      <trkpt lat="33.93705" lon="77.33567">
        <ele>3564.6</ele>
        <time>2015-09-02T05:30:37Z</time>
      </trkpt>
      <trkpt lat="33.93698" lon="77.3357">
        <ele>3564.8</ele>
        <time>2015-09-02T05:30:46Z</time>
      </trkpt>
      <trkpt lat="33.93715" lon="77.33576">
        <ele>3564.6</ele>
        <time>2015-09-02T05:30:55Z</time>
      </trkpt>
      <trkpt lat="33.93718" lon="77.33578">
        <ele>3564.8</ele>
        <time>2015-09-02T05:30:58Z</time>
      </trkpt>
      <trkpt lat="33.93724" lon="77.33578">
        <ele>3564.6</ele>
        <time>2015-09-02T05:31:11Z</time>
      </trkpt>
      <trkpt lat="33.93731" lon="77.33584">
        <ele>3564.4</ele>
        <time>2015-09-02T05:31:24Z</time>
      </trkpt>
      <trkpt lat="33.93726" lon="77.33582">
        <ele>3564.6</ele>
        <time>2015-09-02T05:31:47Z</time>
      </trkpt>
      <trkpt lat="33.93711" lon="77.33576">
        <ele>3564.6</ele>
        <time>2015-09-02T05:32:02Z</time>
      </trkpt>
      <trkpt lat="33.93714" lon="77.33576">
        <ele>3564</ele>
        <time>2015-09-02T05:32:14Z</time>
      </trkpt>
      <trkpt lat="33.93722" lon="77.33581">
        <ele>3563.8</ele>
        <time>2015-09-02T05:32:19Z</time>
      </trkpt>
      <trkpt lat="33.93724" lon="77.3358">
        <ele>3563.8</ele>
        <time>2015-09-02T05:32:21Z</time>
      </trkpt>
      <trkpt lat="33.93726" lon="77.33581">
        <ele>3563.8</ele>
        <time>2015-09-02T05:32:24Z</time>
      </trkpt>
      <trkpt lat="33.93726" lon="77.33582">
        <ele>3563.6</ele>
        <time>2015-09-02T05:32:27Z</time>
      </trkpt>
      <trkpt lat="33.93729" lon="77.3358">
        <ele>3563.4</ele>
        <time>2015-09-02T05:32:42Z</time>
      </trkpt>
      <trkpt lat="33.93728" lon="77.33581">
        <ele>3563.2</ele>
        <time>2015-09-02T05:32:46Z</time>
      </trkpt>
      <trkpt lat="33.93738" lon="77.33583">
        <ele>3563</ele>
        <time>2015-09-02T05:32:51Z</time>
      </trkpt>
      <trkpt lat="33.93746" lon="77.33586">
        <ele>3562.8</ele>
        <time>2015-09-02T05:32:57Z</time>
      </trkpt>
      <trkpt lat="33.9374" lon="77.33587">
        <ele>3562.6</ele>
        <time>2015-09-02T05:33:16Z</time>
      </trkpt>
      <trkpt lat="33.93732" lon="77.33584">
        <ele>3562.4</ele>
        <time>2015-09-02T05:33:42Z</time>
      </trkpt>
      <trkpt lat="33.93731" lon="77.33584">
        <ele>3562.4</ele>
        <time>2015-09-02T05:33:43Z</time>
      </trkpt>
      <trkpt lat="33.9373" lon="77.33586">
        <ele>3562.2</ele>
        <time>2015-09-02T05:33:45Z</time>
      </trkpt>
      <trkpt lat="33.93728" lon="77.33587">
        <ele>3562.2</ele>
        <time>2015-09-02T05:33:47Z</time>
      </trkpt>
      <trkpt lat="33.93723" lon="77.33584">
        <ele>3562.4</ele>
        <time>2015-09-02T05:33:54Z</time>
      </trkpt>
      <trkpt lat="33.93724" lon="77.33579">
        <ele>3562.2</ele>
        <time>2015-09-02T05:34:10Z</time>
      </trkpt>
      <trkpt lat="33.93724" lon="77.33576">
        <ele>3562.4</ele>
        <time>2015-09-02T05:34:23Z</time>
      </trkpt>
      <trkpt lat="33.93727" lon="77.3358">
        <ele>3562.2</ele>
        <time>2015-09-02T05:34:26Z</time>
      </trkpt>
      <trkpt lat="33.93724" lon="77.33581">
        <ele>3562.2</ele>
        <time>2015-09-02T05:34:34Z</time>
      </trkpt>
      <trkpt lat="33.93719" lon="77.3358">
        <ele>3562.2</ele>
        <time>2015-09-02T05:34:39Z</time>
      </trkpt>
      <trkpt lat="33.93717" lon="77.33582">
        <ele>3562.4</ele>
        <time>2015-09-02T05:34:44Z</time>
      </trkpt>
      <trkpt lat="33.93722" lon="77.33585">
        <ele>3562.4</ele>
        <time>2015-09-02T05:34:46Z</time>
      </trkpt>
      <trkpt lat="33.93726" lon="77.33589">
        <ele>3562.2</ele>
        <time>2015-09-02T05:35:12Z</time>
      </trkpt>
      <trkpt lat="33.93724" lon="77.33593">
        <ele>3562.2</ele>
        <time>2015-09-02T05:35:15Z</time>
      </trkpt>
      <trkpt lat="33.93722" lon="77.33604">
        <ele>3562.2</ele>
        <time>2015-09-02T05:35:21Z</time>
      </trkpt>
      <trkpt lat="33.93732" lon="77.33606">
        <ele>3562</ele>
        <time>2015-09-02T05:35:35Z</time>
      </trkpt>
      <trkpt lat="33.93737" lon="77.33607">
        <ele>3562</ele>
        <time>2015-09-02T05:35:37Z</time>
      </trkpt>
      <trkpt lat="33.93723" lon="77.33608">
        <ele>3562.2</ele>
        <time>2015-09-02T05:35:52Z</time>
      </trkpt>
      <trkpt lat="33.93714" lon="77.33606">
        <ele>3562</ele>
        <time>2015-09-02T05:36:01Z</time>
      </trkpt>
      <trkpt lat="33.93727" lon="77.33613">
        <ele>3562.2</ele>
        <time>2015-09-02T05:36:04Z</time>
      </trkpt>
      <trkpt lat="33.93723" lon="77.33617">
        <ele>3562.8</ele>
        <time>2015-09-02T05:36:10Z</time>
      </trkpt>
      <trkpt lat="33.93719" lon="77.33618">
        <ele>3563.4</ele>
        <time>2015-09-02T05:36:14Z</time>
      </trkpt>
      <trkpt lat="33.9372" lon="77.3362">
        <ele>3563.6</ele>
        <time>2015-09-02T05:36:15Z</time>
      </trkpt>
      <trkpt lat="33.9372" lon="77.33621">
        <ele>3563.8</ele>
        <time>2015-09-02T05:36:16Z</time>
      </trkpt>
      <trkpt lat="33.93719" lon="77.33622">
        <ele>3564</ele>
        <time>2015-09-02T05:36:18Z</time>
      </trkpt>
      <trkpt lat="33.93716" lon="77.33624">
        <ele>3564</ele>
        <time>2015-09-02T05:36:21Z</time>
      </trkpt>
      <trkpt lat="33.93715" lon="77.33626">
        <ele>3564</ele>
        <time>2015-09-02T05:36:23Z</time>
      </trkpt>
      <trkpt lat="33.93703" lon="77.33637">
        <ele>3563.2</ele>
        <time>2015-09-02T05:36:41Z</time>
      </trkpt>
      <trkpt lat="33.93702" lon="77.33643">
        <ele>3563.2</ele>
        <time>2015-09-02T05:36:44Z</time>
      </trkpt>
      <trkpt lat="33.93701" lon="77.33645">
        <ele>3563.4</ele>
        <time>2015-09-02T05:36:46Z</time>
      </trkpt>
      <trkpt lat="33.93695" lon="77.33652">
        <ele>3563</ele>
        <time>2015-09-02T05:36:53Z</time>
      </trkpt>
      <trkpt lat="33.93691" lon="77.33659">
        <ele>3563.2</ele>
        <time>2015-09-02T05:36:58Z</time>
      </trkpt>
      <trkpt lat="33.93687" lon="77.3366">
        <ele>3563.2</ele>
        <time>2015-09-02T05:37:02Z</time>
      </trkpt>
      <trkpt lat="33.93685" lon="77.33662">
        <ele>3563.2</ele>
        <time>2015-09-02T05:37:05Z</time>
      </trkpt>
      <trkpt lat="33.93676" lon="77.33673">
        <ele>3563</ele>
        <time>2015-09-02T05:37:18Z</time>
      </trkpt>
      <trkpt lat="33.9367" lon="77.33677">
        <ele>3562.6</ele>
        <time>2015-09-02T05:37:22Z</time>
      </trkpt>
      <trkpt lat="33.93664" lon="77.33692">
        <ele>3562.4</ele>
        <time>2015-09-02T05:37:30Z</time>
      </trkpt>
      <trkpt lat="33.93665" lon="77.33695">
        <ele>3562.8</ele>
        <time>2015-09-02T05:37:32Z</time>
      </trkpt>
      <trkpt lat="33.93664" lon="77.33702">
        <ele>3563.2</ele>
        <time>2015-09-02T05:37:36Z</time>
      </trkpt>
      <trkpt lat="33.93661" lon="77.33705">
        <ele>3563.4</ele>
        <time>2015-09-02T05:37:40Z</time>
      </trkpt>
      <trkpt lat="33.9366" lon="77.33708">
        <ele>3563.6</ele>
        <time>2015-09-02T05:37:43Z</time>
      </trkpt>
      <trkpt lat="33.93658" lon="77.33709">
        <ele>3563.6</ele>
        <time>2015-09-02T05:37:45Z</time>
      </trkpt>
      <trkpt lat="33.93655" lon="77.33712">
        <ele>3563.6</ele>
        <time>2015-09-02T05:37:50Z</time>
      </trkpt>
      <trkpt lat="33.93649" lon="77.33723">
        <ele>3563.6</ele>
        <time>2015-09-02T05:37:58Z</time>
      </trkpt>
      <trkpt lat="33.93645" lon="77.33728">
        <ele>3563.8</ele>
        <time>2015-09-02T05:38:03Z</time>
      </trkpt>
      <trkpt lat="33.93641" lon="77.33734">
        <ele>3564.2</ele>
        <time>2015-09-02T05:38:11Z</time>
      </trkpt>
      <trkpt lat="33.93633" lon="77.33751">
        <ele>3564.6</ele>
        <time>2015-09-02T05:38:27Z</time>
      </trkpt>
      <trkpt lat="33.93631" lon="77.33754">
        <ele>3564.8</ele>
        <time>2015-09-02T05:38:31Z</time>
      </trkpt>
      <trkpt lat="33.93629" lon="77.33758">
        <ele>3564.6</ele>
        <time>2015-09-02T05:38:34Z</time>
      </trkpt>
      <trkpt lat="33.93619" lon="77.33766">
        <ele>3565.8</ele>
        <time>2015-09-02T05:38:43Z</time>
      </trkpt>
      <trkpt lat="33.93611" lon="77.33771">
        <ele>3566</ele>
        <time>2015-09-02T05:38:54Z</time>
      </trkpt>
      <trkpt lat="33.93609" lon="77.33774">
        <ele>3566</ele>
        <time>2015-09-02T05:38:57Z</time>
      </trkpt>
      <trkpt lat="33.93607" lon="77.33777">
        <ele>3566.2</ele>
        <time>2015-09-02T05:39:00Z</time>
      </trkpt>
      <trkpt lat="33.93607" lon="77.33778">
        <ele>3566.2</ele>
        <time>2015-09-02T05:39:01Z</time>
      </trkpt>
      <trkpt lat="33.93599" lon="77.33799">
        <ele>3565.2</ele>
        <time>2015-09-02T05:39:18Z</time>
      </trkpt>
      <trkpt lat="33.93597" lon="77.338">
        <ele>3565.2</ele>
        <time>2015-09-02T05:39:20Z</time>
      </trkpt>
      <trkpt lat="33.93594" lon="77.33804">
        <ele>3565.2</ele>
        <time>2015-09-02T05:39:26Z</time>
      </trkpt>
      <trkpt lat="33.93594" lon="77.3381">
        <ele>3565</ele>
        <time>2015-09-02T05:39:32Z</time>
      </trkpt>
      <trkpt lat="33.93591" lon="77.33819">
        <ele>3565</ele>
        <time>2015-09-02T05:39:41Z</time>
      </trkpt>
      <trkpt lat="33.93589" lon="77.33822">
        <ele>3565.2</ele>
        <time>2015-09-02T05:39:44Z</time>
      </trkpt>
      <trkpt lat="33.93585" lon="77.33828">
        <ele>3565.2</ele>
        <time>2015-09-02T05:39:50Z</time>
      </trkpt>
      <trkpt lat="33.93586" lon="77.3383">
        <ele>3565.2</ele>
        <time>2015-09-02T05:39:52Z</time>
      </trkpt>
      <trkpt lat="33.93586" lon="77.33832">
        <ele>3565.2</ele>
        <time>2015-09-02T05:39:54Z</time>
      </trkpt>
      <trkpt lat="33.93588" lon="77.33837">
        <ele>3565.4</ele>
        <time>2015-09-02T05:39:57Z</time>
      </trkpt>
      <trkpt lat="33.93588" lon="77.33839">
        <ele>3565.4</ele>
        <time>2015-09-02T05:39:59Z</time>
      </trkpt>
      <trkpt lat="33.93573" lon="77.33852">
        <ele>3565.2</ele>
        <time>2015-09-02T05:40:14Z</time>
      </trkpt>
      <trkpt lat="33.93569" lon="77.33854">
        <ele>3565.2</ele>
        <time>2015-09-02T05:40:17Z</time>
      </trkpt>
      <trkpt lat="33.93563" lon="77.33861">
        <ele>3565.4</ele>
        <time>2015-09-02T05:40:25Z</time>
      </trkpt>
      <trkpt lat="33.93561" lon="77.33864">
        <ele>3565.4</ele>
        <time>2015-09-02T05:40:28Z</time>
      </trkpt>
      <trkpt lat="33.93559" lon="77.33867">
        <ele>3565.6</ele>
        <time>2015-09-02T05:40:32Z</time>
      </trkpt>
      <trkpt lat="33.93554" lon="77.33872">
        <ele>3565.6</ele>
        <time>2015-09-02T05:40:39Z</time>
      </trkpt>
      <trkpt lat="33.93545" lon="77.33882">
        <ele>3565.4</ele>
        <time>2015-09-02T05:40:48Z</time>
      </trkpt>
      <trkpt lat="33.93545" lon="77.3389">
        <ele>3565.4</ele>
        <time>2015-09-02T05:40:51Z</time>
      </trkpt>
      <trkpt lat="33.93547" lon="77.33903">
        <ele>3565.4</ele>
        <time>2015-09-02T05:40:58Z</time>
      </trkpt>
      <trkpt lat="33.93546" lon="77.33906">
        <ele>3565.6</ele>
        <time>2015-09-02T05:41:01Z</time>
      </trkpt>
      <trkpt lat="33.93548" lon="77.33916">
        <ele>3565.6</ele>
        <time>2015-09-02T05:41:08Z</time>
      </trkpt>
      <trkpt lat="33.93547" lon="77.3392">
        <ele>3565.6</ele>
        <time>2015-09-02T05:41:12Z</time>
      </trkpt>
      <trkpt lat="33.93543" lon="77.33928">
        <ele>3565.4</ele>
        <time>2015-09-02T05:41:20Z</time>
      </trkpt>
      <trkpt lat="33.93542" lon="77.33931">
        <ele>3565.6</ele>
        <time>2015-09-02T05:41:22Z</time>
      </trkpt>
      <trkpt lat="33.93534" lon="77.33949">
        <ele>3565.8</ele>
        <time>2015-09-02T05:41:41Z</time>
      </trkpt>
      <trkpt lat="33.93534" lon="77.33953">
        <ele>3565.8</ele>
        <time>2015-09-02T05:41:44Z</time>
      </trkpt>
      <trkpt lat="33.93533" lon="77.33963">
        <ele>3566</ele>
        <time>2015-09-02T05:41:52Z</time>
      </trkpt>
      <trkpt lat="33.9353" lon="77.33977">
        <ele>3566.2</ele>
        <time>2015-09-02T05:42:05Z</time>
      </trkpt>
      <trkpt lat="33.9353" lon="77.33983">
        <ele>3566.4</ele>
        <time>2015-09-02T05:42:09Z</time>
      </trkpt>
      <trkpt lat="33.93528" lon="77.33985">
        <ele>3566.4</ele>
        <time>2015-09-02T05:42:11Z</time>
      </trkpt>
      <trkpt lat="33.93527" lon="77.33986">
        <ele>3566.4</ele>
        <time>2015-09-02T05:42:13Z</time>
      </trkpt>
      <trkpt lat="33.93525" lon="77.33992">
        <ele>3566.8</ele>
        <time>2015-09-02T05:42:21Z</time>
      </trkpt>
      <trkpt lat="33.93524" lon="77.33994">
        <ele>3566.6</ele>
        <time>2015-09-02T05:42:23Z</time>
      </trkpt>
      <trkpt lat="33.9352" lon="77.34">
        <ele>3566.4</ele>
        <time>2015-09-02T05:42:31Z</time>
      </trkpt>
      <trkpt lat="33.93525" lon="77.34013">
        <ele>3566.4</ele>
        <time>2015-09-02T05:42:36Z</time>
      </trkpt>
      <trkpt lat="33.93529" lon="77.34016">
        <ele>3566.6</ele>
        <time>2015-09-02T05:42:38Z</time>
      </trkpt>
      <trkpt lat="33.93531" lon="77.34019">
        <ele>3566.8</ele>
        <time>2015-09-02T05:42:41Z</time>
      </trkpt>
      <trkpt lat="33.93526" lon="77.34023">
        <ele>3566.2</ele>
        <time>2015-09-02T05:42:47Z</time>
      </trkpt>
      <trkpt lat="33.93525" lon="77.34024">
        <ele>3566.2</ele>
        <time>2015-09-02T05:42:49Z</time>
      </trkpt>
      <trkpt lat="33.93515" lon="77.34029">
        <ele>3566.4</ele>
        <time>2015-09-02T05:42:59Z</time>
      </trkpt>
      <trkpt lat="33.93514" lon="77.3403">
        <ele>3566.4</ele>
        <time>2015-09-02T05:43:01Z</time>
      </trkpt>
      <trkpt lat="33.93512" lon="77.3403">
        <ele>3566.4</ele>
        <time>2015-09-02T05:43:04Z</time>
      </trkpt>
      <trkpt lat="33.93502" lon="77.3404">
        <ele>3566</ele>
        <time>2015-09-02T05:43:15Z</time>
      </trkpt>
      <trkpt lat="33.935" lon="77.34041">
        <ele>3566</ele>
        <time>2015-09-02T05:43:17Z</time>
      </trkpt>
      <trkpt lat="33.93498" lon="77.34043">
        <ele>3566</ele>
        <time>2015-09-02T05:43:20Z</time>
      </trkpt>
      <trkpt lat="33.93496" lon="77.34046">
        <ele>3566.2</ele>
        <time>2015-09-02T05:43:22Z</time>
      </trkpt>
      <trkpt lat="33.93495" lon="77.34046">
        <ele>3566.2</ele>
        <time>2015-09-02T05:43:24Z</time>
      </trkpt>
      <trkpt lat="33.93492" lon="77.34051">
        <ele>3566.4</ele>
        <time>2015-09-02T05:43:31Z</time>
      </trkpt>
      <trkpt lat="33.9349" lon="77.34054">
        <ele>3566.4</ele>
        <time>2015-09-02T05:43:34Z</time>
      </trkpt>
      <trkpt lat="33.9349" lon="77.34056">
        <ele>3566.2</ele>
        <time>2015-09-02T05:43:36Z</time>
      </trkpt>
      <trkpt lat="33.93487" lon="77.34062">
        <ele>3566.4</ele>
        <time>2015-09-02T05:43:42Z</time>
      </trkpt>
      <trkpt lat="33.93487" lon="77.34067">
        <ele>3566.6</ele>
        <time>2015-09-02T05:43:46Z</time>
      </trkpt>
      <trkpt lat="33.93483" lon="77.34075">
        <ele>3567</ele>
        <time>2015-09-02T05:43:52Z</time>
      </trkpt>
      <trkpt lat="33.93481" lon="77.34077">
        <ele>3567</ele>
        <time>2015-09-02T05:43:55Z</time>
      </trkpt>
      <trkpt lat="33.9348" lon="77.34081">
        <ele>3567</ele>
        <time>2015-09-02T05:43:59Z</time>
      </trkpt>
      <trkpt lat="33.93479" lon="77.34082">
        <ele>3567.2</ele>
        <time>2015-09-02T05:44:01Z</time>
      </trkpt>
      <trkpt lat="33.93477" lon="77.34087">
        <ele>3567.6</ele>
        <time>2015-09-02T05:44:05Z</time>
      </trkpt>
      <trkpt lat="33.93475" lon="77.3409">
        <ele>3567.8</ele>
        <time>2015-09-02T05:44:08Z</time>
      </trkpt>
      <trkpt lat="33.93473" lon="77.34094">
        <ele>3567.8</ele>
        <time>2015-09-02T05:44:12Z</time>
      </trkpt>
      <trkpt lat="33.93472" lon="77.34095">
        <ele>3567.8</ele>
        <time>2015-09-02T05:44:13Z</time>
      </trkpt>
      <trkpt lat="33.93471" lon="77.34099">
        <ele>3567.8</ele>
        <time>2015-09-02T05:44:16Z</time>
      </trkpt>
      <trkpt lat="33.93472" lon="77.34111">
        <ele>3568.8</ele>
        <time>2015-09-02T05:44:24Z</time>
      </trkpt>
      <trkpt lat="33.93472" lon="77.34114">
        <ele>3569</ele>
        <time>2015-09-02T05:44:27Z</time>
      </trkpt>
      <trkpt lat="33.93469" lon="77.34116">
        <ele>3569.2</ele>
        <time>2015-09-02T05:44:30Z</time>
      </trkpt>
      <trkpt lat="33.93468" lon="77.34119">
        <ele>3569.4</ele>
        <time>2015-09-02T05:44:33Z</time>
      </trkpt>
      <trkpt lat="33.93466" lon="77.34123">
        <ele>3569.8</ele>
        <time>2015-09-02T05:44:36Z</time>
      </trkpt>
      <trkpt lat="33.93465" lon="77.34125">
        <ele>3570</ele>
        <time>2015-09-02T05:44:38Z</time>
      </trkpt>
      <trkpt lat="33.93462" lon="77.34129">
        <ele>3570.6</ele>
        <time>2015-09-02T05:44:42Z</time>
      </trkpt>
      <trkpt lat="33.93461" lon="77.3413">
        <ele>3570.6</ele>
        <time>2015-09-02T05:44:44Z</time>
      </trkpt>
      <trkpt lat="33.9346" lon="77.34134">
        <ele>3570.8</ele>
        <time>2015-09-02T05:44:48Z</time>
      </trkpt>
      <trkpt lat="33.9346" lon="77.34135">
        <ele>3571</ele>
        <time>2015-09-02T05:44:49Z</time>
      </trkpt>
      <trkpt lat="33.93458" lon="77.34146">
        <ele>3571.4</ele>
        <time>2015-09-02T05:45:00Z</time>
      </trkpt>
      <trkpt lat="33.93454" lon="77.34162">
        <ele>3569.8</ele>
        <time>2015-09-02T05:45:14Z</time>
      </trkpt>
      <trkpt lat="33.93453" lon="77.34166">
        <ele>3569.6</ele>
        <time>2015-09-02T05:45:17Z</time>
      </trkpt>
      <trkpt lat="33.93454" lon="77.34169">
        <ele>3569.6</ele>
        <time>2015-09-02T05:45:19Z</time>
      </trkpt>
      <trkpt lat="33.93456" lon="77.34173">
        <ele>3569.6</ele>
        <time>2015-09-02T05:45:22Z</time>
      </trkpt>
      <trkpt lat="33.93457" lon="77.34177">
        <ele>3569.8</ele>
        <time>2015-09-02T05:45:26Z</time>
      </trkpt>
      <trkpt lat="33.93457" lon="77.34182">
        <ele>3569.8</ele>
        <time>2015-09-02T05:45:30Z</time>
      </trkpt>
      <trkpt lat="33.9346" lon="77.34188">
        <ele>3569.2</ele>
        <time>2015-09-02T05:45:35Z</time>
      </trkpt>
      <trkpt lat="33.93463" lon="77.34189">
        <ele>3569.4</ele>
        <time>2015-09-02T05:45:38Z</time>
      </trkpt>
      <trkpt lat="33.93465" lon="77.34188">
        <ele>3569.4</ele>
        <time>2015-09-02T05:45:41Z</time>
      </trkpt>
      <trkpt lat="33.93467" lon="77.34188">
        <ele>3569.4</ele>
        <time>2015-09-02T05:45:43Z</time>
      </trkpt>
      <trkpt lat="33.93462" lon="77.3419">
        <ele>3569</ele>
        <time>2015-09-02T05:46:00Z</time>
      </trkpt>
      <trkpt lat="33.9346" lon="77.3419">
        <ele>3569.2</ele>
        <time>2015-09-02T05:46:01Z</time>
      </trkpt>
      <trkpt lat="33.9346" lon="77.34189">
        <ele>3569.2</ele>
        <time>2015-09-02T05:46:03Z</time>
      </trkpt>
      <trkpt lat="33.93464" lon="77.34194">
        <ele>3569.8</ele>
        <time>2015-09-02T05:46:18Z</time>
      </trkpt>
      <trkpt lat="33.93467" lon="77.34197">
        <ele>3569.8</ele>
        <time>2015-09-02T05:46:21Z</time>
      </trkpt>
      <trkpt lat="33.93473" lon="77.34198">
        <ele>3570</ele>
        <time>2015-09-02T05:47:11Z</time>
      </trkpt>
      <trkpt lat="33.93471" lon="77.34201">
        <ele>3570</ele>
        <time>2015-09-02T05:47:32Z</time>
      </trkpt>
      <trkpt lat="33.93463" lon="77.34197">
        <ele>3569.4</ele>
        <time>2015-09-02T05:47:51Z</time>
      </trkpt>
      <trkpt lat="33.93461" lon="77.34196">
        <ele>3569.4</ele>
        <time>2015-09-02T05:47:54Z</time>
      </trkpt>
      <trkpt lat="33.9347" lon="77.34195">
        <ele>3569.8</ele>
        <time>2015-09-02T05:48:08Z</time>
      </trkpt>
      <trkpt lat="33.93473" lon="77.34193">
        <ele>3569.8</ele>
        <time>2015-09-02T05:48:45Z</time>
      </trkpt>
      <trkpt lat="33.9347" lon="77.34189">
        <ele>3570.2</ele>
        <time>2015-09-02T05:48:54Z</time>
      </trkpt>
      <trkpt lat="33.93471" lon="77.34187">
        <ele>3569.6</ele>
        <time>2015-09-02T05:50:01Z</time>
      </trkpt>
      <trkpt lat="33.93472" lon="77.34192">
        <ele>3569.8</ele>
        <time>2015-09-02T05:50:25Z</time>
      </trkpt>
      <trkpt lat="33.93473" lon="77.34193">
        <ele>3569.8</ele>
        <time>2015-09-02T05:50:27Z</time>
      </trkpt>
      <trkpt lat="33.93475" lon="77.34207">
        <ele>3569.2</ele>
        <time>2015-09-02T05:51:08Z</time>
      </trkpt>
      <trkpt lat="33.93475" lon="77.34209">
        <ele>3569.2</ele>
        <time>2015-09-02T05:51:10Z</time>
      </trkpt>
      <trkpt lat="33.93469" lon="77.34222">
        <ele>3569</ele>
        <time>2015-09-02T05:51:44Z</time>
      </trkpt>
      <trkpt lat="33.93466" lon="77.34224">
        <ele>3569</ele>
        <time>2015-09-02T05:51:49Z</time>
      </trkpt>
      <trkpt lat="33.93463" lon="77.34226">
        <ele>3569.2</ele>
        <time>2015-09-02T05:51:54Z</time>
      </trkpt>
      <trkpt lat="33.93462" lon="77.34226">
        <ele>3569</ele>
        <time>2015-09-02T05:51:56Z</time>
      </trkpt>
      <trkpt lat="33.9346" lon="77.34225">
        <ele>3569</ele>
        <time>2015-09-02T05:51:58Z</time>
      </trkpt>
      <trkpt lat="33.93462" lon="77.34234">
        <ele>3568.8</ele>
        <time>2015-09-02T05:52:27Z</time>
      </trkpt>
      <trkpt lat="33.93459" lon="77.34242">
        <ele>3569.2</ele>
        <time>2015-09-02T05:52:38Z</time>
      </trkpt>
      <trkpt lat="33.93455" lon="77.34256">
        <ele>3569.8</ele>
        <time>2015-09-02T05:53:04Z</time>
      </trkpt>
      <trkpt lat="33.93455" lon="77.34258">
        <ele>3570</ele>
        <time>2015-09-02T05:53:07Z</time>
      </trkpt>
      <trkpt lat="33.93451" lon="77.34267">
        <ele>3570</ele>
        <time>2015-09-02T05:53:19Z</time>
      </trkpt>
      <trkpt lat="33.93452" lon="77.34275">
        <ele>3570.4</ele>
        <time>2015-09-02T05:53:26Z</time>
      </trkpt>
      <trkpt lat="33.9345" lon="77.3428">
        <ele>3570.6</ele>
        <time>2015-09-02T05:53:31Z</time>
      </trkpt>
      <trkpt lat="33.93452" lon="77.34286">
        <ele>3570.6</ele>
        <time>2015-09-02T05:53:36Z</time>
      </trkpt>
      <trkpt lat="33.93451" lon="77.3429">
        <ele>3570</ele>
        <time>2015-09-02T05:53:45Z</time>
      </trkpt>
      <trkpt lat="33.93452" lon="77.34294">
        <ele>3570</ele>
        <time>2015-09-02T05:53:48Z</time>
      </trkpt>
      <trkpt lat="33.93454" lon="77.34297">
        <ele>3570.4</ele>
        <time>2015-09-02T05:53:50Z</time>
      </trkpt>
      <trkpt lat="33.93456" lon="77.34306">
        <ele>3570.6</ele>
        <time>2015-09-02T05:53:58Z</time>
      </trkpt>
      <trkpt lat="33.93453" lon="77.34311">
        <ele>3570.6</ele>
        <time>2015-09-02T05:54:03Z</time>
      </trkpt>
      <trkpt lat="33.93452" lon="77.34315">
        <ele>3570.6</ele>
        <time>2015-09-02T05:54:07Z</time>
      </trkpt>
      <trkpt lat="33.93456" lon="77.34323">
        <ele>3570.2</ele>
        <time>2015-09-02T05:54:26Z</time>
      </trkpt>
      <trkpt lat="33.93468" lon="77.34329">
        <ele>3568.8</ele>
        <time>2015-09-02T05:55:14Z</time>
      </trkpt>
      <trkpt lat="33.93469" lon="77.3433">
        <ele>3569</ele>
        <time>2015-09-02T05:55:18Z</time>
      </trkpt>
      <trkpt lat="33.93466" lon="77.34342">
        <ele>3569</ele>
        <time>2015-09-02T05:56:02Z</time>
      </trkpt>
      <trkpt lat="33.93465" lon="77.34343">
        <ele>3569</ele>
        <time>2015-09-02T05:56:03Z</time>
      </trkpt>
      <trkpt lat="33.93465" lon="77.34344">
        <ele>3569</ele>
        <time>2015-09-02T05:56:05Z</time>
      </trkpt>
      <trkpt lat="33.93463" lon="77.34353">
        <ele>3570</ele>
        <time>2015-09-02T05:56:38Z</time>
      </trkpt>
      <trkpt lat="33.93463" lon="77.34357">
        <ele>3570</ele>
        <time>2015-09-02T05:56:40Z</time>
      </trkpt>
      <trkpt lat="33.93463" lon="77.34359">
        <ele>3570.2</ele>
        <time>2015-09-02T05:56:42Z</time>
      </trkpt>
      <trkpt lat="33.93456" lon="77.34362">
        <ele>3570.2</ele>
        <time>2015-09-02T05:56:52Z</time>
      </trkpt>
      <trkpt lat="33.93454" lon="77.34363">
        <ele>3570.2</ele>
        <time>2015-09-02T05:56:55Z</time>
      </trkpt>
      <trkpt lat="33.9345" lon="77.34374">
        <ele>3570.4</ele>
        <time>2015-09-02T05:57:06Z</time>
      </trkpt>
      <trkpt lat="33.93449" lon="77.34378">
        <ele>3570.4</ele>
        <time>2015-09-02T05:57:10Z</time>
      </trkpt>
      <trkpt lat="33.93445" lon="77.34381">
        <ele>3570.6</ele>
        <time>2015-09-02T05:57:15Z</time>
      </trkpt>
      <trkpt lat="33.93443" lon="77.34383">
        <ele>3570.6</ele>
        <time>2015-09-02T05:57:18Z</time>
      </trkpt>
      <trkpt lat="33.9344" lon="77.34385">
        <ele>3570.4</ele>
        <time>2015-09-02T05:57:22Z</time>
      </trkpt>
      <trkpt lat="33.93439" lon="77.34389">
        <ele>3570.4</ele>
        <time>2015-09-02T05:57:26Z</time>
      </trkpt>
      <trkpt lat="33.93437" lon="77.3439">
        <ele>3570.4</ele>
        <time>2015-09-02T05:57:29Z</time>
      </trkpt>
      <trkpt lat="33.93435" lon="77.3439">
        <ele>3570.6</ele>
        <time>2015-09-02T05:57:31Z</time>
      </trkpt>
      <trkpt lat="33.93434" lon="77.34391">
        <ele>3570.4</ele>
        <time>2015-09-02T05:57:34Z</time>
      </trkpt>
      <trkpt lat="33.93433" lon="77.34396">
        <ele>3570.2</ele>
        <time>2015-09-02T05:57:38Z</time>
      </trkpt>
      <trkpt lat="33.93433" lon="77.34398">
        <ele>3570.2</ele>
        <time>2015-09-02T05:57:40Z</time>
      </trkpt>
      <trkpt lat="33.93432" lon="77.344">
        <ele>3570.2</ele>
        <time>2015-09-02T05:57:42Z</time>
      </trkpt>
      <trkpt lat="33.93431" lon="77.34402">
        <ele>3570.2</ele>
        <time>2015-09-02T05:57:44Z</time>
      </trkpt>
      <trkpt lat="33.93431" lon="77.34404">
        <ele>3570.2</ele>
        <time>2015-09-02T05:57:46Z</time>
      </trkpt>
      <trkpt lat="33.9343" lon="77.34406">
        <ele>3570.2</ele>
        <time>2015-09-02T05:57:48Z</time>
      </trkpt>
      <trkpt lat="33.93425" lon="77.34426">
        <ele>3570.4</ele>
        <time>2015-09-02T05:58:05Z</time>
      </trkpt>
      <trkpt lat="33.93424" lon="77.34428">
        <ele>3570.4</ele>
        <time>2015-09-02T05:58:07Z</time>
      </trkpt>
      <trkpt lat="33.93423" lon="77.34431">
        <ele>3570.6</ele>
        <time>2015-09-02T05:58:11Z</time>
      </trkpt>
      <trkpt lat="33.9342" lon="77.34435">
        <ele>3570.8</ele>
        <time>2015-09-02T05:58:16Z</time>
      </trkpt>
      <trkpt lat="33.9342" lon="77.34449">
        <ele>3571</ele>
        <time>2015-09-02T05:58:28Z</time>
      </trkpt>
      <trkpt lat="33.9342" lon="77.34471">
        <ele>3571.2</ele>
        <time>2015-09-02T05:58:53Z</time>
      </trkpt>
      <trkpt lat="33.93421" lon="77.34481">
        <ele>3571.2</ele>
        <time>2015-09-02T05:59:03Z</time>
      </trkpt>
      <trkpt lat="33.93421" lon="77.34486">
        <ele>3571</ele>
        <time>2015-09-02T05:59:07Z</time>
      </trkpt>
      <trkpt lat="33.9342" lon="77.3449">
        <ele>3571.2</ele>
        <time>2015-09-02T05:59:11Z</time>
      </trkpt>
      <trkpt lat="33.93419" lon="77.34492">
        <ele>3571.4</ele>
        <time>2015-09-02T05:59:13Z</time>
      </trkpt>
      <trkpt lat="33.93419" lon="77.34496">
        <ele>3571.4</ele>
        <time>2015-09-02T05:59:16Z</time>
      </trkpt>
      <trkpt lat="33.93418" lon="77.34499">
        <ele>3571</ele>
        <time>2015-09-02T05:59:19Z</time>
      </trkpt>
      <trkpt lat="33.93418" lon="77.34501">
        <ele>3571</ele>
        <time>2015-09-02T05:59:22Z</time>
      </trkpt>
      <trkpt lat="33.93418" lon="77.34507">
        <ele>3571.6</ele>
        <time>2015-09-02T05:59:29Z</time>
      </trkpt>
      <trkpt lat="33.93419" lon="77.34511">
        <ele>3571.8</ele>
        <time>2015-09-02T05:59:32Z</time>
      </trkpt>
      <trkpt lat="33.93418" lon="77.34518">
        <ele>3571.8</ele>
        <time>2015-09-02T05:59:37Z</time>
      </trkpt>
      <trkpt lat="33.93416" lon="77.34522">
        <ele>3572</ele>
        <time>2015-09-02T05:59:42Z</time>
      </trkpt>
      <trkpt lat="33.93415" lon="77.34523">
        <ele>3572</ele>
        <time>2015-09-02T05:59:44Z</time>
      </trkpt>
      <trkpt lat="33.93415" lon="77.3453">
        <ele>3572</ele>
        <time>2015-09-02T05:59:52Z</time>
      </trkpt>
      <trkpt lat="33.93413" lon="77.3454">
        <ele>3572.4</ele>
        <time>2015-09-02T06:00:06Z</time>
      </trkpt>
      <trkpt lat="33.93413" lon="77.34542">
        <ele>3572.4</ele>
        <time>2015-09-02T06:00:08Z</time>
      </trkpt>
      <trkpt lat="33.93413" lon="77.34547">
        <ele>3572.4</ele>
        <time>2015-09-02T06:00:12Z</time>
      </trkpt>
      <trkpt lat="33.93412" lon="77.34552">
        <ele>3572.6</ele>
        <time>2015-09-02T06:00:17Z</time>
      </trkpt>
      <trkpt lat="33.93415" lon="77.34555">
        <ele>3572.6</ele>
        <time>2015-09-02T06:00:21Z</time>
      </trkpt>
      <trkpt lat="33.93422" lon="77.34559">
        <ele>3572.8</ele>
        <time>2015-09-02T06:00:28Z</time>
      </trkpt>
      <trkpt lat="33.93422" lon="77.34561">
        <ele>3572.8</ele>
        <time>2015-09-02T06:00:30Z</time>
      </trkpt>
      <trkpt lat="33.93423" lon="77.34565">
        <ele>3573</ele>
        <time>2015-09-02T06:00:32Z</time>
      </trkpt>
      <trkpt lat="33.93416" lon="77.34573">
        <ele>3573</ele>
        <time>2015-09-02T06:00:39Z</time>
      </trkpt>
      <trkpt lat="33.93413" lon="77.34577">
        <ele>3573</ele>
        <time>2015-09-02T06:00:42Z</time>
      </trkpt>
      <trkpt lat="33.93409" lon="77.34599">
        <ele>3573</ele>
        <time>2015-09-02T06:00:59Z</time>
      </trkpt>
      <trkpt lat="33.93407" lon="77.34606">
        <ele>3573</ele>
        <time>2015-09-02T06:01:04Z</time>
      </trkpt>
      <trkpt lat="33.93404" lon="77.34606">
        <ele>3573</ele>
        <time>2015-09-02T06:01:06Z</time>
      </trkpt>
      <trkpt lat="33.93399" lon="77.34607">
        <ele>3573.2</ele>
        <time>2015-09-02T06:01:11Z</time>
      </trkpt>
      <trkpt lat="33.93397" lon="77.34615">
        <ele>3573.2</ele>
        <time>2015-09-02T06:01:18Z</time>
      </trkpt>
      <trkpt lat="33.93395" lon="77.34617">
        <ele>3573.2</ele>
        <time>2015-09-02T06:01:21Z</time>
      </trkpt>
      <trkpt lat="33.93392" lon="77.34619">
        <ele>3573.2</ele>
        <time>2015-09-02T06:01:25Z</time>
      </trkpt>
      <trkpt lat="33.93391" lon="77.34621">
        <ele>3573.2</ele>
        <time>2015-09-02T06:01:27Z</time>
      </trkpt>
      <trkpt lat="33.93389" lon="77.34622">
        <ele>3573.2</ele>
        <time>2015-09-02T06:01:29Z</time>
      </trkpt>
      <trkpt lat="33.93387" lon="77.34625">
        <ele>3573</ele>
        <time>2015-09-02T06:01:33Z</time>
      </trkpt>
      <trkpt lat="33.93385" lon="77.34626">
        <ele>3573</ele>
        <time>2015-09-02T06:01:35Z</time>
      </trkpt>
      <trkpt lat="33.9338" lon="77.3463">
        <ele>3573</ele>
        <time>2015-09-02T06:01:41Z</time>
      </trkpt>
      <trkpt lat="33.9337" lon="77.34638">
        <ele>3573.2</ele>
        <time>2015-09-02T06:01:53Z</time>
      </trkpt>
      <trkpt lat="33.93369" lon="77.34642">
        <ele>3573.2</ele>
        <time>2015-09-02T06:01:56Z</time>
      </trkpt>
      <trkpt lat="33.93361" lon="77.3466">
        <ele>3573.2</ele>
        <time>2015-09-02T06:02:15Z</time>
      </trkpt>
      <trkpt lat="33.93361" lon="77.34663">
        <ele>3573.2</ele>
        <time>2015-09-02T06:02:17Z</time>
      </trkpt>
      <trkpt lat="33.93361" lon="77.34666">
        <ele>3573.2</ele>
        <time>2015-09-02T06:02:20Z</time>
      </trkpt>
      <trkpt lat="33.93364" lon="77.34675">
        <ele>3573.2</ele>
        <time>2015-09-02T06:02:29Z</time>
      </trkpt>
      <trkpt lat="33.93365" lon="77.34676">
        <ele>3573.2</ele>
        <time>2015-09-02T06:02:31Z</time>
      </trkpt>
      <trkpt lat="33.93364" lon="77.34684">
        <ele>3573</ele>
        <time>2015-09-02T06:02:38Z</time>
      </trkpt>
      <trkpt lat="33.93363" lon="77.34686">
        <ele>3572.8</ele>
        <time>2015-09-02T06:02:41Z</time>
      </trkpt>
      <trkpt lat="33.93359" lon="77.34697">
        <ele>3573.4</ele>
        <time>2015-09-02T06:02:53Z</time>
      </trkpt>
      <trkpt lat="33.93358" lon="77.34699">
        <ele>3573.4</ele>
        <time>2015-09-02T06:02:55Z</time>
      </trkpt>
      <trkpt lat="33.93366" lon="77.34706">
        <ele>3572.8</ele>
        <time>2015-09-02T06:03:13Z</time>
      </trkpt>
      <trkpt lat="33.93366" lon="77.34707">
        <ele>3572.8</ele>
        <time>2015-09-02T06:03:15Z</time>
      </trkpt>
      <trkpt lat="33.93367" lon="77.34712">
        <ele>3572.6</ele>
        <time>2015-09-02T06:03:30Z</time>
      </trkpt>
      <trkpt lat="33.93363" lon="77.34714">
        <ele>3572.8</ele>
        <time>2015-09-02T06:03:34Z</time>
      </trkpt>
      <trkpt lat="33.93353" lon="77.34719">
        <ele>3572.4</ele>
        <time>2015-09-02T06:04:11Z</time>
      </trkpt>
      <trkpt lat="33.93356" lon="77.34719">
        <ele>3572.6</ele>
        <time>2015-09-02T06:04:18Z</time>
      </trkpt>
      <trkpt lat="33.93354" lon="77.34719">
        <ele>3572.4</ele>
        <time>2015-09-02T06:04:21Z</time>
      </trkpt>
      <trkpt lat="33.93353" lon="77.34718">
        <ele>3571.8</ele>
        <time>2015-09-02T06:04:26Z</time>
      </trkpt>
      <trkpt lat="33.9335" lon="77.34717">
        <ele>3572.2</ele>
        <time>2015-09-02T06:04:49Z</time>
      </trkpt>
      <trkpt lat="33.93352" lon="77.34719">
        <ele>3572.2</ele>
        <time>2015-09-02T06:04:52Z</time>
      </trkpt>
      <trkpt lat="33.93352" lon="77.34719">
        <ele>3571</ele>
        <time>2015-09-02T06:05:25Z</time>
      </trkpt>
      <trkpt lat="33.93348" lon="77.34719">
        <ele>3570.8</ele>
        <time>2015-09-02T06:05:27Z</time>
      </trkpt>
      <trkpt lat="33.93346" lon="77.34719">
        <ele>3571</ele>
        <time>2015-09-02T06:05:29Z</time>
      </trkpt>
      <trkpt lat="33.93337" lon="77.34721">
        <ele>3571</ele>
        <time>2015-09-02T06:05:39Z</time>
      </trkpt>
      <trkpt lat="33.93334" lon="77.34722">
        <ele>3571.4</ele>
        <time>2015-09-02T06:05:43Z</time>
      </trkpt>
      <trkpt lat="33.93339" lon="77.34731">
        <ele>3572</ele>
        <time>2015-09-02T06:06:01Z</time>
      </trkpt>
      <trkpt lat="33.93339" lon="77.34732">
        <ele>3572</ele>
        <time>2015-09-02T06:06:02Z</time>
      </trkpt>
      <trkpt lat="33.93337" lon="77.34731">
        <ele>3572</ele>
        <time>2015-09-02T06:06:04Z</time>
      </trkpt>
      <trkpt lat="33.93336" lon="77.34731">
        <ele>3572</ele>
        <time>2015-09-02T06:06:06Z</time>
      </trkpt>
      <trkpt lat="33.93333" lon="77.34728">
        <ele>3571.4</ele>
        <time>2015-09-02T06:06:11Z</time>
      </trkpt>
      <trkpt lat="33.93332" lon="77.34728">
        <ele>3571.4</ele>
        <time>2015-09-02T06:06:13Z</time>
      </trkpt>
      <trkpt lat="33.93323" lon="77.34733">
        <ele>3572</ele>
        <time>2015-09-02T06:06:26Z</time>
      </trkpt>
      <trkpt lat="33.93319" lon="77.34734">
        <ele>3571.6</ele>
        <time>2015-09-02T06:06:31Z</time>
      </trkpt>
      <trkpt lat="33.93317" lon="77.34737">
        <ele>3571.6</ele>
        <time>2015-09-02T06:06:36Z</time>
      </trkpt>
      <trkpt lat="33.93316" lon="77.34738">
        <ele>3571.6</ele>
        <time>2015-09-02T06:06:38Z</time>
      </trkpt>
      <trkpt lat="33.93306" lon="77.34748">
        <ele>3571.6</ele>
        <time>2015-09-02T06:07:14Z</time>
      </trkpt>
      <trkpt lat="33.93296" lon="77.34758">
        <ele>3571.8</ele>
        <time>2015-09-02T06:07:33Z</time>
      </trkpt>
      <trkpt lat="33.93294" lon="77.34758">
        <ele>3571.8</ele>
        <time>2015-09-02T06:07:36Z</time>
      </trkpt>
      <trkpt lat="33.93288" lon="77.34772">
        <ele>3572.2</ele>
        <time>2015-09-02T06:07:51Z</time>
      </trkpt>
      <trkpt lat="33.93287" lon="77.34774">
        <ele>3572.2</ele>
        <time>2015-09-02T06:07:53Z</time>
      </trkpt>
      <trkpt lat="33.93284" lon="77.34775">
        <ele>3572</ele>
        <time>2015-09-02T06:07:56Z</time>
      </trkpt>
      <trkpt lat="33.93275" lon="77.34785">
        <ele>3572.2</ele>
        <time>2015-09-02T06:08:09Z</time>
      </trkpt>
      <trkpt lat="33.93274" lon="77.34787">
        <ele>3572.2</ele>
        <time>2015-09-02T06:08:12Z</time>
      </trkpt>
      <trkpt lat="33.93259" lon="77.348">
        <ele>3572.8</ele>
        <time>2015-09-02T06:08:29Z</time>
      </trkpt>
      <trkpt lat="33.93258" lon="77.34802">
        <ele>3572.8</ele>
        <time>2015-09-02T06:08:31Z</time>
      </trkpt>
      <trkpt lat="33.93259" lon="77.34804">
        <ele>3572.8</ele>
        <time>2015-09-02T06:08:33Z</time>
      </trkpt>
      <trkpt lat="33.93258" lon="77.34805">
        <ele>3573</ele>
        <time>2015-09-02T06:08:34Z</time>
      </trkpt>
      <trkpt lat="33.93255" lon="77.34813">
        <ele>3573.4</ele>
        <time>2015-09-02T06:08:40Z</time>
      </trkpt>
      <trkpt lat="33.93251" lon="77.34826">
        <ele>3573.2</ele>
        <time>2015-09-02T06:08:52Z</time>
      </trkpt>
      <trkpt lat="33.9325" lon="77.34827">
        <ele>3573.2</ele>
        <time>2015-09-02T06:08:54Z</time>
      </trkpt>
      <trkpt lat="33.93248" lon="77.34828">
        <ele>3573.2</ele>
        <time>2015-09-02T06:08:56Z</time>
      </trkpt>
      <trkpt lat="33.93245" lon="77.34834">
        <ele>3573.8</ele>
        <time>2015-09-02T06:09:04Z</time>
      </trkpt>
      <trkpt lat="33.93243" lon="77.34835">
        <ele>3573.8</ele>
        <time>2015-09-02T06:09:07Z</time>
      </trkpt>
      <trkpt lat="33.93241" lon="77.34838">
        <ele>3574</ele>
        <time>2015-09-02T06:09:12Z</time>
      </trkpt>
      <trkpt lat="33.93239" lon="77.34842">
        <ele>3574</ele>
        <time>2015-09-02T06:09:18Z</time>
      </trkpt>
      <trkpt lat="33.9323" lon="77.3485">
        <ele>3574.4</ele>
        <time>2015-09-02T06:09:29Z</time>
      </trkpt>
      <trkpt lat="33.93222" lon="77.34853">
        <ele>3574</ele>
        <time>2015-09-02T06:09:38Z</time>
      </trkpt>
      <trkpt lat="33.93218" lon="77.34856">
        <ele>3574.2</ele>
        <time>2015-09-02T06:09:42Z</time>
      </trkpt>
      <trkpt lat="33.93205" lon="77.34868">
        <ele>3574.8</ele>
        <time>2015-09-02T06:10:02Z</time>
      </trkpt>
      <trkpt lat="33.93192" lon="77.34882">
        <ele>3574.8</ele>
        <time>2015-09-02T06:10:20Z</time>
      </trkpt>
      <trkpt lat="33.93189" lon="77.34886">
        <ele>3575</ele>
        <time>2015-09-02T06:10:25Z</time>
      </trkpt>
      <trkpt lat="33.93187" lon="77.34888">
        <ele>3575.2</ele>
        <time>2015-09-02T06:10:28Z</time>
      </trkpt>
      <trkpt lat="33.93184" lon="77.34892">
        <ele>3575.2</ele>
        <time>2015-09-02T06:10:33Z</time>
      </trkpt>
      <trkpt lat="33.9318" lon="77.34897">
        <ele>3575.4</ele>
        <time>2015-09-02T06:10:39Z</time>
      </trkpt>
      <trkpt lat="33.93163" lon="77.34902">
        <ele>3575.4</ele>
        <time>2015-09-02T06:11:01Z</time>
      </trkpt>
      <trkpt lat="33.93149" lon="77.34915">
        <ele>3575.6</ele>
        <time>2015-09-02T06:11:20Z</time>
      </trkpt>
      <trkpt lat="33.93142" lon="77.34924">
        <ele>3576</ele>
        <time>2015-09-02T06:11:35Z</time>
      </trkpt>
      <trkpt lat="33.93143" lon="77.34934">
        <ele>3576.4</ele>
        <time>2015-09-02T06:12:06Z</time>
      </trkpt>
      <trkpt lat="33.93143" lon="77.34932">
        <ele>3576.4</ele>
        <time>2015-09-02T06:12:08Z</time>
      </trkpt>
      <trkpt lat="33.93144" lon="77.3493">
        <ele>3576.4</ele>
        <time>2015-09-02T06:12:10Z</time>
      </trkpt>
      <trkpt lat="33.93142" lon="77.34927">
        <ele>3576.2</ele>
        <time>2015-09-02T06:12:16Z</time>
      </trkpt>
      <trkpt lat="33.93129" lon="77.34937">
        <ele>3576.6</ele>
        <time>2015-09-02T06:13:29Z</time>
      </trkpt>
      <trkpt lat="33.93118" lon="77.34944">
        <ele>3576.8</ele>
        <time>2015-09-02T06:14:15Z</time>
      </trkpt>
      <trkpt lat="33.93117" lon="77.34944">
        <ele>3576.8</ele>
        <time>2015-09-02T06:14:16Z</time>
      </trkpt>
      <trkpt lat="33.93114" lon="77.34946">
        <ele>3577</ele>
        <time>2015-09-02T06:14:20Z</time>
      </trkpt>
      <trkpt lat="33.93115" lon="77.34946">
        <ele>3577.4</ele>
        <time>2015-09-02T06:15:11Z</time>
      </trkpt>
      <trkpt lat="33.93113" lon="77.34948">
        <ele>3577.6</ele>
        <time>2015-09-02T06:16:20Z</time>
      </trkpt>
      <trkpt lat="33.93117" lon="77.34946">
        <ele>3577.6</ele>
        <time>2015-09-02T06:16:40Z</time>
      </trkpt>
      <trkpt lat="33.93119" lon="77.34948">
        <ele>3577.4</ele>
        <time>2015-09-02T06:17:15Z</time>
      </trkpt>
      <trkpt lat="33.93117" lon="77.34948">
        <ele>3577.2</ele>
        <time>2015-09-02T06:17:39Z</time>
      </trkpt>
      <trkpt lat="33.93115" lon="77.34949">
        <ele>3576.8</ele>
        <time>2015-09-02T06:17:53Z</time>
      </trkpt>
      <trkpt lat="33.93111" lon="77.34951">
        <ele>3577.2</ele>
        <time>2015-09-02T06:18:03Z</time>
      </trkpt>
      <trkpt lat="33.93112" lon="77.34947">
        <ele>3576.8</ele>
        <time>2015-09-02T06:18:24Z</time>
      </trkpt>
      <trkpt lat="33.93119" lon="77.34947">
        <ele>3577.2</ele>
        <time>2015-09-02T06:18:47Z</time>
      </trkpt>
      <trkpt lat="33.93121" lon="77.34947">
        <ele>3577.2</ele>
        <time>2015-09-02T06:18:50Z</time>
      </trkpt>
      <trkpt lat="33.93121" lon="77.34946">
        <ele>3577.2</ele>
        <time>2015-09-02T06:18:52Z</time>
      </trkpt>
      <trkpt lat="33.93122" lon="77.34947">
        <ele>3577.6</ele>
        <time>2015-09-02T06:18:56Z</time>
      </trkpt>
      <trkpt lat="33.9311" lon="77.34948">
        <ele>3577.6</ele>
        <time>2015-09-02T06:19:49Z</time>
      </trkpt>
      <trkpt lat="33.93113" lon="77.3495">
        <ele>3577.8</ele>
        <time>2015-09-02T06:19:59Z</time>
      </trkpt>
      <trkpt lat="33.93114" lon="77.34947">
        <ele>3578.2</ele>
        <time>2015-09-02T06:20:06Z</time>
      </trkpt>
      <trkpt lat="33.93116" lon="77.34947">
        <ele>3578</ele>
        <time>2015-09-02T06:21:02Z</time>
      </trkpt>
      <trkpt lat="33.93117" lon="77.34943">
        <ele>3578</ele>
        <time>2015-09-02T06:21:28Z</time>
      </trkpt>
      <trkpt lat="33.93117" lon="77.34949">
        <ele>3578.4</ele>
        <time>2015-09-02T06:22:11Z</time>
      </trkpt>
      <trkpt lat="33.93113" lon="77.34939">
        <ele>3578.6</ele>
        <time>2015-09-02T06:23:04Z</time>
      </trkpt>
      <trkpt lat="33.93098" lon="77.34945">
        <ele>3578.2</ele>
        <time>2015-09-02T06:23:30Z</time>
      </trkpt>
      <trkpt lat="33.93089" lon="77.34956">
        <ele>3579.2</ele>
        <time>2015-09-02T06:24:02Z</time>
      </trkpt>
      <trkpt lat="33.93082" lon="77.34968">
        <ele>3579.4</ele>
        <time>2015-09-02T06:24:18Z</time>
      </trkpt>
      <trkpt lat="33.9308" lon="77.34974">
        <ele>3579.4</ele>
        <time>2015-09-02T06:24:22Z</time>
      </trkpt>
      <trkpt lat="33.93079" lon="77.34977">
        <ele>3579.4</ele>
        <time>2015-09-02T06:24:24Z</time>
      </trkpt>
      <trkpt lat="33.93074" lon="77.34984">
        <ele>3579.4</ele>
        <time>2015-09-02T06:24:32Z</time>
      </trkpt>
      <trkpt lat="33.93065" lon="77.34987">
        <ele>3578.8</ele>
        <time>2015-09-02T06:24:40Z</time>
      </trkpt>
      <trkpt lat="33.93062" lon="77.3499">
        <ele>3578.6</ele>
        <time>2015-09-02T06:24:44Z</time>
      </trkpt>
      <trkpt lat="33.93058" lon="77.3499">
        <ele>3579.2</ele>
        <time>2015-09-02T06:24:50Z</time>
      </trkpt>
      <trkpt lat="33.93054" lon="77.34998">
        <ele>3579.4</ele>
        <time>2015-09-02T06:24:56Z</time>
      </trkpt>
      <trkpt lat="33.93052" lon="77.3501">
        <ele>3579.2</ele>
        <time>2015-09-02T06:25:06Z</time>
      </trkpt>
      <trkpt lat="33.9305" lon="77.35013">
        <ele>3579.2</ele>
        <time>2015-09-02T06:25:09Z</time>
      </trkpt>
      <trkpt lat="33.93045" lon="77.35033">
        <ele>3579.6</ele>
        <time>2015-09-02T06:25:25Z</time>
      </trkpt>
      <trkpt lat="33.93031" lon="77.35048">
        <ele>3579.8</ele>
        <time>2015-09-02T06:25:43Z</time>
      </trkpt>
      <trkpt lat="33.9303" lon="77.35051">
        <ele>3579.8</ele>
        <time>2015-09-02T06:25:44Z</time>
      </trkpt>
      <trkpt lat="33.93024" lon="77.35066">
        <ele>3579.8</ele>
        <time>2015-09-02T06:25:53Z</time>
      </trkpt>
      <trkpt lat="33.93021" lon="77.35073">
        <ele>3579.6</ele>
        <time>2015-09-02T06:26:00Z</time>
      </trkpt>
      <trkpt lat="33.93019" lon="77.35078">
        <ele>3580</ele>
        <time>2015-09-02T06:26:05Z</time>
      </trkpt>
      <trkpt lat="33.93018" lon="77.35082">
        <ele>3580</ele>
        <time>2015-09-02T06:26:09Z</time>
      </trkpt>
      <trkpt lat="33.93017" lon="77.35083">
        <ele>3580</ele>
        <time>2015-09-02T06:26:11Z</time>
      </trkpt>
      <trkpt lat="33.93009" lon="77.35099">
        <ele>3580.2</ele>
        <time>2015-09-02T06:26:30Z</time>
      </trkpt>
      <trkpt lat="33.9301" lon="77.35103">
        <ele>3581.4</ele>
        <time>2015-09-02T06:26:38Z</time>
      </trkpt>
      <trkpt lat="33.93005" lon="77.35106">
        <ele>3582.4</ele>
        <time>2015-09-02T06:26:44Z</time>
      </trkpt>
      <trkpt lat="33.93017" lon="77.35119">
        <ele>3583.4</ele>
        <time>2015-09-02T06:27:17Z</time>
      </trkpt>
      <trkpt lat="33.93019" lon="77.35122">
        <ele>3583.8</ele>
        <time>2015-09-02T06:27:20Z</time>
      </trkpt>
      <trkpt lat="33.93019" lon="77.35128">
        <ele>3584.4</ele>
        <time>2015-09-02T06:27:25Z</time>
      </trkpt>
      <trkpt lat="33.93018" lon="77.3513">
        <ele>3585</ele>
        <time>2015-09-02T06:27:28Z</time>
      </trkpt>
      <trkpt lat="33.93017" lon="77.35136">
        <ele>3585.4</ele>
        <time>2015-09-02T06:27:35Z</time>
      </trkpt>
      <trkpt lat="33.93015" lon="77.35137">
        <ele>3585.6</ele>
        <time>2015-09-02T06:27:37Z</time>
      </trkpt>
      <trkpt lat="33.93015" lon="77.35138">
        <ele>3585.6</ele>
        <time>2015-09-02T06:27:38Z</time>
      </trkpt>
      <trkpt lat="33.93014" lon="77.35144">
        <ele>3586.2</ele>
        <time>2015-09-02T06:27:44Z</time>
      </trkpt>
      <trkpt lat="33.93011" lon="77.35147">
        <ele>3586.6</ele>
        <time>2015-09-02T06:27:48Z</time>
      </trkpt>
      <trkpt lat="33.93008" lon="77.3516">
        <ele>3587.4</ele>
        <time>2015-09-02T06:27:59Z</time>
      </trkpt>
      <trkpt lat="33.93008" lon="77.35163">
        <ele>3587.6</ele>
        <time>2015-09-02T06:28:02Z</time>
      </trkpt>
      <trkpt lat="33.93005" lon="77.35173">
        <ele>3588.2</ele>
        <time>2015-09-02T06:28:11Z</time>
      </trkpt>
      <trkpt lat="33.93004" lon="77.35173">
        <ele>3588.2</ele>
        <time>2015-09-02T06:28:13Z</time>
      </trkpt>
      <trkpt lat="33.93001" lon="77.35184">
        <ele>3588.4</ele>
        <time>2015-09-02T06:28:21Z</time>
      </trkpt>
      <trkpt lat="33.93002" lon="77.35177">
        <ele>3588.8</ele>
        <time>2015-09-02T06:28:53Z</time>
      </trkpt>
      <trkpt lat="33.93001" lon="77.35185">
        <ele>3589</ele>
        <time>2015-09-02T06:29:01Z</time>
      </trkpt>
      <trkpt lat="33.92997" lon="77.35196">
        <ele>3589.4</ele>
        <time>2015-09-02T06:29:15Z</time>
      </trkpt>
      <trkpt lat="33.92995" lon="77.35199">
        <ele>3589.4</ele>
        <time>2015-09-02T06:29:18Z</time>
      </trkpt>
      <trkpt lat="33.92994" lon="77.35201">
        <ele>3589.4</ele>
        <time>2015-09-02T06:29:20Z</time>
      </trkpt>
      <trkpt lat="33.92994" lon="77.35203">
        <ele>3589.4</ele>
        <time>2015-09-02T06:29:22Z</time>
      </trkpt>
      <trkpt lat="33.92986" lon="77.35214">
        <ele>3589.6</ele>
        <time>2015-09-02T06:29:38Z</time>
      </trkpt>
      <trkpt lat="33.92984" lon="77.35219">
        <ele>3589.8</ele>
        <time>2015-09-02T06:29:42Z</time>
      </trkpt>
      <trkpt lat="33.92981" lon="77.35225">
        <ele>3589.8</ele>
        <time>2015-09-02T06:29:46Z</time>
      </trkpt>
      <trkpt lat="33.92969" lon="77.3524">
        <ele>3590.2</ele>
        <time>2015-09-02T06:30:01Z</time>
      </trkpt>
      <trkpt lat="33.92965" lon="77.35242">
        <ele>3590.4</ele>
        <time>2015-09-02T06:30:08Z</time>
      </trkpt>
      <trkpt lat="33.92949" lon="77.35255">
        <ele>3590.2</ele>
        <time>2015-09-02T06:30:25Z</time>
      </trkpt>
      <trkpt lat="33.92943" lon="77.35266">
        <ele>3590.2</ele>
        <time>2015-09-02T06:30:35Z</time>
      </trkpt>
      <trkpt lat="33.92928" lon="77.35279">
        <ele>3590.4</ele>
        <time>2015-09-02T06:30:53Z</time>
      </trkpt>
      <trkpt lat="33.92913" lon="77.35292">
        <ele>3590.2</ele>
        <time>2015-09-02T06:31:07Z</time>
      </trkpt>
      <trkpt lat="33.92898" lon="77.35302">
        <ele>3589.8</ele>
        <time>2015-09-02T06:31:23Z</time>
      </trkpt>
      <trkpt lat="33.92887" lon="77.35306">
        <ele>3589.6</ele>
        <time>2015-09-02T06:31:33Z</time>
      </trkpt>
      <trkpt lat="33.92877" lon="77.35315">
        <ele>3589</ele>
        <time>2015-09-02T06:31:48Z</time>
      </trkpt>
      <trkpt lat="33.92875" lon="77.35316">
        <ele>3588.8</ele>
        <time>2015-09-02T06:31:51Z</time>
      </trkpt>
      <trkpt lat="33.92865" lon="77.35333">
        <ele>3588.8</ele>
        <time>2015-09-02T06:31:57Z</time>
      </trkpt>
      <trkpt lat="33.92864" lon="77.35335">
        <ele>3588.8</ele>
        <time>2015-09-02T06:31:58Z</time>
      </trkpt>
      <trkpt lat="33.92852" lon="77.35346">
        <ele>3589.8</ele>
        <time>2015-09-02T06:32:13Z</time>
      </trkpt>
      <trkpt lat="33.92841" lon="77.35355">
        <ele>3590</ele>
        <time>2015-09-02T06:32:28Z</time>
      </trkpt>
      <trkpt lat="33.9284" lon="77.35355">
        <ele>3590</ele>
        <time>2015-09-02T06:32:30Z</time>
      </trkpt>
      <trkpt lat="33.92836" lon="77.35362">
        <ele>3590.4</ele>
        <time>2015-09-02T06:32:45Z</time>
      </trkpt>
      <trkpt lat="33.92832" lon="77.35367">
        <ele>3590.4</ele>
        <time>2015-09-02T06:32:51Z</time>
      </trkpt>
      <trkpt lat="33.92828" lon="77.35371">
        <ele>3590</ele>
        <time>2015-09-02T06:32:55Z</time>
      </trkpt>
      <trkpt lat="33.92821" lon="77.35378">
        <ele>3590</ele>
        <time>2015-09-02T06:33:02Z</time>
      </trkpt>
      <trkpt lat="33.9282" lon="77.3538">
        <ele>3590</ele>
        <time>2015-09-02T06:33:04Z</time>
      </trkpt>
      <trkpt lat="33.92814" lon="77.35387">
        <ele>3590.6</ele>
        <time>2015-09-02T06:33:13Z</time>
      </trkpt>
      <trkpt lat="33.92813" lon="77.35389">
        <ele>3590.8</ele>
        <time>2015-09-02T06:33:15Z</time>
      </trkpt>
      <trkpt lat="33.92801" lon="77.35395">
        <ele>3591.8</ele>
        <time>2015-09-02T06:33:29Z</time>
      </trkpt>
      <trkpt lat="33.9279" lon="77.35414">
        <ele>3591</ele>
        <time>2015-09-02T06:33:44Z</time>
      </trkpt>
      <trkpt lat="33.9279" lon="77.35415">
        <ele>3590.8</ele>
        <time>2015-09-02T06:33:55Z</time>
      </trkpt>
      <trkpt lat="33.92787" lon="77.35419">
        <ele>3590.8</ele>
        <time>2015-09-02T06:34:07Z</time>
      </trkpt>
      <trkpt lat="33.92794" lon="77.35418">
        <ele>3590.2</ele>
        <time>2015-09-02T06:34:42Z</time>
      </trkpt>
      <trkpt lat="33.9279" lon="77.35425">
        <ele>3589.6</ele>
        <time>2015-09-02T06:35:01Z</time>
      </trkpt>
      <trkpt lat="33.928" lon="77.35426">
        <ele>3589.2</ele>
        <time>2015-09-02T06:35:21Z</time>
      </trkpt>
      <trkpt lat="33.928" lon="77.35427">
        <ele>3589.2</ele>
        <time>2015-09-02T06:35:23Z</time>
      </trkpt>
      <trkpt lat="33.92802" lon="77.35429">
        <ele>3588.6</ele>
        <time>2015-09-02T06:35:28Z</time>
      </trkpt>
      <trkpt lat="33.92799" lon="77.35426">
        <ele>3588.4</ele>
        <time>2015-09-02T06:36:14Z</time>
      </trkpt>
      <trkpt lat="33.92799" lon="77.35426">
        <ele>3588</ele>
        <time>2015-09-02T06:37:04Z</time>
      </trkpt>
      <trkpt lat="33.92799" lon="77.35425">
        <ele>3588</ele>
        <time>2015-09-02T06:37:05Z</time>
      </trkpt>
      <trkpt lat="33.92798" lon="77.35426">
        <ele>3587.8</ele>
        <time>2015-09-02T06:37:07Z</time>
      </trkpt>
      <trkpt lat="33.92799" lon="77.35428">
        <ele>3588</ele>
        <time>2015-09-02T06:37:22Z</time>
      </trkpt>
      <trkpt lat="33.928" lon="77.35429">
        <ele>3587.6</ele>
        <time>2015-09-02T06:37:35Z</time>
      </trkpt>
      <trkpt lat="33.92807" lon="77.35427">
        <ele>3588.2</ele>
        <time>2015-09-02T06:38:09Z</time>
      </trkpt>
      <trkpt lat="33.92801" lon="77.35427">
        <ele>3587.4</ele>
        <time>2015-09-02T06:39:08Z</time>
      </trkpt>
      <trkpt lat="33.92798" lon="77.35426">
        <ele>3587</ele>
        <time>2015-09-02T06:39:12Z</time>
      </trkpt>
      <trkpt lat="33.92799" lon="77.35426">
        <ele>3587</ele>
        <time>2015-09-02T06:39:14Z</time>
      </trkpt>
      <trkpt lat="33.92804" lon="77.3543">
        <ele>3587</ele>
        <time>2015-09-02T06:40:39Z</time>
      </trkpt>
      <trkpt lat="33.92804" lon="77.3543">
        <ele>3587</ele>
        <time>2015-09-02T06:40:47Z</time>
      </trkpt>
      <trkpt lat="33.92808" lon="77.35427">
        <ele>3586.8</ele>
        <time>2015-09-02T06:41:16Z</time>
      </trkpt>
      <trkpt lat="33.9281" lon="77.35429">
        <ele>3586.4</ele>
        <time>2015-09-02T06:41:52Z</time>
      </trkpt>
      <trkpt lat="33.92803" lon="77.35429">
        <ele>3586.8</ele>
        <time>2015-09-02T06:42:35Z</time>
      </trkpt>
      <trkpt lat="33.92799" lon="77.35431">
        <ele>3586</ele>
        <time>2015-09-02T06:43:40Z</time>
      </trkpt>
      <trkpt lat="33.92807" lon="77.3543">
        <ele>3586.2</ele>
        <time>2015-09-02T06:45:09Z</time>
      </trkpt>
      <trkpt lat="33.92809" lon="77.35425">
        <ele>3585.6</ele>
        <time>2015-09-02T06:46:14Z</time>
      </trkpt>
      <trkpt lat="33.92799" lon="77.35433">
        <ele>3585.4</ele>
        <time>2015-09-02T06:46:49Z</time>
      </trkpt>
      <trkpt lat="33.92806" lon="77.35445">
        <ele>3585.4</ele>
        <time>2015-09-02T06:46:55Z</time>
      </trkpt>
      <trkpt lat="33.928" lon="77.35429">
        <ele>3585.4</ele>
        <time>2015-09-02T06:47:15Z</time>
      </trkpt>
      <trkpt lat="33.92804" lon="77.35429">
        <ele>3585.2</ele>
        <time>2015-09-02T06:47:37Z</time>
      </trkpt>
      <trkpt lat="33.92803" lon="77.35427">
        <ele>3585.2</ele>
        <time>2015-09-02T06:48:38Z</time>
      </trkpt>
      <trkpt lat="33.92809" lon="77.35425">
        <ele>3585.4</ele>
        <time>2015-09-02T06:49:37Z</time>
      </trkpt>
      <trkpt lat="33.92809" lon="77.35425">
        <ele>3585.8</ele>
        <time>2015-09-02T06:50:28Z</time>
      </trkpt>
      <trkpt lat="33.92805" lon="77.35431">
        <ele>3585.2</ele>
        <time>2015-09-02T06:51:14Z</time>
      </trkpt>
      <trkpt lat="33.92805" lon="77.35425">
        <ele>3585.4</ele>
        <time>2015-09-02T06:52:33Z</time>
      </trkpt>
      <trkpt lat="33.92808" lon="77.35428">
        <ele>3585.4</ele>
        <time>2015-09-02T06:54:04Z</time>
      </trkpt>
      <trkpt lat="33.92808" lon="77.35427">
        <ele>3585.8</ele>
        <time>2015-09-02T06:54:11Z</time>
      </trkpt>
      <trkpt lat="33.92808" lon="77.35423">
        <ele>3585.8</ele>
        <time>2015-09-02T06:54:52Z</time>
      </trkpt>
      <trkpt lat="33.928" lon="77.35425">
        <ele>3586.2</ele>
        <time>2015-09-02T06:54:59Z</time>
      </trkpt>
      <trkpt lat="33.92794" lon="77.35426">
        <ele>3586.2</ele>
        <time>2015-09-02T06:55:02Z</time>
      </trkpt>
      <trkpt lat="33.92791" lon="77.35424">
        <ele>3586</ele>
        <time>2015-09-02T06:55:30Z</time>
      </trkpt>
      <trkpt lat="33.92796" lon="77.35425">
        <ele>3586</ele>
        <time>2015-09-02T06:55:46Z</time>
      </trkpt>
      <trkpt lat="33.92798" lon="77.35425">
        <ele>3586</ele>
        <time>2015-09-02T06:55:48Z</time>
      </trkpt>
      <trkpt lat="33.92802" lon="77.35425">
        <ele>3585.8</ele>
        <time>2015-09-02T06:56:38Z</time>
      </trkpt>
      <trkpt lat="33.9279" lon="77.35418">
        <ele>3585.8</ele>
        <time>2015-09-02T06:57:25Z</time>
      </trkpt>
      <trkpt lat="33.92793" lon="77.35421">
        <ele>3585.6</ele>
        <time>2015-09-02T06:57:49Z</time>
      </trkpt>
      <trkpt lat="33.9279" lon="77.3542">
        <ele>3585.6</ele>
        <time>2015-09-02T06:57:51Z</time>
      </trkpt>
      <trkpt lat="33.92788" lon="77.3542">
        <ele>3585.6</ele>
        <time>2015-09-02T06:57:53Z</time>
      </trkpt>
      <trkpt lat="33.92786" lon="77.35419">
        <ele>3585.6</ele>
        <time>2015-09-02T06:57:55Z</time>
      </trkpt>
      <trkpt lat="33.92782" lon="77.35416">
        <ele>3585.4</ele>
        <time>2015-09-02T06:57:58Z</time>
      </trkpt>
      <trkpt lat="33.92791" lon="77.3542">
        <ele>3584.4</ele>
        <time>2015-09-02T06:58:23Z</time>
      </trkpt>
      <trkpt lat="33.92797" lon="77.35422">
        <ele>3584.4</ele>
        <time>2015-09-02T06:59:09Z</time>
      </trkpt>
      <trkpt lat="33.92787" lon="77.35424">
        <ele>3583.6</ele>
        <time>2015-09-02T06:59:38Z</time>
      </trkpt>
      <trkpt lat="33.92785" lon="77.35425">
        <ele>3583.4</ele>
        <time>2015-09-02T06:59:41Z</time>
      </trkpt>
      <trkpt lat="33.92783" lon="77.35421">
        <ele>3584.4</ele>
        <time>2015-09-02T07:00:02Z</time>
      </trkpt>
      <trkpt lat="33.9279" lon="77.35422">
        <ele>3584.6</ele>
        <time>2015-09-02T07:00:06Z</time>
      </trkpt>
      <trkpt lat="33.92791" lon="77.35421">
        <ele>3584.4</ele>
        <time>2015-09-02T07:00:08Z</time>
      </trkpt>
      <trkpt lat="33.92798" lon="77.35417">
        <ele>3583.8</ele>
        <time>2015-09-02T07:00:30Z</time>
      </trkpt>
      <trkpt lat="33.92799" lon="77.35416">
        <ele>3583.8</ele>
        <time>2015-09-02T07:00:33Z</time>
      </trkpt>
      <trkpt lat="33.9279" lon="77.35422">
        <ele>3583.4</ele>
        <time>2015-09-02T07:00:48Z</time>
      </trkpt>
      <trkpt lat="33.92787" lon="77.35417">
        <ele>3583.6</ele>
        <time>2015-09-02T07:01:01Z</time>
      </trkpt>
      <trkpt lat="33.92784" lon="77.3542">
        <ele>3583.4</ele>
        <time>2015-09-02T07:01:25Z</time>
      </trkpt>
      <trkpt lat="33.92782" lon="77.3542">
        <ele>3583.8</ele>
        <time>2015-09-02T07:01:33Z</time>
      </trkpt>
      <trkpt lat="33.9278" lon="77.35418">
        <ele>3583.8</ele>
        <time>2015-09-02T07:01:36Z</time>
      </trkpt>
      <trkpt lat="33.92779" lon="77.35415">
        <ele>3584.4</ele>
        <time>2015-09-02T07:01:40Z</time>
      </trkpt>
      <trkpt lat="33.92779" lon="77.35409">
        <ele>3585.4</ele>
        <time>2015-09-02T07:01:54Z</time>
      </trkpt>
      <trkpt lat="33.92776" lon="77.35407">
        <ele>3585.6</ele>
        <time>2015-09-02T07:02:35Z</time>
      </trkpt>
      <trkpt lat="33.9278" lon="77.35404">
        <ele>3585.6</ele>
        <time>2015-09-02T07:02:43Z</time>
      </trkpt>
      <trkpt lat="33.92777" lon="77.35404">
        <ele>3585.8</ele>
        <time>2015-09-02T07:02:47Z</time>
      </trkpt>
      <trkpt lat="33.92781" lon="77.35401">
        <ele>3586</ele>
        <time>2015-09-02T07:02:58Z</time>
      </trkpt>
      <trkpt lat="33.92783" lon="77.35404">
        <ele>3585.8</ele>
        <time>2015-09-02T07:03:00Z</time>
      </trkpt>
      <trkpt lat="33.92779" lon="77.35405">
        <ele>3585.8</ele>
        <time>2015-09-02T07:03:13Z</time>
      </trkpt>
      <trkpt lat="33.92773" lon="77.35399">
        <ele>3586.2</ele>
        <time>2015-09-02T07:03:18Z</time>
      </trkpt>
      <trkpt lat="33.92766" lon="77.35399">
        <ele>3586.6</ele>
        <time>2015-09-02T07:03:27Z</time>
      </trkpt>
      <trkpt lat="33.92763" lon="77.35401">
        <ele>3587.6</ele>
        <time>2015-09-02T07:03:34Z</time>
      </trkpt>
      <trkpt lat="33.92755" lon="77.35412">
        <ele>3586.6</ele>
        <time>2015-09-02T07:03:49Z</time>
      </trkpt>
      <trkpt lat="33.92753" lon="77.35415">
        <ele>3585.6</ele>
        <time>2015-09-02T07:03:56Z</time>
      </trkpt>
      <trkpt lat="33.92749" lon="77.35419">
        <ele>3585.4</ele>
        <time>2015-09-02T07:04:00Z</time>
      </trkpt>
      <trkpt lat="33.92733" lon="77.35423">
        <ele>3584.6</ele>
        <time>2015-09-02T07:04:10Z</time>
      </trkpt>
      <trkpt lat="33.92727" lon="77.35425">
        <ele>3584.6</ele>
        <time>2015-09-02T07:04:14Z</time>
      </trkpt>
      <trkpt lat="33.92716" lon="77.35434">
        <ele>3585</ele>
        <time>2015-09-02T07:04:29Z</time>
      </trkpt>
      <trkpt lat="33.92708" lon="77.35445">
        <ele>3585</ele>
        <time>2015-09-02T07:04:43Z</time>
      </trkpt>
      <trkpt lat="33.92694" lon="77.35455">
        <ele>3585.6</ele>
        <time>2015-09-02T07:04:56Z</time>
      </trkpt>
      <trkpt lat="33.92689" lon="77.35461">
        <ele>3585.8</ele>
        <time>2015-09-02T07:05:03Z</time>
      </trkpt>
      <trkpt lat="33.92683" lon="77.35464">
        <ele>3586</ele>
        <time>2015-09-02T07:05:08Z</time>
      </trkpt>
      <trkpt lat="33.92673" lon="77.35483">
        <ele>3586.4</ele>
        <time>2015-09-02T07:05:20Z</time>
      </trkpt>
      <trkpt lat="33.92659" lon="77.35496">
        <ele>3584.4</ele>
        <time>2015-09-02T07:05:35Z</time>
      </trkpt>
      <trkpt lat="33.92646" lon="77.35511">
        <ele>3584.8</ele>
        <time>2015-09-02T07:05:51Z</time>
      </trkpt>
      <trkpt lat="33.92644" lon="77.35517">
        <ele>3584.6</ele>
        <time>2015-09-02T07:05:56Z</time>
      </trkpt>
      <trkpt lat="33.92645" lon="77.35519">
        <ele>3584.6</ele>
        <time>2015-09-02T07:05:58Z</time>
      </trkpt>
      <trkpt lat="33.92642" lon="77.35524">
        <ele>3584.6</ele>
        <time>2015-09-02T07:06:05Z</time>
      </trkpt>
      <trkpt lat="33.92633" lon="77.35531">
        <ele>3583.6</ele>
        <time>2015-09-02T07:06:15Z</time>
      </trkpt>
      <trkpt lat="33.92631" lon="77.35534">
        <ele>3583.6</ele>
        <time>2015-09-02T07:06:19Z</time>
      </trkpt>
      <trkpt lat="33.92629" lon="77.35536">
        <ele>3583.8</ele>
        <time>2015-09-02T07:06:21Z</time>
      </trkpt>
      <trkpt lat="33.92627" lon="77.35539">
        <ele>3584</ele>
        <time>2015-09-02T07:06:23Z</time>
      </trkpt>
      <trkpt lat="33.92624" lon="77.35546">
        <ele>3584.4</ele>
        <time>2015-09-02T07:06:32Z</time>
      </trkpt>
      <trkpt lat="33.92615" lon="77.35554">
        <ele>3584</ele>
        <time>2015-09-02T07:06:40Z</time>
      </trkpt>
      <trkpt lat="33.92612" lon="77.35558">
        <ele>3584</ele>
        <time>2015-09-02T07:06:45Z</time>
      </trkpt>
      <trkpt lat="33.92608" lon="77.35566">
        <ele>3583.8</ele>
        <time>2015-09-02T07:06:52Z</time>
      </trkpt>
      <trkpt lat="33.92604" lon="77.35572">
        <ele>3584</ele>
        <time>2015-09-02T07:06:59Z</time>
      </trkpt>
      <trkpt lat="33.92604" lon="77.35581">
        <ele>3583.4</ele>
        <time>2015-09-02T07:07:04Z</time>
      </trkpt>
      <trkpt lat="33.92596" lon="77.35592">
        <ele>3584.2</ele>
        <time>2015-09-02T07:07:15Z</time>
      </trkpt>
      <trkpt lat="33.92591" lon="77.35595">
        <ele>3584.4</ele>
        <time>2015-09-02T07:07:19Z</time>
      </trkpt>
      <trkpt lat="33.92585" lon="77.35608">
        <ele>3585.4</ele>
        <time>2015-09-02T07:07:31Z</time>
      </trkpt>
      <trkpt lat="33.92579" lon="77.35608">
        <ele>3586.2</ele>
        <time>2015-09-02T07:07:42Z</time>
      </trkpt>
      <trkpt lat="33.92574" lon="77.35609">
        <ele>3586</ele>
        <time>2015-09-02T07:07:46Z</time>
      </trkpt>
      <trkpt lat="33.92573" lon="77.3561">
        <ele>3585.8</ele>
        <time>2015-09-02T07:07:48Z</time>
      </trkpt>
      <trkpt lat="33.92573" lon="77.35612">
        <ele>3585.8</ele>
        <time>2015-09-02T07:07:51Z</time>
      </trkpt>
      <trkpt lat="33.92572" lon="77.35614">
        <ele>3585.8</ele>
        <time>2015-09-02T07:07:53Z</time>
      </trkpt>
      <trkpt lat="33.92573" lon="77.35618">
        <ele>3585.8</ele>
        <time>2015-09-02T07:07:57Z</time>
      </trkpt>
      <trkpt lat="33.92575" lon="77.35626">
        <ele>3586</ele>
        <time>2015-09-02T07:08:04Z</time>
      </trkpt>
      <trkpt lat="33.92576" lon="77.35628">
        <ele>3586.6</ele>
        <time>2015-09-02T07:08:08Z</time>
      </trkpt>
      <trkpt lat="33.9257" lon="77.3563">
        <ele>3587.4</ele>
        <time>2015-09-02T07:08:19Z</time>
      </trkpt>
      <trkpt lat="33.92568" lon="77.35631">
        <ele>3587.6</ele>
        <time>2015-09-02T07:08:22Z</time>
      </trkpt>
      <trkpt lat="33.92552" lon="77.35635">
        <ele>3587.8</ele>
        <time>2015-09-02T07:08:44Z</time>
      </trkpt>
      <trkpt lat="33.92549" lon="77.35637">
        <ele>3587.6</ele>
        <time>2015-09-02T07:08:49Z</time>
      </trkpt>
      <trkpt lat="33.92541" lon="77.35643">
        <ele>3587.6</ele>
        <time>2015-09-02T07:08:59Z</time>
      </trkpt>
      <trkpt lat="33.92539" lon="77.35645">
        <ele>3587.8</ele>
        <time>2015-09-02T07:09:02Z</time>
      </trkpt>
      <trkpt lat="33.92535" lon="77.35651">
        <ele>3587.8</ele>
        <time>2015-09-02T07:09:09Z</time>
      </trkpt>
      <trkpt lat="33.92534" lon="77.35655">
        <ele>3587.8</ele>
        <time>2015-09-02T07:09:13Z</time>
      </trkpt>
      <trkpt lat="33.92535" lon="77.3566">
        <ele>3588.8</ele>
        <time>2015-09-02T07:09:21Z</time>
      </trkpt>
      <trkpt lat="33.92532" lon="77.35663">
        <ele>3589.2</ele>
        <time>2015-09-02T07:09:25Z</time>
      </trkpt>
      <trkpt lat="33.92531" lon="77.35666">
        <ele>3589.2</ele>
        <time>2015-09-02T07:09:27Z</time>
      </trkpt>
      <trkpt lat="33.92531" lon="77.35668">
        <ele>3589.4</ele>
        <time>2015-09-02T07:09:29Z</time>
      </trkpt>
      <trkpt lat="33.92528" lon="77.35671">
        <ele>3589.8</ele>
        <time>2015-09-02T07:09:33Z</time>
      </trkpt>
      <trkpt lat="33.92523" lon="77.35676">
        <ele>3590.2</ele>
        <time>2015-09-02T07:09:38Z</time>
      </trkpt>
      <trkpt lat="33.92522" lon="77.35679">
        <ele>3590.8</ele>
        <time>2015-09-02T07:09:42Z</time>
      </trkpt>
      <trkpt lat="33.9252" lon="77.35681">
        <ele>3591</ele>
        <time>2015-09-02T07:09:44Z</time>
      </trkpt>
      <trkpt lat="33.92517" lon="77.35689">
        <ele>3592</ele>
        <time>2015-09-02T07:09:51Z</time>
      </trkpt>
      <trkpt lat="33.92517" lon="77.3569">
        <ele>3592</ele>
        <time>2015-09-02T07:09:52Z</time>
      </trkpt>
      <trkpt lat="33.92519" lon="77.35701">
        <ele>3593</ele>
        <time>2015-09-02T07:10:03Z</time>
      </trkpt>
      <trkpt lat="33.92504" lon="77.35718">
        <ele>3593.8</ele>
        <time>2015-09-02T07:10:22Z</time>
      </trkpt>
      <trkpt lat="33.92503" lon="77.3572">
        <ele>3594</ele>
        <time>2015-09-02T07:10:24Z</time>
      </trkpt>
      <trkpt lat="33.92497" lon="77.35724">
        <ele>3594.2</ele>
        <time>2015-09-02T07:10:29Z</time>
      </trkpt>
      <trkpt lat="33.92491" lon="77.35728">
        <ele>3594.6</ele>
        <time>2015-09-02T07:10:35Z</time>
      </trkpt>
      <trkpt lat="33.92488" lon="77.3573">
        <ele>3594.6</ele>
        <time>2015-09-02T07:10:38Z</time>
      </trkpt>
      <trkpt lat="33.92486" lon="77.35731">
        <ele>3594.8</ele>
        <time>2015-09-02T07:10:40Z</time>
      </trkpt>
      <trkpt lat="33.92478" lon="77.35738">
        <ele>3595</ele>
        <time>2015-09-02T07:10:47Z</time>
      </trkpt>
      <trkpt lat="33.9248" lon="77.35738">
        <ele>3595</ele>
        <time>2015-09-02T07:10:49Z</time>
      </trkpt>
      <trkpt lat="33.92479" lon="77.35738">
        <ele>3595</ele>
        <time>2015-09-02T07:10:50Z</time>
      </trkpt>
      <trkpt lat="33.92478" lon="77.35739">
        <ele>3595.2</ele>
        <time>2015-09-02T07:10:51Z</time>
      </trkpt>
      <trkpt lat="33.92476" lon="77.35741">
        <ele>3595.8</ele>
        <time>2015-09-02T07:10:54Z</time>
      </trkpt>
      <trkpt lat="33.92474" lon="77.35743">
        <ele>3596</ele>
        <time>2015-09-02T07:10:56Z</time>
      </trkpt>
      <trkpt lat="33.92473" lon="77.35745">
        <ele>3596</ele>
        <time>2015-09-02T07:10:57Z</time>
      </trkpt>
      <trkpt lat="33.92471" lon="77.35747">
        <ele>3596.4</ele>
        <time>2015-09-02T07:10:59Z</time>
      </trkpt>
      <trkpt lat="33.92468" lon="77.35752">
        <ele>3596.6</ele>
        <time>2015-09-02T07:11:03Z</time>
      </trkpt>
      <trkpt lat="33.92466" lon="77.35753">
        <ele>3596.4</ele>
        <time>2015-09-02T07:11:05Z</time>
      </trkpt>
      <trkpt lat="33.92458" lon="77.35756">
        <ele>3596.6</ele>
        <time>2015-09-02T07:11:12Z</time>
      </trkpt>
      <trkpt lat="33.92451" lon="77.3576">
        <ele>3597</ele>
        <time>2015-09-02T07:11:18Z</time>
      </trkpt>
      <trkpt lat="33.92444" lon="77.35774">
        <ele>3598.2</ele>
        <time>2015-09-02T07:11:33Z</time>
      </trkpt>
      <trkpt lat="33.92449" lon="77.35776">
        <ele>3598.2</ele>
        <time>2015-09-02T07:11:34Z</time>
      </trkpt>
      <trkpt lat="33.92451" lon="77.35784">
        <ele>3598.8</ele>
        <time>2015-09-02T07:11:43Z</time>
      </trkpt>
      <trkpt lat="33.92452" lon="77.35787">
        <ele>3599.2</ele>
        <time>2015-09-02T07:11:47Z</time>
      </trkpt>
      <trkpt lat="33.92451" lon="77.35789">
        <ele>3599.6</ele>
        <time>2015-09-02T07:11:50Z</time>
      </trkpt>
      <trkpt lat="33.9244" lon="77.35796">
        <ele>3600.2</ele>
        <time>2015-09-02T07:11:59Z</time>
      </trkpt>
      <trkpt lat="33.9244" lon="77.35796">
        <ele>3600.4</ele>
        <time>2015-09-02T07:12:00Z</time>
      </trkpt>
      <trkpt lat="33.92438" lon="77.35799">
        <ele>3601.4</ele>
        <time>2015-09-02T07:12:06Z</time>
      </trkpt>
      <trkpt lat="33.9243" lon="77.35798">
        <ele>3601.6</ele>
        <time>2015-09-02T07:12:07Z</time>
      </trkpt>
      <trkpt lat="33.92427" lon="77.358">
        <ele>3601.6</ele>
        <time>2015-09-02T07:12:09Z</time>
      </trkpt>
      <trkpt lat="33.92413" lon="77.35813">
        <ele>3602</ele>
        <time>2015-09-02T07:12:19Z</time>
      </trkpt>
      <trkpt lat="33.9241" lon="77.35817">
        <ele>3602.6</ele>
        <time>2015-09-02T07:12:25Z</time>
      </trkpt>
      <trkpt lat="33.92395" lon="77.35829">
        <ele>3603.6</ele>
        <time>2015-09-02T07:12:42Z</time>
      </trkpt>
      <trkpt lat="33.92387" lon="77.35833">
        <ele>3603.8</ele>
        <time>2015-09-02T07:12:48Z</time>
      </trkpt>
      <trkpt lat="33.92381" lon="77.35838">
        <ele>3604.2</ele>
        <time>2015-09-02T07:12:55Z</time>
      </trkpt>
      <trkpt lat="33.9238" lon="77.3584">
        <ele>3604.4</ele>
        <time>2015-09-02T07:12:57Z</time>
      </trkpt>
      <trkpt lat="33.92381" lon="77.35842">
        <ele>3604.8</ele>
        <time>2015-09-02T07:12:58Z</time>
      </trkpt>
      <trkpt lat="33.92382" lon="77.3584">
        <ele>3605.2</ele>
        <time>2015-09-02T07:13:01Z</time>
      </trkpt>
      <trkpt lat="33.92379" lon="77.35838">
        <ele>3605.2</ele>
        <time>2015-09-02T07:13:05Z</time>
      </trkpt>
      <trkpt lat="33.92378" lon="77.35833">
        <ele>3605.2</ele>
        <time>2015-09-02T07:13:08Z</time>
      </trkpt>
      <trkpt lat="33.92376" lon="77.35832">
        <ele>3604.8</ele>
        <time>2015-09-02T07:13:12Z</time>
      </trkpt>
      <trkpt lat="33.92374" lon="77.35834">
        <ele>3604.4</ele>
        <time>2015-09-02T07:13:14Z</time>
      </trkpt>
      <trkpt lat="33.92376" lon="77.35835">
        <ele>3604.4</ele>
        <time>2015-09-02T07:13:17Z</time>
      </trkpt>
      <trkpt lat="33.92378" lon="77.35837">
        <ele>3604.2</ele>
        <time>2015-09-02T07:13:20Z</time>
      </trkpt>
      <trkpt lat="33.92378" lon="77.35839">
        <ele>3603.6</ele>
        <time>2015-09-02T07:13:23Z</time>
      </trkpt>
      <trkpt lat="33.92375" lon="77.35841">
        <ele>3603.2</ele>
        <time>2015-09-02T07:13:26Z</time>
      </trkpt>
      <trkpt lat="33.92373" lon="77.35842">
        <ele>3603.2</ele>
        <time>2015-09-02T07:13:28Z</time>
      </trkpt>
      <trkpt lat="33.92372" lon="77.35847">
        <ele>3603.6</ele>
        <time>2015-09-02T07:13:33Z</time>
      </trkpt>
      <trkpt lat="33.92371" lon="77.35848">
        <ele>3604</ele>
        <time>2015-09-02T07:13:35Z</time>
      </trkpt>
      <trkpt lat="33.92369" lon="77.3585">
        <ele>3604.6</ele>
        <time>2015-09-02T07:13:39Z</time>
      </trkpt>
      <trkpt lat="33.92366" lon="77.35853">
        <ele>3605.4</ele>
        <time>2015-09-02T07:13:43Z</time>
      </trkpt>
      <trkpt lat="33.92363" lon="77.35855">
        <ele>3605.8</ele>
        <time>2015-09-02T07:13:45Z</time>
      </trkpt>
      <trkpt lat="33.9236" lon="77.35856">
        <ele>3606</ele>
        <time>2015-09-02T07:13:47Z</time>
      </trkpt>
      <trkpt lat="33.92351" lon="77.35869">
        <ele>3605.8</ele>
        <time>2015-09-02T07:14:02Z</time>
      </trkpt>
      <trkpt lat="33.92349" lon="77.3587">
        <ele>3605.8</ele>
        <time>2015-09-02T07:14:04Z</time>
      </trkpt>
      <trkpt lat="33.92338" lon="77.35873">
        <ele>3606</ele>
        <time>2015-09-02T07:14:20Z</time>
      </trkpt>
      <trkpt lat="33.92325" lon="77.35875">
        <ele>3605.4</ele>
        <time>2015-09-02T07:14:28Z</time>
      </trkpt>
      <trkpt lat="33.9231" lon="77.35881">
        <ele>3606.2</ele>
        <time>2015-09-02T07:15:00Z</time>
      </trkpt>
      <trkpt lat="33.92292" lon="77.35889">
        <ele>3606</ele>
        <time>2015-09-02T07:15:15Z</time>
      </trkpt>
      <trkpt lat="33.92274" lon="77.35895">
        <ele>3605.8</ele>
        <time>2015-09-02T07:15:29Z</time>
      </trkpt>
      <trkpt lat="33.9227" lon="77.35896">
        <ele>3606.2</ele>
        <time>2015-09-02T07:15:33Z</time>
      </trkpt>
      <trkpt lat="33.92251" lon="77.35903">
        <ele>3606.8</ele>
        <time>2015-09-02T07:15:44Z</time>
      </trkpt>
      <trkpt lat="33.9225" lon="77.35904">
        <ele>3606.8</ele>
        <time>2015-09-02T07:15:45Z</time>
      </trkpt>
      <trkpt lat="33.92234" lon="77.35916">
        <ele>3607.4</ele>
        <time>2015-09-02T07:15:56Z</time>
      </trkpt>
      <trkpt lat="33.92214" lon="77.35919">
        <ele>3607</ele>
        <time>2015-09-02T07:16:04Z</time>
      </trkpt>
      <trkpt lat="33.92202" lon="77.35933">
        <ele>3607.6</ele>
        <time>2015-09-02T07:16:27Z</time>
      </trkpt>
      <trkpt lat="33.92199" lon="77.35935">
        <ele>3607.8</ele>
        <time>2015-09-02T07:16:30Z</time>
      </trkpt>
      <trkpt lat="33.92197" lon="77.35939">
        <ele>3608.2</ele>
        <time>2015-09-02T07:16:33Z</time>
      </trkpt>
      <trkpt lat="33.92189" lon="77.35943">
        <ele>3608.8</ele>
        <time>2015-09-02T07:16:42Z</time>
      </trkpt>
      <trkpt lat="33.92182" lon="77.35949">
        <ele>3609.2</ele>
        <time>2015-09-02T07:16:51Z</time>
      </trkpt>
      <trkpt lat="33.92185" lon="77.35951">
        <ele>3610</ele>
        <time>2015-09-02T07:16:59Z</time>
      </trkpt>
      <trkpt lat="33.92169" lon="77.35954">
        <ele>3611</ele>
        <time>2015-09-02T07:17:10Z</time>
      </trkpt>
      <trkpt lat="33.92169" lon="77.35952">
        <ele>3612</ele>
        <time>2015-09-02T07:17:31Z</time>
      </trkpt>
      <trkpt lat="33.92165" lon="77.35955">
        <ele>3612.4</ele>
        <time>2015-09-02T07:17:34Z</time>
      </trkpt>
      <trkpt lat="33.92154" lon="77.35956">
        <ele>3612.8</ele>
        <time>2015-09-02T07:17:38Z</time>
      </trkpt>
      <trkpt lat="33.92151" lon="77.35958">
        <ele>3613</ele>
        <time>2015-09-02T07:17:40Z</time>
      </trkpt>
      <trkpt lat="33.92146" lon="77.3596">
        <ele>3613.4</ele>
        <time>2015-09-02T07:17:43Z</time>
      </trkpt>
      <trkpt lat="33.9214" lon="77.35962">
        <ele>3614</ele>
        <time>2015-09-02T07:17:48Z</time>
      </trkpt>
      <trkpt lat="33.92139" lon="77.35962">
        <ele>3613.8</ele>
        <time>2015-09-02T07:17:50Z</time>
      </trkpt>
      <trkpt lat="33.92136" lon="77.35964">
        <ele>3613.4</ele>
        <time>2015-09-02T07:17:52Z</time>
      </trkpt>
      <trkpt lat="33.92122" lon="77.3597">
        <ele>3611.8</ele>
        <time>2015-09-02T07:18:00Z</time>
      </trkpt>
      <trkpt lat="33.92113" lon="77.35966">
        <ele>3610.6</ele>
        <time>2015-09-02T07:18:10Z</time>
      </trkpt>
      <trkpt lat="33.921" lon="77.35964">
        <ele>3609.8</ele>
        <time>2015-09-02T07:18:23Z</time>
      </trkpt>
      <trkpt lat="33.92099" lon="77.35963">
        <ele>3609.6</ele>
        <time>2015-09-02T07:18:24Z</time>
      </trkpt>
      <trkpt lat="33.92096" lon="77.3596">
        <ele>3609.8</ele>
        <time>2015-09-02T07:18:27Z</time>
      </trkpt>
      <trkpt lat="33.92098" lon="77.35955">
        <ele>3609.8</ele>
        <time>2015-09-02T07:18:35Z</time>
      </trkpt>
      <trkpt lat="33.92091" lon="77.3595">
        <ele>3609.8</ele>
        <time>2015-09-02T07:18:41Z</time>
      </trkpt>
      <trkpt lat="33.92089" lon="77.35948">
        <ele>3610</ele>
        <time>2015-09-02T07:18:43Z</time>
      </trkpt>
      <trkpt lat="33.92085" lon="77.35946">
        <ele>3610</ele>
        <time>2015-09-02T07:18:53Z</time>
      </trkpt>
      <trkpt lat="33.92079" lon="77.3595">
        <ele>3609.6</ele>
        <time>2015-09-02T07:19:00Z</time>
      </trkpt>
      <trkpt lat="33.92061" lon="77.35957">
        <ele>3609.2</ele>
        <time>2015-09-02T07:19:12Z</time>
      </trkpt>
      <trkpt lat="33.92051" lon="77.35966">
        <ele>3609.4</ele>
        <time>2015-09-02T07:19:22Z</time>
      </trkpt>
      <trkpt lat="33.92048" lon="77.35969">
        <ele>3609</ele>
        <time>2015-09-02T07:19:27Z</time>
      </trkpt>
      <trkpt lat="33.92033" lon="77.35975">
        <ele>3608.6</ele>
        <time>2015-09-02T07:19:43Z</time>
      </trkpt>
      <trkpt lat="33.92026" lon="77.35978">
        <ele>3607.6</ele>
        <time>2015-09-02T07:19:49Z</time>
      </trkpt>
      <trkpt lat="33.92024" lon="77.35984">
        <ele>3606.4</ele>
        <time>2015-09-02T07:19:54Z</time>
      </trkpt>
      <trkpt lat="33.92016" lon="77.35989">
        <ele>3605.4</ele>
        <time>2015-09-02T07:19:59Z</time>
      </trkpt>
      <trkpt lat="33.92011" lon="77.35991">
        <ele>3604.2</ele>
        <time>2015-09-02T07:20:04Z</time>
      </trkpt>
      <trkpt lat="33.92005" lon="77.35991">
        <ele>3603.2</ele>
        <time>2015-09-02T07:20:11Z</time>
      </trkpt>
      <trkpt lat="33.92" lon="77.35993">
        <ele>3602</ele>
        <time>2015-09-02T07:20:15Z</time>
      </trkpt>
      <trkpt lat="33.92" lon="77.35993">
        <ele>3601.8</ele>
        <time>2015-09-02T07:20:16Z</time>
      </trkpt>
      <trkpt lat="33.9198" lon="77.3599">
        <ele>3601.6</ele>
        <time>2015-09-02T07:20:30Z</time>
      </trkpt>
      <trkpt lat="33.91968" lon="77.35989">
        <ele>3600.8</ele>
        <time>2015-09-02T07:20:42Z</time>
      </trkpt>
      <trkpt lat="33.91995" lon="77.35993">
        <ele>3600.6</ele>
        <time>2015-09-02T07:20:47Z</time>
      </trkpt>
      <trkpt lat="33.92006" lon="77.35994">
        <ele>3600.8</ele>
        <time>2015-09-02T07:20:50Z</time>
      </trkpt>
      <trkpt lat="33.92015" lon="77.36005">
        <ele>3601.4</ele>
        <time>2015-09-02T07:21:10Z</time>
      </trkpt>
      <trkpt lat="33.92009" lon="77.35997">
        <ele>3601.4</ele>
        <time>2015-09-02T07:21:20Z</time>
      </trkpt>
      <trkpt lat="33.92015" lon="77.35991">
        <ele>3601.4</ele>
        <time>2015-09-02T07:21:24Z</time>
      </trkpt>
      <trkpt lat="33.92008" lon="77.35983">
        <ele>3601.6</ele>
        <time>2015-09-02T07:21:29Z</time>
      </trkpt>
      <trkpt lat="33.91996" lon="77.35992">
        <ele>3601.4</ele>
        <time>2015-09-02T07:21:33Z</time>
      </trkpt>
      <trkpt lat="33.91993" lon="77.35987">
        <ele>3601.4</ele>
        <time>2015-09-02T07:21:37Z</time>
      </trkpt>
      <trkpt lat="33.91989" lon="77.35991">
        <ele>3601.4</ele>
        <time>2015-09-02T07:21:39Z</time>
      </trkpt>
      <trkpt lat="33.91987" lon="77.35993">
        <ele>3601.4</ele>
        <time>2015-09-02T07:21:41Z</time>
      </trkpt>
      <trkpt lat="33.91981" lon="77.35997">
        <ele>3601.2</ele>
        <time>2015-09-02T07:21:50Z</time>
      </trkpt>
      <trkpt lat="33.91978" lon="77.35998">
        <ele>3601.2</ele>
        <time>2015-09-02T07:21:53Z</time>
      </trkpt>
      <trkpt lat="33.91975" lon="77.36">
        <ele>3601.2</ele>
        <time>2015-09-02T07:21:56Z</time>
      </trkpt>
      <trkpt lat="33.91974" lon="77.36006">
        <ele>3602</ele>
        <time>2015-09-02T07:22:03Z</time>
      </trkpt>
      <trkpt lat="33.9197" lon="77.36009">
        <ele>3602.2</ele>
        <time>2015-09-02T07:22:06Z</time>
      </trkpt>
      <trkpt lat="33.9196" lon="77.36018">
        <ele>3602.6</ele>
        <time>2015-09-02T07:22:30Z</time>
      </trkpt>
      <trkpt lat="33.91956" lon="77.36019">
        <ele>3603</ele>
        <time>2015-09-02T07:22:33Z</time>
      </trkpt>
      <trkpt lat="33.91943" lon="77.36033">
        <ele>3603.6</ele>
        <time>2015-09-02T07:22:49Z</time>
      </trkpt>
      <trkpt lat="33.91939" lon="77.36049">
        <ele>3604</ele>
        <time>2015-09-02T07:23:02Z</time>
      </trkpt>
      <trkpt lat="33.91938" lon="77.36052">
        <ele>3604</ele>
        <time>2015-09-02T07:23:05Z</time>
      </trkpt>
      <trkpt lat="33.91929" lon="77.36056">
        <ele>3604.2</ele>
        <time>2015-09-02T07:23:14Z</time>
      </trkpt>
      <trkpt lat="33.91914" lon="77.36065">
        <ele>3604.8</ele>
        <time>2015-09-02T07:23:27Z</time>
      </trkpt>
      <trkpt lat="33.91915" lon="77.36068">
        <ele>3604.8</ele>
        <time>2015-09-02T07:23:29Z</time>
      </trkpt>
      <trkpt lat="33.91913" lon="77.36072">
        <ele>3605</ele>
        <time>2015-09-02T07:23:35Z</time>
      </trkpt>
      <trkpt lat="33.91911" lon="77.36073">
        <ele>3605</ele>
        <time>2015-09-02T07:23:37Z</time>
      </trkpt>
      <trkpt lat="33.91911" lon="77.36074">
        <ele>3605.2</ele>
        <time>2015-09-02T07:23:38Z</time>
      </trkpt>
      <trkpt lat="33.9191" lon="77.36078">
        <ele>3605.2</ele>
        <time>2015-09-02T07:23:42Z</time>
      </trkpt>
      <trkpt lat="33.91907" lon="77.36084">
        <ele>3605.6</ele>
        <time>2015-09-02T07:23:51Z</time>
      </trkpt>
      <trkpt lat="33.91902" lon="77.36088">
        <ele>3605.8</ele>
        <time>2015-09-02T07:23:58Z</time>
      </trkpt>
      <trkpt lat="33.919" lon="77.36093">
        <ele>3605.8</ele>
        <time>2015-09-02T07:24:04Z</time>
      </trkpt>
      <trkpt lat="33.91898" lon="77.36098">
        <ele>3605.6</ele>
        <time>2015-09-02T07:24:07Z</time>
      </trkpt>
      <trkpt lat="33.91892" lon="77.36095">
        <ele>3605.2</ele>
        <time>2015-09-02T07:24:48Z</time>
      </trkpt>
      <trkpt lat="33.91885" lon="77.36094">
        <ele>3605.2</ele>
        <time>2015-09-02T07:24:59Z</time>
      </trkpt>
      <trkpt lat="33.91882" lon="77.36093">
        <ele>3605</ele>
        <time>2015-09-02T07:25:02Z</time>
      </trkpt>
      <trkpt lat="33.9188" lon="77.36093">
        <ele>3605.2</ele>
        <time>2015-09-02T07:25:05Z</time>
      </trkpt>
      <trkpt lat="33.91882" lon="77.36096">
        <ele>3605.6</ele>
        <time>2015-09-02T07:25:56Z</time>
      </trkpt>
      <trkpt lat="33.9188" lon="77.36095">
        <ele>3605.6</ele>
        <time>2015-09-02T07:25:57Z</time>
      </trkpt>
      <trkpt lat="33.91876" lon="77.36093">
        <ele>3605.6</ele>
        <time>2015-09-02T07:25:59Z</time>
      </trkpt>
      <trkpt lat="33.91875" lon="77.36094">
        <ele>3605.8</ele>
        <time>2015-09-02T07:26:01Z</time>
      </trkpt>
      <trkpt lat="33.91883" lon="77.36098">
        <ele>3605.6</ele>
        <time>2015-09-02T07:26:21Z</time>
      </trkpt>
      <trkpt lat="33.91884" lon="77.36093">
        <ele>3605.4</ele>
        <time>2015-09-02T07:26:35Z</time>
      </trkpt>
      <trkpt lat="33.91889" lon="77.36099">
        <ele>3605.2</ele>
        <time>2015-09-02T07:26:47Z</time>
      </trkpt>
      <trkpt lat="33.91884" lon="77.36095">
        <ele>3605.4</ele>
        <time>2015-09-02T07:26:52Z</time>
      </trkpt>
      <trkpt lat="33.9188" lon="77.36094">
        <ele>3605.4</ele>
        <time>2015-09-02T07:26:54Z</time>
      </trkpt>
      <trkpt lat="33.9187" lon="77.36097">
        <ele>3605.4</ele>
        <time>2015-09-02T07:26:58Z</time>
      </trkpt>
      <trkpt lat="33.91873" lon="77.36103">
        <ele>3605.6</ele>
        <time>2015-09-02T07:27:02Z</time>
      </trkpt>
      <trkpt lat="33.91876" lon="77.36103">
        <ele>3605.6</ele>
        <time>2015-09-02T07:27:03Z</time>
      </trkpt>
      <trkpt lat="33.91887" lon="77.36102">
        <ele>3605.8</ele>
        <time>2015-09-02T07:27:08Z</time>
      </trkpt>
      <trkpt lat="33.91878" lon="77.36097">
        <ele>3605.4</ele>
        <time>2015-09-02T07:27:15Z</time>
      </trkpt>
      <trkpt lat="33.9188" lon="77.36098">
        <ele>3605.2</ele>
        <time>2015-09-02T07:27:19Z</time>
      </trkpt>
      <trkpt lat="33.9188" lon="77.36098">
        <ele>3605.4</ele>
        <time>2015-09-02T07:27:22Z</time>
      </trkpt>
      <trkpt lat="33.91882" lon="77.36094">
        <ele>3605.8</ele>
        <time>2015-09-02T07:27:34Z</time>
      </trkpt>
      <trkpt lat="33.91883" lon="77.36095">
        <ele>3605.8</ele>
        <time>2015-09-02T07:27:37Z</time>
      </trkpt>
      <trkpt lat="33.91887" lon="77.36095">
        <ele>3605.4</ele>
        <time>2015-09-02T07:27:43Z</time>
      </trkpt>
      <trkpt lat="33.91891" lon="77.361">
        <ele>3605.4</ele>
        <time>2015-09-02T07:27:45Z</time>
      </trkpt>
      <trkpt lat="33.91891" lon="77.36104">
        <ele>3605.6</ele>
        <time>2015-09-02T07:27:48Z</time>
      </trkpt>
      <trkpt lat="33.91888" lon="77.36104">
        <ele>3605.6</ele>
        <time>2015-09-02T07:28:12Z</time>
      </trkpt>
      <trkpt lat="33.91891" lon="77.36104">
        <ele>3605.6</ele>
        <time>2015-09-02T07:28:15Z</time>
      </trkpt>
      <trkpt lat="33.91894" lon="77.36101">
        <ele>3605.6</ele>
        <time>2015-09-02T07:28:28Z</time>
      </trkpt>
      <trkpt lat="33.91865" lon="77.36091">
        <ele>3605.8</ele>
        <time>2015-09-02T07:28:32Z</time>
      </trkpt>
      <trkpt lat="33.91857" lon="77.36092">
        <ele>3606.2</ele>
        <time>2015-09-02T07:28:42Z</time>
      </trkpt>
      <trkpt lat="33.91857" lon="77.36095">
        <ele>3606.2</ele>
        <time>2015-09-02T07:28:46Z</time>
      </trkpt>
      <trkpt lat="33.91864" lon="77.36098">
        <ele>3606</ele>
        <time>2015-09-02T07:28:50Z</time>
      </trkpt>
      <trkpt lat="33.91865" lon="77.36096">
        <ele>3606</ele>
        <time>2015-09-02T07:28:53Z</time>
      </trkpt>
      <trkpt lat="33.91874" lon="77.36098">
        <ele>3605.8</ele>
        <time>2015-09-02T07:29:05Z</time>
      </trkpt>
      <trkpt lat="33.9186" lon="77.36091">
        <ele>3606.4</ele>
        <time>2015-09-02T07:29:23Z</time>
      </trkpt>
      <trkpt lat="33.91851" lon="77.36094">
        <ele>3606.4</ele>
        <time>2015-09-02T07:29:28Z</time>
      </trkpt>
      <trkpt lat="33.91852" lon="77.36093">
        <ele>3606.2</ele>
        <time>2015-09-02T07:29:32Z</time>
      </trkpt>
      <trkpt lat="33.91856" lon="77.36092">
        <ele>3606</ele>
        <time>2015-09-02T07:29:36Z</time>
      </trkpt>
      <trkpt lat="33.91874" lon="77.36094">
        <ele>3606.4</ele>
        <time>2015-09-02T07:29:51Z</time>
      </trkpt>
      <trkpt lat="33.91876" lon="77.36093">
        <ele>3606.4</ele>
        <time>2015-09-02T07:29:54Z</time>
      </trkpt>
      <trkpt lat="33.91875" lon="77.36099">
        <ele>3606.2</ele>
        <time>2015-09-02T07:29:58Z</time>
      </trkpt>
      <trkpt lat="33.91877" lon="77.361">
        <ele>3606.2</ele>
        <time>2015-09-02T07:30:00Z</time>
      </trkpt>
      <trkpt lat="33.91878" lon="77.361">
        <ele>3606.2</ele>
        <time>2015-09-02T07:30:03Z</time>
      </trkpt>
      <trkpt lat="33.91882" lon="77.36102">
        <ele>3606.2</ele>
        <time>2015-09-02T07:30:08Z</time>
      </trkpt>
      <trkpt lat="33.91888" lon="77.36101">
        <ele>3606.4</ele>
        <time>2015-09-02T07:30:14Z</time>
      </trkpt>
      <trkpt lat="33.91889" lon="77.36101">
        <ele>3606.4</ele>
        <time>2015-09-02T07:30:16Z</time>
      </trkpt>
      <trkpt lat="33.91879" lon="77.36104">
        <ele>3606</ele>
        <time>2015-09-02T07:30:31Z</time>
      </trkpt>
      <trkpt lat="33.91876" lon="77.36106">
        <ele>3606.2</ele>
        <time>2015-09-02T07:30:34Z</time>
      </trkpt>
      <trkpt lat="33.91881" lon="77.36111">
        <ele>3606.6</ele>
        <time>2015-09-02T07:30:46Z</time>
      </trkpt>
      <trkpt lat="33.91877" lon="77.36112">
        <ele>3606.6</ele>
        <time>2015-09-02T07:31:40Z</time>
      </trkpt>
      <trkpt lat="33.91871" lon="77.36108">
        <ele>3606.6</ele>
        <time>2015-09-02T07:31:45Z</time>
      </trkpt>
      <trkpt lat="33.91873" lon="77.36115">
        <ele>3606.6</ele>
        <time>2015-09-02T07:31:49Z</time>
      </trkpt>
      <trkpt lat="33.91881" lon="77.36125">
        <ele>3606.8</ele>
        <time>2015-09-02T07:32:05Z</time>
      </trkpt>
      <trkpt lat="33.91882" lon="77.36126">
        <ele>3607</ele>
        <time>2015-09-02T07:32:07Z</time>
      </trkpt>
      <trkpt lat="33.91882" lon="77.36126">
        <ele>3607.2</ele>
        <time>2015-09-02T07:32:12Z</time>
      </trkpt>
      <trkpt lat="33.91875" lon="77.36129">
        <ele>3607.8</ele>
        <time>2015-09-02T07:32:33Z</time>
      </trkpt>
      <trkpt lat="33.91886" lon="77.36133">
        <ele>3608.2</ele>
        <time>2015-09-02T07:33:13Z</time>
      </trkpt>
      <trkpt lat="33.91889" lon="77.36125">
        <ele>3608.4</ele>
        <time>2015-09-02T07:33:20Z</time>
      </trkpt>
      <trkpt lat="33.91889" lon="77.36123">
        <ele>3608.6</ele>
        <time>2015-09-02T07:33:22Z</time>
      </trkpt>
      <trkpt lat="33.91893" lon="77.36119">
        <ele>3608.8</ele>
        <time>2015-09-02T07:33:25Z</time>
      </trkpt>
      <trkpt lat="33.91892" lon="77.36121">
        <ele>3608.8</ele>
        <time>2015-09-02T07:34:15Z</time>
      </trkpt>
      <trkpt lat="33.91891" lon="77.36124">
        <ele>3608.8</ele>
        <time>2015-09-02T07:34:17Z</time>
      </trkpt>
      <trkpt lat="33.9189" lon="77.36127">
        <ele>3609</ele>
        <time>2015-09-02T07:34:20Z</time>
      </trkpt>
      <trkpt lat="33.91891" lon="77.36116">
        <ele>3609.2</ele>
        <time>2015-09-02T07:34:32Z</time>
      </trkpt>
      <trkpt lat="33.91894" lon="77.36116">
        <ele>3609.2</ele>
        <time>2015-09-02T07:34:34Z</time>
      </trkpt>
      <trkpt lat="33.91896" lon="77.36115">
        <ele>3609.4</ele>
        <time>2015-09-02T07:34:37Z</time>
      </trkpt>
      <trkpt lat="33.91891" lon="77.36111">
        <ele>3609.8</ele>
        <time>2015-09-02T07:35:22Z</time>
      </trkpt>
      <trkpt lat="33.91892" lon="77.36106">
        <ele>3609.6</ele>
        <time>2015-09-02T07:36:01Z</time>
      </trkpt>
      <trkpt lat="33.91891" lon="77.36105">
        <ele>3609.8</ele>
        <time>2015-09-02T07:36:15Z</time>
      </trkpt>
      <trkpt lat="33.91893" lon="77.36113">
        <ele>3609.8</ele>
        <time>2015-09-02T07:36:23Z</time>
      </trkpt>
      <trkpt lat="33.91894" lon="77.36113">
        <ele>3610.2</ele>
        <time>2015-09-02T07:36:31Z</time>
      </trkpt>
      <trkpt lat="33.91896" lon="77.36106">
        <ele>3609.8</ele>
        <time>2015-09-02T07:36:38Z</time>
      </trkpt>
      <trkpt lat="33.91894" lon="77.361">
        <ele>3610.2</ele>
        <time>2015-09-02T07:36:44Z</time>
      </trkpt>
      <trkpt lat="33.91891" lon="77.36105">
        <ele>3610.4</ele>
        <time>2015-09-02T07:36:49Z</time>
      </trkpt>
      <trkpt lat="33.91892" lon="77.36113">
        <ele>3610</ele>
        <time>2015-09-02T07:36:53Z</time>
      </trkpt>
      <trkpt lat="33.91902" lon="77.36119">
        <ele>3611.4</ele>
        <time>2015-09-02T07:37:29Z</time>
      </trkpt>
      <trkpt lat="33.91897" lon="77.36125">
        <ele>3612.4</ele>
        <time>2015-09-02T07:37:41Z</time>
      </trkpt>
      <trkpt lat="33.91894" lon="77.36125">
        <ele>3612.8</ele>
        <time>2015-09-02T07:37:44Z</time>
      </trkpt>
      <trkpt lat="33.91895" lon="77.36123">
        <ele>3611.8</ele>
        <time>2015-09-02T07:38:05Z</time>
      </trkpt>
      <trkpt lat="33.91881" lon="77.36131">
        <ele>3613.6</ele>
        <time>2015-09-02T07:38:27Z</time>
      </trkpt>
      <trkpt lat="33.91877" lon="77.36132">
        <ele>3613.6</ele>
        <time>2015-09-02T07:38:31Z</time>
      </trkpt>
      <trkpt lat="33.91869" lon="77.36143">
        <ele>3613.4</ele>
        <time>2015-09-02T07:38:48Z</time>
      </trkpt>
      <trkpt lat="33.91867" lon="77.36155">
        <ele>3614.4</ele>
        <time>2015-09-02T07:38:59Z</time>
      </trkpt>
      <trkpt lat="33.91866" lon="77.36158">
        <ele>3614.4</ele>
        <time>2015-09-02T07:39:02Z</time>
      </trkpt>
      <trkpt lat="33.91866" lon="77.36158">
        <ele>3614.6</ele>
        <time>2015-09-02T07:39:03Z</time>
      </trkpt>
      <trkpt lat="33.91868" lon="77.36162">
        <ele>3615</ele>
        <time>2015-09-02T07:39:07Z</time>
      </trkpt>
      <trkpt lat="33.91868" lon="77.36165">
        <ele>3615.2</ele>
        <time>2015-09-02T07:39:09Z</time>
      </trkpt>
      <trkpt lat="33.91868" lon="77.36168">
        <ele>3615.2</ele>
        <time>2015-09-02T07:39:11Z</time>
      </trkpt>
      <trkpt lat="33.91867" lon="77.3617">
        <ele>3615.6</ele>
        <time>2015-09-02T07:39:14Z</time>
      </trkpt>
      <trkpt lat="33.91868" lon="77.36182">
        <ele>3616.8</ele>
        <time>2015-09-02T07:39:28Z</time>
      </trkpt>
      <trkpt lat="33.91871" lon="77.3619">
        <ele>3617.6</ele>
        <time>2015-09-02T07:39:37Z</time>
      </trkpt>
      <trkpt lat="33.91871" lon="77.36195">
        <ele>3617.8</ele>
        <time>2015-09-02T07:39:42Z</time>
      </trkpt>
      <trkpt lat="33.91872" lon="77.36196">
        <ele>3617.8</ele>
        <time>2015-09-02T07:39:44Z</time>
      </trkpt>
      <trkpt lat="33.91869" lon="77.36199">
        <ele>3618.2</ele>
        <time>2015-09-02T07:39:52Z</time>
      </trkpt>
      <trkpt lat="33.91868" lon="77.36203">
        <ele>3619</ele>
        <time>2015-09-02T07:40:03Z</time>
      </trkpt>
      <trkpt lat="33.9187" lon="77.36206">
        <ele>3620</ele>
        <time>2015-09-02T07:40:09Z</time>
      </trkpt>
      <trkpt lat="33.91869" lon="77.36211">
        <ele>3620.2</ele>
        <time>2015-09-02T07:40:14Z</time>
      </trkpt>
      <trkpt lat="33.91868" lon="77.36222">
        <ele>3620.8</ele>
        <time>2015-09-02T07:40:24Z</time>
      </trkpt>
      <trkpt lat="33.91864" lon="77.36231">
        <ele>3621</ele>
        <time>2015-09-02T07:40:32Z</time>
      </trkpt>
      <trkpt lat="33.91867" lon="77.36233">
        <ele>3622</ele>
        <time>2015-09-02T07:40:43Z</time>
      </trkpt>
      <trkpt lat="33.91871" lon="77.36242">
        <ele>3622.8</ele>
        <time>2015-09-02T07:40:52Z</time>
      </trkpt>
      <trkpt lat="33.91872" lon="77.36243">
        <ele>3623</ele>
        <time>2015-09-02T07:40:54Z</time>
      </trkpt>
      <trkpt lat="33.91872" lon="77.36245">
        <ele>3623</ele>
        <time>2015-09-02T07:40:55Z</time>
      </trkpt>
      <trkpt lat="33.91872" lon="77.36255">
        <ele>3624.2</ele>
        <time>2015-09-02T07:41:06Z</time>
      </trkpt>
      <trkpt lat="33.91871" lon="77.3626">
        <ele>3624.8</ele>
        <time>2015-09-02T07:41:11Z</time>
      </trkpt>
      <trkpt lat="33.9187" lon="77.36261">
        <ele>3625</ele>
        <time>2015-09-02T07:41:13Z</time>
      </trkpt>
      <trkpt lat="33.91869" lon="77.36264">
        <ele>3625.2</ele>
        <time>2015-09-02T07:41:16Z</time>
      </trkpt>
      <trkpt lat="33.91869" lon="77.36266">
        <ele>3625.4</ele>
        <time>2015-09-02T07:41:19Z</time>
      </trkpt>
      <trkpt lat="33.91871" lon="77.36269">
        <ele>3625.6</ele>
        <time>2015-09-02T07:41:22Z</time>
      </trkpt>
      <trkpt lat="33.91871" lon="77.36275">
        <ele>3626.2</ele>
        <time>2015-09-02T07:41:29Z</time>
      </trkpt>
      <trkpt lat="33.91875" lon="77.36281">
        <ele>3627.2</ele>
        <time>2015-09-02T07:41:39Z</time>
      </trkpt>
      <trkpt lat="33.91879" lon="77.36285">
        <ele>3627.2</ele>
        <time>2015-09-02T07:41:43Z</time>
      </trkpt>
      <trkpt lat="33.91888" lon="77.36285">
        <ele>3627.6</ele>
        <time>2015-09-02T07:41:56Z</time>
      </trkpt>
      <trkpt lat="33.91889" lon="77.36289">
        <ele>3627.6</ele>
        <time>2015-09-02T07:41:58Z</time>
      </trkpt>
      <trkpt lat="33.91888" lon="77.36293">
        <ele>3627.6</ele>
        <time>2015-09-02T07:42:02Z</time>
      </trkpt>
      <trkpt lat="33.91887" lon="77.363">
        <ele>3627.4</ele>
        <time>2015-09-02T07:42:07Z</time>
      </trkpt>
      <trkpt lat="33.91882" lon="77.36309">
        <ele>3628.4</ele>
        <time>2015-09-02T07:42:18Z</time>
      </trkpt>
      <trkpt lat="33.91879" lon="77.36332">
        <ele>3628.4</ele>
        <time>2015-09-02T07:42:36Z</time>
      </trkpt>
      <trkpt lat="33.91879" lon="77.36344">
        <ele>3627.2</ele>
        <time>2015-09-02T07:42:47Z</time>
      </trkpt>
      <trkpt lat="33.91885" lon="77.3636">
        <ele>3626.2</ele>
        <time>2015-09-02T07:42:59Z</time>
      </trkpt>
      <trkpt lat="33.91888" lon="77.36369">
        <ele>3626.4</ele>
        <time>2015-09-02T07:43:07Z</time>
      </trkpt>
      <trkpt lat="33.91887" lon="77.36376">
        <ele>3626.2</ele>
        <time>2015-09-02T07:43:13Z</time>
      </trkpt>
      <trkpt lat="33.91885" lon="77.36384">
        <ele>3626.2</ele>
        <time>2015-09-02T07:43:18Z</time>
      </trkpt>
      <trkpt lat="33.91876" lon="77.36403">
        <ele>3625.2</ele>
        <time>2015-09-02T07:43:34Z</time>
      </trkpt>
      <trkpt lat="33.91872" lon="77.36412">
        <ele>3625.2</ele>
        <time>2015-09-02T07:43:38Z</time>
      </trkpt>
      <trkpt lat="33.91868" lon="77.36424">
        <ele>3625</ele>
        <time>2015-09-02T07:43:48Z</time>
      </trkpt>
      <trkpt lat="33.91866" lon="77.36427">
        <ele>3625.4</ele>
        <time>2015-09-02T07:43:51Z</time>
      </trkpt>
      <trkpt lat="33.91863" lon="77.3643">
        <ele>3625.8</ele>
        <time>2015-09-02T07:43:55Z</time>
      </trkpt>
      <trkpt lat="33.91862" lon="77.36431">
        <ele>3626.2</ele>
        <time>2015-09-02T07:44:01Z</time>
      </trkpt>
      <trkpt lat="33.91858" lon="77.3644">
        <ele>3626.8</ele>
        <time>2015-09-02T07:44:11Z</time>
      </trkpt>
      <trkpt lat="33.9186" lon="77.36441">
        <ele>3627.2</ele>
        <time>2015-09-02T07:44:15Z</time>
      </trkpt>
      <trkpt lat="33.91859" lon="77.36449">
        <ele>3627.8</ele>
        <time>2015-09-02T07:44:22Z</time>
      </trkpt>
      <trkpt lat="33.91857" lon="77.36444">
        <ele>3628.2</ele>
        <time>2015-09-02T07:44:30Z</time>
      </trkpt>
      <trkpt lat="33.91855" lon="77.36451">
        <ele>3629.2</ele>
        <time>2015-09-02T07:44:35Z</time>
      </trkpt>
      <trkpt lat="33.91855" lon="77.36453">
        <ele>3629.2</ele>
        <time>2015-09-02T07:44:36Z</time>
      </trkpt>
      <trkpt lat="33.91855" lon="77.36454">
        <ele>3629.4</ele>
        <time>2015-09-02T07:44:37Z</time>
      </trkpt>
      <trkpt lat="33.91853" lon="77.36458">
        <ele>3629.2</ele>
        <time>2015-09-02T07:44:41Z</time>
      </trkpt>
      <trkpt lat="33.91848" lon="77.36465">
        <ele>3628.6</ele>
        <time>2015-09-02T07:44:47Z</time>
      </trkpt>
      <trkpt lat="33.91848" lon="77.36469">
        <ele>3628.6</ele>
        <time>2015-09-02T07:44:49Z</time>
      </trkpt>
      <trkpt lat="33.91852" lon="77.36478">
        <ele>3628.8</ele>
        <time>2015-09-02T07:44:57Z</time>
      </trkpt>
      <trkpt lat="33.91853" lon="77.3648">
        <ele>3629</ele>
        <time>2015-09-02T07:44:59Z</time>
      </trkpt>
      <trkpt lat="33.91858" lon="77.36487">
        <ele>3629.6</ele>
        <time>2015-09-02T07:45:12Z</time>
      </trkpt>
      <trkpt lat="33.91859" lon="77.36488">
        <ele>3629.4</ele>
        <time>2015-09-02T07:45:14Z</time>
      </trkpt>
      <trkpt lat="33.91857" lon="77.36506">
        <ele>3628.6</ele>
        <time>2015-09-02T07:45:29Z</time>
      </trkpt>
      <trkpt lat="33.91859" lon="77.36509">
        <ele>3628.8</ele>
        <time>2015-09-02T07:45:31Z</time>
      </trkpt>
      <trkpt lat="33.9186" lon="77.36512">
        <ele>3629</ele>
        <time>2015-09-02T07:45:33Z</time>
      </trkpt>
      <trkpt lat="33.9186" lon="77.36521">
        <ele>3628.6</ele>
        <time>2015-09-02T07:45:43Z</time>
      </trkpt>
      <trkpt lat="33.91859" lon="77.36522">
        <ele>3628.2</ele>
        <time>2015-09-02T07:45:45Z</time>
      </trkpt>
      <trkpt lat="33.91859" lon="77.36528">
        <ele>3628.6</ele>
        <time>2015-09-02T07:45:51Z</time>
      </trkpt>
      <trkpt lat="33.91855" lon="77.36537">
        <ele>3629.2</ele>
        <time>2015-09-02T07:45:57Z</time>
      </trkpt>
      <trkpt lat="33.91852" lon="77.36538">
        <ele>3629.4</ele>
        <time>2015-09-02T07:46:00Z</time>
      </trkpt>
      <trkpt lat="33.9185" lon="77.36539">
        <ele>3629.4</ele>
        <time>2015-09-02T07:46:02Z</time>
      </trkpt>
      <trkpt lat="33.91849" lon="77.3654">
        <ele>3629.6</ele>
        <time>2015-09-02T07:46:04Z</time>
      </trkpt>
      <trkpt lat="33.91843" lon="77.36549">
        <ele>3629.4</ele>
        <time>2015-09-02T07:46:10Z</time>
      </trkpt>
      <trkpt lat="33.91841" lon="77.36549">
        <ele>3629.4</ele>
        <time>2015-09-02T07:46:13Z</time>
      </trkpt>
      <trkpt lat="33.91833" lon="77.36564">
        <ele>3629.6</ele>
        <time>2015-09-02T07:46:35Z</time>
      </trkpt>
      <trkpt lat="33.91825" lon="77.36571">
        <ele>3629.8</ele>
        <time>2015-09-02T07:46:48Z</time>
      </trkpt>
      <trkpt lat="33.91821" lon="77.36571">
        <ele>3630</ele>
        <time>2015-09-02T07:46:52Z</time>
      </trkpt>
      <trkpt lat="33.91815" lon="77.36575">
        <ele>3630.2</ele>
        <time>2015-09-02T07:46:57Z</time>
      </trkpt>
      <trkpt lat="33.91815" lon="77.36578">
        <ele>3630.4</ele>
        <time>2015-09-02T07:46:58Z</time>
      </trkpt>
      <trkpt lat="33.91813" lon="77.36589">
        <ele>3630.6</ele>
        <time>2015-09-02T07:47:05Z</time>
      </trkpt>
      <trkpt lat="33.91806" lon="77.36608">
        <ele>3630.6</ele>
        <time>2015-09-02T07:47:17Z</time>
      </trkpt>
      <trkpt lat="33.91804" lon="77.3661">
        <ele>3630.8</ele>
        <time>2015-09-02T07:47:20Z</time>
      </trkpt>
      <trkpt lat="33.91799" lon="77.36604">
        <ele>3631.4</ele>
        <time>2015-09-02T07:47:25Z</time>
      </trkpt>
      <trkpt lat="33.91795" lon="77.36599">
        <ele>3631.8</ele>
        <time>2015-09-02T07:47:29Z</time>
      </trkpt>
      <trkpt lat="33.91794" lon="77.36599">
        <ele>3631.8</ele>
        <time>2015-09-02T07:47:32Z</time>
      </trkpt>
      <trkpt lat="33.91796" lon="77.36608">
        <ele>3632.2</ele>
        <time>2015-09-02T07:47:35Z</time>
      </trkpt>
      <trkpt lat="33.91797" lon="77.36611">
        <ele>3632.4</ele>
        <time>2015-09-02T07:47:36Z</time>
      </trkpt>
      <trkpt lat="33.91799" lon="77.36617">
        <ele>3632.8</ele>
        <time>2015-09-02T07:47:40Z</time>
      </trkpt>
      <trkpt lat="33.918" lon="77.36626">
        <ele>3633.4</ele>
        <time>2015-09-02T07:47:43Z</time>
      </trkpt>
      <trkpt lat="33.91801" lon="77.36635">
        <ele>3634.2</ele>
        <time>2015-09-02T07:47:48Z</time>
      </trkpt>
      <trkpt lat="33.91801" lon="77.36637">
        <ele>3634.4</ele>
        <time>2015-09-02T07:47:50Z</time>
      </trkpt>
      <trkpt lat="33.91799" lon="77.36639">
        <ele>3634.8</ele>
        <time>2015-09-02T07:47:52Z</time>
      </trkpt>
      <trkpt lat="33.91796" lon="77.36641">
        <ele>3635.6</ele>
        <time>2015-09-02T07:47:57Z</time>
      </trkpt>
      <trkpt lat="33.91793" lon="77.36643">
        <ele>3636</ele>
        <time>2015-09-02T07:48:00Z</time>
      </trkpt>
      <trkpt lat="33.91789" lon="77.36645">
        <ele>3636.6</ele>
        <time>2015-09-02T07:48:05Z</time>
      </trkpt>
      <trkpt lat="33.91786" lon="77.36646">
        <ele>3637</ele>
        <time>2015-09-02T07:48:08Z</time>
      </trkpt>
      <trkpt lat="33.91785" lon="77.36647">
        <ele>3637.4</ele>
        <time>2015-09-02T07:48:10Z</time>
      </trkpt>
      <trkpt lat="33.91784" lon="77.36649">
        <ele>3637.6</ele>
        <time>2015-09-02T07:48:13Z</time>
      </trkpt>
      <trkpt lat="33.91777" lon="77.36658">
        <ele>3638.6</ele>
        <time>2015-09-02T07:48:29Z</time>
      </trkpt>
      <trkpt lat="33.91774" lon="77.36673">
        <ele>3639.8</ele>
        <time>2015-09-02T07:48:44Z</time>
      </trkpt>
      <trkpt lat="33.91773" lon="77.36679">
        <ele>3640.8</ele>
        <time>2015-09-02T07:48:52Z</time>
      </trkpt>
      <trkpt lat="33.91773" lon="77.36692">
        <ele>3642</ele>
        <time>2015-09-02T07:49:05Z</time>
      </trkpt>
      <trkpt lat="33.91771" lon="77.36697">
        <ele>3642.6</ele>
        <time>2015-09-02T07:49:10Z</time>
      </trkpt>
      <trkpt lat="33.9177" lon="77.36699">
        <ele>3642.8</ele>
        <time>2015-09-02T07:49:12Z</time>
      </trkpt>
      <trkpt lat="33.91766" lon="77.36711">
        <ele>3643</ele>
        <time>2015-09-02T07:49:27Z</time>
      </trkpt>
      <trkpt lat="33.91765" lon="77.36717">
        <ele>3643</ele>
        <time>2015-09-02T07:49:32Z</time>
      </trkpt>
      <trkpt lat="33.91765" lon="77.36721">
        <ele>3643</ele>
        <time>2015-09-02T07:49:36Z</time>
      </trkpt>
      <trkpt lat="33.91762" lon="77.36733">
        <ele>3643.6</ele>
        <time>2015-09-02T07:49:48Z</time>
      </trkpt>
      <trkpt lat="33.9176" lon="77.36738">
        <ele>3644</ele>
        <time>2015-09-02T07:49:52Z</time>
      </trkpt>
      <trkpt lat="33.91756" lon="77.36747">
        <ele>3644.2</ele>
        <time>2015-09-02T07:50:05Z</time>
      </trkpt>
      <trkpt lat="33.91752" lon="77.36751">
        <ele>3645.2</ele>
        <time>2015-09-02T07:50:24Z</time>
      </trkpt>
      <trkpt lat="33.91756" lon="77.36756">
        <ele>3645.2</ele>
        <time>2015-09-02T07:50:27Z</time>
      </trkpt>
      <trkpt lat="33.91751" lon="77.36753">
        <ele>3645.2</ele>
        <time>2015-09-02T07:51:04Z</time>
      </trkpt>
      <trkpt lat="33.91748" lon="77.36749">
        <ele>3645</ele>
        <time>2015-09-02T07:51:08Z</time>
      </trkpt>
      <trkpt lat="33.91748" lon="77.36747">
        <ele>3645.2</ele>
        <time>2015-09-02T07:51:10Z</time>
      </trkpt>
      <trkpt lat="33.91753" lon="77.36754">
        <ele>3645.4</ele>
        <time>2015-09-02T07:51:25Z</time>
      </trkpt>
      <trkpt lat="33.91748" lon="77.3675">
        <ele>3645.8</ele>
        <time>2015-09-02T07:51:38Z</time>
      </trkpt>
      <trkpt lat="33.9175" lon="77.36753">
        <ele>3645.2</ele>
        <time>2015-09-02T07:51:41Z</time>
      </trkpt>
      <trkpt lat="33.91751" lon="77.36754">
        <ele>3645</ele>
        <time>2015-09-02T07:51:43Z</time>
      </trkpt>
      <trkpt lat="33.91747" lon="77.36762">
        <ele>3645.8</ele>
        <time>2015-09-02T07:51:56Z</time>
      </trkpt>
      <trkpt lat="33.91747" lon="77.36763">
        <ele>3646.2</ele>
        <time>2015-09-02T07:51:57Z</time>
      </trkpt>
      <trkpt lat="33.91745" lon="77.36769">
        <ele>3646.6</ele>
        <time>2015-09-02T07:52:03Z</time>
      </trkpt>
      <trkpt lat="33.91745" lon="77.36773">
        <ele>3646.8</ele>
        <time>2015-09-02T07:52:06Z</time>
      </trkpt>
      <trkpt lat="33.91745" lon="77.36778">
        <ele>3646.6</ele>
        <time>2015-09-02T07:52:09Z</time>
      </trkpt>
      <trkpt lat="33.9174" lon="77.36786">
        <ele>3646.4</ele>
        <time>2015-09-02T07:52:19Z</time>
      </trkpt>
      <trkpt lat="33.91736" lon="77.3679">
        <ele>3646.6</ele>
        <time>2015-09-02T07:52:25Z</time>
      </trkpt>
      <trkpt lat="33.91727" lon="77.36809">
        <ele>3646.4</ele>
        <time>2015-09-02T07:52:41Z</time>
      </trkpt>
      <trkpt lat="33.91726" lon="77.3681">
        <ele>3646.6</ele>
        <time>2015-09-02T07:52:43Z</time>
      </trkpt>
      <trkpt lat="33.91724" lon="77.36812">
        <ele>3646.8</ele>
        <time>2015-09-02T07:52:46Z</time>
      </trkpt>
      <trkpt lat="33.91718" lon="77.3682">
        <ele>3647.2</ele>
        <time>2015-09-02T07:52:55Z</time>
      </trkpt>
      <trkpt lat="33.91715" lon="77.36826">
        <ele>3647.6</ele>
        <time>2015-09-02T07:53:01Z</time>
      </trkpt>
      <trkpt lat="33.91713" lon="77.36831">
        <ele>3648.4</ele>
        <time>2015-09-02T07:53:05Z</time>
      </trkpt>
      <trkpt lat="33.91714" lon="77.36833">
        <ele>3648.6</ele>
        <time>2015-09-02T07:53:07Z</time>
      </trkpt>
      <trkpt lat="33.91716" lon="77.36835">
        <ele>3649</ele>
        <time>2015-09-02T07:53:09Z</time>
      </trkpt>
      <trkpt lat="33.91717" lon="77.36838">
        <ele>3649.4</ele>
        <time>2015-09-02T07:53:12Z</time>
      </trkpt>
      <trkpt lat="33.91716" lon="77.36842">
        <ele>3649.8</ele>
        <time>2015-09-02T07:53:17Z</time>
      </trkpt>
      <trkpt lat="33.91715" lon="77.36846">
        <ele>3649.8</ele>
        <time>2015-09-02T07:53:20Z</time>
      </trkpt>
      <trkpt lat="33.91713" lon="77.36843">
        <ele>3650.4</ele>
        <time>2015-09-02T07:53:35Z</time>
      </trkpt>
      <trkpt lat="33.91713" lon="77.36845">
        <ele>3650.4</ele>
        <time>2015-09-02T07:53:36Z</time>
      </trkpt>
      <trkpt lat="33.91709" lon="77.36847">
        <ele>3650.4</ele>
        <time>2015-09-02T07:53:42Z</time>
      </trkpt>
      <trkpt lat="33.91704" lon="77.36849">
        <ele>3650.8</ele>
        <time>2015-09-02T07:53:46Z</time>
      </trkpt>
      <trkpt lat="33.91698" lon="77.36858">
        <ele>3650.8</ele>
        <time>2015-09-02T07:53:53Z</time>
      </trkpt>
      <trkpt lat="33.91688" lon="77.36873">
        <ele>3650</ele>
        <time>2015-09-02T07:54:07Z</time>
      </trkpt>
      <trkpt lat="33.91682" lon="77.36879">
        <ele>3649.4</ele>
        <time>2015-09-02T07:54:15Z</time>
      </trkpt>
      <trkpt lat="33.91678" lon="77.36883">
        <ele>3648.8</ele>
        <time>2015-09-02T07:54:21Z</time>
      </trkpt>
      <trkpt lat="33.91674" lon="77.36889">
        <ele>3648.6</ele>
        <time>2015-09-02T07:54:28Z</time>
      </trkpt>
      <trkpt lat="33.91674" lon="77.36893">
        <ele>3648.6</ele>
        <time>2015-09-02T07:54:30Z</time>
      </trkpt>
      <trkpt lat="33.91669" lon="77.36917">
        <ele>3648.2</ele>
        <time>2015-09-02T07:54:45Z</time>
      </trkpt>
      <trkpt lat="33.9166" lon="77.36937">
        <ele>3647.8</ele>
        <time>2015-09-02T07:55:01Z</time>
      </trkpt>
      <trkpt lat="33.91657" lon="77.36942">
        <ele>3648.8</ele>
        <time>2015-09-02T07:55:08Z</time>
      </trkpt>
      <trkpt lat="33.91642" lon="77.36955">
        <ele>3649.2</ele>
        <time>2015-09-02T07:55:21Z</time>
      </trkpt>
      <trkpt lat="33.91639" lon="77.36961">
        <ele>3649.2</ele>
        <time>2015-09-02T07:55:24Z</time>
      </trkpt>
      <trkpt lat="33.91632" lon="77.36965">
        <ele>3649</ele>
        <time>2015-09-02T07:55:33Z</time>
      </trkpt>
      <trkpt lat="33.91628" lon="77.36967">
        <ele>3649.2</ele>
        <time>2015-09-02T07:55:38Z</time>
      </trkpt>
      <trkpt lat="33.91627" lon="77.36968">
        <ele>3649.4</ele>
        <time>2015-09-02T07:55:39Z</time>
      </trkpt>
      <trkpt lat="33.91628" lon="77.36978">
        <ele>3650.6</ele>
        <time>2015-09-02T07:55:44Z</time>
      </trkpt>
      <trkpt lat="33.91618" lon="77.3698">
        <ele>3651.4</ele>
        <time>2015-09-02T07:55:55Z</time>
      </trkpt>
      <trkpt lat="33.91617" lon="77.36976">
        <ele>3651.4</ele>
        <time>2015-09-02T07:55:56Z</time>
      </trkpt>
      <trkpt lat="33.91616" lon="77.36974">
        <ele>3651.6</ele>
        <time>2015-09-02T07:55:57Z</time>
      </trkpt>
      <trkpt lat="33.91616" lon="77.36968">
        <ele>3651.6</ele>
        <time>2015-09-02T07:56:01Z</time>
      </trkpt>
      <trkpt lat="33.91616" lon="77.36962">
        <ele>3651.4</ele>
        <time>2015-09-02T07:56:15Z</time>
      </trkpt>
      <trkpt lat="33.91616" lon="77.36963">
        <ele>3651.4</ele>
        <time>2015-09-02T07:56:17Z</time>
      </trkpt>
      <trkpt lat="33.91629" lon="77.36982">
        <ele>3651.8</ele>
        <time>2015-09-02T07:56:32Z</time>
      </trkpt>
      <trkpt lat="33.91618" lon="77.36963">
        <ele>3652.6</ele>
        <time>2015-09-02T07:57:10Z</time>
      </trkpt>
      <trkpt lat="33.91619" lon="77.36977">
        <ele>3651.8</ele>
        <time>2015-09-02T07:57:44Z</time>
      </trkpt>
      <trkpt lat="33.91619" lon="77.3698">
        <ele>3651.6</ele>
        <time>2015-09-02T07:57:50Z</time>
      </trkpt>
      <trkpt lat="33.91618" lon="77.36986">
        <ele>3651.4</ele>
        <time>2015-09-02T07:57:56Z</time>
      </trkpt>
      <trkpt lat="33.91613" lon="77.37">
        <ele>3650.6</ele>
        <time>2015-09-02T07:58:06Z</time>
      </trkpt>
      <trkpt lat="33.91611" lon="77.37">
        <ele>3650.6</ele>
        <time>2015-09-02T07:58:08Z</time>
      </trkpt>
      <trkpt lat="33.91609" lon="77.37002">
        <ele>3650.4</ele>
        <time>2015-09-02T07:58:11Z</time>
      </trkpt>
      <trkpt lat="33.91604" lon="77.36998">
        <ele>3650.6</ele>
        <time>2015-09-02T07:58:15Z</time>
      </trkpt>
      <trkpt lat="33.91601" lon="77.36998">
        <ele>3651</ele>
        <time>2015-09-02T07:58:19Z</time>
      </trkpt>
      <trkpt lat="33.91596" lon="77.36998">
        <ele>3651.4</ele>
        <time>2015-09-02T07:58:24Z</time>
      </trkpt>
      <trkpt lat="33.91596" lon="77.36997">
        <ele>3651.4</ele>
        <time>2015-09-02T07:58:26Z</time>
      </trkpt>
      <trkpt lat="33.91593" lon="77.37013">
        <ele>3650.6</ele>
        <time>2015-09-02T07:58:35Z</time>
      </trkpt>
      <trkpt lat="33.91592" lon="77.37021">
        <ele>3650.4</ele>
        <time>2015-09-02T07:58:37Z</time>
      </trkpt>
      <trkpt lat="33.91589" lon="77.37042">
        <ele>3651</ele>
        <time>2015-09-02T07:58:47Z</time>
      </trkpt>
      <trkpt lat="33.91578" lon="77.37047">
        <ele>3651.4</ele>
        <time>2015-09-02T07:58:58Z</time>
      </trkpt>
      <trkpt lat="33.91575" lon="77.37042">
        <ele>3651.4</ele>
        <time>2015-09-02T07:59:01Z</time>
      </trkpt>
      <trkpt lat="33.9157" lon="77.37046">
        <ele>3651.2</ele>
        <time>2015-09-02T07:59:07Z</time>
      </trkpt>
      <trkpt lat="33.91567" lon="77.37047">
        <ele>3651</ele>
        <time>2015-09-02T07:59:11Z</time>
      </trkpt>
      <trkpt lat="33.91552" lon="77.37065">
        <ele>3651.6</ele>
        <time>2015-09-02T07:59:31Z</time>
      </trkpt>
      <trkpt lat="33.9155" lon="77.37069">
        <ele>3651.6</ele>
        <time>2015-09-02T07:59:33Z</time>
      </trkpt>
      <trkpt lat="33.9154" lon="77.37086">
        <ele>3652.6</ele>
        <time>2015-09-02T07:59:44Z</time>
      </trkpt>
      <trkpt lat="33.91537" lon="77.3709">
        <ele>3652.8</ele>
        <time>2015-09-02T07:59:48Z</time>
      </trkpt>
      <trkpt lat="33.9153" lon="77.37099">
        <ele>3653.6</ele>
        <time>2015-09-02T07:59:59Z</time>
      </trkpt>
      <trkpt lat="33.91529" lon="77.371">
        <ele>3653.8</ele>
        <time>2015-09-02T08:00:00Z</time>
      </trkpt>
      <trkpt lat="33.91526" lon="77.37109">
        <ele>3654.4</ele>
        <time>2015-09-02T08:00:07Z</time>
      </trkpt>
      <trkpt lat="33.91526" lon="77.37113">
        <ele>3654.6</ele>
        <time>2015-09-02T08:00:09Z</time>
      </trkpt>
      <trkpt lat="33.91526" lon="77.37115">
        <ele>3654.6</ele>
        <time>2015-09-02T08:00:10Z</time>
      </trkpt>
      <trkpt lat="33.91525" lon="77.37117">
        <ele>3655</ele>
        <time>2015-09-02T08:00:12Z</time>
      </trkpt>
      <trkpt lat="33.91519" lon="77.37104">
        <ele>3655</ele>
        <time>2015-09-02T08:00:14Z</time>
      </trkpt>
      <trkpt lat="33.91512" lon="77.37093">
        <ele>3655.6</ele>
        <time>2015-09-02T08:00:18Z</time>
      </trkpt>
      <trkpt lat="33.91511" lon="77.37091">
        <ele>3655.6</ele>
        <time>2015-09-02T08:00:20Z</time>
      </trkpt>
      <trkpt lat="33.91508" lon="77.37088">
        <ele>3656</ele>
        <time>2015-09-02T08:00:23Z</time>
      </trkpt>
      <trkpt lat="33.91505" lon="77.3709">
        <ele>3656.2</ele>
        <time>2015-09-02T08:00:26Z</time>
      </trkpt>
      <trkpt lat="33.91497" lon="77.37085">
        <ele>3656</ele>
        <time>2015-09-02T08:00:32Z</time>
      </trkpt>
      <trkpt lat="33.91498" lon="77.37095">
        <ele>3656</ele>
        <time>2015-09-02T08:00:35Z</time>
      </trkpt>
      <trkpt lat="33.91501" lon="77.37115">
        <ele>3656</ele>
        <time>2015-09-02T08:00:39Z</time>
      </trkpt>
      <trkpt lat="33.91501" lon="77.37137">
        <ele>3656.2</ele>
        <time>2015-09-02T08:00:48Z</time>
      </trkpt>
      <trkpt lat="33.915" lon="77.37141">
        <ele>3656.8</ele>
        <time>2015-09-02T08:00:52Z</time>
      </trkpt>
      <trkpt lat="33.91496" lon="77.37143">
        <ele>3657</ele>
        <time>2015-09-02T08:00:57Z</time>
      </trkpt>
      <trkpt lat="33.91495" lon="77.37143">
        <ele>3657.2</ele>
        <time>2015-09-02T08:00:58Z</time>
      </trkpt>
      <trkpt lat="33.91493" lon="77.37143">
        <ele>3657.2</ele>
        <time>2015-09-02T08:01:00Z</time>
      </trkpt>
      <trkpt lat="33.91491" lon="77.37143">
        <ele>3657.4</ele>
        <time>2015-09-02T08:01:02Z</time>
      </trkpt>
      <trkpt lat="33.91489" lon="77.37144">
        <ele>3657.4</ele>
        <time>2015-09-02T08:01:05Z</time>
      </trkpt>
      <trkpt lat="33.91488" lon="77.37146">
        <ele>3657.8</ele>
        <time>2015-09-02T08:01:08Z</time>
      </trkpt>
      <trkpt lat="33.91483" lon="77.37148">
        <ele>3658.8</ele>
        <time>2015-09-02T08:01:18Z</time>
      </trkpt>
      <trkpt lat="33.91476" lon="77.37152">
        <ele>3659.6</ele>
        <time>2015-09-02T08:01:25Z</time>
      </trkpt>
      <trkpt lat="33.91469" lon="77.3715">
        <ele>3659.6</ele>
        <time>2015-09-02T08:01:36Z</time>
      </trkpt>
      <trkpt lat="33.91464" lon="77.37155">
        <ele>3659.8</ele>
        <time>2015-09-02T08:01:45Z</time>
      </trkpt>
      <trkpt lat="33.91455" lon="77.37152">
        <ele>3659.6</ele>
        <time>2015-09-02T08:01:55Z</time>
      </trkpt>
      <trkpt lat="33.91439" lon="77.37142">
        <ele>3660.8</ele>
        <time>2015-09-02T08:02:09Z</time>
      </trkpt>
      <trkpt lat="33.91438" lon="77.37143">
        <ele>3661</ele>
        <time>2015-09-02T08:02:10Z</time>
      </trkpt>
      <trkpt lat="33.91438" lon="77.37152">
        <ele>3661.4</ele>
        <time>2015-09-02T08:02:15Z</time>
      </trkpt>
      <trkpt lat="33.91438" lon="77.3716">
        <ele>3662</ele>
        <time>2015-09-02T08:02:18Z</time>
      </trkpt>
      <trkpt lat="33.9144" lon="77.37175">
        <ele>3663</ele>
        <time>2015-09-02T08:02:27Z</time>
      </trkpt>
      <trkpt lat="33.91441" lon="77.37183">
        <ele>3664.2</ele>
        <time>2015-09-02T08:02:34Z</time>
      </trkpt>
      <trkpt lat="33.91433" lon="77.37188">
        <ele>3664.8</ele>
        <time>2015-09-02T08:02:46Z</time>
      </trkpt>
      <trkpt lat="33.9143" lon="77.37192">
        <ele>3664.4</ele>
        <time>2015-09-02T08:02:50Z</time>
      </trkpt>
      <trkpt lat="33.91426" lon="77.37189">
        <ele>3663.8</ele>
        <time>2015-09-02T08:02:57Z</time>
      </trkpt>
      <trkpt lat="33.91423" lon="77.37189">
        <ele>3663.6</ele>
        <time>2015-09-02T08:03:01Z</time>
      </trkpt>
      <trkpt lat="33.9141" lon="77.3719">
        <ele>3664.2</ele>
        <time>2015-09-02T08:03:12Z</time>
      </trkpt>
      <trkpt lat="33.91406" lon="77.37191">
        <ele>3664.6</ele>
        <time>2015-09-02T08:03:15Z</time>
      </trkpt>
      <trkpt lat="33.91404" lon="77.37193">
        <ele>3664.8</ele>
        <time>2015-09-02T08:03:17Z</time>
      </trkpt>
      <trkpt lat="33.91399" lon="77.37197">
        <ele>3665.2</ele>
        <time>2015-09-02T08:03:21Z</time>
      </trkpt>
      <trkpt lat="33.91399" lon="77.37202">
        <ele>3665.4</ele>
        <time>2015-09-02T08:03:22Z</time>
      </trkpt>
      <trkpt lat="33.91399" lon="77.3721">
        <ele>3665.6</ele>
        <time>2015-09-02T08:03:24Z</time>
      </trkpt>
      <trkpt lat="33.91383" lon="77.37215">
        <ele>3665.8</ele>
        <time>2015-09-02T08:03:49Z</time>
      </trkpt>
      <trkpt lat="33.91379" lon="77.37212">
        <ele>3666</ele>
        <time>2015-09-02T08:03:52Z</time>
      </trkpt>
      <trkpt lat="33.91377" lon="77.37215">
        <ele>3666.4</ele>
        <time>2015-09-02T08:03:55Z</time>
      </trkpt>
      <trkpt lat="33.91369" lon="77.37222">
        <ele>3667</ele>
        <time>2015-09-02T08:04:08Z</time>
      </trkpt>
      <trkpt lat="33.91363" lon="77.37221">
        <ele>3667.4</ele>
        <time>2015-09-02T08:04:16Z</time>
      </trkpt>
      <trkpt lat="33.9136" lon="77.37218">
        <ele>3667.8</ele>
        <time>2015-09-02T08:04:18Z</time>
      </trkpt>
      <trkpt lat="33.91356" lon="77.3722">
        <ele>3668.2</ele>
        <time>2015-09-02T08:04:22Z</time>
      </trkpt>
      <trkpt lat="33.91354" lon="77.37224">
        <ele>3668.6</ele>
        <time>2015-09-02T08:04:25Z</time>
      </trkpt>
      <trkpt lat="33.91351" lon="77.37227">
        <ele>3669.2</ele>
        <time>2015-09-02T08:04:31Z</time>
      </trkpt>
      <trkpt lat="33.91349" lon="77.37226">
        <ele>3669.6</ele>
        <time>2015-09-02T08:04:34Z</time>
      </trkpt>
      <trkpt lat="33.91344" lon="77.37232">
        <ele>3670.8</ele>
        <time>2015-09-02T08:04:43Z</time>
      </trkpt>
      <trkpt lat="33.91343" lon="77.37233">
        <ele>3671</ele>
        <time>2015-09-02T08:04:44Z</time>
      </trkpt>
      <trkpt lat="33.91342" lon="77.37239">
        <ele>3671.8</ele>
        <time>2015-09-02T08:04:52Z</time>
      </trkpt>
      <trkpt lat="33.9134" lon="77.37242">
        <ele>3672.8</ele>
        <time>2015-09-02T08:04:58Z</time>
      </trkpt>
      <trkpt lat="33.91338" lon="77.37243">
        <ele>3673</ele>
        <time>2015-09-02T08:05:00Z</time>
      </trkpt>
      <trkpt lat="33.91337" lon="77.37245">
        <ele>3673.2</ele>
        <time>2015-09-02T08:05:02Z</time>
      </trkpt>
      <trkpt lat="33.91335" lon="77.37245">
        <ele>3673.4</ele>
        <time>2015-09-02T08:05:04Z</time>
      </trkpt>
      <trkpt lat="33.91333" lon="77.37245">
        <ele>3673.4</ele>
        <time>2015-09-02T08:05:06Z</time>
      </trkpt>
      <trkpt lat="33.91329" lon="77.37243">
        <ele>3673</ele>
        <time>2015-09-02T08:05:09Z</time>
      </trkpt>
      <trkpt lat="33.91324" lon="77.37242">
        <ele>3672.8</ele>
        <time>2015-09-02T08:05:13Z</time>
      </trkpt>
      <trkpt lat="33.9132" lon="77.37242">
        <ele>3672.8</ele>
        <time>2015-09-02T08:05:17Z</time>
      </trkpt>
      <trkpt lat="33.91317" lon="77.37241">
        <ele>3672.8</ele>
        <time>2015-09-02T08:05:21Z</time>
      </trkpt>
      <trkpt lat="33.91308" lon="77.37248">
        <ele>3673.8</ele>
        <time>2015-09-02T08:05:31Z</time>
      </trkpt>
      <trkpt lat="33.91307" lon="77.37249">
        <ele>3674</ele>
        <time>2015-09-02T08:05:33Z</time>
      </trkpt>
      <trkpt lat="33.9129" lon="77.37246">
        <ele>3673.2</ele>
        <time>2015-09-02T08:05:51Z</time>
      </trkpt>
      <trkpt lat="33.91286" lon="77.37244">
        <ele>3673</ele>
        <time>2015-09-02T08:05:55Z</time>
      </trkpt>
      <trkpt lat="33.91284" lon="77.37245">
        <ele>3673.2</ele>
        <time>2015-09-02T08:05:57Z</time>
      </trkpt>
      <trkpt lat="33.91281" lon="77.37248">
        <ele>3673</ele>
        <time>2015-09-02T08:06:05Z</time>
      </trkpt>
      <trkpt lat="33.91289" lon="77.37251">
        <ele>3673.4</ele>
        <time>2015-09-02T08:06:22Z</time>
      </trkpt>
      <trkpt lat="33.91284" lon="77.37248">
        <ele>3673.6</ele>
        <time>2015-09-02T08:06:26Z</time>
      </trkpt>
      <trkpt lat="33.91274" lon="77.37248">
        <ele>3674</ele>
        <time>2015-09-02T08:06:34Z</time>
      </trkpt>
      <trkpt lat="33.91266" lon="77.37249">
        <ele>3675</ele>
        <time>2015-09-02T08:06:42Z</time>
      </trkpt>
      <trkpt lat="33.91262" lon="77.37254">
        <ele>3675.4</ele>
        <time>2015-09-02T08:06:48Z</time>
      </trkpt>
      <trkpt lat="33.91259" lon="77.37257">
        <ele>3675.6</ele>
        <time>2015-09-02T08:06:50Z</time>
      </trkpt>
      <trkpt lat="33.91256" lon="77.37259">
        <ele>3676</ele>
        <time>2015-09-02T08:06:54Z</time>
      </trkpt>
      <trkpt lat="33.9125" lon="77.37259">
        <ele>3676.6</ele>
        <time>2015-09-02T08:07:01Z</time>
      </trkpt>
      <trkpt lat="33.91249" lon="77.3726">
        <ele>3677.2</ele>
        <time>2015-09-02T08:07:04Z</time>
      </trkpt>
      <trkpt lat="33.91244" lon="77.3727">
        <ele>3678.2</ele>
        <time>2015-09-02T08:07:14Z</time>
      </trkpt>
      <trkpt lat="33.91235" lon="77.37281">
        <ele>3679.2</ele>
        <time>2015-09-02T08:07:23Z</time>
      </trkpt>
      <trkpt lat="33.91234" lon="77.37282">
        <ele>3679.4</ele>
        <time>2015-09-02T08:07:24Z</time>
      </trkpt>
      <trkpt lat="33.91233" lon="77.37287">
        <ele>3680</ele>
        <time>2015-09-02T08:07:29Z</time>
      </trkpt>
      <trkpt lat="33.91231" lon="77.37298">
        <ele>3680.2</ele>
        <time>2015-09-02T08:07:37Z</time>
      </trkpt>
      <trkpt lat="33.91227" lon="77.37296">
        <ele>3680.2</ele>
        <time>2015-09-02T08:07:40Z</time>
      </trkpt>
      <trkpt lat="33.91225" lon="77.37296">
        <ele>3680.2</ele>
        <time>2015-09-02T08:07:42Z</time>
      </trkpt>
      <trkpt lat="33.91223" lon="77.37297">
        <ele>3680.2</ele>
        <time>2015-09-02T08:07:44Z</time>
      </trkpt>
      <trkpt lat="33.9122" lon="77.37296">
        <ele>3680.4</ele>
        <time>2015-09-02T08:07:46Z</time>
      </trkpt>
      <trkpt lat="33.91212" lon="77.37286">
        <ele>3681.2</ele>
        <time>2015-09-02T08:07:50Z</time>
      </trkpt>
      <trkpt lat="33.9121" lon="77.37283">
        <ele>3681.2</ele>
        <time>2015-09-02T08:07:52Z</time>
      </trkpt>
      <trkpt lat="33.91209" lon="77.37284">
        <ele>3681</ele>
        <time>2015-09-02T08:07:54Z</time>
      </trkpt>
      <trkpt lat="33.91207" lon="77.37284">
        <ele>3681.4</ele>
        <time>2015-09-02T08:07:59Z</time>
      </trkpt>
      <trkpt lat="33.91206" lon="77.37283">
        <ele>3681.6</ele>
        <time>2015-09-02T08:08:00Z</time>
      </trkpt>
      <trkpt lat="33.91197" lon="77.37279">
        <ele>3682.6</ele>
        <time>2015-09-02T08:08:13Z</time>
      </trkpt>
      <trkpt lat="33.91191" lon="77.37282">
        <ele>3683</ele>
        <time>2015-09-02T08:08:19Z</time>
      </trkpt>
      <trkpt lat="33.9119" lon="77.37282">
        <ele>3683.2</ele>
        <time>2015-09-02T08:08:21Z</time>
      </trkpt>
      <trkpt lat="33.9118" lon="77.37283">
        <ele>3683.4</ele>
        <time>2015-09-02T08:08:30Z</time>
      </trkpt>
      <trkpt lat="33.91177" lon="77.37282">
        <ele>3683.6</ele>
        <time>2015-09-02T08:08:33Z</time>
      </trkpt>
      <trkpt lat="33.91173" lon="77.37284">
        <ele>3683.8</ele>
        <time>2015-09-02T08:08:37Z</time>
      </trkpt>
      <trkpt lat="33.91164" lon="77.37285">
        <ele>3683.8</ele>
        <time>2015-09-02T08:08:46Z</time>
      </trkpt>
      <trkpt lat="33.91172" lon="77.37285">
        <ele>3684</ele>
        <time>2015-09-02T08:09:10Z</time>
      </trkpt>
      <trkpt lat="33.91169" lon="77.37286">
        <ele>3684</ele>
        <time>2015-09-02T08:09:13Z</time>
      </trkpt>
      <trkpt lat="33.91167" lon="77.37287">
        <ele>3684</ele>
        <time>2015-09-02T08:09:16Z</time>
      </trkpt>
      <trkpt lat="33.91163" lon="77.37287">
        <ele>3684.4</ele>
        <time>2015-09-02T08:09:20Z</time>
      </trkpt>
      <trkpt lat="33.91158" lon="77.37288">
        <ele>3684.8</ele>
        <time>2015-09-02T08:09:25Z</time>
      </trkpt>
      <trkpt lat="33.91155" lon="77.3729">
        <ele>3684.8</ele>
        <time>2015-09-02T08:09:27Z</time>
      </trkpt>
      <trkpt lat="33.91153" lon="77.37291">
        <ele>3685</ele>
        <time>2015-09-02T08:09:30Z</time>
      </trkpt>
      <trkpt lat="33.91145" lon="77.37292">
        <ele>3685.6</ele>
        <time>2015-09-02T08:09:39Z</time>
      </trkpt>
      <trkpt lat="33.91142" lon="77.37291">
        <ele>3685.6</ele>
        <time>2015-09-02T08:09:42Z</time>
      </trkpt>
      <trkpt lat="33.91141" lon="77.37294">
        <ele>3685.8</ele>
        <time>2015-09-02T08:09:43Z</time>
      </trkpt>
      <trkpt lat="33.91135" lon="77.37299">
        <ele>3686.8</ele>
        <time>2015-09-02T08:09:54Z</time>
      </trkpt>
      <trkpt lat="33.91129" lon="77.37302">
        <ele>3686.4</ele>
        <time>2015-09-02T08:09:58Z</time>
      </trkpt>
      <trkpt lat="33.91122" lon="77.37304">
        <ele>3686.2</ele>
        <time>2015-09-02T08:10:03Z</time>
      </trkpt>
      <trkpt lat="33.91118" lon="77.37304">
        <ele>3686.2</ele>
        <time>2015-09-02T08:10:07Z</time>
      </trkpt>
      <trkpt lat="33.9112" lon="77.37302">
        <ele>3686.8</ele>
        <time>2015-09-02T08:10:30Z</time>
      </trkpt>
      <trkpt lat="33.91113" lon="77.37305">
        <ele>3686.8</ele>
        <time>2015-09-02T08:10:38Z</time>
      </trkpt>
      <trkpt lat="33.91105" lon="77.3731">
        <ele>3686.4</ele>
        <time>2015-09-02T08:10:49Z</time>
      </trkpt>
      <trkpt lat="33.91103" lon="77.37319">
        <ele>3685.8</ele>
        <time>2015-09-02T08:10:55Z</time>
      </trkpt>
      <trkpt lat="33.91103" lon="77.37322">
        <ele>3685.8</ele>
        <time>2015-09-02T08:10:57Z</time>
      </trkpt>
      <trkpt lat="33.9109" lon="77.37328">
        <ele>3685</ele>
        <time>2015-09-02T08:11:13Z</time>
      </trkpt>
      <trkpt lat="33.9109" lon="77.3733">
        <ele>3684.8</ele>
        <time>2015-09-02T08:11:14Z</time>
      </trkpt>
      <trkpt lat="33.91088" lon="77.37336">
        <ele>3684.2</ele>
        <time>2015-09-02T08:11:20Z</time>
      </trkpt>
      <trkpt lat="33.91086" lon="77.37337">
        <ele>3683.8</ele>
        <time>2015-09-02T08:11:28Z</time>
      </trkpt>
      <trkpt lat="33.91091" lon="77.37345">
        <ele>3682.6</ele>
        <time>2015-09-02T08:11:44Z</time>
      </trkpt>
      <trkpt lat="33.91091" lon="77.37351">
        <ele>3681.6</ele>
        <time>2015-09-02T08:12:00Z</time>
      </trkpt>
      <trkpt lat="33.91105" lon="77.37356">
        <ele>3681</ele>
        <time>2015-09-02T08:12:23Z</time>
      </trkpt>
      <trkpt lat="33.91109" lon="77.37358">
        <ele>3681.2</ele>
        <time>2015-09-02T08:12:27Z</time>
      </trkpt>
      <trkpt lat="33.91089" lon="77.37366">
        <ele>3681.2</ele>
        <time>2015-09-02T08:12:42Z</time>
      </trkpt>
      <trkpt lat="33.91083" lon="77.37362">
        <ele>3681.8</ele>
        <time>2015-09-02T08:13:29Z</time>
      </trkpt>
      <trkpt lat="33.91084" lon="77.37362">
        <ele>3681.8</ele>
        <time>2015-09-02T08:13:30Z</time>
      </trkpt>
      <trkpt lat="33.91089" lon="77.37362">
        <ele>3680.4</ele>
        <time>2015-09-02T08:13:46Z</time>
      </trkpt>
      <trkpt lat="33.91091" lon="77.37364">
        <ele>3679.8</ele>
        <time>2015-09-02T08:13:49Z</time>
      </trkpt>
      <trkpt lat="33.91094" lon="77.37365">
        <ele>3679.4</ele>
        <time>2015-09-02T08:13:52Z</time>
      </trkpt>
      <trkpt lat="33.91103" lon="77.3737">
        <ele>3678.6</ele>
        <time>2015-09-02T08:14:06Z</time>
      </trkpt>
      <trkpt lat="33.91104" lon="77.37371">
        <ele>3678.2</ele>
        <time>2015-09-02T08:14:08Z</time>
      </trkpt>
      <trkpt lat="33.91105" lon="77.37371">
        <ele>3678.2</ele>
        <time>2015-09-02T08:14:09Z</time>
      </trkpt>
      <trkpt lat="33.91109" lon="77.37381">
        <ele>3677.2</ele>
        <time>2015-09-02T08:14:15Z</time>
      </trkpt>
      <trkpt lat="33.91111" lon="77.37385">
        <ele>3676.4</ele>
        <time>2015-09-02T08:14:19Z</time>
      </trkpt>
      <trkpt lat="33.91111" lon="77.37389">
        <ele>3676.2</ele>
        <time>2015-09-02T08:14:22Z</time>
      </trkpt>
      <trkpt lat="33.91112" lon="77.3739">
        <ele>3676</ele>
        <time>2015-09-02T08:14:23Z</time>
      </trkpt>
      <trkpt lat="33.91113" lon="77.37394">
        <ele>3675.6</ele>
        <time>2015-09-02T08:14:27Z</time>
      </trkpt>
      <trkpt lat="33.91114" lon="77.37396">
        <ele>3675</ele>
        <time>2015-09-02T08:14:29Z</time>
      </trkpt>
      <trkpt lat="33.91115" lon="77.37399">
        <ele>3674</ele>
        <time>2015-09-02T08:14:33Z</time>
      </trkpt>
      <trkpt lat="33.91113" lon="77.374">
        <ele>3673.6</ele>
        <time>2015-09-02T08:14:35Z</time>
      </trkpt>
      <trkpt lat="33.91109" lon="77.374">
        <ele>3672.8</ele>
        <time>2015-09-02T08:14:42Z</time>
      </trkpt>
      <trkpt lat="33.91103" lon="77.37404">
        <ele>3671.8</ele>
        <time>2015-09-02T08:14:53Z</time>
      </trkpt>
      <trkpt lat="33.91096" lon="77.37417">
        <ele>3671.4</ele>
        <time>2015-09-02T08:15:01Z</time>
      </trkpt>
      <trkpt lat="33.91095" lon="77.37416">
        <ele>3671.6</ele>
        <time>2015-09-02T08:15:08Z</time>
      </trkpt>
      <trkpt lat="33.91099" lon="77.37414">
        <ele>3671.6</ele>
        <time>2015-09-02T08:15:47Z</time>
      </trkpt>
      <trkpt lat="33.91104" lon="77.37424">
        <ele>3671.6</ele>
        <time>2015-09-02T08:15:58Z</time>
      </trkpt>
      <trkpt lat="33.91091" lon="77.37409">
        <ele>3671.2</ele>
        <time>2015-09-02T08:16:15Z</time>
      </trkpt>
      <trkpt lat="33.91079" lon="77.37392">
        <ele>3671.2</ele>
        <time>2015-09-02T08:16:35Z</time>
      </trkpt>
      <trkpt lat="33.91086" lon="77.37411">
        <ele>3671.8</ele>
        <time>2015-09-02T08:16:53Z</time>
      </trkpt>
      <trkpt lat="33.91087" lon="77.37416">
        <ele>3671.6</ele>
        <time>2015-09-02T08:16:55Z</time>
      </trkpt>
      <trkpt lat="33.91087" lon="77.37419">
        <ele>3671</ele>
        <time>2015-09-02T08:16:59Z</time>
      </trkpt>
      <trkpt lat="33.91086" lon="77.37428">
        <ele>3671.6</ele>
        <time>2015-09-02T08:17:17Z</time>
      </trkpt>
      <trkpt lat="33.91087" lon="77.37429">
        <ele>3671.6</ele>
        <time>2015-09-02T08:17:19Z</time>
      </trkpt>
      <trkpt lat="33.91086" lon="77.37424">
        <ele>3671.4</ele>
        <time>2015-09-02T08:17:25Z</time>
      </trkpt>
      <trkpt lat="33.91088" lon="77.37425">
        <ele>3671.6</ele>
        <time>2015-09-02T08:17:50Z</time>
      </trkpt>
      <trkpt lat="33.91086" lon="77.37431">
        <ele>3671.4</ele>
        <time>2015-09-02T08:17:54Z</time>
      </trkpt>
      <trkpt lat="33.91081" lon="77.37432">
        <ele>3672.8</ele>
        <time>2015-09-02T08:18:21Z</time>
      </trkpt>
      <trkpt lat="33.91074" lon="77.37431">
        <ele>3672.6</ele>
        <time>2015-09-02T08:18:42Z</time>
      </trkpt>
      <trkpt lat="33.91072" lon="77.37428">
        <ele>3672.2</ele>
        <time>2015-09-02T08:18:49Z</time>
      </trkpt>
      <trkpt lat="33.91082" lon="77.37437">
        <ele>3671.8</ele>
        <time>2015-09-02T08:18:56Z</time>
      </trkpt>
      <trkpt lat="33.91072" lon="77.37421">
        <ele>3671.8</ele>
        <time>2015-09-02T08:19:20Z</time>
      </trkpt>
      <trkpt lat="33.91073" lon="77.37423">
        <ele>3672</ele>
        <time>2015-09-02T08:19:22Z</time>
      </trkpt>
      <trkpt lat="33.91071" lon="77.37427">
        <ele>3671.8</ele>
        <time>2015-09-02T08:19:26Z</time>
      </trkpt>
      <trkpt lat="33.91066" lon="77.3743">
        <ele>3671.6</ele>
        <time>2015-09-02T08:19:33Z</time>
      </trkpt>
      <trkpt lat="33.91069" lon="77.37448">
        <ele>3671.6</ele>
        <time>2015-09-02T08:19:44Z</time>
      </trkpt>
      <trkpt lat="33.91066" lon="77.37454">
        <ele>3671.4</ele>
        <time>2015-09-02T08:20:19Z</time>
      </trkpt>
      <trkpt lat="33.91066" lon="77.37456">
        <ele>3671.6</ele>
        <time>2015-09-02T08:20:22Z</time>
      </trkpt>
      <trkpt lat="33.91066" lon="77.37463">
        <ele>3672</ele>
        <time>2015-09-02T08:20:28Z</time>
      </trkpt>
      <trkpt lat="33.91066" lon="77.37466">
        <ele>3672</ele>
        <time>2015-09-02T08:20:30Z</time>
      </trkpt>
      <trkpt lat="33.91066" lon="77.37468">
        <ele>3672</ele>
        <time>2015-09-02T08:20:32Z</time>
      </trkpt>
      <trkpt lat="33.91062" lon="77.37478">
        <ele>3672.2</ele>
        <time>2015-09-02T08:20:45Z</time>
      </trkpt>
      <trkpt lat="33.9106" lon="77.37481">
        <ele>3672.6</ele>
        <time>2015-09-02T08:20:48Z</time>
      </trkpt>
      <trkpt lat="33.91061" lon="77.37486">
        <ele>3673</ele>
        <time>2015-09-02T08:20:51Z</time>
      </trkpt>
      <trkpt lat="33.91062" lon="77.37501">
        <ele>3673.6</ele>
        <time>2015-09-02T08:21:01Z</time>
      </trkpt>
      <trkpt lat="33.91064" lon="77.37509">
        <ele>3674</ele>
        <time>2015-09-02T08:21:07Z</time>
      </trkpt>
      <trkpt lat="33.91061" lon="77.37509">
        <ele>3674.4</ele>
        <time>2015-09-02T08:21:10Z</time>
      </trkpt>
      <trkpt lat="33.9106" lon="77.37516">
        <ele>3675</ele>
        <time>2015-09-02T08:21:15Z</time>
      </trkpt>
      <trkpt lat="33.91057" lon="77.37514">
        <ele>3675.2</ele>
        <time>2015-09-02T08:21:16Z</time>
      </trkpt>
      <trkpt lat="33.91056" lon="77.37514">
        <ele>3675.2</ele>
        <time>2015-09-02T08:21:18Z</time>
      </trkpt>
      <trkpt lat="33.9106" lon="77.37524">
        <ele>3675.2</ele>
        <time>2015-09-02T08:21:23Z</time>
      </trkpt>
      <trkpt lat="33.91055" lon="77.37527">
        <ele>3675.2</ele>
        <time>2015-09-02T08:21:29Z</time>
      </trkpt>
      <trkpt lat="33.91051" lon="77.37532">
        <ele>3674</ele>
        <time>2015-09-02T08:21:41Z</time>
      </trkpt>
      <trkpt lat="33.91049" lon="77.3754">
        <ele>3673.4</ele>
        <time>2015-09-02T08:21:45Z</time>
      </trkpt>
      <trkpt lat="33.91049" lon="77.37542">
        <ele>3673</ele>
        <time>2015-09-02T08:21:46Z</time>
      </trkpt>
      <trkpt lat="33.91048" lon="77.3755">
        <ele>3671.8</ele>
        <time>2015-09-02T08:21:50Z</time>
      </trkpt>
      <trkpt lat="33.91048" lon="77.37558">
        <ele>3670.8</ele>
        <time>2015-09-02T08:21:54Z</time>
      </trkpt>
      <trkpt lat="33.91044" lon="77.3756">
        <ele>3670</ele>
        <time>2015-09-02T08:21:57Z</time>
      </trkpt>
      <trkpt lat="33.91042" lon="77.3756">
        <ele>3669.8</ele>
        <time>2015-09-02T08:21:58Z</time>
      </trkpt>
      <trkpt lat="33.91034" lon="77.37563">
        <ele>3668.6</ele>
        <time>2015-09-02T08:22:05Z</time>
      </trkpt>
      <trkpt lat="33.91029" lon="77.37568">
        <ele>3668</ele>
        <time>2015-09-02T08:22:09Z</time>
      </trkpt>
      <trkpt lat="33.91021" lon="77.37575">
        <ele>3668.2</ele>
        <time>2015-09-02T08:22:18Z</time>
      </trkpt>
      <trkpt lat="33.91021" lon="77.37577">
        <ele>3668.2</ele>
        <time>2015-09-02T08:22:20Z</time>
      </trkpt>
      <trkpt lat="33.91017" lon="77.37579">
        <ele>3668</ele>
        <time>2015-09-02T08:22:26Z</time>
      </trkpt>
      <trkpt lat="33.91015" lon="77.37579">
        <ele>3667.8</ele>
        <time>2015-09-02T08:22:29Z</time>
      </trkpt>
      <trkpt lat="33.91012" lon="77.37586">
        <ele>3667.8</ele>
        <time>2015-09-02T08:22:33Z</time>
      </trkpt>
      <trkpt lat="33.91011" lon="77.37589">
        <ele>3668.6</ele>
        <time>2015-09-02T08:22:36Z</time>
      </trkpt>
      <trkpt lat="33.9101" lon="77.37592">
        <ele>3669</ele>
        <time>2015-09-02T08:22:38Z</time>
      </trkpt>
      <trkpt lat="33.91009" lon="77.37595">
        <ele>3669.6</ele>
        <time>2015-09-02T08:22:42Z</time>
      </trkpt>
      <trkpt lat="33.91009" lon="77.37597">
        <ele>3669.6</ele>
        <time>2015-09-02T08:22:43Z</time>
      </trkpt>
      <trkpt lat="33.91007" lon="77.37607">
        <ele>3669.2</ele>
        <time>2015-09-02T08:22:48Z</time>
      </trkpt>
      <trkpt lat="33.91006" lon="77.37615">
        <ele>3668.4</ele>
        <time>2015-09-02T08:22:52Z</time>
      </trkpt>
      <trkpt lat="33.91003" lon="77.37614">
        <ele>3667.6</ele>
        <time>2015-09-02T08:22:57Z</time>
      </trkpt>
      <trkpt lat="33.91004" lon="77.37626">
        <ele>3668.6</ele>
        <time>2015-09-02T08:23:08Z</time>
      </trkpt>
      <trkpt lat="33.91005" lon="77.3763">
        <ele>3668.8</ele>
        <time>2015-09-02T08:23:10Z</time>
      </trkpt>
      <trkpt lat="33.91006" lon="77.37634">
        <ele>3669.2</ele>
        <time>2015-09-02T08:23:13Z</time>
      </trkpt>
      <trkpt lat="33.91003" lon="77.37633">
        <ele>3669.6</ele>
        <time>2015-09-02T08:23:15Z</time>
      </trkpt>
      <trkpt lat="33.90999" lon="77.37634">
        <ele>3670</ele>
        <time>2015-09-02T08:23:18Z</time>
      </trkpt>
      <trkpt lat="33.90998" lon="77.37639">
        <ele>3670.6</ele>
        <time>2015-09-02T08:23:23Z</time>
      </trkpt>
      <trkpt lat="33.90997" lon="77.37643">
        <ele>3671</ele>
        <time>2015-09-02T08:23:26Z</time>
      </trkpt>
      <trkpt lat="33.90995" lon="77.37645">
        <ele>3671.8</ele>
        <time>2015-09-02T08:23:30Z</time>
      </trkpt>
      <trkpt lat="33.90992" lon="77.37647">
        <ele>3672.8</ele>
        <time>2015-09-02T08:23:38Z</time>
      </trkpt>
      <trkpt lat="33.90991" lon="77.37653">
        <ele>3674</ele>
        <time>2015-09-02T08:23:48Z</time>
      </trkpt>
      <trkpt lat="33.91" lon="77.37654">
        <ele>3674.4</ele>
        <time>2015-09-02T08:23:54Z</time>
      </trkpt>
      <trkpt lat="33.91001" lon="77.3766">
        <ele>3675</ele>
        <time>2015-09-02T08:24:07Z</time>
      </trkpt>
      <trkpt lat="33.91" lon="77.37661">
        <ele>3675.2</ele>
        <time>2015-09-02T08:24:08Z</time>
      </trkpt>
      <trkpt lat="33.90997" lon="77.37665">
        <ele>3676</ele>
        <time>2015-09-02T08:24:15Z</time>
      </trkpt>
      <trkpt lat="33.90998" lon="77.3767">
        <ele>3677</ele>
        <time>2015-09-02T08:24:24Z</time>
      </trkpt>
      <trkpt lat="33.90998" lon="77.37677">
        <ele>3678.2</ele>
        <time>2015-09-02T08:24:32Z</time>
      </trkpt>
      <trkpt lat="33.90998" lon="77.37683">
        <ele>3679.2</ele>
        <time>2015-09-02T08:24:40Z</time>
      </trkpt>
      <trkpt lat="33.91001" lon="77.37689">
        <ele>3680.4</ele>
        <time>2015-09-02T08:24:50Z</time>
      </trkpt>
      <trkpt lat="33.91002" lon="77.37694">
        <ele>3681.4</ele>
        <time>2015-09-02T08:24:59Z</time>
      </trkpt>
      <trkpt lat="33.91002" lon="77.377">
        <ele>3682.4</ele>
        <time>2015-09-02T08:25:07Z</time>
      </trkpt>
      <trkpt lat="33.91003" lon="77.37701">
        <ele>3682.6</ele>
        <time>2015-09-02T08:25:08Z</time>
      </trkpt>
      <trkpt lat="33.91003" lon="77.37705">
        <ele>3682.8</ele>
        <time>2015-09-02T08:25:11Z</time>
      </trkpt>
      <trkpt lat="33.91004" lon="77.37716">
        <ele>3683.2</ele>
        <time>2015-09-02T08:25:20Z</time>
      </trkpt>
      <trkpt lat="33.91002" lon="77.37738">
        <ele>3681.6</ele>
        <time>2015-09-02T08:25:39Z</time>
      </trkpt>
      <trkpt lat="33.91002" lon="77.3774">
        <ele>3681.4</ele>
        <time>2015-09-02T08:25:40Z</time>
      </trkpt>
      <trkpt lat="33.91007" lon="77.37761">
        <ele>3681</ele>
        <time>2015-09-02T08:25:58Z</time>
      </trkpt>
      <trkpt lat="33.91009" lon="77.37785">
        <ele>3680.8</ele>
        <time>2015-09-02T08:26:14Z</time>
      </trkpt>
      <trkpt lat="33.91006" lon="77.3779">
        <ele>3680.4</ele>
        <time>2015-09-02T08:26:17Z</time>
      </trkpt>
      <trkpt lat="33.91006" lon="77.37795">
        <ele>3679.2</ele>
        <time>2015-09-02T08:26:21Z</time>
      </trkpt>
      <trkpt lat="33.91004" lon="77.378">
        <ele>3678.2</ele>
        <time>2015-09-02T08:26:25Z</time>
      </trkpt>
      <trkpt lat="33.91003" lon="77.37802">
        <ele>3677.8</ele>
        <time>2015-09-02T08:26:26Z</time>
      </trkpt>
      <trkpt lat="33.91001" lon="77.37804">
        <ele>3677</ele>
        <time>2015-09-02T08:26:28Z</time>
      </trkpt>
      <trkpt lat="33.91" lon="77.37807">
        <ele>3676.4</ele>
        <time>2015-09-02T08:26:30Z</time>
      </trkpt>
      <trkpt lat="33.91" lon="77.37806">
        <ele>3676</ele>
        <time>2015-09-02T08:26:31Z</time>
      </trkpt>
      <trkpt lat="33.90999" lon="77.37803">
        <ele>3675</ele>
        <time>2015-09-02T08:26:33Z</time>
      </trkpt>
      <trkpt lat="33.90999" lon="77.378">
        <ele>3674.2</ele>
        <time>2015-09-02T08:26:34Z</time>
      </trkpt>
      <trkpt lat="33.90998" lon="77.37798">
        <ele>3673.2</ele>
        <time>2015-09-02T08:26:36Z</time>
      </trkpt>
      <trkpt lat="33.90997" lon="77.37797">
        <ele>3672.4</ele>
        <time>2015-09-02T08:26:38Z</time>
      </trkpt>
      <trkpt lat="33.90997" lon="77.37798">
        <ele>3672</ele>
        <time>2015-09-02T08:26:40Z</time>
      </trkpt>
      <trkpt lat="33.90996" lon="77.37798">
        <ele>3671.8</ele>
        <time>2015-09-02T08:26:41Z</time>
      </trkpt>
      <trkpt lat="33.90995" lon="77.378">
        <ele>3671.2</ele>
        <time>2015-09-02T08:26:43Z</time>
      </trkpt>
      <trkpt lat="33.90994" lon="77.378">
        <ele>3670.8</ele>
        <time>2015-09-02T08:26:44Z</time>
      </trkpt>
      <trkpt lat="33.90989" lon="77.37803">
        <ele>3670.4</ele>
        <time>2015-09-02T08:26:51Z</time>
      </trkpt>
      <trkpt lat="33.90987" lon="77.37804">
        <ele>3670.6</ele>
        <time>2015-09-02T08:26:53Z</time>
      </trkpt>
      <trkpt lat="33.90984" lon="77.37807">
        <ele>3670.8</ele>
        <time>2015-09-02T08:27:10Z</time>
      </trkpt>
      <trkpt lat="33.90986" lon="77.37809">
        <ele>3670.8</ele>
        <time>2015-09-02T08:27:12Z</time>
      </trkpt>
      <trkpt lat="33.90987" lon="77.37811">
        <ele>3671</ele>
        <time>2015-09-02T08:27:14Z</time>
      </trkpt>
      <trkpt lat="33.90987" lon="77.37816">
        <ele>3672</ele>
        <time>2015-09-02T08:27:22Z</time>
      </trkpt>
      <trkpt lat="33.90985" lon="77.37817">
        <ele>3672.2</ele>
        <time>2015-09-02T08:27:24Z</time>
      </trkpt>
      <trkpt lat="33.90979" lon="77.37829">
        <ele>3672.2</ele>
        <time>2015-09-02T08:27:46Z</time>
      </trkpt>
      <trkpt lat="33.90978" lon="77.37833">
        <ele>3673</ele>
        <time>2015-09-02T08:27:50Z</time>
      </trkpt>
      <trkpt lat="33.90976" lon="77.37834">
        <ele>3673</ele>
        <time>2015-09-02T08:27:52Z</time>
      </trkpt>
      <trkpt lat="33.90974" lon="77.37841">
        <ele>3673</ele>
        <time>2015-09-02T08:27:56Z</time>
      </trkpt>
      <trkpt lat="33.90973" lon="77.37845">
        <ele>3672.8</ele>
        <time>2015-09-02T08:27:59Z</time>
      </trkpt>
      <trkpt lat="33.90973" lon="77.37845">
        <ele>3672.8</ele>
        <time>2015-09-02T08:28:03Z</time>
      </trkpt>
      <trkpt lat="33.90973" lon="77.37845">
        <ele>3672.8</ele>
        <time>2015-09-02T08:28:04Z</time>
      </trkpt>
      <trkpt lat="33.90972" lon="77.37849">
        <ele>3672.8</ele>
        <time>2015-09-02T08:28:08Z</time>
      </trkpt>
      <trkpt lat="33.9097" lon="77.37851">
        <ele>3672.8</ele>
        <time>2015-09-02T08:28:10Z</time>
      </trkpt>
      <trkpt lat="33.90969" lon="77.37851">
        <ele>3672.8</ele>
        <time>2015-09-02T08:28:11Z</time>
      </trkpt>
      <trkpt lat="33.90967" lon="77.3785">
        <ele>3672.8</ele>
        <time>2015-09-02T08:28:13Z</time>
      </trkpt>
      <trkpt lat="33.90966" lon="77.3785">
        <ele>3672.6</ele>
        <time>2015-09-02T08:28:15Z</time>
      </trkpt>
      <trkpt lat="33.9096" lon="77.37849">
        <ele>3672.6</ele>
        <time>2015-09-02T08:28:22Z</time>
      </trkpt>
      <trkpt lat="33.90956" lon="77.37849">
        <ele>3672.8</ele>
        <time>2015-09-02T08:28:25Z</time>
      </trkpt>
      <trkpt lat="33.90943" lon="77.37853">
        <ele>3673.2</ele>
        <time>2015-09-02T08:28:40Z</time>
      </trkpt>
      <trkpt lat="33.90941" lon="77.37855">
        <ele>3673.4</ele>
        <time>2015-09-02T08:28:43Z</time>
      </trkpt>
      <trkpt lat="33.90937" lon="77.37856">
        <ele>3673.6</ele>
        <time>2015-09-02T08:28:46Z</time>
      </trkpt>
      <trkpt lat="33.90928" lon="77.37859">
        <ele>3674</ele>
        <time>2015-09-02T08:28:56Z</time>
      </trkpt>
      <trkpt lat="33.90925" lon="77.37867">
        <ele>3674</ele>
        <time>2015-09-02T08:29:01Z</time>
      </trkpt>
      <trkpt lat="33.90924" lon="77.37873">
        <ele>3674</ele>
        <time>2015-09-02T08:29:03Z</time>
      </trkpt>
      <trkpt lat="33.90921" lon="77.37878">
        <ele>3674</ele>
        <time>2015-09-02T08:29:07Z</time>
      </trkpt>
      <trkpt lat="33.9092" lon="77.37879">
        <ele>3673.8</ele>
        <time>2015-09-02T08:29:09Z</time>
      </trkpt>
      <trkpt lat="33.90918" lon="77.37883">
        <ele>3674.2</ele>
        <time>2015-09-02T08:29:15Z</time>
      </trkpt>
      <trkpt lat="33.90916" lon="77.37885">
        <ele>3674.2</ele>
        <time>2015-09-02T08:29:18Z</time>
      </trkpt>
      <trkpt lat="33.9091" lon="77.3789">
        <ele>3674.4</ele>
        <time>2015-09-02T08:29:25Z</time>
      </trkpt>
      <trkpt lat="33.90906" lon="77.37904">
        <ele>3674.4</ele>
        <time>2015-09-02T08:29:42Z</time>
      </trkpt>
      <trkpt lat="33.90905" lon="77.37912">
        <ele>3674.4</ele>
        <time>2015-09-02T08:29:46Z</time>
      </trkpt>
      <trkpt lat="33.90905" lon="77.37913">
        <ele>3674.4</ele>
        <time>2015-09-02T08:29:48Z</time>
      </trkpt>
      <trkpt lat="33.90905" lon="77.37916">
        <ele>3674.2</ele>
        <time>2015-09-02T08:29:50Z</time>
      </trkpt>
      <trkpt lat="33.90904" lon="77.37919">
        <ele>3674.2</ele>
        <time>2015-09-02T08:29:53Z</time>
      </trkpt>
      <trkpt lat="33.909" lon="77.37924">
        <ele>3674</ele>
        <time>2015-09-02T08:29:58Z</time>
      </trkpt>
      <trkpt lat="33.90893" lon="77.37944">
        <ele>3674.4</ele>
        <time>2015-09-02T08:30:19Z</time>
      </trkpt>
      <trkpt lat="33.90892" lon="77.37945">
        <ele>3674.4</ele>
        <time>2015-09-02T08:30:21Z</time>
      </trkpt>
      <trkpt lat="33.90887" lon="77.37952">
        <ele>3674.8</ele>
        <time>2015-09-02T08:30:29Z</time>
      </trkpt>
      <trkpt lat="33.90885" lon="77.37956">
        <ele>3674.6</ele>
        <time>2015-09-02T08:30:32Z</time>
      </trkpt>
      <trkpt lat="33.90879" lon="77.37967">
        <ele>3675</ele>
        <time>2015-09-02T08:30:43Z</time>
      </trkpt>
      <trkpt lat="33.90878" lon="77.37971">
        <ele>3675</ele>
        <time>2015-09-02T08:30:46Z</time>
      </trkpt>
      <trkpt lat="33.90877" lon="77.37972">
        <ele>3675.2</ele>
        <time>2015-09-02T08:30:47Z</time>
      </trkpt>
      <trkpt lat="33.90881" lon="77.37975">
        <ele>3675.2</ele>
        <time>2015-09-02T08:30:50Z</time>
      </trkpt>
      <trkpt lat="33.9088" lon="77.37979">
        <ele>3675.2</ele>
        <time>2015-09-02T08:30:54Z</time>
      </trkpt>
      <trkpt lat="33.90879" lon="77.37982">
        <ele>3675</ele>
        <time>2015-09-02T08:30:57Z</time>
      </trkpt>
      <trkpt lat="33.90876" lon="77.37993">
        <ele>3674.8</ele>
        <time>2015-09-02T08:31:07Z</time>
      </trkpt>
      <trkpt lat="33.90874" lon="77.37997">
        <ele>3674.8</ele>
        <time>2015-09-02T08:31:10Z</time>
      </trkpt>
      <trkpt lat="33.90873" lon="77.38003">
        <ele>3675</ele>
        <time>2015-09-02T08:31:15Z</time>
      </trkpt>
      <trkpt lat="33.90872" lon="77.38008">
        <ele>3674.2</ele>
        <time>2015-09-02T08:31:21Z</time>
      </trkpt>
      <trkpt lat="33.9087" lon="77.38012">
        <ele>3674.6</ele>
        <time>2015-09-02T08:31:24Z</time>
      </trkpt>
      <trkpt lat="33.90868" lon="77.38015">
        <ele>3674.6</ele>
        <time>2015-09-02T08:31:26Z</time>
      </trkpt>
      <trkpt lat="33.90864" lon="77.38019">
        <ele>3674.8</ele>
        <time>2015-09-02T08:31:33Z</time>
      </trkpt>
      <trkpt lat="33.90853" lon="77.38028">
        <ele>3675.2</ele>
        <time>2015-09-02T08:31:48Z</time>
      </trkpt>
      <trkpt lat="33.9085" lon="77.38035">
        <ele>3675.2</ele>
        <time>2015-09-02T08:31:51Z</time>
      </trkpt>
      <trkpt lat="33.90844" lon="77.38042">
        <ele>3676.2</ele>
        <time>2015-09-02T08:31:59Z</time>
      </trkpt>
      <trkpt lat="33.90842" lon="77.38043">
        <ele>3676.4</ele>
        <time>2015-09-02T08:32:01Z</time>
      </trkpt>
      <trkpt lat="33.90839" lon="77.38045">
        <ele>3677.2</ele>
        <time>2015-09-02T08:32:07Z</time>
      </trkpt>
      <trkpt lat="33.90836" lon="77.38047">
        <ele>3677.6</ele>
        <time>2015-09-02T08:32:10Z</time>
      </trkpt>
      <trkpt lat="33.9083" lon="77.38048">
        <ele>3677.8</ele>
        <time>2015-09-02T08:32:17Z</time>
      </trkpt>
      <trkpt lat="33.90831" lon="77.38051">
        <ele>3678.2</ele>
        <time>2015-09-02T08:32:22Z</time>
      </trkpt>
      <trkpt lat="33.90825" lon="77.38057">
        <ele>3679.4</ele>
        <time>2015-09-02T08:32:44Z</time>
      </trkpt>
      <trkpt lat="33.90821" lon="77.38058">
        <ele>3680.6</ele>
        <time>2015-09-02T08:32:51Z</time>
      </trkpt>
      <trkpt lat="33.90828" lon="77.38064">
        <ele>3681.8</ele>
        <time>2015-09-02T08:33:22Z</time>
      </trkpt>
      <trkpt lat="33.90829" lon="77.38068">
        <ele>3682.8</ele>
        <time>2015-09-02T08:33:29Z</time>
      </trkpt>
      <trkpt lat="33.90827" lon="77.38077">
        <ele>3682</ele>
        <time>2015-09-02T08:33:53Z</time>
      </trkpt>
      <trkpt lat="33.90835" lon="77.38077">
        <ele>3682</ele>
        <time>2015-09-02T08:34:01Z</time>
      </trkpt>
      <trkpt lat="33.90839" lon="77.38077">
        <ele>3681.6</ele>
        <time>2015-09-02T08:34:07Z</time>
      </trkpt>
      <trkpt lat="33.9084" lon="77.38077">
        <ele>3681.6</ele>
        <time>2015-09-02T08:34:11Z</time>
      </trkpt>
      <trkpt lat="33.90841" lon="77.38085">
        <ele>3682</ele>
        <time>2015-09-02T08:34:33Z</time>
      </trkpt>
      <trkpt lat="33.90832" lon="77.3808">
        <ele>3682.2</ele>
        <time>2015-09-02T08:34:41Z</time>
      </trkpt>
      <trkpt lat="33.90842" lon="77.3808">
        <ele>3682</ele>
        <time>2015-09-02T08:35:13Z</time>
      </trkpt>
      <trkpt lat="33.90843" lon="77.38083">
        <ele>3681.4</ele>
        <time>2015-09-02T08:35:24Z</time>
      </trkpt>
      <trkpt lat="33.90844" lon="77.38086">
        <ele>3680.6</ele>
        <time>2015-09-02T08:35:52Z</time>
      </trkpt>
      <trkpt lat="33.90845" lon="77.38092">
        <ele>3679.6</ele>
        <time>2015-09-02T08:36:00Z</time>
      </trkpt>
      <trkpt lat="33.90845" lon="77.38094">
        <ele>3679.2</ele>
        <time>2015-09-02T08:36:02Z</time>
      </trkpt>
      <trkpt lat="33.90846" lon="77.38097">
        <ele>3678.8</ele>
        <time>2015-09-02T08:36:04Z</time>
      </trkpt>
      <trkpt lat="33.90846" lon="77.381">
        <ele>3678.4</ele>
        <time>2015-09-02T08:36:07Z</time>
      </trkpt>
      <trkpt lat="33.90849" lon="77.38111">
        <ele>3678.6</ele>
        <time>2015-09-02T08:36:23Z</time>
      </trkpt>
      <trkpt lat="33.9085" lon="77.38113">
        <ele>3678.6</ele>
        <time>2015-09-02T08:36:25Z</time>
      </trkpt>
      <trkpt lat="33.90852" lon="77.38121">
        <ele>3678.2</ele>
        <time>2015-09-02T08:36:34Z</time>
      </trkpt>
      <trkpt lat="33.90852" lon="77.38124">
        <ele>3678.2</ele>
        <time>2015-09-02T08:36:36Z</time>
      </trkpt>
      <trkpt lat="33.90855" lon="77.38129">
        <ele>3678.6</ele>
        <time>2015-09-02T08:36:40Z</time>
      </trkpt>
      <trkpt lat="33.90859" lon="77.38138">
        <ele>3678</ele>
        <time>2015-09-02T08:36:47Z</time>
      </trkpt>
      <trkpt lat="33.90861" lon="77.3814">
        <ele>3678</ele>
        <time>2015-09-02T08:36:49Z</time>
      </trkpt>
      <trkpt lat="33.90859" lon="77.38161">
        <ele>3677.6</ele>
        <time>2015-09-02T08:37:07Z</time>
      </trkpt>
      <trkpt lat="33.90859" lon="77.38165">
        <ele>3677.8</ele>
        <time>2015-09-02T08:37:10Z</time>
      </trkpt>
      <trkpt lat="33.90856" lon="77.3818">
        <ele>3678</ele>
        <time>2015-09-02T08:37:22Z</time>
      </trkpt>
      <trkpt lat="33.90855" lon="77.38184">
        <ele>3678.2</ele>
        <time>2015-09-02T08:37:25Z</time>
      </trkpt>
      <trkpt lat="33.90856" lon="77.38186">
        <ele>3678.4</ele>
        <time>2015-09-02T08:37:27Z</time>
      </trkpt>
      <trkpt lat="33.90857" lon="77.38189">
        <ele>3678.6</ele>
        <time>2015-09-02T08:37:29Z</time>
      </trkpt>
      <trkpt lat="33.90857" lon="77.38191">
        <ele>3678.8</ele>
        <time>2015-09-02T08:37:31Z</time>
      </trkpt>
      <trkpt lat="33.90855" lon="77.38199">
        <ele>3678.8</ele>
        <time>2015-09-02T08:37:38Z</time>
      </trkpt>
      <trkpt lat="33.90854" lon="77.38208">
        <ele>3678.8</ele>
        <time>2015-09-02T08:37:45Z</time>
      </trkpt>
      <trkpt lat="33.90853" lon="77.38213">
        <ele>3678.8</ele>
        <time>2015-09-02T08:37:50Z</time>
      </trkpt>
      <trkpt lat="33.90853" lon="77.38216">
        <ele>3679</ele>
        <time>2015-09-02T08:37:53Z</time>
      </trkpt>
      <trkpt lat="33.90855" lon="77.38225">
        <ele>3679.2</ele>
        <time>2015-09-02T08:37:59Z</time>
      </trkpt>
      <trkpt lat="33.90854" lon="77.38228">
        <ele>3679.4</ele>
        <time>2015-09-02T08:38:01Z</time>
      </trkpt>
      <trkpt lat="33.90851" lon="77.3824">
        <ele>3679</ele>
        <time>2015-09-02T08:38:10Z</time>
      </trkpt>
      <trkpt lat="33.90845" lon="77.38249">
        <ele>3679.4</ele>
        <time>2015-09-02T08:38:21Z</time>
      </trkpt>
      <trkpt lat="33.90843" lon="77.38251">
        <ele>3679.6</ele>
        <time>2015-09-02T08:38:23Z</time>
      </trkpt>
      <trkpt lat="33.90841" lon="77.38252">
        <ele>3679.8</ele>
        <time>2015-09-02T08:38:25Z</time>
      </trkpt>
      <trkpt lat="33.90838" lon="77.38255">
        <ele>3679.8</ele>
        <time>2015-09-02T08:38:29Z</time>
      </trkpt>
      <trkpt lat="33.90835" lon="77.38263">
        <ele>3680</ele>
        <time>2015-09-02T08:38:37Z</time>
      </trkpt>
      <trkpt lat="33.90831" lon="77.38268">
        <ele>3680.2</ele>
        <time>2015-09-02T08:38:42Z</time>
      </trkpt>
      <trkpt lat="33.9083" lon="77.38272">
        <ele>3680</ele>
        <time>2015-09-02T08:38:45Z</time>
      </trkpt>
      <trkpt lat="33.90824" lon="77.38275">
        <ele>3680</ele>
        <time>2015-09-02T08:38:50Z</time>
      </trkpt>
      <trkpt lat="33.90822" lon="77.38277">
        <ele>3680.2</ele>
        <time>2015-09-02T08:38:52Z</time>
      </trkpt>
      <trkpt lat="33.90821" lon="77.38278">
        <ele>3680.2</ele>
        <time>2015-09-02T08:38:54Z</time>
      </trkpt>
      <trkpt lat="33.90819" lon="77.38288">
        <ele>3680</ele>
        <time>2015-09-02T08:39:04Z</time>
      </trkpt>
      <trkpt lat="33.90816" lon="77.3829">
        <ele>3680.2</ele>
        <time>2015-09-02T08:39:06Z</time>
      </trkpt>
      <trkpt lat="33.90813" lon="77.38294">
        <ele>3680.2</ele>
        <time>2015-09-02T08:39:09Z</time>
      </trkpt>
      <trkpt lat="33.9081" lon="77.38295">
        <ele>3680.2</ele>
        <time>2015-09-02T08:39:13Z</time>
      </trkpt>
      <trkpt lat="33.90806" lon="77.38298">
        <ele>3680.4</ele>
        <time>2015-09-02T08:39:20Z</time>
      </trkpt>
      <trkpt lat="33.90804" lon="77.38301">
        <ele>3680.4</ele>
        <time>2015-09-02T08:39:22Z</time>
      </trkpt>
      <trkpt lat="33.90804" lon="77.38303">
        <ele>3680.4</ele>
        <time>2015-09-02T08:39:23Z</time>
      </trkpt>
      <trkpt lat="33.90801" lon="77.3831">
        <ele>3680.8</ele>
        <time>2015-09-02T08:39:28Z</time>
      </trkpt>
      <trkpt lat="33.90799" lon="77.38315">
        <ele>3681</ele>
        <time>2015-09-02T08:39:32Z</time>
      </trkpt>
      <trkpt lat="33.90798" lon="77.38317">
        <ele>3681</ele>
        <time>2015-09-02T08:39:34Z</time>
      </trkpt>
      <trkpt lat="33.90796" lon="77.38322">
        <ele>3681</ele>
        <time>2015-09-02T08:39:39Z</time>
      </trkpt>
      <trkpt lat="33.90794" lon="77.38327">
        <ele>3681</ele>
        <time>2015-09-02T08:39:42Z</time>
      </trkpt>
      <trkpt lat="33.90795" lon="77.38331">
        <ele>3681.2</ele>
        <time>2015-09-02T08:39:45Z</time>
      </trkpt>
      <trkpt lat="33.90795" lon="77.38337">
        <ele>3681.2</ele>
        <time>2015-09-02T08:39:49Z</time>
      </trkpt>
      <trkpt lat="33.90794" lon="77.38339">
        <ele>3681.2</ele>
        <time>2015-09-02T08:39:51Z</time>
      </trkpt>
      <trkpt lat="33.90794" lon="77.38339">
        <ele>3681.6</ele>
        <time>2015-09-02T08:39:54Z</time>
      </trkpt>
      <trkpt lat="33.90785" lon="77.38356">
        <ele>3681.6</ele>
        <time>2015-09-02T08:40:16Z</time>
      </trkpt>
      <trkpt lat="33.90784" lon="77.38359">
        <ele>3681.6</ele>
        <time>2015-09-02T08:40:19Z</time>
      </trkpt>
      <trkpt lat="33.9078" lon="77.38367">
        <ele>3681.4</ele>
        <time>2015-09-02T08:40:27Z</time>
      </trkpt>
      <trkpt lat="33.90779" lon="77.38369">
        <ele>3681.4</ele>
        <time>2015-09-02T08:40:29Z</time>
      </trkpt>
      <trkpt lat="33.90767" lon="77.38386">
        <ele>3681.8</ele>
        <time>2015-09-02T08:40:42Z</time>
      </trkpt>
      <trkpt lat="33.90764" lon="77.38389">
        <ele>3682</ele>
        <time>2015-09-02T08:40:46Z</time>
      </trkpt>
      <trkpt lat="33.90762" lon="77.38391">
        <ele>3682</ele>
        <time>2015-09-02T08:40:49Z</time>
      </trkpt>
      <trkpt lat="33.90761" lon="77.38393">
        <ele>3682</ele>
        <time>2015-09-02T08:40:52Z</time>
      </trkpt>
      <trkpt lat="33.90758" lon="77.38396">
        <ele>3682.2</ele>
        <time>2015-09-02T08:40:58Z</time>
      </trkpt>
      <trkpt lat="33.90753" lon="77.38398">
        <ele>3682.4</ele>
        <time>2015-09-02T08:41:04Z</time>
      </trkpt>
      <trkpt lat="33.9075" lon="77.38401">
        <ele>3682.2</ele>
        <time>2015-09-02T08:41:08Z</time>
      </trkpt>
      <trkpt lat="33.9075" lon="77.384">
        <ele>3682.2</ele>
        <time>2015-09-02T08:41:10Z</time>
      </trkpt>
      <trkpt lat="33.90747" lon="77.38411">
        <ele>3682</ele>
        <time>2015-09-02T08:41:23Z</time>
      </trkpt>
      <trkpt lat="33.90746" lon="77.38412">
        <ele>3682</ele>
        <time>2015-09-02T08:41:25Z</time>
      </trkpt>
      <trkpt lat="33.90743" lon="77.38412">
        <ele>3682</ele>
        <time>2015-09-02T08:41:29Z</time>
      </trkpt>
      <trkpt lat="33.9074" lon="77.38414">
        <ele>3682.4</ele>
        <time>2015-09-02T08:41:33Z</time>
      </trkpt>
      <trkpt lat="33.90739" lon="77.38418">
        <ele>3682.6</ele>
        <time>2015-09-02T08:41:37Z</time>
      </trkpt>
      <trkpt lat="33.9073" lon="77.38438">
        <ele>3682.8</ele>
        <time>2015-09-02T08:41:56Z</time>
      </trkpt>
      <trkpt lat="33.90722" lon="77.38444">
        <ele>3683</ele>
        <time>2015-09-02T08:42:03Z</time>
      </trkpt>
      <trkpt lat="33.90714" lon="77.38455">
        <ele>3682.8</ele>
        <time>2015-09-02T08:42:14Z</time>
      </trkpt>
      <trkpt lat="33.90713" lon="77.38456">
        <ele>3683</ele>
        <time>2015-09-02T08:42:16Z</time>
      </trkpt>
      <trkpt lat="33.90708" lon="77.3846">
        <ele>3683.6</ele>
        <time>2015-09-02T08:42:21Z</time>
      </trkpt>
      <trkpt lat="33.90703" lon="77.38466">
        <ele>3684</ele>
        <time>2015-09-02T08:42:29Z</time>
      </trkpt>
      <trkpt lat="33.90701" lon="77.38467">
        <ele>3684</ele>
        <time>2015-09-02T08:42:31Z</time>
      </trkpt>
      <trkpt lat="33.90695" lon="77.38473">
        <ele>3684</ele>
        <time>2015-09-02T08:42:38Z</time>
      </trkpt>
      <trkpt lat="33.90686" lon="77.38481">
        <ele>3684.4</ele>
        <time>2015-09-02T08:42:48Z</time>
      </trkpt>
      <trkpt lat="33.90684" lon="77.38484">
        <ele>3684.6</ele>
        <time>2015-09-02T08:42:52Z</time>
      </trkpt>
      <trkpt lat="33.90673" lon="77.38504">
        <ele>3685.2</ele>
        <time>2015-09-02T08:43:12Z</time>
      </trkpt>
      <trkpt lat="33.90671" lon="77.38505">
        <ele>3685.2</ele>
        <time>2015-09-02T08:43:14Z</time>
      </trkpt>
      <trkpt lat="33.90667" lon="77.3851">
        <ele>3685</ele>
        <time>2015-09-02T08:43:19Z</time>
      </trkpt>
      <trkpt lat="33.90665" lon="77.3851">
        <ele>3685.2</ele>
        <time>2015-09-02T08:43:21Z</time>
      </trkpt>
      <trkpt lat="33.90664" lon="77.3851">
        <ele>3685.2</ele>
        <time>2015-09-02T08:43:23Z</time>
      </trkpt>
      <trkpt lat="33.90653" lon="77.38517">
        <ele>3685.2</ele>
        <time>2015-09-02T08:43:37Z</time>
      </trkpt>
      <trkpt lat="33.9064" lon="77.38532">
        <ele>3685.4</ele>
        <time>2015-09-02T08:43:52Z</time>
      </trkpt>
      <trkpt lat="33.90636" lon="77.38531">
        <ele>3685.8</ele>
        <time>2015-09-02T08:43:57Z</time>
      </trkpt>
      <trkpt lat="33.90622" lon="77.38542">
        <ele>3686.6</ele>
        <time>2015-09-02T08:44:12Z</time>
      </trkpt>
      <trkpt lat="33.90615" lon="77.38552">
        <ele>3686.6</ele>
        <time>2015-09-02T08:44:21Z</time>
      </trkpt>
      <trkpt lat="33.90613" lon="77.38553">
        <ele>3686.6</ele>
        <time>2015-09-02T08:44:23Z</time>
      </trkpt>
      <trkpt lat="33.9061" lon="77.38556">
        <ele>3686.4</ele>
        <time>2015-09-02T08:44:28Z</time>
      </trkpt>
      <trkpt lat="33.90602" lon="77.38559">
        <ele>3686.6</ele>
        <time>2015-09-02T08:44:36Z</time>
      </trkpt>
      <trkpt lat="33.90597" lon="77.3856">
        <ele>3686.8</ele>
        <time>2015-09-02T08:44:40Z</time>
      </trkpt>
      <trkpt lat="33.90595" lon="77.38563">
        <ele>3687</ele>
        <time>2015-09-02T08:44:44Z</time>
      </trkpt>
      <trkpt lat="33.90588" lon="77.38584">
        <ele>3687.2</ele>
        <time>2015-09-02T08:45:07Z</time>
      </trkpt>
      <trkpt lat="33.90585" lon="77.38588">
        <ele>3687.2</ele>
        <time>2015-09-02T08:45:11Z</time>
      </trkpt>
      <trkpt lat="33.90582" lon="77.38592">
        <ele>3687.2</ele>
        <time>2015-09-02T08:45:15Z</time>
      </trkpt>
      <trkpt lat="33.90572" lon="77.3861">
        <ele>3687.2</ele>
        <time>2015-09-02T08:45:27Z</time>
      </trkpt>
      <trkpt lat="33.90571" lon="77.38611">
        <ele>3687.2</ele>
        <time>2015-09-02T08:45:28Z</time>
      </trkpt>
      <trkpt lat="33.90563" lon="77.38621">
        <ele>3687.2</ele>
        <time>2015-09-02T08:45:37Z</time>
      </trkpt>
      <trkpt lat="33.90561" lon="77.38628">
        <ele>3687.2</ele>
        <time>2015-09-02T08:45:41Z</time>
      </trkpt>
      <trkpt lat="33.9056" lon="77.38631">
        <ele>3687.2</ele>
        <time>2015-09-02T08:45:43Z</time>
      </trkpt>
      <trkpt lat="33.90544" lon="77.38637">
        <ele>3686.8</ele>
        <time>2015-09-02T08:46:00Z</time>
      </trkpt>
      <trkpt lat="33.90541" lon="77.38631">
        <ele>3686.8</ele>
        <time>2015-09-02T08:46:05Z</time>
      </trkpt>
      <trkpt lat="33.9054" lon="77.38629">
        <ele>3687</ele>
        <time>2015-09-02T08:46:07Z</time>
      </trkpt>
      <trkpt lat="33.90538" lon="77.38628">
        <ele>3687</ele>
        <time>2015-09-02T08:46:09Z</time>
      </trkpt>
      <trkpt lat="33.90528" lon="77.3862">
        <ele>3686.8</ele>
        <time>2015-09-02T08:46:23Z</time>
      </trkpt>
      <trkpt lat="33.90527" lon="77.3862">
        <ele>3687</ele>
        <time>2015-09-02T08:46:25Z</time>
      </trkpt>
      <trkpt lat="33.90513" lon="77.38623">
        <ele>3687.6</ele>
        <time>2015-09-02T08:46:42Z</time>
      </trkpt>
      <trkpt lat="33.90506" lon="77.38631">
        <ele>3687.8</ele>
        <time>2015-09-02T08:46:48Z</time>
      </trkpt>
      <trkpt lat="33.90505" lon="77.38631">
        <ele>3687.8</ele>
        <time>2015-09-02T08:46:50Z</time>
      </trkpt>
      <trkpt lat="33.90501" lon="77.38632">
        <ele>3688</ele>
        <time>2015-09-02T08:46:55Z</time>
      </trkpt>
      <trkpt lat="33.90497" lon="77.38635">
        <ele>3688</ele>
        <time>2015-09-02T08:46:58Z</time>
      </trkpt>
      <trkpt lat="33.90483" lon="77.3865">
        <ele>3688</ele>
        <time>2015-09-02T08:47:12Z</time>
      </trkpt>
      <trkpt lat="33.90482" lon="77.38652">
        <ele>3688</ele>
        <time>2015-09-02T08:47:14Z</time>
      </trkpt>
      <trkpt lat="33.90481" lon="77.38654">
        <ele>3687.8</ele>
        <time>2015-09-02T08:47:16Z</time>
      </trkpt>
      <trkpt lat="33.90479" lon="77.38654">
        <ele>3687.8</ele>
        <time>2015-09-02T08:47:18Z</time>
      </trkpt>
      <trkpt lat="33.90476" lon="77.38656">
        <ele>3688</ele>
        <time>2015-09-02T08:47:21Z</time>
      </trkpt>
      <trkpt lat="33.90472" lon="77.38658">
        <ele>3688.4</ele>
        <time>2015-09-02T08:47:26Z</time>
      </trkpt>
      <trkpt lat="33.90468" lon="77.38659">
        <ele>3688.4</ele>
        <time>2015-09-02T08:47:30Z</time>
      </trkpt>
      <trkpt lat="33.90464" lon="77.38659">
        <ele>3688.4</ele>
        <time>2015-09-02T08:47:33Z</time>
      </trkpt>
      <trkpt lat="33.90458" lon="77.38659">
        <ele>3688.8</ele>
        <time>2015-09-02T08:47:39Z</time>
      </trkpt>
      <trkpt lat="33.90446" lon="77.38658">
        <ele>3688.8</ele>
        <time>2015-09-02T08:47:50Z</time>
      </trkpt>
      <trkpt lat="33.90444" lon="77.38656">
        <ele>3689</ele>
        <time>2015-09-02T08:47:52Z</time>
      </trkpt>
      <trkpt lat="33.9044" lon="77.38659">
        <ele>3689</ele>
        <time>2015-09-02T08:47:56Z</time>
      </trkpt>
      <trkpt lat="33.90436" lon="77.38661">
        <ele>3688.8</ele>
        <time>2015-09-02T08:47:59Z</time>
      </trkpt>
      <trkpt lat="33.9043" lon="77.38665">
        <ele>3688.6</ele>
        <time>2015-09-02T08:48:07Z</time>
      </trkpt>
      <trkpt lat="33.90429" lon="77.38664">
        <ele>3688.4</ele>
        <time>2015-09-02T08:48:10Z</time>
      </trkpt>
      <trkpt lat="33.90426" lon="77.38667">
        <ele>3688.6</ele>
        <time>2015-09-02T08:48:13Z</time>
      </trkpt>
      <trkpt lat="33.90423" lon="77.38666">
        <ele>3688.6</ele>
        <time>2015-09-02T08:48:18Z</time>
      </trkpt>
      <trkpt lat="33.90419" lon="77.38665">
        <ele>3689.2</ele>
        <time>2015-09-02T08:48:22Z</time>
      </trkpt>
      <trkpt lat="33.90413" lon="77.38667">
        <ele>3689.6</ele>
        <time>2015-09-02T08:48:28Z</time>
      </trkpt>
      <trkpt lat="33.90409" lon="77.38672">
        <ele>3689.8</ele>
        <time>2015-09-02T08:48:33Z</time>
      </trkpt>
      <trkpt lat="33.90407" lon="77.38672">
        <ele>3690</ele>
        <time>2015-09-02T08:48:36Z</time>
      </trkpt>
      <trkpt lat="33.90393" lon="77.38673">
        <ele>3690</ele>
        <time>2015-09-02T08:48:48Z</time>
      </trkpt>
      <trkpt lat="33.90389" lon="77.38679">
        <ele>3690</ele>
        <time>2015-09-02T08:48:52Z</time>
      </trkpt>
      <trkpt lat="33.90384" lon="77.38684">
        <ele>3690</ele>
        <time>2015-09-02T08:48:57Z</time>
      </trkpt>
      <trkpt lat="33.90369" lon="77.38692">
        <ele>3690.2</ele>
        <time>2015-09-02T08:49:08Z</time>
      </trkpt>
      <trkpt lat="33.90358" lon="77.38695">
        <ele>3689.6</ele>
        <time>2015-09-02T08:49:21Z</time>
      </trkpt>
      <trkpt lat="33.90341" lon="77.38705">
        <ele>3689.4</ele>
        <time>2015-09-02T08:49:35Z</time>
      </trkpt>
      <trkpt lat="33.9034" lon="77.38704">
        <ele>3689.4</ele>
        <time>2015-09-02T08:49:36Z</time>
      </trkpt>
      <trkpt lat="33.90322" lon="77.38704">
        <ele>3689.8</ele>
        <time>2015-09-02T08:50:01Z</time>
      </trkpt>
      <trkpt lat="33.90317" lon="77.38705">
        <ele>3690</ele>
        <time>2015-09-02T08:50:07Z</time>
      </trkpt>
      <trkpt lat="33.90311" lon="77.38706">
        <ele>3690</ele>
        <time>2015-09-02T08:50:11Z</time>
      </trkpt>
      <trkpt lat="33.90309" lon="77.38705">
        <ele>3690.2</ele>
        <time>2015-09-02T08:50:13Z</time>
      </trkpt>
      <trkpt lat="33.90305" lon="77.3871">
        <ele>3690.6</ele>
        <time>2015-09-02T08:50:19Z</time>
      </trkpt>
      <trkpt lat="33.903" lon="77.38709">
        <ele>3690.8</ele>
        <time>2015-09-02T08:50:23Z</time>
      </trkpt>
      <trkpt lat="33.90296" lon="77.3871">
        <ele>3690.8</ele>
        <time>2015-09-02T08:50:28Z</time>
      </trkpt>
      <trkpt lat="33.90293" lon="77.38711">
        <ele>3690.8</ele>
        <time>2015-09-02T08:50:30Z</time>
      </trkpt>
      <trkpt lat="33.90291" lon="77.38708">
        <ele>3690.6</ele>
        <time>2015-09-02T08:50:35Z</time>
      </trkpt>
      <trkpt lat="33.90289" lon="77.38706">
        <ele>3690.6</ele>
        <time>2015-09-02T08:50:37Z</time>
      </trkpt>
      <trkpt lat="33.90287" lon="77.38701">
        <ele>3690.8</ele>
        <time>2015-09-02T08:50:43Z</time>
      </trkpt>
      <trkpt lat="33.90284" lon="77.38701">
        <ele>3690.8</ele>
        <time>2015-09-02T08:50:45Z</time>
      </trkpt>
      <trkpt lat="33.90283" lon="77.38701">
        <ele>3691</ele>
        <time>2015-09-02T08:50:46Z</time>
      </trkpt>
      <trkpt lat="33.90278" lon="77.38701">
        <ele>3691.2</ele>
        <time>2015-09-02T08:50:52Z</time>
      </trkpt>
      <trkpt lat="33.90274" lon="77.38703">
        <ele>3691.4</ele>
        <time>2015-09-02T08:50:56Z</time>
      </trkpt>
      <trkpt lat="33.90273" lon="77.38705">
        <ele>3691.4</ele>
        <time>2015-09-02T08:50:58Z</time>
      </trkpt>
      <trkpt lat="33.90268" lon="77.38711">
        <ele>3691.4</ele>
        <time>2015-09-02T08:51:04Z</time>
      </trkpt>
      <trkpt lat="33.90266" lon="77.38714">
        <ele>3691.4</ele>
        <time>2015-09-02T08:51:06Z</time>
      </trkpt>
      <trkpt lat="33.9026" lon="77.38722">
        <ele>3692</ele>
        <time>2015-09-02T08:51:14Z</time>
      </trkpt>
      <trkpt lat="33.90246" lon="77.3874">
        <ele>3692.4</ele>
        <time>2015-09-02T08:51:22Z</time>
      </trkpt>
      <trkpt lat="33.90233" lon="77.38754">
        <ele>3692.6</ele>
        <time>2015-09-02T08:51:29Z</time>
      </trkpt>
      <trkpt lat="33.90221" lon="77.38751">
        <ele>3692.2</ele>
        <time>2015-09-02T08:51:40Z</time>
      </trkpt>
      <trkpt lat="33.90213" lon="77.38749">
        <ele>3692.4</ele>
        <time>2015-09-02T08:51:48Z</time>
      </trkpt>
      <trkpt lat="33.90208" lon="77.38741">
        <ele>3692.6</ele>
        <time>2015-09-02T08:52:00Z</time>
      </trkpt>
      <trkpt lat="33.90198" lon="77.38744">
        <ele>3693</ele>
        <time>2015-09-02T08:52:12Z</time>
      </trkpt>
      <trkpt lat="33.90187" lon="77.38747">
        <ele>3693.6</ele>
        <time>2015-09-02T08:52:23Z</time>
      </trkpt>
      <trkpt lat="33.90182" lon="77.38749">
        <ele>3693.6</ele>
        <time>2015-09-02T08:52:26Z</time>
      </trkpt>
      <trkpt lat="33.90173" lon="77.38755">
        <ele>3694</ele>
        <time>2015-09-02T08:52:33Z</time>
      </trkpt>
      <trkpt lat="33.9017" lon="77.38757">
        <ele>3693.8</ele>
        <time>2015-09-02T08:52:35Z</time>
      </trkpt>
      <trkpt lat="33.90166" lon="77.38759">
        <ele>3694</ele>
        <time>2015-09-02T08:52:39Z</time>
      </trkpt>
      <trkpt lat="33.90164" lon="77.38763">
        <ele>3694.6</ele>
        <time>2015-09-02T08:52:43Z</time>
      </trkpt>
      <trkpt lat="33.9016" lon="77.38765">
        <ele>3695.2</ele>
        <time>2015-09-02T08:52:47Z</time>
      </trkpt>
      <trkpt lat="33.90153" lon="77.38767">
        <ele>3695.4</ele>
        <time>2015-09-02T08:52:52Z</time>
      </trkpt>
      <trkpt lat="33.90144" lon="77.3876">
        <ele>3695</ele>
        <time>2015-09-02T08:53:01Z</time>
      </trkpt>
      <trkpt lat="33.90137" lon="77.38756">
        <ele>3695.4</ele>
        <time>2015-09-02T08:53:10Z</time>
      </trkpt>
      <trkpt lat="33.90134" lon="77.38756">
        <ele>3695.4</ele>
        <time>2015-09-02T08:53:12Z</time>
      </trkpt>
      <trkpt lat="33.90122" lon="77.38761">
        <ele>3695.4</ele>
        <time>2015-09-02T08:53:23Z</time>
      </trkpt>
      <trkpt lat="33.90119" lon="77.38761">
        <ele>3695.6</ele>
        <time>2015-09-02T08:53:26Z</time>
      </trkpt>
      <trkpt lat="33.90112" lon="77.38766">
        <ele>3695.8</ele>
        <time>2015-09-02T08:53:31Z</time>
      </trkpt>
      <trkpt lat="33.90107" lon="77.38768">
        <ele>3696.2</ele>
        <time>2015-09-02T08:53:36Z</time>
      </trkpt>
      <trkpt lat="33.90097" lon="77.38763">
        <ele>3696.2</ele>
        <time>2015-09-02T08:53:48Z</time>
      </trkpt>
      <trkpt lat="33.9009" lon="77.3876">
        <ele>3696.8</ele>
        <time>2015-09-02T08:53:56Z</time>
      </trkpt>
      <trkpt lat="33.90086" lon="77.38758">
        <ele>3697.2</ele>
        <time>2015-09-02T08:54:02Z</time>
      </trkpt>
      <trkpt lat="33.90071" lon="77.38753">
        <ele>3696.4</ele>
        <time>2015-09-02T08:54:29Z</time>
      </trkpt>
      <trkpt lat="33.90065" lon="77.38748">
        <ele>3696.4</ele>
        <time>2015-09-02T08:54:35Z</time>
      </trkpt>
      <trkpt lat="33.90062" lon="77.38747">
        <ele>3696.4</ele>
        <time>2015-09-02T08:54:37Z</time>
      </trkpt>
      <trkpt lat="33.90058" lon="77.38745">
        <ele>3696.6</ele>
        <time>2015-09-02T08:54:41Z</time>
      </trkpt>
      <trkpt lat="33.90051" lon="77.38748">
        <ele>3697</ele>
        <time>2015-09-02T08:54:47Z</time>
      </trkpt>
      <trkpt lat="33.9005" lon="77.38749">
        <ele>3697.2</ele>
        <time>2015-09-02T08:54:49Z</time>
      </trkpt>
      <trkpt lat="33.90049" lon="77.38749">
        <ele>3697.2</ele>
        <time>2015-09-02T08:54:50Z</time>
      </trkpt>
      <trkpt lat="33.90044" lon="77.3875">
        <ele>3698.4</ele>
        <time>2015-09-02T08:54:58Z</time>
      </trkpt>
      <trkpt lat="33.90038" lon="77.38746">
        <ele>3699.4</ele>
        <time>2015-09-02T08:55:09Z</time>
      </trkpt>
      <trkpt lat="33.90031" lon="77.38738">
        <ele>3700.2</ele>
        <time>2015-09-02T08:55:20Z</time>
      </trkpt>
      <trkpt lat="33.90024" lon="77.38739">
        <ele>3700.2</ele>
        <time>2015-09-02T08:55:28Z</time>
      </trkpt>
      <trkpt lat="33.90023" lon="77.38738">
        <ele>3700.6</ele>
        <time>2015-09-02T08:55:32Z</time>
      </trkpt>
      <trkpt lat="33.90016" lon="77.38743">
        <ele>3700.8</ele>
        <time>2015-09-02T08:55:37Z</time>
      </trkpt>
      <trkpt lat="33.90013" lon="77.38746">
        <ele>3700.8</ele>
        <time>2015-09-02T08:55:40Z</time>
      </trkpt>
      <trkpt lat="33.90012" lon="77.38748">
        <ele>3700.8</ele>
        <time>2015-09-02T08:55:44Z</time>
      </trkpt>
      <trkpt lat="33.90013" lon="77.38746">
        <ele>3701.4</ele>
        <time>2015-09-02T08:56:11Z</time>
      </trkpt>
      <trkpt lat="33.90013" lon="77.38752">
        <ele>3701.4</ele>
        <time>2015-09-02T08:56:14Z</time>
      </trkpt>
      <trkpt lat="33.90012" lon="77.3875">
        <ele>3701.2</ele>
        <time>2015-09-02T08:56:16Z</time>
      </trkpt>
      <trkpt lat="33.90014" lon="77.38744">
        <ele>3701.2</ele>
        <time>2015-09-02T08:56:42Z</time>
      </trkpt>
      <trkpt lat="33.9001" lon="77.38741">
        <ele>3701</ele>
        <time>2015-09-02T08:56:51Z</time>
      </trkpt>
      <trkpt lat="33.90008" lon="77.38744">
        <ele>3701</ele>
        <time>2015-09-02T08:56:54Z</time>
      </trkpt>
      <trkpt lat="33.89999" lon="77.38749">
        <ele>3701.6</ele>
        <time>2015-09-02T08:57:07Z</time>
      </trkpt>
      <trkpt lat="33.89981" lon="77.38757">
        <ele>3702.4</ele>
        <time>2015-09-02T08:57:34Z</time>
      </trkpt>
      <trkpt lat="33.89974" lon="77.38761">
        <ele>3700.4</ele>
        <time>2015-09-02T08:57:47Z</time>
      </trkpt>
      <trkpt lat="33.89967" lon="77.38771">
        <ele>3700</ele>
        <time>2015-09-02T08:57:59Z</time>
      </trkpt>
      <trkpt lat="33.8995" lon="77.38767">
        <ele>3700.4</ele>
        <time>2015-09-02T08:58:13Z</time>
      </trkpt>
      <trkpt lat="33.89945" lon="77.38767">
        <ele>3700.4</ele>
        <time>2015-09-02T08:58:15Z</time>
      </trkpt>
      <trkpt lat="33.89932" lon="77.38765">
        <ele>3701.4</ele>
        <time>2015-09-02T08:58:32Z</time>
      </trkpt>
      <trkpt lat="33.89924" lon="77.3876">
        <ele>3702.4</ele>
        <time>2015-09-02T08:58:41Z</time>
      </trkpt>
      <trkpt lat="33.89923" lon="77.38759">
        <ele>3702.6</ele>
        <time>2015-09-02T08:58:42Z</time>
      </trkpt>
      <trkpt lat="33.8992" lon="77.38759">
        <ele>3702.8</ele>
        <time>2015-09-02T08:58:44Z</time>
      </trkpt>
      <trkpt lat="33.89914" lon="77.38758">
        <ele>3703.4</ele>
        <time>2015-09-02T08:58:53Z</time>
      </trkpt>
      <trkpt lat="33.89912" lon="77.38757">
        <ele>3704</ele>
        <time>2015-09-02T08:58:57Z</time>
      </trkpt>
      <trkpt lat="33.89909" lon="77.38757">
        <ele>3704.6</ele>
        <time>2015-09-02T08:59:02Z</time>
      </trkpt>
      <trkpt lat="33.89903" lon="77.38757">
        <ele>3705.6</ele>
        <time>2015-09-02T08:59:12Z</time>
      </trkpt>
      <trkpt lat="33.89898" lon="77.38754">
        <ele>3706.8</ele>
        <time>2015-09-02T08:59:20Z</time>
      </trkpt>
      <trkpt lat="33.89892" lon="77.38747">
        <ele>3707.8</ele>
        <time>2015-09-02T08:59:33Z</time>
      </trkpt>
      <trkpt lat="33.89878" lon="77.38756">
        <ele>3708.8</ele>
        <time>2015-09-02T08:59:45Z</time>
      </trkpt>
      <trkpt lat="33.89872" lon="77.38758">
        <ele>3709.8</ele>
        <time>2015-09-02T08:59:54Z</time>
      </trkpt>
      <trkpt lat="33.8987" lon="77.38759">
        <ele>3710</ele>
        <time>2015-09-02T08:59:56Z</time>
      </trkpt>
      <trkpt lat="33.89867" lon="77.38757">
        <ele>3711</ele>
        <time>2015-09-02T09:00:02Z</time>
      </trkpt>
      <trkpt lat="33.89863" lon="77.38756">
        <ele>3712</ele>
        <time>2015-09-02T09:00:09Z</time>
      </trkpt>
      <trkpt lat="33.89858" lon="77.38756">
        <ele>3713</ele>
        <time>2015-09-02T09:00:18Z</time>
      </trkpt>
      <trkpt lat="33.89857" lon="77.38756">
        <ele>3713</ele>
        <time>2015-09-02T09:00:19Z</time>
      </trkpt>
      <trkpt lat="33.89853" lon="77.38756">
        <ele>3713.4</ele>
        <time>2015-09-02T09:00:25Z</time>
      </trkpt>
      <trkpt lat="33.89847" lon="77.38762">
        <ele>3714</ele>
        <time>2015-09-02T09:00:38Z</time>
      </trkpt>
      <trkpt lat="33.89846" lon="77.38762">
        <ele>3714</ele>
        <time>2015-09-02T09:00:41Z</time>
      </trkpt>
      <trkpt lat="33.89838" lon="77.38765">
        <ele>3715.2</ele>
        <time>2015-09-02T09:00:52Z</time>
      </trkpt>
      <trkpt lat="33.89837" lon="77.38766">
        <ele>3715.4</ele>
        <time>2015-09-02T09:00:53Z</time>
      </trkpt>
      <trkpt lat="33.89833" lon="77.38768">
        <ele>3716.2</ele>
        <time>2015-09-02T09:01:02Z</time>
      </trkpt>
      <trkpt lat="33.89825" lon="77.38786">
        <ele>3717</ele>
        <time>2015-09-02T09:01:23Z</time>
      </trkpt>
      <trkpt lat="33.8982" lon="77.38803">
        <ele>3717.4</ele>
        <time>2015-09-02T09:01:40Z</time>
      </trkpt>
      <trkpt lat="33.89818" lon="77.38806">
        <ele>3718.6</ele>
        <time>2015-09-02T09:01:46Z</time>
      </trkpt>
      <trkpt lat="33.89822" lon="77.38809">
        <ele>3717.6</ele>
        <time>2015-09-02T09:01:57Z</time>
      </trkpt>
      <trkpt lat="33.89826" lon="77.38807">
        <ele>3717.4</ele>
        <time>2015-09-02T09:02:04Z</time>
      </trkpt>
      <trkpt lat="33.89823" lon="77.38813">
        <ele>3717.6</ele>
        <time>2015-09-02T09:02:18Z</time>
      </trkpt>
      <trkpt lat="33.89824" lon="77.38815">
        <ele>3717.6</ele>
        <time>2015-09-02T09:02:20Z</time>
      </trkpt>
      <trkpt lat="33.89813" lon="77.38823">
        <ele>3718.2</ele>
        <time>2015-09-02T09:02:43Z</time>
      </trkpt>
      <trkpt lat="33.89812" lon="77.38823">
        <ele>3718.6</ele>
        <time>2015-09-02T09:02:44Z</time>
      </trkpt>
      <trkpt lat="33.89811" lon="77.38824">
        <ele>3718.8</ele>
        <time>2015-09-02T09:02:46Z</time>
      </trkpt>
      <trkpt lat="33.89809" lon="77.38835">
        <ele>3719.6</ele>
        <time>2015-09-02T09:03:26Z</time>
      </trkpt>
      <trkpt lat="33.89804" lon="77.38838">
        <ele>3719.6</ele>
        <time>2015-09-02T09:03:29Z</time>
      </trkpt>
      <trkpt lat="33.89802" lon="77.38837">
        <ele>3719</ele>
        <time>2015-09-02T09:03:38Z</time>
      </trkpt>
      <trkpt lat="33.89807" lon="77.38837">
        <ele>3718.4</ele>
        <time>2015-09-02T09:03:51Z</time>
      </trkpt>
      <trkpt lat="33.89808" lon="77.38839">
        <ele>3719.6</ele>
        <time>2015-09-02T09:03:58Z</time>
      </trkpt>
      <trkpt lat="33.89808" lon="77.38835">
        <ele>3718.6</ele>
        <time>2015-09-02T09:04:20Z</time>
      </trkpt>
      <trkpt lat="33.89808" lon="77.38838">
        <ele>3719.8</ele>
        <time>2015-09-02T09:04:40Z</time>
      </trkpt>
      <trkpt lat="33.89805" lon="77.38841">
        <ele>3720.2</ele>
        <time>2015-09-02T09:05:33Z</time>
      </trkpt>
      <trkpt lat="33.89808" lon="77.38837">
        <ele>3720.2</ele>
        <time>2015-09-02T09:05:38Z</time>
      </trkpt>
      <trkpt lat="33.89803" lon="77.38843">
        <ele>3720.4</ele>
        <time>2015-09-02T09:06:09Z</time>
      </trkpt>
      <trkpt lat="33.89805" lon="77.38846">
        <ele>3720</ele>
        <time>2015-09-02T09:06:12Z</time>
      </trkpt>
      <trkpt lat="33.89809" lon="77.38842">
        <ele>3720.6</ele>
        <time>2015-09-02T09:06:51Z</time>
      </trkpt>
      <trkpt lat="33.8981" lon="77.38839">
        <ele>3719.6</ele>
        <time>2015-09-02T09:07:02Z</time>
      </trkpt>
      <trkpt lat="33.89813" lon="77.38838">
        <ele>3719.2</ele>
        <time>2015-09-02T09:07:05Z</time>
      </trkpt>
      <trkpt lat="33.89814" lon="77.38838">
        <ele>3719</ele>
        <time>2015-09-02T09:07:07Z</time>
      </trkpt>
      <trkpt lat="33.89811" lon="77.38838">
        <ele>3720.8</ele>
        <time>2015-09-02T09:07:14Z</time>
      </trkpt>
      <trkpt lat="33.89806" lon="77.38843">
        <ele>3719.8</ele>
        <time>2015-09-02T09:07:32Z</time>
      </trkpt>
      <trkpt lat="33.89808" lon="77.3886">
        <ele>3718.6</ele>
        <time>2015-09-02T09:08:09Z</time>
      </trkpt>
      <trkpt lat="33.89807" lon="77.38853">
        <ele>3718.4</ele>
        <time>2015-09-02T09:08:15Z</time>
      </trkpt>
      <trkpt lat="33.89804" lon="77.38842">
        <ele>3719.6</ele>
        <time>2015-09-02T09:08:27Z</time>
      </trkpt>
      <trkpt lat="33.89809" lon="77.3884">
        <ele>3719.8</ele>
        <time>2015-09-02T09:08:44Z</time>
      </trkpt>
      <trkpt lat="33.89809" lon="77.38837">
        <ele>3720.2</ele>
        <time>2015-09-02T09:09:02Z</time>
      </trkpt>
      <trkpt lat="33.89808" lon="77.38838">
        <ele>3720.2</ele>
        <time>2015-09-02T09:09:04Z</time>
      </trkpt>
      <trkpt lat="33.89808" lon="77.38838">
        <ele>3646.6</ele>
        <time>2015-09-02T09:09:09Z</time>
      </trkpt>
      <trkpt lat="33.89784" lon="77.3912">
        <ele>3713.2</ele>
        <time>2015-09-02T09:14:11Z</time>
      </trkpt>
      <trkpt lat="33.89785" lon="77.39129">
        <ele>3713.2</ele>
        <time>2015-09-02T09:14:18Z</time>
      </trkpt>
      <trkpt lat="33.89783" lon="77.39134">
        <ele>3713.4</ele>
        <time>2015-09-02T09:14:22Z</time>
      </trkpt>
      <trkpt lat="33.89782" lon="77.39139">
        <ele>3713.4</ele>
        <time>2015-09-02T09:14:26Z</time>
      </trkpt>
      <trkpt lat="33.89782" lon="77.39143">
        <ele>3713.4</ele>
        <time>2015-09-02T09:14:29Z</time>
      </trkpt>
      <trkpt lat="33.89778" lon="77.39151">
        <ele>3713.4</ele>
        <time>2015-09-02T09:14:36Z</time>
      </trkpt>
      <trkpt lat="33.89776" lon="77.39154">
        <ele>3713.2</ele>
        <time>2015-09-02T09:14:40Z</time>
      </trkpt>
      <trkpt lat="33.89775" lon="77.3916">
        <ele>3713.2</ele>
        <time>2015-09-02T09:14:43Z</time>
      </trkpt>
      <trkpt lat="33.89772" lon="77.39181">
        <ele>3714</ele>
        <time>2015-09-02T09:14:57Z</time>
      </trkpt>
      <trkpt lat="33.89776" lon="77.39197">
        <ele>3713.8</ele>
        <time>2015-09-02T09:15:10Z</time>
      </trkpt>
      <trkpt lat="33.89776" lon="77.39199">
        <ele>3713.6</ele>
        <time>2015-09-02T09:15:13Z</time>
      </trkpt>
      <trkpt lat="33.89775" lon="77.39202">
        <ele>3713.6</ele>
        <time>2015-09-02T09:15:15Z</time>
      </trkpt>
      <trkpt lat="33.89776" lon="77.39206">
        <ele>3713.8</ele>
        <time>2015-09-02T09:15:19Z</time>
      </trkpt>
      <trkpt lat="33.89774" lon="77.39213">
        <ele>3714.2</ele>
        <time>2015-09-02T09:15:24Z</time>
      </trkpt>
      <trkpt lat="33.89771" lon="77.39219">
        <ele>3714.4</ele>
        <time>2015-09-02T09:15:28Z</time>
      </trkpt>
      <trkpt lat="33.89772" lon="77.39242">
        <ele>3715</ele>
        <time>2015-09-02T09:15:45Z</time>
      </trkpt>
      <trkpt lat="33.89768" lon="77.39259">
        <ele>3715.2</ele>
        <time>2015-09-02T09:15:58Z</time>
      </trkpt>
      <trkpt lat="33.89767" lon="77.39264">
        <ele>3715.4</ele>
        <time>2015-09-02T09:16:02Z</time>
      </trkpt>
      <trkpt lat="33.8976" lon="77.39275">
        <ele>3715.6</ele>
        <time>2015-09-02T09:16:17Z</time>
      </trkpt>
      <trkpt lat="33.8976" lon="77.39282">
        <ele>3715.6</ele>
        <time>2015-09-02T09:16:21Z</time>
      </trkpt>
      <trkpt lat="33.89759" lon="77.39293">
        <ele>3715.6</ele>
        <time>2015-09-02T09:16:26Z</time>
      </trkpt>
      <trkpt lat="33.89759" lon="77.393">
        <ele>3716</ele>
        <time>2015-09-02T09:16:31Z</time>
      </trkpt>
      <trkpt lat="33.89759" lon="77.39304">
        <ele>3716</ele>
        <time>2015-09-02T09:16:35Z</time>
      </trkpt>
      <trkpt lat="33.8975" lon="77.39324">
        <ele>3715.8</ele>
        <time>2015-09-02T09:16:50Z</time>
      </trkpt>
      <trkpt lat="33.8975" lon="77.39325">
        <ele>3715.8</ele>
        <time>2015-09-02T09:16:51Z</time>
      </trkpt>
      <trkpt lat="33.89752" lon="77.39326">
        <ele>3716</ele>
        <time>2015-09-02T09:16:54Z</time>
      </trkpt>
      <trkpt lat="33.89746" lon="77.39336">
        <ele>3716.4</ele>
        <time>2015-09-02T09:17:02Z</time>
      </trkpt>
      <trkpt lat="33.89744" lon="77.39344">
        <ele>3716.6</ele>
        <time>2015-09-02T09:17:08Z</time>
      </trkpt>
      <trkpt lat="33.89735" lon="77.39362">
        <ele>3717.2</ele>
        <time>2015-09-02T09:17:25Z</time>
      </trkpt>
      <trkpt lat="33.89731" lon="77.39367">
        <ele>3717</ele>
        <time>2015-09-02T09:17:30Z</time>
      </trkpt>
      <trkpt lat="33.89719" lon="77.39384">
        <ele>3717.2</ele>
        <time>2015-09-02T09:17:45Z</time>
      </trkpt>
      <trkpt lat="33.89718" lon="77.39387">
        <ele>3717.4</ele>
        <time>2015-09-02T09:17:47Z</time>
      </trkpt>
      <trkpt lat="33.8971" lon="77.39408">
        <ele>3717.4</ele>
        <time>2015-09-02T09:18:01Z</time>
      </trkpt>
      <trkpt lat="33.89703" lon="77.39416">
        <ele>3717.8</ele>
        <time>2015-09-02T09:18:09Z</time>
      </trkpt>
      <trkpt lat="33.89701" lon="77.3942">
        <ele>3717.8</ele>
        <time>2015-09-02T09:18:12Z</time>
      </trkpt>
      <trkpt lat="33.89693" lon="77.39435">
        <ele>3718.2</ele>
        <time>2015-09-02T09:18:25Z</time>
      </trkpt>
      <trkpt lat="33.89683" lon="77.39445">
        <ele>3718.4</ele>
        <time>2015-09-02T09:18:54Z</time>
      </trkpt>
      <trkpt lat="33.89679" lon="77.39457">
        <ele>3718.8</ele>
        <time>2015-09-02T09:19:05Z</time>
      </trkpt>
      <trkpt lat="33.89676" lon="77.39458">
        <ele>3718.8</ele>
        <time>2015-09-02T09:19:07Z</time>
      </trkpt>
      <trkpt lat="33.89666" lon="77.39466">
        <ele>3718</ele>
        <time>2015-09-02T09:19:17Z</time>
      </trkpt>
      <trkpt lat="33.89659" lon="77.39475">
        <ele>3718.2</ele>
        <time>2015-09-02T09:19:24Z</time>
      </trkpt>
      <trkpt lat="33.89658" lon="77.39482">
        <ele>3718.2</ele>
        <time>2015-09-02T09:19:27Z</time>
      </trkpt>
      <trkpt lat="33.89651" lon="77.39505">
        <ele>3718.4</ele>
        <time>2015-09-02T09:19:44Z</time>
      </trkpt>
      <trkpt lat="33.8965" lon="77.39514">
        <ele>3718.6</ele>
        <time>2015-09-02T09:19:50Z</time>
      </trkpt>
      <trkpt lat="33.89645" lon="77.39531">
        <ele>3719</ele>
        <time>2015-09-02T09:20:03Z</time>
      </trkpt>
      <trkpt lat="33.89641" lon="77.39534">
        <ele>3719</ele>
        <time>2015-09-02T09:20:07Z</time>
      </trkpt>
      <trkpt lat="33.89636" lon="77.39548">
        <ele>3719.4</ele>
        <time>2015-09-02T09:20:18Z</time>
      </trkpt>
      <trkpt lat="33.89633" lon="77.39552">
        <ele>3719.2</ele>
        <time>2015-09-02T09:20:22Z</time>
      </trkpt>
      <trkpt lat="33.89627" lon="77.3956">
        <ele>3719.2</ele>
        <time>2015-09-02T09:20:28Z</time>
      </trkpt>
      <trkpt lat="33.89626" lon="77.39569">
        <ele>3719.4</ele>
        <time>2015-09-02T09:20:35Z</time>
      </trkpt>
      <trkpt lat="33.89625" lon="77.39571">
        <ele>3719.4</ele>
        <time>2015-09-02T09:20:37Z</time>
      </trkpt>
      <trkpt lat="33.89623" lon="77.39576">
        <ele>3719.8</ele>
        <time>2015-09-02T09:20:41Z</time>
      </trkpt>
      <trkpt lat="33.89611" lon="77.39592">
        <ele>3720.4</ele>
        <time>2015-09-02T09:20:57Z</time>
      </trkpt>
      <trkpt lat="33.89611" lon="77.39593">
        <ele>3720.4</ele>
        <time>2015-09-02T09:20:58Z</time>
      </trkpt>
      <trkpt lat="33.8961" lon="77.39595">
        <ele>3720.4</ele>
        <time>2015-09-02T09:21:00Z</time>
      </trkpt>
      <trkpt lat="33.89608" lon="77.39597">
        <ele>3720.4</ele>
        <time>2015-09-02T09:21:03Z</time>
      </trkpt>
      <trkpt lat="33.89608" lon="77.39598">
        <ele>3720.6</ele>
        <time>2015-09-02T09:21:04Z</time>
      </trkpt>
      <trkpt lat="33.89604" lon="77.39605">
        <ele>3720.8</ele>
        <time>2015-09-02T09:21:09Z</time>
      </trkpt>
      <trkpt lat="33.896" lon="77.39628">
        <ele>3720.6</ele>
        <time>2015-09-02T09:21:24Z</time>
      </trkpt>
      <trkpt lat="33.89597" lon="77.39649">
        <ele>3721</ele>
        <time>2015-09-02T09:21:41Z</time>
      </trkpt>
      <trkpt lat="33.89591" lon="77.39652">
        <ele>3721.2</ele>
        <time>2015-09-02T09:21:47Z</time>
      </trkpt>
      <trkpt lat="33.89588" lon="77.39653">
        <ele>3721.2</ele>
        <time>2015-09-02T09:21:50Z</time>
      </trkpt>
      <trkpt lat="33.89587" lon="77.39655">
        <ele>3721.2</ele>
        <time>2015-09-02T09:21:52Z</time>
      </trkpt>
      <trkpt lat="33.89582" lon="77.39662">
        <ele>3721.6</ele>
        <time>2015-09-02T09:22:00Z</time>
      </trkpt>
      <trkpt lat="33.89577" lon="77.39678">
        <ele>3721.8</ele>
        <time>2015-09-02T09:22:14Z</time>
      </trkpt>
      <trkpt lat="33.89569" lon="77.39693">
        <ele>3722</ele>
        <time>2015-09-02T09:22:25Z</time>
      </trkpt>
      <trkpt lat="33.89566" lon="77.39698">
        <ele>3722.2</ele>
        <time>2015-09-02T09:22:30Z</time>
      </trkpt>
      <trkpt lat="33.89564" lon="77.39721">
        <ele>3722.4</ele>
        <time>2015-09-02T09:22:46Z</time>
      </trkpt>
      <trkpt lat="33.89555" lon="77.3974">
        <ele>3722.4</ele>
        <time>2015-09-02T09:23:01Z</time>
      </trkpt>
      <trkpt lat="33.89554" lon="77.39741">
        <ele>3722.4</ele>
        <time>2015-09-02T09:23:02Z</time>
      </trkpt>
      <trkpt lat="33.89551" lon="77.39745">
        <ele>3722.6</ele>
        <time>2015-09-02T09:23:06Z</time>
      </trkpt>
      <trkpt lat="33.8955" lon="77.39745">
        <ele>3722.6</ele>
        <time>2015-09-02T09:23:07Z</time>
      </trkpt>
      <trkpt lat="33.89547" lon="77.39747">
        <ele>3722.8</ele>
        <time>2015-09-02T09:23:11Z</time>
      </trkpt>
      <trkpt lat="33.89543" lon="77.39754">
        <ele>3722.8</ele>
        <time>2015-09-02T09:23:17Z</time>
      </trkpt>
      <trkpt lat="33.89534" lon="77.39772">
        <ele>3723.6</ele>
        <time>2015-09-02T09:23:31Z</time>
      </trkpt>
      <trkpt lat="33.89534" lon="77.39774">
        <ele>3723.8</ele>
        <time>2015-09-02T09:23:34Z</time>
      </trkpt>
      <trkpt lat="33.8953" lon="77.39782">
        <ele>3723.8</ele>
        <time>2015-09-02T09:23:41Z</time>
      </trkpt>
      <trkpt lat="33.8953" lon="77.39796">
        <ele>3723.4</ele>
        <time>2015-09-02T09:23:51Z</time>
      </trkpt>
      <trkpt lat="33.89526" lon="77.39799">
        <ele>3723.6</ele>
        <time>2015-09-02T09:23:58Z</time>
      </trkpt>
      <trkpt lat="33.89524" lon="77.398">
        <ele>3723.6</ele>
        <time>2015-09-02T09:24:00Z</time>
      </trkpt>
      <trkpt lat="33.89522" lon="77.39811">
        <ele>3724</ele>
        <time>2015-09-02T09:24:09Z</time>
      </trkpt>
      <trkpt lat="33.8952" lon="77.39828">
        <ele>3724.4</ele>
        <time>2015-09-02T09:24:20Z</time>
      </trkpt>
      <trkpt lat="33.89521" lon="77.39834">
        <ele>3724.2</ele>
        <time>2015-09-02T09:24:25Z</time>
      </trkpt>
      <trkpt lat="33.89513" lon="77.39848">
        <ele>3724.6</ele>
        <time>2015-09-02T09:24:36Z</time>
      </trkpt>
      <trkpt lat="33.89512" lon="77.3985">
        <ele>3724.8</ele>
        <time>2015-09-02T09:24:39Z</time>
      </trkpt>
      <trkpt lat="33.89507" lon="77.39872">
        <ele>3725</ele>
        <time>2015-09-02T09:24:54Z</time>
      </trkpt>
      <trkpt lat="33.895" lon="77.39885">
        <ele>3725.4</ele>
        <time>2015-09-02T09:25:08Z</time>
      </trkpt>
      <trkpt lat="33.89495" lon="77.39893">
        <ele>3725.6</ele>
        <time>2015-09-02T09:25:17Z</time>
      </trkpt>
      <trkpt lat="33.89494" lon="77.39901">
        <ele>3725.4</ele>
        <time>2015-09-02T09:25:20Z</time>
      </trkpt>
      <trkpt lat="33.89493" lon="77.39904">
        <ele>3725.4</ele>
        <time>2015-09-02T09:25:22Z</time>
      </trkpt>
      <trkpt lat="33.89492" lon="77.3991">
        <ele>3725.6</ele>
        <time>2015-09-02T09:25:27Z</time>
      </trkpt>
      <trkpt lat="33.89491" lon="77.39917">
        <ele>3726</ele>
        <time>2015-09-02T09:25:33Z</time>
      </trkpt>
      <trkpt lat="33.89488" lon="77.39918">
        <ele>3726</ele>
        <time>2015-09-02T09:25:36Z</time>
      </trkpt>
      <trkpt lat="33.89487" lon="77.3992">
        <ele>3726</ele>
        <time>2015-09-02T09:25:38Z</time>
      </trkpt>
      <trkpt lat="33.89485" lon="77.39922">
        <ele>3726.2</ele>
        <time>2015-09-02T09:25:40Z</time>
      </trkpt>
      <trkpt lat="33.89476" lon="77.39932">
        <ele>3726.6</ele>
        <time>2015-09-02T09:25:51Z</time>
      </trkpt>
      <trkpt lat="33.8947" lon="77.39943">
        <ele>3727</ele>
        <time>2015-09-02T09:26:01Z</time>
      </trkpt>
      <trkpt lat="33.89467" lon="77.39947">
        <ele>3727</ele>
        <time>2015-09-02T09:26:04Z</time>
      </trkpt>
      <trkpt lat="33.89465" lon="77.3995">
        <ele>3727</ele>
        <time>2015-09-02T09:26:07Z</time>
      </trkpt>
      <trkpt lat="33.89461" lon="77.39957">
        <ele>3726.8</ele>
        <time>2015-09-02T09:26:14Z</time>
      </trkpt>
      <trkpt lat="33.8945" lon="77.39975">
        <ele>3726.6</ele>
        <time>2015-09-02T09:26:30Z</time>
      </trkpt>
      <trkpt lat="33.89448" lon="77.39977">
        <ele>3726.6</ele>
        <time>2015-09-02T09:26:33Z</time>
      </trkpt>
      <trkpt lat="33.89436" lon="77.3998">
        <ele>3727.4</ele>
        <time>2015-09-02T09:26:53Z</time>
      </trkpt>
      <trkpt lat="33.89425" lon="77.39989">
        <ele>3727.2</ele>
        <time>2015-09-02T09:26:59Z</time>
      </trkpt>
      <trkpt lat="33.89423" lon="77.39989">
        <ele>3727.2</ele>
        <time>2015-09-02T09:27:02Z</time>
      </trkpt>
      <trkpt lat="33.89416" lon="77.39993">
        <ele>3727.4</ele>
        <time>2015-09-02T09:27:06Z</time>
      </trkpt>
      <trkpt lat="33.89408" lon="77.39984">
        <ele>3727.2</ele>
        <time>2015-09-02T09:27:49Z</time>
      </trkpt>
      <trkpt lat="33.89411" lon="77.39989">
        <ele>3727.2</ele>
        <time>2015-09-02T09:27:54Z</time>
      </trkpt>
      <trkpt lat="33.89414" lon="77.39997">
        <ele>3727.2</ele>
        <time>2015-09-02T09:28:00Z</time>
      </trkpt>
      <trkpt lat="33.89412" lon="77.4">
        <ele>3726.8</ele>
        <time>2015-09-02T09:28:37Z</time>
      </trkpt>
      <trkpt lat="33.8941" lon="77.39994">
        <ele>3726.6</ele>
        <time>2015-09-02T09:29:36Z</time>
      </trkpt>
      <trkpt lat="33.89409" lon="77.39998">
        <ele>3726.4</ele>
        <time>2015-09-02T09:30:49Z</time>
      </trkpt>
      <trkpt lat="33.89404" lon="77.40012">
        <ele>3726.8</ele>
        <time>2015-09-02T09:31:23Z</time>
      </trkpt>
      <trkpt lat="33.89409" lon="77.4003">
        <ele>3727</ele>
        <time>2015-09-02T09:31:39Z</time>
      </trkpt>
      <trkpt lat="33.8941" lon="77.4004">
        <ele>3727</ele>
        <time>2015-09-02T09:31:49Z</time>
      </trkpt>
      <trkpt lat="33.89401" lon="77.40057">
        <ele>3727.6</ele>
        <time>2015-09-02T09:32:07Z</time>
      </trkpt>
      <trkpt lat="33.89401" lon="77.4006">
        <ele>3727.6</ele>
        <time>2015-09-02T09:32:10Z</time>
      </trkpt>
      <trkpt lat="33.89401" lon="77.40061">
        <ele>3727.8</ele>
        <time>2015-09-02T09:32:11Z</time>
      </trkpt>
      <trkpt lat="33.89401" lon="77.40066">
        <ele>3728</ele>
        <time>2015-09-02T09:32:14Z</time>
      </trkpt>
      <trkpt lat="33.89402" lon="77.40077">
        <ele>3728</ele>
        <time>2015-09-02T09:32:23Z</time>
      </trkpt>
      <trkpt lat="33.89402" lon="77.40084">
        <ele>3728.2</ele>
        <time>2015-09-02T09:32:28Z</time>
      </trkpt>
      <trkpt lat="33.89402" lon="77.40089">
        <ele>3728.4</ele>
        <time>2015-09-02T09:32:32Z</time>
      </trkpt>
      <trkpt lat="33.89403" lon="77.40098">
        <ele>3728.2</ele>
        <time>2015-09-02T09:32:41Z</time>
      </trkpt>
      <trkpt lat="33.89404" lon="77.40106">
        <ele>3728.4</ele>
        <time>2015-09-02T09:32:48Z</time>
      </trkpt>
      <trkpt lat="33.89405" lon="77.40109">
        <ele>3728.2</ele>
        <time>2015-09-02T09:32:50Z</time>
      </trkpt>
      <trkpt lat="33.89402" lon="77.40115">
        <ele>3728.4</ele>
        <time>2015-09-02T09:32:57Z</time>
      </trkpt>
      <trkpt lat="33.89402" lon="77.40119">
        <ele>3728.6</ele>
        <time>2015-09-02T09:33:01Z</time>
      </trkpt>
      <trkpt lat="33.89401" lon="77.40122">
        <ele>3728.8</ele>
        <time>2015-09-02T09:33:04Z</time>
      </trkpt>
      <trkpt lat="33.89401" lon="77.40131">
        <ele>3728.4</ele>
        <time>2015-09-02T09:33:11Z</time>
      </trkpt>
      <trkpt lat="33.894" lon="77.40134">
        <ele>3728.6</ele>
        <time>2015-09-02T09:33:14Z</time>
      </trkpt>
      <trkpt lat="33.89394" lon="77.40154">
        <ele>3729</ele>
        <time>2015-09-02T09:33:31Z</time>
      </trkpt>
      <trkpt lat="33.894" lon="77.40163">
        <ele>3729.2</ele>
        <time>2015-09-02T09:33:40Z</time>
      </trkpt>
      <trkpt lat="33.89406" lon="77.40184">
        <ele>3729.4</ele>
        <time>2015-09-02T09:33:57Z</time>
      </trkpt>
      <trkpt lat="33.89407" lon="77.40187">
        <ele>3729.8</ele>
        <time>2015-09-02T09:33:59Z</time>
      </trkpt>
      <trkpt lat="33.89406" lon="77.40194">
        <ele>3730.2</ele>
        <time>2015-09-02T09:34:05Z</time>
      </trkpt>
      <trkpt lat="33.89406" lon="77.40201">
        <ele>3730.2</ele>
        <time>2015-09-02T09:34:14Z</time>
      </trkpt>
      <trkpt lat="33.89405" lon="77.40203">
        <ele>3730.2</ele>
        <time>2015-09-02T09:34:16Z</time>
      </trkpt>
      <trkpt lat="33.89403" lon="77.40206">
        <ele>3730</ele>
        <time>2015-09-02T09:34:21Z</time>
      </trkpt>
      <trkpt lat="33.89406" lon="77.4021">
        <ele>3730.2</ele>
        <time>2015-09-02T09:34:25Z</time>
      </trkpt>
      <trkpt lat="33.89408" lon="77.40213">
        <ele>3730.4</ele>
        <time>2015-09-02T09:34:27Z</time>
      </trkpt>
      <trkpt lat="33.8941" lon="77.40217">
        <ele>3730.4</ele>
        <time>2015-09-02T09:34:31Z</time>
      </trkpt>
      <trkpt lat="33.89413" lon="77.40221">
        <ele>3730.2</ele>
        <time>2015-09-02T09:34:36Z</time>
      </trkpt>
      <trkpt lat="33.89411" lon="77.40223">
        <ele>3730.2</ele>
        <time>2015-09-02T09:34:38Z</time>
      </trkpt>
      <trkpt lat="33.89409" lon="77.40224">
        <ele>3730.6</ele>
        <time>2015-09-02T09:34:41Z</time>
      </trkpt>
      <trkpt lat="33.89409" lon="77.40225">
        <ele>3731</ele>
        <time>2015-09-02T09:34:42Z</time>
      </trkpt>
      <trkpt lat="33.89408" lon="77.40227">
        <ele>3731.4</ele>
        <time>2015-09-02T09:34:44Z</time>
      </trkpt>
      <trkpt lat="33.89407" lon="77.4024">
        <ele>3732</ele>
        <time>2015-09-02T09:34:54Z</time>
      </trkpt>
      <trkpt lat="33.8941" lon="77.40247">
        <ele>3732.2</ele>
        <time>2015-09-02T09:35:01Z</time>
      </trkpt>
      <trkpt lat="33.89404" lon="77.40251">
        <ele>3732.2</ele>
        <time>2015-09-02T09:35:05Z</time>
      </trkpt>
      <trkpt lat="33.89402" lon="77.40269">
        <ele>3732</ele>
        <time>2015-09-02T09:35:18Z</time>
      </trkpt>
      <trkpt lat="33.89403" lon="77.40289">
        <ele>3732.6</ele>
        <time>2015-09-02T09:35:34Z</time>
      </trkpt>
      <trkpt lat="33.89407" lon="77.40303">
        <ele>3732.2</ele>
        <time>2015-09-02T09:35:51Z</time>
      </trkpt>
      <trkpt lat="33.89407" lon="77.40308">
        <ele>3732.2</ele>
        <time>2015-09-02T09:35:56Z</time>
      </trkpt>
      <trkpt lat="33.89408" lon="77.40311">
        <ele>3732.6</ele>
        <time>2015-09-02T09:35:59Z</time>
      </trkpt>
      <trkpt lat="33.89409" lon="77.40318">
        <ele>3732.6</ele>
        <time>2015-09-02T09:36:04Z</time>
      </trkpt>
      <trkpt lat="33.89408" lon="77.40321">
        <ele>3732.6</ele>
        <time>2015-09-02T09:36:07Z</time>
      </trkpt>
      <trkpt lat="33.89406" lon="77.40328">
        <ele>3732.8</ele>
        <time>2015-09-02T09:36:12Z</time>
      </trkpt>
      <trkpt lat="33.89407" lon="77.4034">
        <ele>3733</ele>
        <time>2015-09-02T09:36:20Z</time>
      </trkpt>
      <trkpt lat="33.89407" lon="77.40342">
        <ele>3733</ele>
        <time>2015-09-02T09:36:22Z</time>
      </trkpt>
      <trkpt lat="33.89405" lon="77.40354">
        <ele>3732.6</ele>
        <time>2015-09-02T09:36:31Z</time>
      </trkpt>
      <trkpt lat="33.89405" lon="77.40357">
        <ele>3732.6</ele>
        <time>2015-09-02T09:36:33Z</time>
      </trkpt>
      <trkpt lat="33.89405" lon="77.40371">
        <ele>3732.6</ele>
        <time>2015-09-02T09:36:44Z</time>
      </trkpt>
      <trkpt lat="33.89403" lon="77.40375">
        <ele>3733.4</ele>
        <time>2015-09-02T09:36:49Z</time>
      </trkpt>
      <trkpt lat="33.89399" lon="77.40377">
        <ele>3734</ele>
        <time>2015-09-02T09:36:55Z</time>
      </trkpt>
      <trkpt lat="33.89392" lon="77.40389">
        <ele>3734.4</ele>
        <time>2015-09-02T09:37:07Z</time>
      </trkpt>
      <trkpt lat="33.89392" lon="77.4039">
        <ele>3734.4</ele>
        <time>2015-09-02T09:37:08Z</time>
      </trkpt>
      <trkpt lat="33.89385" lon="77.40408">
        <ele>3735</ele>
        <time>2015-09-02T09:37:22Z</time>
      </trkpt>
      <trkpt lat="33.89376" lon="77.40427">
        <ele>3735.8</ele>
        <time>2015-09-02T09:37:37Z</time>
      </trkpt>
      <trkpt lat="33.89374" lon="77.40429">
        <ele>3736</ele>
        <time>2015-09-02T09:37:41Z</time>
      </trkpt>
      <trkpt lat="33.89373" lon="77.40451">
        <ele>3737.2</ele>
        <time>2015-09-02T09:37:59Z</time>
      </trkpt>
      <trkpt lat="33.89374" lon="77.40457">
        <ele>3737.6</ele>
        <time>2015-09-02T09:38:05Z</time>
      </trkpt>
      <trkpt lat="33.89374" lon="77.40459">
        <ele>3737.6</ele>
        <time>2015-09-02T09:38:07Z</time>
      </trkpt>
      <trkpt lat="33.8937" lon="77.40465">
        <ele>3738</ele>
        <time>2015-09-02T09:38:12Z</time>
      </trkpt>
      <trkpt lat="33.89367" lon="77.40467">
        <ele>3738.2</ele>
        <time>2015-09-02T09:38:14Z</time>
      </trkpt>
      <trkpt lat="33.89362" lon="77.40482">
        <ele>3739.2</ele>
        <time>2015-09-02T09:38:29Z</time>
      </trkpt>
      <trkpt lat="33.89361" lon="77.40483">
        <ele>3739.2</ele>
        <time>2015-09-02T09:38:31Z</time>
      </trkpt>
      <trkpt lat="33.89361" lon="77.40487">
        <ele>3738.8</ele>
        <time>2015-09-02T09:38:35Z</time>
      </trkpt>
      <trkpt lat="33.8936" lon="77.40493">
        <ele>3738.6</ele>
        <time>2015-09-02T09:38:39Z</time>
      </trkpt>
      <trkpt lat="33.89356" lon="77.40501">
        <ele>3739</ele>
        <time>2015-09-02T09:38:43Z</time>
      </trkpt>
      <trkpt lat="33.89347" lon="77.4052">
        <ele>3738.8</ele>
        <time>2015-09-02T09:39:00Z</time>
      </trkpt>
      <trkpt lat="33.89342" lon="77.40532">
        <ele>3738.2</ele>
        <time>2015-09-02T09:39:09Z</time>
      </trkpt>
      <trkpt lat="33.89334" lon="77.4055">
        <ele>3738</ele>
        <time>2015-09-02T09:39:25Z</time>
      </trkpt>
      <trkpt lat="33.89328" lon="77.40558">
        <ele>3737.8</ele>
        <time>2015-09-02T09:39:32Z</time>
      </trkpt>
      <trkpt lat="33.89327" lon="77.40564">
        <ele>3738</ele>
        <time>2015-09-02T09:39:37Z</time>
      </trkpt>
      <trkpt lat="33.89324" lon="77.40569">
        <ele>3738.2</ele>
        <time>2015-09-02T09:39:41Z</time>
      </trkpt>
      <trkpt lat="33.89309" lon="77.40581">
        <ele>3738.8</ele>
        <time>2015-09-02T09:39:55Z</time>
      </trkpt>
      <trkpt lat="33.89308" lon="77.40582">
        <ele>3738.8</ele>
        <time>2015-09-02T09:39:56Z</time>
      </trkpt>
      <trkpt lat="33.89298" lon="77.406">
        <ele>3739.2</ele>
        <time>2015-09-02T09:40:12Z</time>
      </trkpt>
      <trkpt lat="33.89292" lon="77.40611">
        <ele>3740.4</ele>
        <time>2015-09-02T09:40:27Z</time>
      </trkpt>
      <trkpt lat="33.8929" lon="77.40621">
        <ele>3740.6</ele>
        <time>2015-09-02T09:40:35Z</time>
      </trkpt>
      <trkpt lat="33.89289" lon="77.40623">
        <ele>3740.8</ele>
        <time>2015-09-02T09:40:37Z</time>
      </trkpt>
      <trkpt lat="33.89287" lon="77.40625">
        <ele>3740.8</ele>
        <time>2015-09-02T09:40:39Z</time>
      </trkpt>
      <trkpt lat="33.89285" lon="77.40628">
        <ele>3741.2</ele>
        <time>2015-09-02T09:40:43Z</time>
      </trkpt>
      <trkpt lat="33.89282" lon="77.40632">
        <ele>3741.2</ele>
        <time>2015-09-02T09:40:46Z</time>
      </trkpt>
      <trkpt lat="33.89279" lon="77.40638">
        <ele>3741.4</ele>
        <time>2015-09-02T09:40:50Z</time>
      </trkpt>
      <trkpt lat="33.8927" lon="77.40655">
        <ele>3742</ele>
        <time>2015-09-02T09:41:05Z</time>
      </trkpt>
      <trkpt lat="33.8927" lon="77.4066">
        <ele>3742.4</ele>
        <time>2015-09-02T09:41:09Z</time>
      </trkpt>
      <trkpt lat="33.89269" lon="77.40661">
        <ele>3742.6</ele>
        <time>2015-09-02T09:41:10Z</time>
      </trkpt>
      <trkpt lat="33.89268" lon="77.40665">
        <ele>3743</ele>
        <time>2015-09-02T09:41:14Z</time>
      </trkpt>
      <trkpt lat="33.89267" lon="77.40673">
        <ele>3743.4</ele>
        <time>2015-09-02T09:41:21Z</time>
      </trkpt>
      <trkpt lat="33.89266" lon="77.40679">
        <ele>3743.6</ele>
        <time>2015-09-02T09:41:26Z</time>
      </trkpt>
      <trkpt lat="33.89267" lon="77.40693">
        <ele>3743.4</ele>
        <time>2015-09-02T09:41:37Z</time>
      </trkpt>
      <trkpt lat="33.89271" lon="77.40712">
        <ele>3743.4</ele>
        <time>2015-09-02T09:41:50Z</time>
      </trkpt>
      <trkpt lat="33.89268" lon="77.40729">
        <ele>3743</ele>
        <time>2015-09-02T09:42:02Z</time>
      </trkpt>
      <trkpt lat="33.8927" lon="77.40734">
        <ele>3743.4</ele>
        <time>2015-09-02T09:42:06Z</time>
      </trkpt>
      <trkpt lat="33.8927" lon="77.40739">
        <ele>3744</ele>
        <time>2015-09-02T09:42:10Z</time>
      </trkpt>
      <trkpt lat="33.89262" lon="77.40758">
        <ele>3743.2</ele>
        <time>2015-09-02T09:42:24Z</time>
      </trkpt>
      <trkpt lat="33.89262" lon="77.4076">
        <ele>3743</ele>
        <time>2015-09-02T09:42:26Z</time>
      </trkpt>
      <trkpt lat="33.89259" lon="77.40762">
        <ele>3743.2</ele>
        <time>2015-09-02T09:42:29Z</time>
      </trkpt>
      <trkpt lat="33.89249" lon="77.4078">
        <ele>3743</ele>
        <time>2015-09-02T09:42:43Z</time>
      </trkpt>
      <trkpt lat="33.8925" lon="77.40783">
        <ele>3743</ele>
        <time>2015-09-02T09:42:45Z</time>
      </trkpt>
      <trkpt lat="33.89259" lon="77.40806">
        <ele>3742.8</ele>
        <time>2015-09-02T09:43:01Z</time>
      </trkpt>
      <trkpt lat="33.8926" lon="77.4081">
        <ele>3743</ele>
        <time>2015-09-02T09:43:06Z</time>
      </trkpt>
      <trkpt lat="33.89265" lon="77.40836">
        <ele>3744.2</ele>
        <time>2015-09-02T09:43:25Z</time>
      </trkpt>
      <trkpt lat="33.89267" lon="77.40858">
        <ele>3743.8</ele>
        <time>2015-09-02T09:43:41Z</time>
      </trkpt>
      <trkpt lat="33.8927" lon="77.40879">
        <ele>3744.4</ele>
        <time>2015-09-02T09:43:57Z</time>
      </trkpt>
      <trkpt lat="33.89272" lon="77.40885">
        <ele>3744.4</ele>
        <time>2015-09-02T09:44:03Z</time>
      </trkpt>
      <trkpt lat="33.89274" lon="77.40899">
        <ele>3744.2</ele>
        <time>2015-09-02T09:44:16Z</time>
      </trkpt>
      <trkpt lat="33.89273" lon="77.40902">
        <ele>3744.2</ele>
        <time>2015-09-02T09:44:19Z</time>
      </trkpt>
      <trkpt lat="33.89272" lon="77.40905">
        <ele>3744.2</ele>
        <time>2015-09-02T09:44:22Z</time>
      </trkpt>
      <trkpt lat="33.89269" lon="77.40913">
        <ele>3744.4</ele>
        <time>2015-09-02T09:44:29Z</time>
      </trkpt>
      <trkpt lat="33.89269" lon="77.40915">
        <ele>3744.4</ele>
        <time>2015-09-02T09:44:31Z</time>
      </trkpt>
      <trkpt lat="33.89267" lon="77.40921">
        <ele>3744.6</ele>
        <time>2015-09-02T09:44:36Z</time>
      </trkpt>
      <trkpt lat="33.89267" lon="77.40922">
        <ele>3744.6</ele>
        <time>2015-09-02T09:44:37Z</time>
      </trkpt>
      <trkpt lat="33.89268" lon="77.40927">
        <ele>3744.6</ele>
        <time>2015-09-02T09:44:40Z</time>
      </trkpt>
      <trkpt lat="33.89271" lon="77.40934">
        <ele>3744.4</ele>
        <time>2015-09-02T09:44:47Z</time>
      </trkpt>
      <trkpt lat="33.8927" lon="77.40938">
        <ele>3744.6</ele>
        <time>2015-09-02T09:44:50Z</time>
      </trkpt>
      <trkpt lat="33.89271" lon="77.40949">
        <ele>3744.6</ele>
        <time>2015-09-02T09:45:00Z</time>
      </trkpt>
      <trkpt lat="33.89266" lon="77.4097">
        <ele>3745.2</ele>
        <time>2015-09-02T09:45:16Z</time>
      </trkpt>
      <trkpt lat="33.89265" lon="77.40974">
        <ele>3745</ele>
        <time>2015-09-02T09:45:19Z</time>
      </trkpt>
      <trkpt lat="33.8926" lon="77.40995">
        <ele>3745.4</ele>
        <time>2015-09-02T09:45:41Z</time>
      </trkpt>
      <trkpt lat="33.89257" lon="77.41002">
        <ele>3745.2</ele>
        <time>2015-09-02T09:45:48Z</time>
      </trkpt>
      <trkpt lat="33.89254" lon="77.41012">
        <ele>3745.4</ele>
        <time>2015-09-02T09:45:57Z</time>
      </trkpt>
      <trkpt lat="33.89252" lon="77.4102">
        <ele>3745.2</ele>
        <time>2015-09-02T09:46:03Z</time>
      </trkpt>
      <trkpt lat="33.89248" lon="77.41032">
        <ele>3745.2</ele>
        <time>2015-09-02T09:46:14Z</time>
      </trkpt>
      <trkpt lat="33.89246" lon="77.41035">
        <ele>3745.4</ele>
        <time>2015-09-02T09:46:16Z</time>
      </trkpt>
      <trkpt lat="33.89246" lon="77.41038">
        <ele>3745.6</ele>
        <time>2015-09-02T09:46:18Z</time>
      </trkpt>
      <trkpt lat="33.89246" lon="77.41038">
        <ele>3745.6</ele>
        <time>2015-09-02T09:46:19Z</time>
      </trkpt>
      <trkpt lat="33.89245" lon="77.4104">
        <ele>3745.8</ele>
        <time>2015-09-02T09:46:20Z</time>
      </trkpt>
      <trkpt lat="33.89239" lon="77.4106">
        <ele>3746.2</ele>
        <time>2015-09-02T09:46:41Z</time>
      </trkpt>
      <trkpt lat="33.89238" lon="77.41062">
        <ele>3746.2</ele>
        <time>2015-09-02T09:46:42Z</time>
      </trkpt>
      <trkpt lat="33.89233" lon="77.41075">
        <ele>3746.4</ele>
        <time>2015-09-02T09:46:53Z</time>
      </trkpt>
      <trkpt lat="33.8923" lon="77.41083">
        <ele>3746.2</ele>
        <time>2015-09-02T09:46:59Z</time>
      </trkpt>
      <trkpt lat="33.89227" lon="77.4109">
        <ele>3746.4</ele>
        <time>2015-09-02T09:47:05Z</time>
      </trkpt>
      <trkpt lat="33.89224" lon="77.41097">
        <ele>3746.6</ele>
        <time>2015-09-02T09:47:10Z</time>
      </trkpt>
      <trkpt lat="33.89223" lon="77.41098">
        <ele>3746.6</ele>
        <time>2015-09-02T09:47:11Z</time>
      </trkpt>
      <trkpt lat="33.8922" lon="77.41122">
        <ele>3746.8</ele>
        <time>2015-09-02T09:47:29Z</time>
      </trkpt>
      <trkpt lat="33.8922" lon="77.41124">
        <ele>3746.8</ele>
        <time>2015-09-02T09:47:31Z</time>
      </trkpt>
      <trkpt lat="33.89215" lon="77.4114">
        <ele>3747.2</ele>
        <time>2015-09-02T09:47:46Z</time>
      </trkpt>
      <trkpt lat="33.89213" lon="77.41156">
        <ele>3747</ele>
        <time>2015-09-02T09:47:59Z</time>
      </trkpt>
      <trkpt lat="33.89208" lon="77.41168">
        <ele>3747.2</ele>
        <time>2015-09-02T09:48:10Z</time>
      </trkpt>
      <trkpt lat="33.89204" lon="77.41184">
        <ele>3747.8</ele>
        <time>2015-09-02T09:48:20Z</time>
      </trkpt>
      <trkpt lat="33.89202" lon="77.41195">
        <ele>3748.2</ele>
        <time>2015-09-02T09:48:28Z</time>
      </trkpt>
      <trkpt lat="33.89202" lon="77.41201">
        <ele>3748.2</ele>
        <time>2015-09-02T09:48:33Z</time>
      </trkpt>
      <trkpt lat="33.892" lon="77.41223">
        <ele>3748.8</ele>
        <time>2015-09-02T09:48:52Z</time>
      </trkpt>
      <trkpt lat="33.892" lon="77.41229">
        <ele>3749</ele>
        <time>2015-09-02T09:48:56Z</time>
      </trkpt>
      <trkpt lat="33.89192" lon="77.41249">
        <ele>3749.4</ele>
        <time>2015-09-02T09:49:10Z</time>
      </trkpt>
      <trkpt lat="33.89189" lon="77.41263">
        <ele>3749.2</ele>
        <time>2015-09-02T09:49:22Z</time>
      </trkpt>
      <trkpt lat="33.89193" lon="77.41271">
        <ele>3749</ele>
        <time>2015-09-02T09:49:30Z</time>
      </trkpt>
      <trkpt lat="33.89195" lon="77.41273">
        <ele>3749.2</ele>
        <time>2015-09-02T09:49:33Z</time>
      </trkpt>
      <trkpt lat="33.89186" lon="77.4129">
        <ele>3749.4</ele>
        <time>2015-09-02T09:49:46Z</time>
      </trkpt>
      <trkpt lat="33.89183" lon="77.41294">
        <ele>3749.8</ele>
        <time>2015-09-02T09:49:50Z</time>
      </trkpt>
      <trkpt lat="33.89173" lon="77.4131">
        <ele>3750</ele>
        <time>2015-09-02T09:50:09Z</time>
      </trkpt>
      <trkpt lat="33.89176" lon="77.41314">
        <ele>3750</ele>
        <time>2015-09-02T09:50:46Z</time>
      </trkpt>
      <trkpt lat="33.89174" lon="77.41318">
        <ele>3750.2</ele>
        <time>2015-09-02T09:51:11Z</time>
      </trkpt>
      <trkpt lat="33.8917" lon="77.41322">
        <ele>3750.2</ele>
        <time>2015-09-02T09:52:17Z</time>
      </trkpt>
      <trkpt lat="33.89163" lon="77.41333">
        <ele>3750</ele>
        <time>2015-09-02T09:53:23Z</time>
      </trkpt>
      <trkpt lat="33.89152" lon="77.41332">
        <ele>3750.4</ele>
        <time>2015-09-02T09:54:14Z</time>
      </trkpt>
      <trkpt lat="33.89153" lon="77.41333">
        <ele>3750.8</ele>
        <time>2015-09-02T09:54:34Z</time>
      </trkpt>
      <trkpt lat="33.89149" lon="77.41334">
        <ele>3750.6</ele>
        <time>2015-09-02T09:54:39Z</time>
      </trkpt>
      <trkpt lat="33.89148" lon="77.41332">
        <ele>3750.8</ele>
        <time>2015-09-02T09:55:26Z</time>
      </trkpt>
      <trkpt lat="33.89154" lon="77.41327">
        <ele>3750.8</ele>
        <time>2015-09-02T09:55:36Z</time>
      </trkpt>
      <trkpt lat="33.8915" lon="77.41329">
        <ele>3749.8</ele>
        <time>2015-09-02T09:56:33Z</time>
      </trkpt>
      <trkpt lat="33.89148" lon="77.41331">
        <ele>3749.6</ele>
        <time>2015-09-02T09:56:43Z</time>
      </trkpt>
      <trkpt lat="33.89148" lon="77.41344">
        <ele>3750</ele>
        <time>2015-09-02T09:57:26Z</time>
      </trkpt>
      <trkpt lat="33.89146" lon="77.41352">
        <ele>3750</ele>
        <time>2015-09-02T09:57:33Z</time>
      </trkpt>
      <trkpt lat="33.89144" lon="77.41356">
        <ele>3750.2</ele>
        <time>2015-09-02T09:57:36Z</time>
      </trkpt>
      <trkpt lat="33.8914" lon="77.41365">
        <ele>3750.4</ele>
        <time>2015-09-02T09:57:46Z</time>
      </trkpt>
      <trkpt lat="33.89139" lon="77.41369">
        <ele>3750.4</ele>
        <time>2015-09-02T09:57:48Z</time>
      </trkpt>
      <trkpt lat="33.8913" lon="77.41387">
        <ele>3750.6</ele>
        <time>2015-09-02T09:57:57Z</time>
      </trkpt>
      <trkpt lat="33.89129" lon="77.41388">
        <ele>3750.8</ele>
        <time>2015-09-02T09:57:59Z</time>
      </trkpt>
      <trkpt lat="33.89129" lon="77.41389">
        <ele>3750.8</ele>
        <time>2015-09-02T09:58:00Z</time>
      </trkpt>
      <trkpt lat="33.89129" lon="77.4139">
        <ele>3750.8</ele>
        <time>2015-09-02T09:58:01Z</time>
      </trkpt>
      <trkpt lat="33.89127" lon="77.41396">
        <ele>3751</ele>
        <time>2015-09-02T09:58:05Z</time>
      </trkpt>
      <trkpt lat="33.89124" lon="77.41397">
        <ele>3751</ele>
        <time>2015-09-02T09:58:07Z</time>
      </trkpt>
      <trkpt lat="33.89123" lon="77.41401">
        <ele>3751</ele>
        <time>2015-09-02T09:58:11Z</time>
      </trkpt>
      <trkpt lat="33.89124" lon="77.41406">
        <ele>3751.2</ele>
        <time>2015-09-02T09:58:16Z</time>
      </trkpt>
      <trkpt lat="33.89123" lon="77.41414">
        <ele>3751</ele>
        <time>2015-09-02T09:58:24Z</time>
      </trkpt>
      <trkpt lat="33.89123" lon="77.41436">
        <ele>3751.2</ele>
        <time>2015-09-02T09:58:39Z</time>
      </trkpt>
      <trkpt lat="33.89121" lon="77.41441">
        <ele>3751.4</ele>
        <time>2015-09-02T09:58:46Z</time>
      </trkpt>
      <trkpt lat="33.89116" lon="77.41451">
        <ele>3751.8</ele>
        <time>2015-09-02T09:59:01Z</time>
      </trkpt>
      <trkpt lat="33.89116" lon="77.41452">
        <ele>3751.8</ele>
        <time>2015-09-02T09:59:02Z</time>
      </trkpt>
      <trkpt lat="33.89107" lon="77.41474">
        <ele>3752.6</ele>
        <time>2015-09-02T09:59:31Z</time>
      </trkpt>
      <trkpt lat="33.89106" lon="77.41474">
        <ele>3752.6</ele>
        <time>2015-09-02T09:59:32Z</time>
      </trkpt>
      <trkpt lat="33.89102" lon="77.41474">
        <ele>3752.6</ele>
        <time>2015-09-02T09:59:36Z</time>
      </trkpt>
      <trkpt lat="33.89096" lon="77.41473">
        <ele>3752.6</ele>
        <time>2015-09-02T09:59:41Z</time>
      </trkpt>
      <trkpt lat="33.8909" lon="77.41473">
        <ele>3752.8</ele>
        <time>2015-09-02T09:59:46Z</time>
      </trkpt>
      <trkpt lat="33.89088" lon="77.41475">
        <ele>3753</ele>
        <time>2015-09-02T09:59:48Z</time>
      </trkpt>
      <trkpt lat="33.89085" lon="77.41479">
        <ele>3753.2</ele>
        <time>2015-09-02T09:59:51Z</time>
      </trkpt>
      <trkpt lat="33.89082" lon="77.4148">
        <ele>3753.6</ele>
        <time>2015-09-02T09:59:55Z</time>
      </trkpt>
      <trkpt lat="33.89082" lon="77.41481">
        <ele>3753.8</ele>
        <time>2015-09-02T09:59:56Z</time>
      </trkpt>
      <trkpt lat="33.89079" lon="77.41485">
        <ele>3755</ele>
        <time>2015-09-02T10:00:05Z</time>
      </trkpt>
      <trkpt lat="33.89074" lon="77.41488">
        <ele>3755.8</ele>
        <time>2015-09-02T10:00:12Z</time>
      </trkpt>
      <trkpt lat="33.89073" lon="77.4149">
        <ele>3756</ele>
        <time>2015-09-02T10:00:14Z</time>
      </trkpt>
      <trkpt lat="33.8907" lon="77.41493">
        <ele>3756.4</ele>
        <time>2015-09-02T10:00:18Z</time>
      </trkpt>
      <trkpt lat="33.89064" lon="77.41496">
        <ele>3757</ele>
        <time>2015-09-02T10:00:29Z</time>
      </trkpt>
      <trkpt lat="33.89052" lon="77.41504">
        <ele>3757.4</ele>
        <time>2015-09-02T10:01:19Z</time>
      </trkpt>
      <trkpt lat="33.8905" lon="77.41504">
        <ele>3758.2</ele>
        <time>2015-09-02T10:01:25Z</time>
      </trkpt>
      <trkpt lat="33.89043" lon="77.41512">
        <ele>3759.2</ele>
        <time>2015-09-02T10:01:37Z</time>
      </trkpt>
      <trkpt lat="33.89036" lon="77.4152">
        <ele>3760.2</ele>
        <time>2015-09-02T10:02:03Z</time>
      </trkpt>
      <trkpt lat="33.89029" lon="77.41529">
        <ele>3761.2</ele>
        <time>2015-09-02T10:02:14Z</time>
      </trkpt>
      <trkpt lat="33.89028" lon="77.41532">
        <ele>3761.2</ele>
        <time>2015-09-02T10:02:16Z</time>
      </trkpt>
      <trkpt lat="33.89022" lon="77.4154">
        <ele>3761.8</ele>
        <time>2015-09-02T10:02:26Z</time>
      </trkpt>
      <trkpt lat="33.8902" lon="77.41544">
        <ele>3762</ele>
        <time>2015-09-02T10:02:31Z</time>
      </trkpt>
      <trkpt lat="33.89016" lon="77.41548">
        <ele>3762.4</ele>
        <time>2015-09-02T10:02:37Z</time>
      </trkpt>
      <trkpt lat="33.89013" lon="77.41553">
        <ele>3762.6</ele>
        <time>2015-09-02T10:02:43Z</time>
      </trkpt>
      <trkpt lat="33.89011" lon="77.41559">
        <ele>3763.4</ele>
        <time>2015-09-02T10:02:51Z</time>
      </trkpt>
      <trkpt lat="33.89008" lon="77.41572">
        <ele>3764.4</ele>
        <time>2015-09-02T10:03:01Z</time>
      </trkpt>
      <trkpt lat="33.89009" lon="77.41574">
        <ele>3764.8</ele>
        <time>2015-09-02T10:03:03Z</time>
      </trkpt>
      <trkpt lat="33.89006" lon="77.41586">
        <ele>3765.6</ele>
        <time>2015-09-02T10:03:17Z</time>
      </trkpt>
      <trkpt lat="33.89003" lon="77.41593">
        <ele>3766</ele>
        <time>2015-09-02T10:03:25Z</time>
      </trkpt>
      <trkpt lat="33.88999" lon="77.416">
        <ele>3766.6</ele>
        <time>2015-09-02T10:03:34Z</time>
      </trkpt>
      <trkpt lat="33.88999" lon="77.41601">
        <ele>3766.6</ele>
        <time>2015-09-02T10:03:35Z</time>
      </trkpt>
      <trkpt lat="33.88985" lon="77.41615">
        <ele>3766</ele>
        <time>2015-09-02T10:03:53Z</time>
      </trkpt>
      <trkpt lat="33.88981" lon="77.41618">
        <ele>3766.8</ele>
        <time>2015-09-02T10:03:58Z</time>
      </trkpt>
      <trkpt lat="33.88971" lon="77.41637">
        <ele>3766.8</ele>
        <time>2015-09-02T10:04:16Z</time>
      </trkpt>
      <trkpt lat="33.88964" lon="77.41648">
        <ele>3765.4</ele>
        <time>2015-09-02T10:04:29Z</time>
      </trkpt>
      <trkpt lat="33.88963" lon="77.41649">
        <ele>3765.2</ele>
        <time>2015-09-02T10:04:30Z</time>
      </trkpt>
      <trkpt lat="33.88951" lon="77.41665">
        <ele>3765.4</ele>
        <time>2015-09-02T10:04:49Z</time>
      </trkpt>
      <trkpt lat="33.88945" lon="77.41671">
        <ele>3765.4</ele>
        <time>2015-09-02T10:04:58Z</time>
      </trkpt>
      <trkpt lat="33.88931" lon="77.41685">
        <ele>3764.8</ele>
        <time>2015-09-02T10:05:17Z</time>
      </trkpt>
      <trkpt lat="33.88931" lon="77.41686">
        <ele>3764.8</ele>
        <time>2015-09-02T10:05:18Z</time>
      </trkpt>
      <trkpt lat="33.88918" lon="77.41699">
        <ele>3764.4</ele>
        <time>2015-09-02T10:05:36Z</time>
      </trkpt>
      <trkpt lat="33.88913" lon="77.41703">
        <ele>3763.8</ele>
        <time>2015-09-02T10:05:45Z</time>
      </trkpt>
      <trkpt lat="33.88908" lon="77.41715">
        <ele>3763.2</ele>
        <time>2015-09-02T10:05:58Z</time>
      </trkpt>
      <trkpt lat="33.88903" lon="77.4173">
        <ele>3762.2</ele>
        <time>2015-09-02T10:06:10Z</time>
      </trkpt>
      <trkpt lat="33.88896" lon="77.41743">
        <ele>3761.4</ele>
        <time>2015-09-02T10:06:23Z</time>
      </trkpt>
      <trkpt lat="33.88894" lon="77.41744">
        <ele>3761.2</ele>
        <time>2015-09-02T10:06:25Z</time>
      </trkpt>
      <trkpt lat="33.88892" lon="77.41745">
        <ele>3761</ele>
        <time>2015-09-02T10:06:28Z</time>
      </trkpt>
      <trkpt lat="33.88888" lon="77.41749">
        <ele>3760</ele>
        <time>2015-09-02T10:06:33Z</time>
      </trkpt>
      <trkpt lat="33.88885" lon="77.41756">
        <ele>3759.2</ele>
        <time>2015-09-02T10:06:40Z</time>
      </trkpt>
      <trkpt lat="33.88883" lon="77.41757">
        <ele>3759</ele>
        <time>2015-09-02T10:06:42Z</time>
      </trkpt>
      <trkpt lat="33.88882" lon="77.41758">
        <ele>3758.8</ele>
        <time>2015-09-02T10:06:44Z</time>
      </trkpt>
      <trkpt lat="33.88883" lon="77.41766">
        <ele>3758.4</ele>
        <time>2015-09-02T10:06:52Z</time>
      </trkpt>
      <trkpt lat="33.88883" lon="77.41772">
        <ele>3758.6</ele>
        <time>2015-09-02T10:06:59Z</time>
      </trkpt>
      <trkpt lat="33.88875" lon="77.41791">
        <ele>3758</ele>
        <time>2015-09-02T10:07:16Z</time>
      </trkpt>
      <trkpt lat="33.88866" lon="77.418">
        <ele>3758.2</ele>
        <time>2015-09-02T10:07:28Z</time>
      </trkpt>
      <trkpt lat="33.8886" lon="77.41819">
        <ele>3759</ele>
        <time>2015-09-02T10:07:47Z</time>
      </trkpt>
      <trkpt lat="33.88852" lon="77.41831">
        <ele>3759.4</ele>
        <time>2015-09-02T10:08:01Z</time>
      </trkpt>
      <trkpt lat="33.88849" lon="77.41851">
        <ele>3759.8</ele>
        <time>2015-09-02T10:08:34Z</time>
      </trkpt>
      <trkpt lat="33.88853" lon="77.41872">
        <ele>3759</ele>
        <time>2015-09-02T10:08:59Z</time>
      </trkpt>
      <trkpt lat="33.88855" lon="77.41884">
        <ele>3759.2</ele>
        <time>2015-09-02T10:09:13Z</time>
      </trkpt>
      <trkpt lat="33.88853" lon="77.41885">
        <ele>3759.4</ele>
        <time>2015-09-02T10:09:15Z</time>
      </trkpt>
      <trkpt lat="33.8885" lon="77.41897">
        <ele>3760</ele>
        <time>2015-09-02T10:09:27Z</time>
      </trkpt>
      <trkpt lat="33.88846" lon="77.41906">
        <ele>3760.4</ele>
        <time>2015-09-02T10:09:34Z</time>
      </trkpt>
      <trkpt lat="33.88845" lon="77.41929">
        <ele>3760.6</ele>
        <time>2015-09-02T10:09:53Z</time>
      </trkpt>
      <trkpt lat="33.88845" lon="77.41937">
        <ele>3760.8</ele>
        <time>2015-09-02T10:09:59Z</time>
      </trkpt>
      <trkpt lat="33.88844" lon="77.41938">
        <ele>3760.4</ele>
        <time>2015-09-02T10:10:01Z</time>
      </trkpt>
      <trkpt lat="33.8884" lon="77.41946">
        <ele>3760.4</ele>
        <time>2015-09-02T10:10:09Z</time>
      </trkpt>
      <trkpt lat="33.88837" lon="77.41951">
        <ele>3760.4</ele>
        <time>2015-09-02T10:10:13Z</time>
      </trkpt>
      <trkpt lat="33.88833" lon="77.41973">
        <ele>3760.4</ele>
        <time>2015-09-02T10:10:34Z</time>
      </trkpt>
      <trkpt lat="33.88832" lon="77.41975">
        <ele>3760.4</ele>
        <time>2015-09-02T10:10:35Z</time>
      </trkpt>
      <trkpt lat="33.88831" lon="77.41978">
        <ele>3760.6</ele>
        <time>2015-09-02T10:10:38Z</time>
      </trkpt>
      <trkpt lat="33.88835" lon="77.41985">
        <ele>3760.6</ele>
        <time>2015-09-02T10:10:45Z</time>
      </trkpt>
      <trkpt lat="33.88832" lon="77.42002">
        <ele>3761</ele>
        <time>2015-09-02T10:10:59Z</time>
      </trkpt>
      <trkpt lat="33.88831" lon="77.42004">
        <ele>3761</ele>
        <time>2015-09-02T10:11:02Z</time>
      </trkpt>
      <trkpt lat="33.88822" lon="77.42023">
        <ele>3761.8</ele>
        <time>2015-09-02T10:11:21Z</time>
      </trkpt>
      <trkpt lat="33.88819" lon="77.42027">
        <ele>3762</ele>
        <time>2015-09-02T10:11:28Z</time>
      </trkpt>
      <trkpt lat="33.88809" lon="77.42027">
        <ele>3762.6</ele>
        <time>2015-09-02T10:12:05Z</time>
      </trkpt>
      <trkpt lat="33.88813" lon="77.42028">
        <ele>3762.6</ele>
        <time>2015-09-02T10:12:09Z</time>
      </trkpt>
      <trkpt lat="33.88814" lon="77.42031">
        <ele>3762.2</ele>
        <time>2015-09-02T10:12:13Z</time>
      </trkpt>
      <trkpt lat="33.88815" lon="77.42032">
        <ele>3762.2</ele>
        <time>2015-09-02T10:12:15Z</time>
      </trkpt>
      <trkpt lat="33.88814" lon="77.42038">
        <ele>3763</ele>
        <time>2015-09-02T10:12:49Z</time>
      </trkpt>
      <trkpt lat="33.88813" lon="77.42038">
        <ele>3763.2</ele>
        <time>2015-09-02T10:12:50Z</time>
      </trkpt>
      <trkpt lat="33.88807" lon="77.4204">
        <ele>3763.4</ele>
        <time>2015-09-02T10:12:57Z</time>
      </trkpt>
      <trkpt lat="33.88804" lon="77.42051">
        <ele>3764</ele>
        <time>2015-09-02T10:13:12Z</time>
      </trkpt>
      <trkpt lat="33.88803" lon="77.42055">
        <ele>3763.8</ele>
        <time>2015-09-02T10:13:16Z</time>
      </trkpt>
      <trkpt lat="33.88801" lon="77.42058">
        <ele>3763.8</ele>
        <time>2015-09-02T10:13:19Z</time>
      </trkpt>
      <trkpt lat="33.88799" lon="77.42058">
        <ele>3764</ele>
        <time>2015-09-02T10:13:22Z</time>
      </trkpt>
      <trkpt lat="33.88798" lon="77.42058">
        <ele>3764.2</ele>
        <time>2015-09-02T10:13:25Z</time>
      </trkpt>
      <trkpt lat="33.88798" lon="77.42066">
        <ele>3765.2</ele>
        <time>2015-09-02T10:13:40Z</time>
      </trkpt>
      <trkpt lat="33.88795" lon="77.42081">
        <ele>3765.4</ele>
        <time>2015-09-02T10:13:53Z</time>
      </trkpt>
      <trkpt lat="33.88792" lon="77.42085">
        <ele>3765.6</ele>
        <time>2015-09-02T10:13:58Z</time>
      </trkpt>
      <trkpt lat="33.8879" lon="77.4209">
        <ele>3765.8</ele>
        <time>2015-09-02T10:14:03Z</time>
      </trkpt>
      <trkpt lat="33.88791" lon="77.42091">
        <ele>3766.2</ele>
        <time>2015-09-02T10:14:22Z</time>
      </trkpt>
      <trkpt lat="33.88788" lon="77.42094">
        <ele>3765.2</ele>
        <time>2015-09-02T10:14:45Z</time>
      </trkpt>
      <trkpt lat="33.88778" lon="77.421">
        <ele>3765.4</ele>
        <time>2015-09-02T10:15:06Z</time>
      </trkpt>
      <trkpt lat="33.88775" lon="77.42101">
        <ele>3765.2</ele>
        <time>2015-09-02T10:15:09Z</time>
      </trkpt>
      <trkpt lat="33.88771" lon="77.42101">
        <ele>3765.2</ele>
        <time>2015-09-02T10:15:13Z</time>
      </trkpt>
      <trkpt lat="33.88766" lon="77.42109">
        <ele>3765.8</ele>
        <time>2015-09-02T10:15:26Z</time>
      </trkpt>
      <trkpt lat="33.88762" lon="77.42114">
        <ele>3766.2</ele>
        <time>2015-09-02T10:15:37Z</time>
      </trkpt>
      <trkpt lat="33.88757" lon="77.42118">
        <ele>3766.4</ele>
        <time>2015-09-02T10:15:41Z</time>
      </trkpt>
      <trkpt lat="33.88757" lon="77.42126">
        <ele>3767</ele>
        <time>2015-09-02T10:15:58Z</time>
      </trkpt>
      <trkpt lat="33.88755" lon="77.42127">
        <ele>3767.2</ele>
        <time>2015-09-02T10:16:00Z</time>
      </trkpt>
      <trkpt lat="33.88756" lon="77.42127">
        <ele>3767.2</ele>
        <time>2015-09-02T10:16:01Z</time>
      </trkpt>
      <trkpt lat="33.88761" lon="77.42128">
        <ele>3767</ele>
        <time>2015-09-02T10:16:07Z</time>
      </trkpt>
      <trkpt lat="33.88756" lon="77.42134">
        <ele>3767</ele>
        <time>2015-09-02T10:16:19Z</time>
      </trkpt>
      <trkpt lat="33.88754" lon="77.42136">
        <ele>3767.2</ele>
        <time>2015-09-02T10:16:21Z</time>
      </trkpt>
      <trkpt lat="33.88753" lon="77.42137">
        <ele>3767.4</ele>
        <time>2015-09-02T10:16:23Z</time>
      </trkpt>
      <trkpt lat="33.88752" lon="77.42139">
        <ele>3767.6</ele>
        <time>2015-09-02T10:16:25Z</time>
      </trkpt>
      <trkpt lat="33.88751" lon="77.42144">
        <ele>3768</ele>
        <time>2015-09-02T10:16:29Z</time>
      </trkpt>
      <trkpt lat="33.88747" lon="77.42152">
        <ele>3768</ele>
        <time>2015-09-02T10:16:36Z</time>
      </trkpt>
      <trkpt lat="33.88742" lon="77.42153">
        <ele>3768</ele>
        <time>2015-09-02T10:16:39Z</time>
      </trkpt>
      <trkpt lat="33.8874" lon="77.42155">
        <ele>3768.4</ele>
        <time>2015-09-02T10:16:43Z</time>
      </trkpt>
      <trkpt lat="33.88739" lon="77.42159">
        <ele>3769</ele>
        <time>2015-09-02T10:16:48Z</time>
      </trkpt>
      <trkpt lat="33.88739" lon="77.42161">
        <ele>3769.4</ele>
        <time>2015-09-02T10:16:53Z</time>
      </trkpt>
      <trkpt lat="33.88736" lon="77.42173">
        <ele>3769.8</ele>
        <time>2015-09-02T10:17:06Z</time>
      </trkpt>
      <trkpt lat="33.88728" lon="77.42179">
        <ele>3769.8</ele>
        <time>2015-09-02T10:17:17Z</time>
      </trkpt>
      <trkpt lat="33.88724" lon="77.42186">
        <ele>3770</ele>
        <time>2015-09-02T10:17:25Z</time>
      </trkpt>
      <trkpt lat="33.88717" lon="77.42192">
        <ele>3770</ele>
        <time>2015-09-02T10:17:45Z</time>
      </trkpt>
      <trkpt lat="33.88709" lon="77.42196">
        <ele>3770.4</ele>
        <time>2015-09-02T10:17:52Z</time>
      </trkpt>
      <trkpt lat="33.88709" lon="77.42199">
        <ele>3770.6</ele>
        <time>2015-09-02T10:17:55Z</time>
      </trkpt>
      <trkpt lat="33.88707" lon="77.422">
        <ele>3770.6</ele>
        <time>2015-09-02T10:17:58Z</time>
      </trkpt>
      <trkpt lat="33.8869" lon="77.42209">
        <ele>3770.4</ele>
        <time>2015-09-02T10:18:17Z</time>
      </trkpt>
      <trkpt lat="33.88681" lon="77.42206">
        <ele>3770.2</ele>
        <time>2015-09-02T10:18:48Z</time>
      </trkpt>
      <trkpt lat="33.88677" lon="77.42206">
        <ele>3770</ele>
        <time>2015-09-02T10:18:52Z</time>
      </trkpt>
      <trkpt lat="33.88673" lon="77.42202">
        <ele>3701</ele>
        <time>2015-09-02T10:18:59Z</time>
      </trkpt>
    </trkseg>
  </trk>
</gpx>